<?xml version="1.0" encoding="UTF-8" standalone="no" ?>
<gpx xmlns="http://www.topografix.com/GPX/1/1" xmlns:xsi="http://www.w3.org/2001/XMLSchema-instance" xsi:schemaLocation="http://www.topografix.com/GPX/1/1 http://www.topografix.com/GPX/1/1/gpx.xsd" version="1.1" creator="VisuGPX - https://www.visugpx.com">
  <metadata>
    <name>VTT saint mars du désert</name>
    <desc><![CDATA[
]]></desc>
  </metadata>
  <trk>
    <name><![CDATA[runtastic_20140907_0942]]></name>
    <trkseg>
      <trkpt lat="47.36386" lon="-1.42659">
        <ele>111</ele>
        <time>2014-09-07T07:42:04.000Z</time>
      </trkpt>
      <trkpt lat="47.36387" lon="-1.42656">
        <ele>108</ele>
        <time>2014-09-07T07:42:06.000Z</time>
      </trkpt>
      <trkpt lat="47.36387" lon="-1.42656">
        <ele>109</ele>
        <time>2014-09-07T07:42:10.000Z</time>
      </trkpt>
      <trkpt lat="47.36386" lon="-1.42657">
        <ele>111</ele>
        <time>2014-09-07T07:42:16.000Z</time>
      </trkpt>
      <trkpt lat="47.36387" lon="-1.42657">
        <ele>112</ele>
        <time>2014-09-07T07:42:18.000Z</time>
      </trkpt>
      <trkpt lat="47.36389" lon="-1.42657">
        <ele>112</ele>
        <time>2014-09-07T07:42:20.000Z</time>
      </trkpt>
      <trkpt lat="47.36392" lon="-1.42658">
        <ele>112</ele>
        <time>2014-09-07T07:42:22.000Z</time>
      </trkpt>
      <trkpt lat="47.36395" lon="-1.42662">
        <ele>110</ele>
        <time>2014-09-07T07:42:24.000Z</time>
      </trkpt>
      <trkpt lat="47.36397" lon="-1.42671">
        <ele>109</ele>
        <time>2014-09-07T07:42:26.000Z</time>
      </trkpt>
      <trkpt lat="47.36397" lon="-1.42677">
        <ele>108</ele>
        <time>2014-09-07T07:42:28.000Z</time>
      </trkpt>
      <trkpt lat="47.36399" lon="-1.42679">
        <ele>106</ele>
        <time>2014-09-07T07:42:30.000Z</time>
      </trkpt>
      <trkpt lat="47.36402" lon="-1.42684">
        <ele>105</ele>
        <time>2014-09-07T07:42:34.000Z</time>
      </trkpt>
      <trkpt lat="47.36404" lon="-1.42686">
        <ele>105</ele>
        <time>2014-09-07T07:42:36.000Z</time>
      </trkpt>
      <trkpt lat="47.36404" lon="-1.42687">
        <ele>105</ele>
        <time>2014-09-07T07:42:38.000Z</time>
      </trkpt>
      <trkpt lat="47.36404" lon="-1.42687">
        <ele>105</ele>
        <time>2014-09-07T07:42:40.000Z</time>
      </trkpt>
      <trkpt lat="47.36404" lon="-1.42687">
        <ele>105</ele>
        <time>2014-09-07T07:42:42.000Z</time>
      </trkpt>
      <trkpt lat="47.36405" lon="-1.42687">
        <ele>105</ele>
        <time>2014-09-07T07:42:44.000Z</time>
      </trkpt>
      <trkpt lat="47.36408" lon="-1.42689">
        <ele>104</ele>
        <time>2014-09-07T07:42:46.000Z</time>
      </trkpt>
      <trkpt lat="47.36422" lon="-1.42692">
        <ele>104</ele>
        <time>2014-09-07T07:42:50.000Z</time>
      </trkpt>
      <trkpt lat="47.36443" lon="-1.427">
        <ele>104</ele>
        <time>2014-09-07T07:42:54.000Z</time>
      </trkpt>
      <trkpt lat="47.36464" lon="-1.42702">
        <ele>103</ele>
        <time>2014-09-07T07:42:58.000Z</time>
      </trkpt>
      <trkpt lat="47.36472" lon="-1.42696">
        <ele>102</ele>
        <time>2014-09-07T07:43:00.000Z</time>
      </trkpt>
      <trkpt lat="47.3648" lon="-1.42687">
        <ele>102</ele>
        <time>2014-09-07T07:43:02.000Z</time>
      </trkpt>
      <trkpt lat="47.36484" lon="-1.42675">
        <ele>102</ele>
        <time>2014-09-07T07:43:04.000Z</time>
      </trkpt>
      <trkpt lat="47.36487" lon="-1.42659">
        <ele>101</ele>
        <time>2014-09-07T07:43:06.000Z</time>
      </trkpt>
      <trkpt lat="47.36493" lon="-1.42631">
        <ele>101</ele>
        <time>2014-09-07T07:43:10.000Z</time>
      </trkpt>
      <trkpt lat="47.36499" lon="-1.42628">
        <ele>100</ele>
        <time>2014-09-07T07:43:12.000Z</time>
      </trkpt>
      <trkpt lat="47.36509" lon="-1.4263">
        <ele>100</ele>
        <time>2014-09-07T07:43:14.000Z</time>
      </trkpt>
      <trkpt lat="47.36559" lon="-1.42645">
        <ele>99</ele>
        <time>2014-09-07T07:43:24.000Z</time>
      </trkpt>
      <trkpt lat="47.36581" lon="-1.4265">
        <ele>99</ele>
        <time>2014-09-07T07:43:28.000Z</time>
      </trkpt>
      <trkpt lat="47.36604" lon="-1.42651">
        <ele>100</ele>
        <time>2014-09-07T07:43:32.000Z</time>
      </trkpt>
      <trkpt lat="47.36637" lon="-1.42654">
        <ele>99</ele>
        <time>2014-09-07T07:43:38.000Z</time>
      </trkpt>
      <trkpt lat="47.36684" lon="-1.42658">
        <ele>98</ele>
        <time>2014-09-07T07:43:46.000Z</time>
      </trkpt>
      <trkpt lat="47.36718" lon="-1.42661">
        <ele>98</ele>
        <time>2014-09-07T07:43:52.000Z</time>
      </trkpt>
      <trkpt lat="47.36724" lon="-1.42669">
        <ele>98</ele>
        <time>2014-09-07T07:43:54.000Z</time>
      </trkpt>
      <trkpt lat="47.36726" lon="-1.42679">
        <ele>98</ele>
        <time>2014-09-07T07:43:56.000Z</time>
      </trkpt>
      <trkpt lat="47.36726" lon="-1.42691">
        <ele>97</ele>
        <time>2014-09-07T07:43:58.000Z</time>
      </trkpt>
      <trkpt lat="47.36726" lon="-1.42753">
        <ele>97</ele>
        <time>2014-09-07T07:44:06.000Z</time>
      </trkpt>
      <trkpt lat="47.36724" lon="-1.42796">
        <ele>97</ele>
        <time>2014-09-07T07:44:12.000Z</time>
      </trkpt>
      <trkpt lat="47.36737" lon="-1.42798">
        <ele>98</ele>
        <time>2014-09-07T07:44:16.000Z</time>
      </trkpt>
      <trkpt lat="47.36747" lon="-1.42795">
        <ele>98</ele>
        <time>2014-09-07T07:44:18.000Z</time>
      </trkpt>
      <trkpt lat="47.36757" lon="-1.42795">
        <ele>98</ele>
        <time>2014-09-07T07:44:20.000Z</time>
      </trkpt>
      <trkpt lat="47.36776" lon="-1.42795">
        <ele>98</ele>
        <time>2014-09-07T07:44:24.000Z</time>
      </trkpt>
      <trkpt lat="47.36797" lon="-1.42795">
        <ele>99</ele>
        <time>2014-09-07T07:44:28.000Z</time>
      </trkpt>
      <trkpt lat="47.36809" lon="-1.42794">
        <ele>99</ele>
        <time>2014-09-07T07:44:30.000Z</time>
      </trkpt>
      <trkpt lat="47.3682" lon="-1.42794">
        <ele>100</ele>
        <time>2014-09-07T07:44:34.000Z</time>
      </trkpt>
      <trkpt lat="47.36833" lon="-1.42795">
        <ele>100</ele>
        <time>2014-09-07T07:44:36.000Z</time>
      </trkpt>
      <trkpt lat="47.36864" lon="-1.42797">
        <ele>100</ele>
        <time>2014-09-07T07:44:40.000Z</time>
      </trkpt>
      <trkpt lat="47.36878" lon="-1.42798">
        <ele>100</ele>
        <time>2014-09-07T07:44:42.000Z</time>
      </trkpt>
      <trkpt lat="47.36889" lon="-1.42805">
        <ele>100</ele>
        <time>2014-09-07T07:44:44.000Z</time>
      </trkpt>
      <trkpt lat="47.36899" lon="-1.42821">
        <ele>100</ele>
        <time>2014-09-07T07:44:46.000Z</time>
      </trkpt>
      <trkpt lat="47.36932" lon="-1.42877">
        <ele>99</ele>
        <time>2014-09-07T07:44:52.000Z</time>
      </trkpt>
      <trkpt lat="47.36967" lon="-1.42935">
        <ele>99</ele>
        <time>2014-09-07T07:44:58.000Z</time>
      </trkpt>
      <trkpt lat="47.36995" lon="-1.42997">
        <ele>98</ele>
        <time>2014-09-07T07:45:04.000Z</time>
      </trkpt>
      <trkpt lat="47.37011" lon="-1.43065">
        <ele>98</ele>
        <time>2014-09-07T07:45:10.000Z</time>
      </trkpt>
      <trkpt lat="47.37017" lon="-1.43087">
        <ele>97</ele>
        <time>2014-09-07T07:45:12.000Z</time>
      </trkpt>
      <trkpt lat="47.37026" lon="-1.43105">
        <ele>97</ele>
        <time>2014-09-07T07:45:14.000Z</time>
      </trkpt>
      <trkpt lat="47.37059" lon="-1.43155">
        <ele>96</ele>
        <time>2014-09-07T07:45:20.000Z</time>
      </trkpt>
      <trkpt lat="47.3707" lon="-1.43171">
        <ele>95</ele>
        <time>2014-09-07T07:45:22.000Z</time>
      </trkpt>
      <trkpt lat="47.37092" lon="-1.43204">
        <ele>94</ele>
        <time>2014-09-07T07:45:26.000Z</time>
      </trkpt>
      <trkpt lat="47.37115" lon="-1.43239">
        <ele>93</ele>
        <time>2014-09-07T07:45:30.000Z</time>
      </trkpt>
      <trkpt lat="47.37127" lon="-1.43257">
        <ele>92</ele>
        <time>2014-09-07T07:45:32.000Z</time>
      </trkpt>
      <trkpt lat="47.37141" lon="-1.4327">
        <ele>92</ele>
        <time>2014-09-07T07:45:34.000Z</time>
      </trkpt>
      <trkpt lat="47.37156" lon="-1.43272">
        <ele>92</ele>
        <time>2014-09-07T07:45:36.000Z</time>
      </trkpt>
      <trkpt lat="47.37171" lon="-1.43264">
        <ele>91</ele>
        <time>2014-09-07T07:45:38.000Z</time>
      </trkpt>
      <trkpt lat="47.37212" lon="-1.43237">
        <ele>91</ele>
        <time>2014-09-07T07:45:44.000Z</time>
      </trkpt>
      <trkpt lat="47.37226" lon="-1.43228">
        <ele>90</ele>
        <time>2014-09-07T07:45:46.000Z</time>
      </trkpt>
      <trkpt lat="47.37276" lon="-1.43205">
        <ele>89</ele>
        <time>2014-09-07T07:45:54.000Z</time>
      </trkpt>
      <trkpt lat="47.37281" lon="-1.43217">
        <ele>90</ele>
        <time>2014-09-07T07:45:56.000Z</time>
      </trkpt>
      <trkpt lat="47.37283" lon="-1.43236">
        <ele>90</ele>
        <time>2014-09-07T07:45:58.000Z</time>
      </trkpt>
      <trkpt lat="47.37291" lon="-1.43303">
        <ele>90</ele>
        <time>2014-09-07T07:46:04.000Z</time>
      </trkpt>
      <trkpt lat="47.37295" lon="-1.43326">
        <ele>90</ele>
        <time>2014-09-07T07:46:06.000Z</time>
      </trkpt>
      <trkpt lat="47.37302" lon="-1.43349">
        <ele>89</ele>
        <time>2014-09-07T07:46:08.000Z</time>
      </trkpt>
      <trkpt lat="47.37313" lon="-1.43366">
        <ele>88</ele>
        <time>2014-09-07T07:46:10.000Z</time>
      </trkpt>
      <trkpt lat="47.37327" lon="-1.43377">
        <ele>88</ele>
        <time>2014-09-07T07:46:12.000Z</time>
      </trkpt>
      <trkpt lat="47.37337" lon="-1.43386">
        <ele>87</ele>
        <time>2014-09-07T07:46:14.000Z</time>
      </trkpt>
      <trkpt lat="47.37344" lon="-1.43401">
        <ele>88</ele>
        <time>2014-09-07T07:46:16.000Z</time>
      </trkpt>
      <trkpt lat="47.3735" lon="-1.43421">
        <ele>87</ele>
        <time>2014-09-07T07:46:18.000Z</time>
      </trkpt>
      <trkpt lat="47.37362" lon="-1.43437">
        <ele>87</ele>
        <time>2014-09-07T07:46:20.000Z</time>
      </trkpt>
      <trkpt lat="47.37374" lon="-1.43443">
        <ele>86</ele>
        <time>2014-09-07T07:46:22.000Z</time>
      </trkpt>
      <trkpt lat="47.37389" lon="-1.4344">
        <ele>86</ele>
        <time>2014-09-07T07:46:24.000Z</time>
      </trkpt>
      <trkpt lat="47.37403" lon="-1.43437">
        <ele>85</ele>
        <time>2014-09-07T07:46:26.000Z</time>
      </trkpt>
      <trkpt lat="47.37427" lon="-1.4343">
        <ele>84</ele>
        <time>2014-09-07T07:46:30.000Z</time>
      </trkpt>
      <trkpt lat="47.37435" lon="-1.4344">
        <ele>84</ele>
        <time>2014-09-07T07:46:32.000Z</time>
      </trkpt>
      <trkpt lat="47.37442" lon="-1.43457">
        <ele>83</ele>
        <time>2014-09-07T07:46:34.000Z</time>
      </trkpt>
      <trkpt lat="47.37446" lon="-1.43475">
        <ele>82</ele>
        <time>2014-09-07T07:46:36.000Z</time>
      </trkpt>
      <trkpt lat="47.37451" lon="-1.43511">
        <ele>81</ele>
        <time>2014-09-07T07:46:40.000Z</time>
      </trkpt>
      <trkpt lat="47.37458" lon="-1.43543">
        <ele>80</ele>
        <time>2014-09-07T07:46:44.000Z</time>
      </trkpt>
      <trkpt lat="47.37463" lon="-1.43562">
        <ele>79</ele>
        <time>2014-09-07T07:46:46.000Z</time>
      </trkpt>
      <trkpt lat="47.37471" lon="-1.43598">
        <ele>78</ele>
        <time>2014-09-07T07:46:50.000Z</time>
      </trkpt>
      <trkpt lat="47.37473" lon="-1.43615">
        <ele>79</ele>
        <time>2014-09-07T07:46:52.000Z</time>
      </trkpt>
      <trkpt lat="47.37474" lon="-1.43629">
        <ele>79</ele>
        <time>2014-09-07T07:46:54.000Z</time>
      </trkpt>
      <trkpt lat="47.37477" lon="-1.43641">
        <ele>79</ele>
        <time>2014-09-07T07:46:56.000Z</time>
      </trkpt>
      <trkpt lat="47.37484" lon="-1.43675">
        <ele>78</ele>
        <time>2014-09-07T07:47:00.000Z</time>
      </trkpt>
      <trkpt lat="47.37494" lon="-1.43711">
        <ele>78</ele>
        <time>2014-09-07T07:47:04.000Z</time>
      </trkpt>
      <trkpt lat="47.37502" lon="-1.43752">
        <ele>77</ele>
        <time>2014-09-07T07:47:08.000Z</time>
      </trkpt>
      <trkpt lat="47.37507" lon="-1.43764">
        <ele>78</ele>
        <time>2014-09-07T07:47:10.000Z</time>
      </trkpt>
      <trkpt lat="47.37515" lon="-1.43763">
        <ele>77</ele>
        <time>2014-09-07T07:47:12.000Z</time>
      </trkpt>
      <trkpt lat="47.37523" lon="-1.43755">
        <ele>77</ele>
        <time>2014-09-07T07:47:14.000Z</time>
      </trkpt>
      <trkpt lat="47.37539" lon="-1.4374">
        <ele>77</ele>
        <time>2014-09-07T07:47:18.000Z</time>
      </trkpt>
      <trkpt lat="47.37547" lon="-1.43734">
        <ele>76</ele>
        <time>2014-09-07T07:47:20.000Z</time>
      </trkpt>
      <trkpt lat="47.37554" lon="-1.43725">
        <ele>75</ele>
        <time>2014-09-07T07:47:22.000Z</time>
      </trkpt>
      <trkpt lat="47.37563" lon="-1.43716">
        <ele>75</ele>
        <time>2014-09-07T07:47:24.000Z</time>
      </trkpt>
      <trkpt lat="47.37571" lon="-1.43713">
        <ele>75</ele>
        <time>2014-09-07T07:47:26.000Z</time>
      </trkpt>
      <trkpt lat="47.37577" lon="-1.43722">
        <ele>75</ele>
        <time>2014-09-07T07:47:28.000Z</time>
      </trkpt>
      <trkpt lat="47.37587" lon="-1.43748">
        <ele>76</ele>
        <time>2014-09-07T07:47:32.000Z</time>
      </trkpt>
      <trkpt lat="47.37598" lon="-1.43777">
        <ele>76</ele>
        <time>2014-09-07T07:47:36.000Z</time>
      </trkpt>
      <trkpt lat="47.3762" lon="-1.43843">
        <ele>76</ele>
        <time>2014-09-07T07:47:46.000Z</time>
      </trkpt>
      <trkpt lat="47.3763" lon="-1.43868">
        <ele>75</ele>
        <time>2014-09-07T07:47:50.000Z</time>
      </trkpt>
      <trkpt lat="47.37638" lon="-1.43877">
        <ele>75</ele>
        <time>2014-09-07T07:47:52.000Z</time>
      </trkpt>
      <trkpt lat="47.37644" lon="-1.43883">
        <ele>75</ele>
        <time>2014-09-07T07:47:54.000Z</time>
      </trkpt>
      <trkpt lat="47.37647" lon="-1.43885">
        <ele>75</ele>
        <time>2014-09-07T07:47:58.000Z</time>
      </trkpt>
      <trkpt lat="47.37648" lon="-1.43888">
        <ele>75</ele>
        <time>2014-09-07T07:48:02.000Z</time>
      </trkpt>
      <trkpt lat="47.37647" lon="-1.43888">
        <ele>74</ele>
        <time>2014-09-07T07:48:04.000Z</time>
      </trkpt>
      <trkpt lat="47.37646" lon="-1.43888">
        <ele>75</ele>
        <time>2014-09-07T07:48:06.000Z</time>
      </trkpt>
      <trkpt lat="47.37643" lon="-1.43891">
        <ele>75</ele>
        <time>2014-09-07T07:48:12.000Z</time>
      </trkpt>
      <trkpt lat="47.37643" lon="-1.43891">
        <ele>75</ele>
        <time>2014-09-07T07:48:14.000Z</time>
      </trkpt>
      <trkpt lat="47.37642" lon="-1.43893">
        <ele>75</ele>
        <time>2014-09-07T07:48:16.000Z</time>
      </trkpt>
      <trkpt lat="47.37643" lon="-1.43896">
        <ele>75</ele>
        <time>2014-09-07T07:48:18.000Z</time>
      </trkpt>
      <trkpt lat="47.37643" lon="-1.43899">
        <ele>75</ele>
        <time>2014-09-07T07:48:20.000Z</time>
      </trkpt>
      <trkpt lat="47.37642" lon="-1.43902">
        <ele>76</ele>
        <time>2014-09-07T07:48:22.000Z</time>
      </trkpt>
      <trkpt lat="47.37642" lon="-1.43907">
        <ele>77</ele>
        <time>2014-09-07T07:48:26.000Z</time>
      </trkpt>
      <trkpt lat="47.37643" lon="-1.43908">
        <ele>77</ele>
        <time>2014-09-07T07:48:28.000Z</time>
      </trkpt>
      <trkpt lat="47.37645" lon="-1.4391">
        <ele>77</ele>
        <time>2014-09-07T07:48:30.000Z</time>
      </trkpt>
      <trkpt lat="47.37646" lon="-1.43914">
        <ele>77</ele>
        <time>2014-09-07T07:48:34.000Z</time>
      </trkpt>
      <trkpt lat="47.37645" lon="-1.43915">
        <ele>77</ele>
        <time>2014-09-07T07:48:36.000Z</time>
      </trkpt>
      <trkpt lat="47.37646" lon="-1.43916">
        <ele>77</ele>
        <time>2014-09-07T07:48:38.000Z</time>
      </trkpt>
      <trkpt lat="47.37646" lon="-1.43919">
        <ele>78</ele>
        <time>2014-09-07T07:48:40.000Z</time>
      </trkpt>
      <trkpt lat="47.37646" lon="-1.43921">
        <ele>78</ele>
        <time>2014-09-07T07:48:42.000Z</time>
      </trkpt>
      <trkpt lat="47.37646" lon="-1.43922">
        <ele>78</ele>
        <time>2014-09-07T07:48:44.000Z</time>
      </trkpt>
      <trkpt lat="47.37647" lon="-1.43924">
        <ele>78</ele>
        <time>2014-09-07T07:48:46.000Z</time>
      </trkpt>
      <trkpt lat="47.37649" lon="-1.43924">
        <ele>78</ele>
        <time>2014-09-07T07:48:48.000Z</time>
      </trkpt>
      <trkpt lat="47.37654" lon="-1.43927">
        <ele>78</ele>
        <time>2014-09-07T07:48:52.000Z</time>
      </trkpt>
      <trkpt lat="47.37656" lon="-1.43929">
        <ele>77</ele>
        <time>2014-09-07T07:48:54.000Z</time>
      </trkpt>
      <trkpt lat="47.37658" lon="-1.43928">
        <ele>77</ele>
        <time>2014-09-07T07:48:56.000Z</time>
      </trkpt>
      <trkpt lat="47.3766" lon="-1.43922">
        <ele>77</ele>
        <time>2014-09-07T07:48:58.000Z</time>
      </trkpt>
      <trkpt lat="47.37663" lon="-1.43919">
        <ele>77</ele>
        <time>2014-09-07T07:49:00.000Z</time>
      </trkpt>
      <trkpt lat="47.37667" lon="-1.43918">
        <ele>76</ele>
        <time>2014-09-07T07:49:02.000Z</time>
      </trkpt>
      <trkpt lat="47.37672" lon="-1.43913">
        <ele>76</ele>
        <time>2014-09-07T07:49:06.000Z</time>
      </trkpt>
      <trkpt lat="47.37671" lon="-1.43909">
        <ele>75</ele>
        <time>2014-09-07T07:49:10.000Z</time>
      </trkpt>
      <trkpt lat="47.3767" lon="-1.43906">
        <ele>76</ele>
        <time>2014-09-07T07:49:12.000Z</time>
      </trkpt>
      <trkpt lat="47.37667" lon="-1.43902">
        <ele>76</ele>
        <time>2014-09-07T07:49:14.000Z</time>
      </trkpt>
      <trkpt lat="47.37664" lon="-1.43894">
        <ele>75</ele>
        <time>2014-09-07T07:49:18.000Z</time>
      </trkpt>
      <trkpt lat="47.37668" lon="-1.4389">
        <ele>75</ele>
        <time>2014-09-07T07:49:20.000Z</time>
      </trkpt>
      <trkpt lat="47.3767" lon="-1.43886">
        <ele>75</ele>
        <time>2014-09-07T07:49:22.000Z</time>
      </trkpt>
      <trkpt lat="47.37676" lon="-1.43878">
        <ele>75</ele>
        <time>2014-09-07T07:49:26.000Z</time>
      </trkpt>
      <trkpt lat="47.3768" lon="-1.43877">
        <ele>75</ele>
        <time>2014-09-07T07:49:28.000Z</time>
      </trkpt>
      <trkpt lat="47.3769" lon="-1.43877">
        <ele>75</ele>
        <time>2014-09-07T07:49:32.000Z</time>
      </trkpt>
      <trkpt lat="47.37715" lon="-1.4388">
        <ele>75</ele>
        <time>2014-09-07T07:49:40.000Z</time>
      </trkpt>
      <trkpt lat="47.37721" lon="-1.43882">
        <ele>75</ele>
        <time>2014-09-07T07:49:42.000Z</time>
      </trkpt>
      <trkpt lat="47.3774" lon="-1.43884">
        <ele>75</ele>
        <time>2014-09-07T07:49:50.000Z</time>
      </trkpt>
      <trkpt lat="47.37743" lon="-1.43884">
        <ele>75</ele>
        <time>2014-09-07T07:49:54.000Z</time>
      </trkpt>
      <trkpt lat="47.37745" lon="-1.4389">
        <ele>75</ele>
        <time>2014-09-07T07:49:56.000Z</time>
      </trkpt>
      <trkpt lat="47.37767" lon="-1.43958">
        <ele>76</ele>
        <time>2014-09-07T07:50:06.000Z</time>
      </trkpt>
      <trkpt lat="47.37768" lon="-1.4397">
        <ele>76</ele>
        <time>2014-09-07T07:50:08.000Z</time>
      </trkpt>
      <trkpt lat="47.37762" lon="-1.43976">
        <ele>76</ele>
        <time>2014-09-07T07:50:10.000Z</time>
      </trkpt>
      <trkpt lat="47.37731" lon="-1.44007">
        <ele>76</ele>
        <time>2014-09-07T07:50:22.000Z</time>
      </trkpt>
      <trkpt lat="47.37733" lon="-1.44016">
        <ele>76</ele>
        <time>2014-09-07T07:50:24.000Z</time>
      </trkpt>
      <trkpt lat="47.37732" lon="-1.44024">
        <ele>76</ele>
        <time>2014-09-07T07:50:26.000Z</time>
      </trkpt>
      <trkpt lat="47.37733" lon="-1.44033">
        <ele>76</ele>
        <time>2014-09-07T07:50:28.000Z</time>
      </trkpt>
      <trkpt lat="47.37748" lon="-1.44084">
        <ele>75</ele>
        <time>2014-09-07T07:50:34.000Z</time>
      </trkpt>
      <trkpt lat="47.37766" lon="-1.44153">
        <ele>75</ele>
        <time>2014-09-07T07:50:40.000Z</time>
      </trkpt>
      <trkpt lat="47.37772" lon="-1.44177">
        <ele>74</ele>
        <time>2014-09-07T07:50:42.000Z</time>
      </trkpt>
      <trkpt lat="47.37786" lon="-1.44228">
        <ele>73</ele>
        <time>2014-09-07T07:50:46.000Z</time>
      </trkpt>
      <trkpt lat="47.37796" lon="-1.44262">
        <ele>73</ele>
        <time>2014-09-07T07:50:50.000Z</time>
      </trkpt>
      <trkpt lat="47.37804" lon="-1.44266">
        <ele>73</ele>
        <time>2014-09-07T07:50:52.000Z</time>
      </trkpt>
      <trkpt lat="47.37813" lon="-1.44264">
        <ele>73</ele>
        <time>2014-09-07T07:50:54.000Z</time>
      </trkpt>
      <trkpt lat="47.37823" lon="-1.44259">
        <ele>73</ele>
        <time>2014-09-07T07:50:56.000Z</time>
      </trkpt>
      <trkpt lat="47.37869" lon="-1.44239">
        <ele>73</ele>
        <time>2014-09-07T07:51:04.000Z</time>
      </trkpt>
      <trkpt lat="47.3788" lon="-1.44234">
        <ele>72</ele>
        <time>2014-09-07T07:51:06.000Z</time>
      </trkpt>
      <trkpt lat="47.37927" lon="-1.44209">
        <ele>72</ele>
        <time>2014-09-07T07:51:14.000Z</time>
      </trkpt>
      <trkpt lat="47.37952" lon="-1.44197">
        <ele>71</ele>
        <time>2014-09-07T07:51:18.000Z</time>
      </trkpt>
      <trkpt lat="47.37962" lon="-1.44189">
        <ele>71</ele>
        <time>2014-09-07T07:51:20.000Z</time>
      </trkpt>
      <trkpt lat="47.37969" lon="-1.44184">
        <ele>72</ele>
        <time>2014-09-07T07:51:22.000Z</time>
      </trkpt>
      <trkpt lat="47.37976" lon="-1.44187">
        <ele>71</ele>
        <time>2014-09-07T07:51:24.000Z</time>
      </trkpt>
      <trkpt lat="47.37983" lon="-1.44199">
        <ele>71</ele>
        <time>2014-09-07T07:51:26.000Z</time>
      </trkpt>
      <trkpt lat="47.37989" lon="-1.44214">
        <ele>71</ele>
        <time>2014-09-07T07:51:28.000Z</time>
      </trkpt>
      <trkpt lat="47.37993" lon="-1.4423">
        <ele>72</ele>
        <time>2014-09-07T07:51:30.000Z</time>
      </trkpt>
      <trkpt lat="47.38" lon="-1.44266">
        <ele>72</ele>
        <time>2014-09-07T07:51:34.000Z</time>
      </trkpt>
      <trkpt lat="47.38009" lon="-1.44326">
        <ele>73</ele>
        <time>2014-09-07T07:51:40.000Z</time>
      </trkpt>
      <trkpt lat="47.38023" lon="-1.44408">
        <ele>73</ele>
        <time>2014-09-07T07:51:48.000Z</time>
      </trkpt>
      <trkpt lat="47.38045" lon="-1.44486">
        <ele>73</ele>
        <time>2014-09-07T07:51:56.000Z</time>
      </trkpt>
      <trkpt lat="47.38055" lon="-1.44494">
        <ele>73</ele>
        <time>2014-09-07T07:51:58.000Z</time>
      </trkpt>
      <trkpt lat="47.38065" lon="-1.44497">
        <ele>72</ele>
        <time>2014-09-07T07:52:00.000Z</time>
      </trkpt>
      <trkpt lat="47.3807" lon="-1.4451">
        <ele>72</ele>
        <time>2014-09-07T07:52:02.000Z</time>
      </trkpt>
      <trkpt lat="47.38069" lon="-1.44528">
        <ele>72</ele>
        <time>2014-09-07T07:52:04.000Z</time>
      </trkpt>
      <trkpt lat="47.38064" lon="-1.44542">
        <ele>71</ele>
        <time>2014-09-07T07:52:06.000Z</time>
      </trkpt>
      <trkpt lat="47.38062" lon="-1.44562">
        <ele>70</ele>
        <time>2014-09-07T07:52:10.000Z</time>
      </trkpt>
      <trkpt lat="47.38064" lon="-1.44572">
        <ele>70</ele>
        <time>2014-09-07T07:52:12.000Z</time>
      </trkpt>
      <trkpt lat="47.38066" lon="-1.44584">
        <ele>70</ele>
        <time>2014-09-07T07:52:14.000Z</time>
      </trkpt>
      <trkpt lat="47.3807" lon="-1.4461">
        <ele>69</ele>
        <time>2014-09-07T07:52:18.000Z</time>
      </trkpt>
      <trkpt lat="47.38077" lon="-1.44648">
        <ele>68</ele>
        <time>2014-09-07T07:52:24.000Z</time>
      </trkpt>
      <trkpt lat="47.38078" lon="-1.4466">
        <ele>68</ele>
        <time>2014-09-07T07:52:26.000Z</time>
      </trkpt>
      <trkpt lat="47.3808" lon="-1.44673">
        <ele>67</ele>
        <time>2014-09-07T07:52:28.000Z</time>
      </trkpt>
      <trkpt lat="47.38092" lon="-1.44748">
        <ele>67</ele>
        <time>2014-09-07T07:52:38.000Z</time>
      </trkpt>
      <trkpt lat="47.38094" lon="-1.44763">
        <ele>67</ele>
        <time>2014-09-07T07:52:40.000Z</time>
      </trkpt>
      <trkpt lat="47.38099" lon="-1.44772">
        <ele>67</ele>
        <time>2014-09-07T07:52:42.000Z</time>
      </trkpt>
      <trkpt lat="47.38103" lon="-1.44762">
        <ele>66</ele>
        <time>2014-09-07T07:52:44.000Z</time>
      </trkpt>
      <trkpt lat="47.38104" lon="-1.44745">
        <ele>66</ele>
        <time>2014-09-07T07:52:46.000Z</time>
      </trkpt>
      <trkpt lat="47.38105" lon="-1.44731">
        <ele>67</ele>
        <time>2014-09-07T07:52:48.000Z</time>
      </trkpt>
      <trkpt lat="47.38106" lon="-1.44725">
        <ele>68</ele>
        <time>2014-09-07T07:52:50.000Z</time>
      </trkpt>
      <trkpt lat="47.38119" lon="-1.44702">
        <ele>67</ele>
        <time>2014-09-07T07:52:54.000Z</time>
      </trkpt>
      <trkpt lat="47.38131" lon="-1.44694">
        <ele>67</ele>
        <time>2014-09-07T07:52:56.000Z</time>
      </trkpt>
      <trkpt lat="47.38143" lon="-1.4469">
        <ele>67</ele>
        <time>2014-09-07T07:52:58.000Z</time>
      </trkpt>
      <trkpt lat="47.38153" lon="-1.44684">
        <ele>67</ele>
        <time>2014-09-07T07:53:00.000Z</time>
      </trkpt>
      <trkpt lat="47.38161" lon="-1.44677">
        <ele>67</ele>
        <time>2014-09-07T07:53:02.000Z</time>
      </trkpt>
      <trkpt lat="47.38168" lon="-1.44672">
        <ele>67</ele>
        <time>2014-09-07T07:53:04.000Z</time>
      </trkpt>
      <trkpt lat="47.38173" lon="-1.44667">
        <ele>67</ele>
        <time>2014-09-07T07:53:06.000Z</time>
      </trkpt>
      <trkpt lat="47.38176" lon="-1.4466">
        <ele>67</ele>
        <time>2014-09-07T07:53:08.000Z</time>
      </trkpt>
      <trkpt lat="47.38177" lon="-1.4465">
        <ele>67</ele>
        <time>2014-09-07T07:53:10.000Z</time>
      </trkpt>
      <trkpt lat="47.38179" lon="-1.44639">
        <ele>67</ele>
        <time>2014-09-07T07:53:12.000Z</time>
      </trkpt>
      <trkpt lat="47.38181" lon="-1.44624">
        <ele>66</ele>
        <time>2014-09-07T07:53:14.000Z</time>
      </trkpt>
      <trkpt lat="47.38181" lon="-1.44609">
        <ele>66</ele>
        <time>2014-09-07T07:53:16.000Z</time>
      </trkpt>
      <trkpt lat="47.38185" lon="-1.446">
        <ele>66</ele>
        <time>2014-09-07T07:53:18.000Z</time>
      </trkpt>
      <trkpt lat="47.38188" lon="-1.44599">
        <ele>66</ele>
        <time>2014-09-07T07:53:20.000Z</time>
      </trkpt>
      <trkpt lat="47.3819" lon="-1.446">
        <ele>65</ele>
        <time>2014-09-07T07:53:22.000Z</time>
      </trkpt>
      <trkpt lat="47.38193" lon="-1.44603">
        <ele>65</ele>
        <time>2014-09-07T07:53:24.000Z</time>
      </trkpt>
      <trkpt lat="47.38194" lon="-1.44607">
        <ele>64</ele>
        <time>2014-09-07T07:53:26.000Z</time>
      </trkpt>
      <trkpt lat="47.38194" lon="-1.4461">
        <ele>64</ele>
        <time>2014-09-07T07:53:28.000Z</time>
      </trkpt>
      <trkpt lat="47.38197" lon="-1.44626">
        <ele>64</ele>
        <time>2014-09-07T07:53:34.000Z</time>
      </trkpt>
      <trkpt lat="47.38207" lon="-1.44697">
        <ele>64</ele>
        <time>2014-09-07T07:53:50.000Z</time>
      </trkpt>
      <trkpt lat="47.38206" lon="-1.44706">
        <ele>64</ele>
        <time>2014-09-07T07:53:52.000Z</time>
      </trkpt>
      <trkpt lat="47.38206" lon="-1.44716">
        <ele>65</ele>
        <time>2014-09-07T07:53:54.000Z</time>
      </trkpt>
      <trkpt lat="47.38207" lon="-1.44726">
        <ele>64</ele>
        <time>2014-09-07T07:53:56.000Z</time>
      </trkpt>
      <trkpt lat="47.3821" lon="-1.44739">
        <ele>64</ele>
        <time>2014-09-07T07:53:58.000Z</time>
      </trkpt>
      <trkpt lat="47.38217" lon="-1.4476">
        <ele>64</ele>
        <time>2014-09-07T07:54:02.000Z</time>
      </trkpt>
      <trkpt lat="47.38231" lon="-1.44795">
        <ele>63</ele>
        <time>2014-09-07T07:54:08.000Z</time>
      </trkpt>
      <trkpt lat="47.38263" lon="-1.44859">
        <ele>63</ele>
        <time>2014-09-07T07:54:18.000Z</time>
      </trkpt>
      <trkpt lat="47.38267" lon="-1.44869">
        <ele>63</ele>
        <time>2014-09-07T07:54:20.000Z</time>
      </trkpt>
      <trkpt lat="47.38271" lon="-1.44872">
        <ele>63</ele>
        <time>2014-09-07T07:54:22.000Z</time>
      </trkpt>
      <trkpt lat="47.38272" lon="-1.44872">
        <ele>63</ele>
        <time>2014-09-07T07:54:24.000Z</time>
      </trkpt>
      <trkpt lat="47.38277" lon="-1.44869">
        <ele>63</ele>
        <time>2014-09-07T07:54:26.000Z</time>
      </trkpt>
      <trkpt lat="47.38279" lon="-1.44867">
        <ele>62</ele>
        <time>2014-09-07T07:54:28.000Z</time>
      </trkpt>
      <trkpt lat="47.38279" lon="-1.44868">
        <ele>62</ele>
        <time>2014-09-07T07:54:30.000Z</time>
      </trkpt>
      <trkpt lat="47.3828" lon="-1.44867">
        <ele>62</ele>
        <time>2014-09-07T07:54:32.000Z</time>
      </trkpt>
      <trkpt lat="47.3828" lon="-1.44867">
        <ele>62</ele>
        <time>2014-09-07T07:54:36.000Z</time>
      </trkpt>
      <trkpt lat="47.38282" lon="-1.44867">
        <ele>61</ele>
        <time>2014-09-07T07:54:38.000Z</time>
      </trkpt>
      <trkpt lat="47.38285" lon="-1.44868">
        <ele>61</ele>
        <time>2014-09-07T07:54:42.000Z</time>
      </trkpt>
      <trkpt lat="47.38285" lon="-1.44869">
        <ele>61</ele>
        <time>2014-09-07T07:54:44.000Z</time>
      </trkpt>
      <trkpt lat="47.38285" lon="-1.44868">
        <ele>60</ele>
        <time>2014-09-07T07:54:46.000Z</time>
      </trkpt>
      <trkpt lat="47.38285" lon="-1.44868">
        <ele>60</ele>
        <time>2014-09-07T07:54:48.000Z</time>
      </trkpt>
      <trkpt lat="47.38285" lon="-1.44868">
        <ele>60</ele>
        <time>2014-09-07T07:54:50.000Z</time>
      </trkpt>
      <trkpt lat="47.38285" lon="-1.44868">
        <ele>60</ele>
        <time>2014-09-07T07:54:52.000Z</time>
      </trkpt>
      <trkpt lat="47.38285" lon="-1.44868">
        <ele>60</ele>
        <time>2014-09-07T07:54:54.000Z</time>
      </trkpt>
      <trkpt lat="47.38285" lon="-1.44868">
        <ele>60</ele>
        <time>2014-09-07T07:54:56.000Z</time>
      </trkpt>
      <trkpt lat="47.38285" lon="-1.44868">
        <ele>60</ele>
        <time>2014-09-07T07:54:58.000Z</time>
      </trkpt>
      <trkpt lat="47.38285" lon="-1.44868">
        <ele>60</ele>
        <time>2014-09-07T07:55:00.000Z</time>
      </trkpt>
      <trkpt lat="47.38285" lon="-1.44868">
        <ele>60</ele>
        <time>2014-09-07T07:55:02.000Z</time>
      </trkpt>
      <trkpt lat="47.38285" lon="-1.44868">
        <ele>60</ele>
        <time>2014-09-07T07:55:04.000Z</time>
      </trkpt>
      <trkpt lat="47.38285" lon="-1.4487">
        <ele>60</ele>
        <time>2014-09-07T07:55:06.000Z</time>
      </trkpt>
      <trkpt lat="47.38286" lon="-1.44872">
        <ele>61</ele>
        <time>2014-09-07T07:55:08.000Z</time>
      </trkpt>
      <trkpt lat="47.38288" lon="-1.44875">
        <ele>61</ele>
        <time>2014-09-07T07:55:12.000Z</time>
      </trkpt>
      <trkpt lat="47.38289" lon="-1.44877">
        <ele>61</ele>
        <time>2014-09-07T07:55:14.000Z</time>
      </trkpt>
      <trkpt lat="47.3829" lon="-1.44877">
        <ele>61</ele>
        <time>2014-09-07T07:55:16.000Z</time>
      </trkpt>
      <trkpt lat="47.3829" lon="-1.44878">
        <ele>61</ele>
        <time>2014-09-07T07:55:18.000Z</time>
      </trkpt>
      <trkpt lat="47.38293" lon="-1.44879">
        <ele>61</ele>
        <time>2014-09-07T07:55:22.000Z</time>
      </trkpt>
      <trkpt lat="47.38298" lon="-1.4488">
        <ele>61</ele>
        <time>2014-09-07T07:55:26.000Z</time>
      </trkpt>
      <trkpt lat="47.383" lon="-1.44878">
        <ele>62</ele>
        <time>2014-09-07T07:55:28.000Z</time>
      </trkpt>
      <trkpt lat="47.383" lon="-1.44877">
        <ele>62</ele>
        <time>2014-09-07T07:55:30.000Z</time>
      </trkpt>
      <trkpt lat="47.383" lon="-1.44873">
        <ele>63</ele>
        <time>2014-09-07T07:55:32.000Z</time>
      </trkpt>
      <trkpt lat="47.38301" lon="-1.44871">
        <ele>63</ele>
        <time>2014-09-07T07:55:34.000Z</time>
      </trkpt>
      <trkpt lat="47.38301" lon="-1.44872">
        <ele>63</ele>
        <time>2014-09-07T07:55:36.000Z</time>
      </trkpt>
      <trkpt lat="47.38301" lon="-1.44872">
        <ele>63</ele>
        <time>2014-09-07T07:55:40.000Z</time>
      </trkpt>
      <trkpt lat="47.38301" lon="-1.44872">
        <ele>63</ele>
        <time>2014-09-07T07:55:42.000Z</time>
      </trkpt>
      <trkpt lat="47.38301" lon="-1.44872">
        <ele>63</ele>
        <time>2014-09-07T07:55:44.000Z</time>
      </trkpt>
      <trkpt lat="47.38301" lon="-1.44872">
        <ele>63</ele>
        <time>2014-09-07T07:55:46.000Z</time>
      </trkpt>
      <trkpt lat="47.38303" lon="-1.44873">
        <ele>63</ele>
        <time>2014-09-07T07:55:48.000Z</time>
      </trkpt>
      <trkpt lat="47.38305" lon="-1.44873">
        <ele>63</ele>
        <time>2014-09-07T07:55:50.000Z</time>
      </trkpt>
      <trkpt lat="47.38311" lon="-1.44872">
        <ele>63</ele>
        <time>2014-09-07T07:55:52.000Z</time>
      </trkpt>
      <trkpt lat="47.38314" lon="-1.44866">
        <ele>63</ele>
        <time>2014-09-07T07:55:54.000Z</time>
      </trkpt>
      <trkpt lat="47.38314" lon="-1.44859">
        <ele>63</ele>
        <time>2014-09-07T07:55:56.000Z</time>
      </trkpt>
      <trkpt lat="47.38319" lon="-1.4485">
        <ele>63</ele>
        <time>2014-09-07T07:55:58.000Z</time>
      </trkpt>
      <trkpt lat="47.38326" lon="-1.44844">
        <ele>63</ele>
        <time>2014-09-07T07:56:00.000Z</time>
      </trkpt>
      <trkpt lat="47.38333" lon="-1.44838">
        <ele>63</ele>
        <time>2014-09-07T07:56:02.000Z</time>
      </trkpt>
      <trkpt lat="47.38338" lon="-1.44831">
        <ele>62</ele>
        <time>2014-09-07T07:56:04.000Z</time>
      </trkpt>
      <trkpt lat="47.38341" lon="-1.44823">
        <ele>62</ele>
        <time>2014-09-07T07:56:06.000Z</time>
      </trkpt>
      <trkpt lat="47.38345" lon="-1.44815">
        <ele>62</ele>
        <time>2014-09-07T07:56:08.000Z</time>
      </trkpt>
      <trkpt lat="47.38366" lon="-1.44784">
        <ele>61</ele>
        <time>2014-09-07T07:56:16.000Z</time>
      </trkpt>
      <trkpt lat="47.38375" lon="-1.44778">
        <ele>61</ele>
        <time>2014-09-07T07:56:18.000Z</time>
      </trkpt>
      <trkpt lat="47.38388" lon="-1.44775">
        <ele>61</ele>
        <time>2014-09-07T07:56:20.000Z</time>
      </trkpt>
      <trkpt lat="47.38404" lon="-1.44776">
        <ele>61</ele>
        <time>2014-09-07T07:56:22.000Z</time>
      </trkpt>
      <trkpt lat="47.38418" lon="-1.44783">
        <ele>61</ele>
        <time>2014-09-07T07:56:24.000Z</time>
      </trkpt>
      <trkpt lat="47.38427" lon="-1.4479">
        <ele>62</ele>
        <time>2014-09-07T07:56:26.000Z</time>
      </trkpt>
      <trkpt lat="47.38433" lon="-1.44792">
        <ele>63</ele>
        <time>2014-09-07T07:56:28.000Z</time>
      </trkpt>
      <trkpt lat="47.38443" lon="-1.44793">
        <ele>63</ele>
        <time>2014-09-07T07:56:32.000Z</time>
      </trkpt>
      <trkpt lat="47.38449" lon="-1.4479">
        <ele>64</ele>
        <time>2014-09-07T07:56:34.000Z</time>
      </trkpt>
      <trkpt lat="47.38478" lon="-1.44775">
        <ele>65</ele>
        <time>2014-09-07T07:56:44.000Z</time>
      </trkpt>
      <trkpt lat="47.38495" lon="-1.44768">
        <ele>66</ele>
        <time>2014-09-07T07:56:50.000Z</time>
      </trkpt>
      <trkpt lat="47.38504" lon="-1.44764">
        <ele>66</ele>
        <time>2014-09-07T07:56:54.000Z</time>
      </trkpt>
      <trkpt lat="47.38514" lon="-1.44757">
        <ele>67</ele>
        <time>2014-09-07T07:56:58.000Z</time>
      </trkpt>
      <trkpt lat="47.38519" lon="-1.44748">
        <ele>67</ele>
        <time>2014-09-07T07:57:02.000Z</time>
      </trkpt>
      <trkpt lat="47.3852" lon="-1.44741">
        <ele>67</ele>
        <time>2014-09-07T07:57:04.000Z</time>
      </trkpt>
      <trkpt lat="47.38519" lon="-1.44735">
        <ele>67</ele>
        <time>2014-09-07T07:57:06.000Z</time>
      </trkpt>
      <trkpt lat="47.38519" lon="-1.44729">
        <ele>67</ele>
        <time>2014-09-07T07:57:08.000Z</time>
      </trkpt>
      <trkpt lat="47.38517" lon="-1.44723">
        <ele>67</ele>
        <time>2014-09-07T07:57:10.000Z</time>
      </trkpt>
      <trkpt lat="47.38515" lon="-1.44718">
        <ele>68</ele>
        <time>2014-09-07T07:57:12.000Z</time>
      </trkpt>
      <trkpt lat="47.3851" lon="-1.44708">
        <ele>68</ele>
        <time>2014-09-07T07:57:16.000Z</time>
      </trkpt>
      <trkpt lat="47.38506" lon="-1.44703">
        <ele>68</ele>
        <time>2014-09-07T07:57:18.000Z</time>
      </trkpt>
      <trkpt lat="47.38503" lon="-1.44699">
        <ele>67</ele>
        <time>2014-09-07T07:57:20.000Z</time>
      </trkpt>
      <trkpt lat="47.38501" lon="-1.44694">
        <ele>67</ele>
        <time>2014-09-07T07:57:22.000Z</time>
      </trkpt>
      <trkpt lat="47.38495" lon="-1.44683">
        <ele>67</ele>
        <time>2014-09-07T07:57:28.000Z</time>
      </trkpt>
      <trkpt lat="47.3847" lon="-1.44654">
        <ele>67</ele>
        <time>2014-09-07T07:57:34.000Z</time>
      </trkpt>
      <trkpt lat="47.38452" lon="-1.44639">
        <ele>66</ele>
        <time>2014-09-07T07:57:38.000Z</time>
      </trkpt>
      <trkpt lat="47.38427" lon="-1.4462">
        <ele>65</ele>
        <time>2014-09-07T07:57:42.000Z</time>
      </trkpt>
      <trkpt lat="47.3841" lon="-1.44601">
        <ele>64</ele>
        <time>2014-09-07T07:57:44.000Z</time>
      </trkpt>
      <trkpt lat="47.38397" lon="-1.44578">
        <ele>64</ele>
        <time>2014-09-07T07:57:46.000Z</time>
      </trkpt>
      <trkpt lat="47.38389" lon="-1.44553">
        <ele>62</ele>
        <time>2014-09-07T07:57:48.000Z</time>
      </trkpt>
      <trkpt lat="47.38385" lon="-1.44526">
        <ele>60</ele>
        <time>2014-09-07T07:57:50.000Z</time>
      </trkpt>
      <trkpt lat="47.38377" lon="-1.44474">
        <ele>57</ele>
        <time>2014-09-07T07:57:54.000Z</time>
      </trkpt>
      <trkpt lat="47.38375" lon="-1.44451">
        <ele>56</ele>
        <time>2014-09-07T07:57:56.000Z</time>
      </trkpt>
      <trkpt lat="47.38373" lon="-1.44429">
        <ele>55</ele>
        <time>2014-09-07T07:57:58.000Z</time>
      </trkpt>
      <trkpt lat="47.38371" lon="-1.44411">
        <ele>53</ele>
        <time>2014-09-07T07:58:00.000Z</time>
      </trkpt>
      <trkpt lat="47.38367" lon="-1.44382">
        <ele>52</ele>
        <time>2014-09-07T07:58:04.000Z</time>
      </trkpt>
      <trkpt lat="47.38363" lon="-1.44372">
        <ele>53</ele>
        <time>2014-09-07T07:58:06.000Z</time>
      </trkpt>
      <trkpt lat="47.38357" lon="-1.44365">
        <ele>53</ele>
        <time>2014-09-07T07:58:08.000Z</time>
      </trkpt>
      <trkpt lat="47.38351" lon="-1.44355">
        <ele>54</ele>
        <time>2014-09-07T07:58:10.000Z</time>
      </trkpt>
      <trkpt lat="47.38343" lon="-1.44344">
        <ele>53</ele>
        <time>2014-09-07T07:58:12.000Z</time>
      </trkpt>
      <trkpt lat="47.38335" lon="-1.44332">
        <ele>53</ele>
        <time>2014-09-07T07:58:14.000Z</time>
      </trkpt>
      <trkpt lat="47.38317" lon="-1.44297">
        <ele>54</ele>
        <time>2014-09-07T07:58:18.000Z</time>
      </trkpt>
      <trkpt lat="47.3831" lon="-1.44276">
        <ele>54</ele>
        <time>2014-09-07T07:58:20.000Z</time>
      </trkpt>
      <trkpt lat="47.38308" lon="-1.44253">
        <ele>53</ele>
        <time>2014-09-07T07:58:22.000Z</time>
      </trkpt>
      <trkpt lat="47.38313" lon="-1.44231">
        <ele>52</ele>
        <time>2014-09-07T07:58:24.000Z</time>
      </trkpt>
      <trkpt lat="47.38329" lon="-1.44209">
        <ele>51</ele>
        <time>2014-09-07T07:58:26.000Z</time>
      </trkpt>
      <trkpt lat="47.38349" lon="-1.44195">
        <ele>49</ele>
        <time>2014-09-07T07:58:28.000Z</time>
      </trkpt>
      <trkpt lat="47.38367" lon="-1.44183">
        <ele>49</ele>
        <time>2014-09-07T07:58:30.000Z</time>
      </trkpt>
      <trkpt lat="47.3838" lon="-1.44166">
        <ele>47</ele>
        <time>2014-09-07T07:58:32.000Z</time>
      </trkpt>
      <trkpt lat="47.38387" lon="-1.44145">
        <ele>45</ele>
        <time>2014-09-07T07:58:34.000Z</time>
      </trkpt>
      <trkpt lat="47.38385" lon="-1.44119">
        <ele>44</ele>
        <time>2014-09-07T07:58:36.000Z</time>
      </trkpt>
      <trkpt lat="47.3838" lon="-1.44088">
        <ele>42</ele>
        <time>2014-09-07T07:58:38.000Z</time>
      </trkpt>
      <trkpt lat="47.38377" lon="-1.44062">
        <ele>41</ele>
        <time>2014-09-07T07:58:40.000Z</time>
      </trkpt>
      <trkpt lat="47.38376" lon="-1.44038">
        <ele>40</ele>
        <time>2014-09-07T07:58:42.000Z</time>
      </trkpt>
      <trkpt lat="47.38374" lon="-1.44017">
        <ele>38</ele>
        <time>2014-09-07T07:58:44.000Z</time>
      </trkpt>
      <trkpt lat="47.38375" lon="-1.43995">
        <ele>36</ele>
        <time>2014-09-07T07:58:46.000Z</time>
      </trkpt>
      <trkpt lat="47.38379" lon="-1.43979">
        <ele>34</ele>
        <time>2014-09-07T07:58:48.000Z</time>
      </trkpt>
      <trkpt lat="47.38387" lon="-1.43963">
        <ele>32</ele>
        <time>2014-09-07T07:58:50.000Z</time>
      </trkpt>
      <trkpt lat="47.38397" lon="-1.43946">
        <ele>31</ele>
        <time>2014-09-07T07:58:52.000Z</time>
      </trkpt>
      <trkpt lat="47.38404" lon="-1.43927">
        <ele>30</ele>
        <time>2014-09-07T07:58:54.000Z</time>
      </trkpt>
      <trkpt lat="47.38405" lon="-1.43906">
        <ele>30</ele>
        <time>2014-09-07T07:58:56.000Z</time>
      </trkpt>
      <trkpt lat="47.38401" lon="-1.43886">
        <ele>29</ele>
        <time>2014-09-07T07:58:58.000Z</time>
      </trkpt>
      <trkpt lat="47.38398" lon="-1.43867">
        <ele>28</ele>
        <time>2014-09-07T07:59:00.000Z</time>
      </trkpt>
      <trkpt lat="47.38391" lon="-1.43829">
        <ele>27</ele>
        <time>2014-09-07T07:59:04.000Z</time>
      </trkpt>
      <trkpt lat="47.38387" lon="-1.4381">
        <ele>26</ele>
        <time>2014-09-07T07:59:06.000Z</time>
      </trkpt>
      <trkpt lat="47.38379" lon="-1.43777">
        <ele>26</ele>
        <time>2014-09-07T07:59:10.000Z</time>
      </trkpt>
      <trkpt lat="47.38374" lon="-1.43761">
        <ele>25</ele>
        <time>2014-09-07T07:59:12.000Z</time>
      </trkpt>
      <trkpt lat="47.38359" lon="-1.437">
        <ele>25</ele>
        <time>2014-09-07T07:59:20.000Z</time>
      </trkpt>
      <trkpt lat="47.38354" lon="-1.43685">
        <ele>26</ele>
        <time>2014-09-07T07:59:22.000Z</time>
      </trkpt>
      <trkpt lat="47.38348" lon="-1.4367">
        <ele>26</ele>
        <time>2014-09-07T07:59:24.000Z</time>
      </trkpt>
      <trkpt lat="47.38339" lon="-1.43657">
        <ele>27</ele>
        <time>2014-09-07T07:59:26.000Z</time>
      </trkpt>
      <trkpt lat="47.38329" lon="-1.43655">
        <ele>27</ele>
        <time>2014-09-07T07:59:28.000Z</time>
      </trkpt>
      <trkpt lat="47.38319" lon="-1.43663">
        <ele>27</ele>
        <time>2014-09-07T07:59:30.000Z</time>
      </trkpt>
      <trkpt lat="47.38309" lon="-1.43668">
        <ele>27</ele>
        <time>2014-09-07T07:59:32.000Z</time>
      </trkpt>
      <trkpt lat="47.383" lon="-1.43672">
        <ele>26</ele>
        <time>2014-09-07T07:59:34.000Z</time>
      </trkpt>
      <trkpt lat="47.38287" lon="-1.43685">
        <ele>26</ele>
        <time>2014-09-07T07:59:38.000Z</time>
      </trkpt>
      <trkpt lat="47.38281" lon="-1.43693">
        <ele>25</ele>
        <time>2014-09-07T07:59:40.000Z</time>
      </trkpt>
      <trkpt lat="47.38276" lon="-1.43701">
        <ele>24</ele>
        <time>2014-09-07T07:59:42.000Z</time>
      </trkpt>
      <trkpt lat="47.38276" lon="-1.43713">
        <ele>24</ele>
        <time>2014-09-07T07:59:44.000Z</time>
      </trkpt>
      <trkpt lat="47.38277" lon="-1.43726">
        <ele>24</ele>
        <time>2014-09-07T07:59:46.000Z</time>
      </trkpt>
      <trkpt lat="47.38279" lon="-1.43735">
        <ele>23</ele>
        <time>2014-09-07T07:59:48.000Z</time>
      </trkpt>
      <trkpt lat="47.38281" lon="-1.43744">
        <ele>22</ele>
        <time>2014-09-07T07:59:50.000Z</time>
      </trkpt>
      <trkpt lat="47.38285" lon="-1.43767">
        <ele>22</ele>
        <time>2014-09-07T07:59:56.000Z</time>
      </trkpt>
      <trkpt lat="47.38286" lon="-1.43775">
        <ele>21</ele>
        <time>2014-09-07T07:59:58.000Z</time>
      </trkpt>
      <trkpt lat="47.38288" lon="-1.43791">
        <ele>20</ele>
        <time>2014-09-07T08:00:02.000Z</time>
      </trkpt>
      <trkpt lat="47.38292" lon="-1.43813">
        <ele>19</ele>
        <time>2014-09-07T08:00:08.000Z</time>
      </trkpt>
      <trkpt lat="47.38294" lon="-1.43833">
        <ele>19</ele>
        <time>2014-09-07T08:00:14.000Z</time>
      </trkpt>
      <trkpt lat="47.38294" lon="-1.43845">
        <ele>19</ele>
        <time>2014-09-07T08:00:18.000Z</time>
      </trkpt>
      <trkpt lat="47.38295" lon="-1.43858">
        <ele>19</ele>
        <time>2014-09-07T08:00:22.000Z</time>
      </trkpt>
      <trkpt lat="47.38296" lon="-1.43871">
        <ele>20</ele>
        <time>2014-09-07T08:00:26.000Z</time>
      </trkpt>
      <trkpt lat="47.38295" lon="-1.4389">
        <ele>20</ele>
        <time>2014-09-07T08:00:32.000Z</time>
      </trkpt>
      <trkpt lat="47.38294" lon="-1.43918">
        <ele>20</ele>
        <time>2014-09-07T08:00:40.000Z</time>
      </trkpt>
      <trkpt lat="47.38293" lon="-1.43924">
        <ele>21</ele>
        <time>2014-09-07T08:00:42.000Z</time>
      </trkpt>
      <trkpt lat="47.38289" lon="-1.43956">
        <ele>20</ele>
        <time>2014-09-07T08:00:52.000Z</time>
      </trkpt>
      <trkpt lat="47.38288" lon="-1.43962">
        <ele>21</ele>
        <time>2014-09-07T08:00:54.000Z</time>
      </trkpt>
      <trkpt lat="47.38286" lon="-1.44">
        <ele>22</ele>
        <time>2014-09-07T08:01:06.000Z</time>
      </trkpt>
      <trkpt lat="47.38285" lon="-1.44019">
        <ele>23</ele>
        <time>2014-09-07T08:01:12.000Z</time>
      </trkpt>
      <trkpt lat="47.38285" lon="-1.44026">
        <ele>24</ele>
        <time>2014-09-07T08:01:14.000Z</time>
      </trkpt>
      <trkpt lat="47.38285" lon="-1.44032">
        <ele>25</ele>
        <time>2014-09-07T08:01:16.000Z</time>
      </trkpt>
      <trkpt lat="47.38284" lon="-1.44038">
        <ele>26</ele>
        <time>2014-09-07T08:01:18.000Z</time>
      </trkpt>
      <trkpt lat="47.38284" lon="-1.44044">
        <ele>27</ele>
        <time>2014-09-07T08:01:20.000Z</time>
      </trkpt>
      <trkpt lat="47.38284" lon="-1.4405">
        <ele>28</ele>
        <time>2014-09-07T08:01:22.000Z</time>
      </trkpt>
      <trkpt lat="47.38282" lon="-1.44063">
        <ele>29</ele>
        <time>2014-09-07T08:01:26.000Z</time>
      </trkpt>
      <trkpt lat="47.38278" lon="-1.44101">
        <ele>30</ele>
        <time>2014-09-07T08:01:38.000Z</time>
      </trkpt>
      <trkpt lat="47.38277" lon="-1.44107">
        <ele>31</ele>
        <time>2014-09-07T08:01:40.000Z</time>
      </trkpt>
      <trkpt lat="47.38277" lon="-1.44119">
        <ele>32</ele>
        <time>2014-09-07T08:01:44.000Z</time>
      </trkpt>
      <trkpt lat="47.38276" lon="-1.44125">
        <ele>33</ele>
        <time>2014-09-07T08:01:46.000Z</time>
      </trkpt>
      <trkpt lat="47.38274" lon="-1.44136">
        <ele>34</ele>
        <time>2014-09-07T08:01:50.000Z</time>
      </trkpt>
      <trkpt lat="47.38271" lon="-1.44161">
        <ele>35</ele>
        <time>2014-09-07T08:01:58.000Z</time>
      </trkpt>
      <trkpt lat="47.3827" lon="-1.44167">
        <ele>36</ele>
        <time>2014-09-07T08:02:00.000Z</time>
      </trkpt>
      <trkpt lat="47.38269" lon="-1.44173">
        <ele>37</ele>
        <time>2014-09-07T08:02:02.000Z</time>
      </trkpt>
      <trkpt lat="47.38269" lon="-1.4418">
        <ele>38</ele>
        <time>2014-09-07T08:02:04.000Z</time>
      </trkpt>
      <trkpt lat="47.38269" lon="-1.44186">
        <ele>39</ele>
        <time>2014-09-07T08:02:06.000Z</time>
      </trkpt>
      <trkpt lat="47.38269" lon="-1.44192">
        <ele>40</ele>
        <time>2014-09-07T08:02:08.000Z</time>
      </trkpt>
      <trkpt lat="47.38268" lon="-1.44198">
        <ele>41</ele>
        <time>2014-09-07T08:02:10.000Z</time>
      </trkpt>
      <trkpt lat="47.38267" lon="-1.44204">
        <ele>42</ele>
        <time>2014-09-07T08:02:12.000Z</time>
      </trkpt>
      <trkpt lat="47.38265" lon="-1.4421">
        <ele>43</ele>
        <time>2014-09-07T08:02:14.000Z</time>
      </trkpt>
      <trkpt lat="47.38264" lon="-1.44216">
        <ele>44</ele>
        <time>2014-09-07T08:02:16.000Z</time>
      </trkpt>
      <trkpt lat="47.38263" lon="-1.44221">
        <ele>45</ele>
        <time>2014-09-07T08:02:18.000Z</time>
      </trkpt>
      <trkpt lat="47.38261" lon="-1.44226">
        <ele>46</ele>
        <time>2014-09-07T08:02:20.000Z</time>
      </trkpt>
      <trkpt lat="47.38256" lon="-1.44226">
        <ele>46</ele>
        <time>2014-09-07T08:02:22.000Z</time>
      </trkpt>
      <trkpt lat="47.38251" lon="-1.44218">
        <ele>47</ele>
        <time>2014-09-07T08:02:24.000Z</time>
      </trkpt>
      <trkpt lat="47.3825" lon="-1.44206">
        <ele>47</ele>
        <time>2014-09-07T08:02:26.000Z</time>
      </trkpt>
      <trkpt lat="47.38251" lon="-1.44193">
        <ele>48</ele>
        <time>2014-09-07T08:02:28.000Z</time>
      </trkpt>
      <trkpt lat="47.38253" lon="-1.44159">
        <ele>49</ele>
        <time>2014-09-07T08:02:34.000Z</time>
      </trkpt>
      <trkpt lat="47.38252" lon="-1.44151">
        <ele>50</ele>
        <time>2014-09-07T08:02:36.000Z</time>
      </trkpt>
      <trkpt lat="47.38251" lon="-1.44142">
        <ele>51</ele>
        <time>2014-09-07T08:02:38.000Z</time>
      </trkpt>
      <trkpt lat="47.3825" lon="-1.44134">
        <ele>52</ele>
        <time>2014-09-07T08:02:40.000Z</time>
      </trkpt>
      <trkpt lat="47.3825" lon="-1.44119">
        <ele>53</ele>
        <time>2014-09-07T08:02:44.000Z</time>
      </trkpt>
      <trkpt lat="47.3825" lon="-1.44111">
        <ele>54</ele>
        <time>2014-09-07T08:02:46.000Z</time>
      </trkpt>
      <trkpt lat="47.38251" lon="-1.44095">
        <ele>54</ele>
        <time>2014-09-07T08:02:50.000Z</time>
      </trkpt>
      <trkpt lat="47.38251" lon="-1.44058">
        <ele>55</ele>
        <time>2014-09-07T08:03:00.000Z</time>
      </trkpt>
      <trkpt lat="47.38249" lon="-1.44036">
        <ele>55</ele>
        <time>2014-09-07T08:03:04.000Z</time>
      </trkpt>
      <trkpt lat="47.38247" lon="-1.44023">
        <ele>56</ele>
        <time>2014-09-07T08:03:06.000Z</time>
      </trkpt>
      <trkpt lat="47.38242" lon="-1.43988">
        <ele>57</ele>
        <time>2014-09-07T08:03:12.000Z</time>
      </trkpt>
      <trkpt lat="47.38236" lon="-1.43945">
        <ele>57</ele>
        <time>2014-09-07T08:03:20.000Z</time>
      </trkpt>
      <trkpt lat="47.38234" lon="-1.4392">
        <ele>57</ele>
        <time>2014-09-07T08:03:26.000Z</time>
      </trkpt>
      <trkpt lat="47.38231" lon="-1.439">
        <ele>57</ele>
        <time>2014-09-07T08:03:32.000Z</time>
      </trkpt>
      <trkpt lat="47.3823" lon="-1.43891">
        <ele>58</ele>
        <time>2014-09-07T08:03:36.000Z</time>
      </trkpt>
      <trkpt lat="47.38229" lon="-1.43874">
        <ele>59</ele>
        <time>2014-09-07T08:03:42.000Z</time>
      </trkpt>
      <trkpt lat="47.38227" lon="-1.43863">
        <ele>60</ele>
        <time>2014-09-07T08:03:46.000Z</time>
      </trkpt>
      <trkpt lat="47.38225" lon="-1.43859">
        <ele>60</ele>
        <time>2014-09-07T08:03:48.000Z</time>
      </trkpt>
      <trkpt lat="47.38223" lon="-1.43854">
        <ele>61</ele>
        <time>2014-09-07T08:03:50.000Z</time>
      </trkpt>
      <trkpt lat="47.38221" lon="-1.4385">
        <ele>62</ele>
        <time>2014-09-07T08:03:52.000Z</time>
      </trkpt>
      <trkpt lat="47.38219" lon="-1.43845">
        <ele>63</ele>
        <time>2014-09-07T08:03:54.000Z</time>
      </trkpt>
      <trkpt lat="47.38217" lon="-1.43837">
        <ele>64</ele>
        <time>2014-09-07T08:03:58.000Z</time>
      </trkpt>
      <trkpt lat="47.38213" lon="-1.4383">
        <ele>65</ele>
        <time>2014-09-07T08:04:02.000Z</time>
      </trkpt>
      <trkpt lat="47.38212" lon="-1.43827">
        <ele>66</ele>
        <time>2014-09-07T08:04:04.000Z</time>
      </trkpt>
      <trkpt lat="47.38211" lon="-1.43827">
        <ele>67</ele>
        <time>2014-09-07T08:04:06.000Z</time>
      </trkpt>
      <trkpt lat="47.38211" lon="-1.43827">
        <ele>68</ele>
        <time>2014-09-07T08:04:08.000Z</time>
      </trkpt>
      <trkpt lat="47.38211" lon="-1.43825">
        <ele>69</ele>
        <time>2014-09-07T08:04:10.000Z</time>
      </trkpt>
      <trkpt lat="47.38211" lon="-1.43823">
        <ele>70</ele>
        <time>2014-09-07T08:04:12.000Z</time>
      </trkpt>
      <trkpt lat="47.38211" lon="-1.43821">
        <ele>71</ele>
        <time>2014-09-07T08:04:14.000Z</time>
      </trkpt>
      <trkpt lat="47.38211" lon="-1.43818">
        <ele>72</ele>
        <time>2014-09-07T08:04:16.000Z</time>
      </trkpt>
      <trkpt lat="47.38209" lon="-1.43815">
        <ele>73</ele>
        <time>2014-09-07T08:04:18.000Z</time>
      </trkpt>
      <trkpt lat="47.38206" lon="-1.4381">
        <ele>74</ele>
        <time>2014-09-07T08:04:20.000Z</time>
      </trkpt>
      <trkpt lat="47.38202" lon="-1.43803">
        <ele>75</ele>
        <time>2014-09-07T08:04:24.000Z</time>
      </trkpt>
      <trkpt lat="47.38198" lon="-1.43799">
        <ele>76</ele>
        <time>2014-09-07T08:04:26.000Z</time>
      </trkpt>
      <trkpt lat="47.38195" lon="-1.43793">
        <ele>77</ele>
        <time>2014-09-07T08:04:28.000Z</time>
      </trkpt>
      <trkpt lat="47.38189" lon="-1.43783">
        <ele>77</ele>
        <time>2014-09-07T08:04:30.000Z</time>
      </trkpt>
      <trkpt lat="47.38177" lon="-1.43776">
        <ele>77</ele>
        <time>2014-09-07T08:04:32.000Z</time>
      </trkpt>
      <trkpt lat="47.38167" lon="-1.43769">
        <ele>77</ele>
        <time>2014-09-07T08:04:34.000Z</time>
      </trkpt>
      <trkpt lat="47.38156" lon="-1.43757">
        <ele>78</ele>
        <time>2014-09-07T08:04:36.000Z</time>
      </trkpt>
      <trkpt lat="47.38145" lon="-1.43741">
        <ele>78</ele>
        <time>2014-09-07T08:04:38.000Z</time>
      </trkpt>
      <trkpt lat="47.38137" lon="-1.43722">
        <ele>78</ele>
        <time>2014-09-07T08:04:40.000Z</time>
      </trkpt>
      <trkpt lat="47.3813" lon="-1.43702">
        <ele>78</ele>
        <time>2014-09-07T08:04:42.000Z</time>
      </trkpt>
      <trkpt lat="47.38125" lon="-1.43681">
        <ele>77</ele>
        <time>2014-09-07T08:04:44.000Z</time>
      </trkpt>
      <trkpt lat="47.38122" lon="-1.4366">
        <ele>77</ele>
        <time>2014-09-07T08:04:46.000Z</time>
      </trkpt>
      <trkpt lat="47.38121" lon="-1.43641">
        <ele>77</ele>
        <time>2014-09-07T08:04:48.000Z</time>
      </trkpt>
      <trkpt lat="47.38126" lon="-1.43628">
        <ele>77</ele>
        <time>2014-09-07T08:04:50.000Z</time>
      </trkpt>
      <trkpt lat="47.38134" lon="-1.43621">
        <ele>78</ele>
        <time>2014-09-07T08:04:52.000Z</time>
      </trkpt>
      <trkpt lat="47.38146" lon="-1.43609">
        <ele>78</ele>
        <time>2014-09-07T08:04:54.000Z</time>
      </trkpt>
      <trkpt lat="47.38168" lon="-1.43583">
        <ele>78</ele>
        <time>2014-09-07T08:04:58.000Z</time>
      </trkpt>
      <trkpt lat="47.38171" lon="-1.43577">
        <ele>78</ele>
        <time>2014-09-07T08:05:02.000Z</time>
      </trkpt>
      <trkpt lat="47.38167" lon="-1.43571">
        <ele>79</ele>
        <time>2014-09-07T08:05:04.000Z</time>
      </trkpt>
      <trkpt lat="47.38161" lon="-1.43553">
        <ele>80</ele>
        <time>2014-09-07T08:05:08.000Z</time>
      </trkpt>
      <trkpt lat="47.38156" lon="-1.43531">
        <ele>81</ele>
        <time>2014-09-07T08:05:14.000Z</time>
      </trkpt>
      <trkpt lat="47.38154" lon="-1.43521">
        <ele>81</ele>
        <time>2014-09-07T08:05:16.000Z</time>
      </trkpt>
      <trkpt lat="47.38152" lon="-1.4351">
        <ele>81</ele>
        <time>2014-09-07T08:05:18.000Z</time>
      </trkpt>
      <trkpt lat="47.3815" lon="-1.43487">
        <ele>82</ele>
        <time>2014-09-07T08:05:22.000Z</time>
      </trkpt>
      <trkpt lat="47.38142" lon="-1.43442">
        <ele>83</ele>
        <time>2014-09-07T08:05:32.000Z</time>
      </trkpt>
      <trkpt lat="47.38141" lon="-1.43437">
        <ele>82</ele>
        <time>2014-09-07T08:05:34.000Z</time>
      </trkpt>
      <trkpt lat="47.3814" lon="-1.43432">
        <ele>83</ele>
        <time>2014-09-07T08:05:36.000Z</time>
      </trkpt>
      <trkpt lat="47.38133" lon="-1.43432">
        <ele>82</ele>
        <time>2014-09-07T08:05:38.000Z</time>
      </trkpt>
      <trkpt lat="47.38121" lon="-1.43436">
        <ele>82</ele>
        <time>2014-09-07T08:05:40.000Z</time>
      </trkpt>
      <trkpt lat="47.38068" lon="-1.43456">
        <ele>81</ele>
        <time>2014-09-07T08:05:46.000Z</time>
      </trkpt>
      <trkpt lat="47.38032" lon="-1.43467">
        <ele>80</ele>
        <time>2014-09-07T08:05:50.000Z</time>
      </trkpt>
      <trkpt lat="47.38022" lon="-1.43462">
        <ele>80</ele>
        <time>2014-09-07T08:05:52.000Z</time>
      </trkpt>
      <trkpt lat="47.38015" lon="-1.43451">
        <ele>80</ele>
        <time>2014-09-07T08:05:54.000Z</time>
      </trkpt>
      <trkpt lat="47.38008" lon="-1.4344">
        <ele>79</ele>
        <time>2014-09-07T08:05:56.000Z</time>
      </trkpt>
      <trkpt lat="47.37996" lon="-1.4341">
        <ele>77</ele>
        <time>2014-09-07T08:06:00.000Z</time>
      </trkpt>
      <trkpt lat="47.3799" lon="-1.43396">
        <ele>77</ele>
        <time>2014-09-07T08:06:03.000Z</time>
      </trkpt>
      <trkpt lat="47.37986" lon="-1.43381">
        <ele>77</ele>
        <time>2014-09-07T08:06:04.000Z</time>
      </trkpt>
      <trkpt lat="47.37975" lon="-1.43303">
        <ele>78</ele>
        <time>2014-09-07T08:06:12.000Z</time>
      </trkpt>
      <trkpt lat="47.37967" lon="-1.43227">
        <ele>77</ele>
        <time>2014-09-07T08:06:20.000Z</time>
      </trkpt>
      <trkpt lat="47.37962" lon="-1.43194">
        <ele>76</ele>
        <time>2014-09-07T08:06:24.000Z</time>
      </trkpt>
      <trkpt lat="47.3795" lon="-1.4315">
        <ele>75</ele>
        <time>2014-09-07T08:06:30.000Z</time>
      </trkpt>
      <trkpt lat="47.37946" lon="-1.4314">
        <ele>74</ele>
        <time>2014-09-07T08:06:32.000Z</time>
      </trkpt>
      <trkpt lat="47.37942" lon="-1.4313">
        <ele>73</ele>
        <time>2014-09-07T08:06:34.000Z</time>
      </trkpt>
      <trkpt lat="47.37935" lon="-1.43127">
        <ele>73</ele>
        <time>2014-09-07T08:06:36.000Z</time>
      </trkpt>
      <trkpt lat="47.37927" lon="-1.4313">
        <ele>73</ele>
        <time>2014-09-07T08:06:38.000Z</time>
      </trkpt>
      <trkpt lat="47.37906" lon="-1.43142">
        <ele>74</ele>
        <time>2014-09-07T08:06:44.000Z</time>
      </trkpt>
      <trkpt lat="47.37898" lon="-1.43148">
        <ele>73</ele>
        <time>2014-09-07T08:06:46.000Z</time>
      </trkpt>
      <trkpt lat="47.37889" lon="-1.43155">
        <ele>73</ele>
        <time>2014-09-07T08:06:48.000Z</time>
      </trkpt>
      <trkpt lat="47.37873" lon="-1.4317">
        <ele>74</ele>
        <time>2014-09-07T08:06:52.000Z</time>
      </trkpt>
      <trkpt lat="47.37865" lon="-1.43178">
        <ele>74</ele>
        <time>2014-09-07T08:06:54.000Z</time>
      </trkpt>
      <trkpt lat="47.37859" lon="-1.43184">
        <ele>74</ele>
        <time>2014-09-07T08:06:56.000Z</time>
      </trkpt>
      <trkpt lat="47.37854" lon="-1.43185">
        <ele>74</ele>
        <time>2014-09-07T08:06:58.000Z</time>
      </trkpt>
      <trkpt lat="47.3785" lon="-1.43179">
        <ele>74</ele>
        <time>2014-09-07T08:07:00.000Z</time>
      </trkpt>
      <trkpt lat="47.37848" lon="-1.4317">
        <ele>74</ele>
        <time>2014-09-07T08:07:02.000Z</time>
      </trkpt>
      <trkpt lat="47.37845" lon="-1.43161">
        <ele>74</ele>
        <time>2014-09-07T08:07:04.000Z</time>
      </trkpt>
      <trkpt lat="47.37839" lon="-1.4314">
        <ele>73</ele>
        <time>2014-09-07T08:07:08.000Z</time>
      </trkpt>
      <trkpt lat="47.37832" lon="-1.43117">
        <ele>73</ele>
        <time>2014-09-07T08:07:12.000Z</time>
      </trkpt>
      <trkpt lat="47.3783" lon="-1.4309">
        <ele>73</ele>
        <time>2014-09-07T08:07:16.000Z</time>
      </trkpt>
      <trkpt lat="47.37831" lon="-1.43078">
        <ele>73</ele>
        <time>2014-09-07T08:07:18.000Z</time>
      </trkpt>
      <trkpt lat="47.37837" lon="-1.43051">
        <ele>73</ele>
        <time>2014-09-07T08:07:22.000Z</time>
      </trkpt>
      <trkpt lat="47.37848" lon="-1.43025">
        <ele>73</ele>
        <time>2014-09-07T08:07:26.000Z</time>
      </trkpt>
      <trkpt lat="47.37853" lon="-1.43013">
        <ele>73</ele>
        <time>2014-09-07T08:07:28.000Z</time>
      </trkpt>
      <trkpt lat="47.3786" lon="-1.43002">
        <ele>72</ele>
        <time>2014-09-07T08:07:30.000Z</time>
      </trkpt>
      <trkpt lat="47.37865" lon="-1.42992">
        <ele>72</ele>
        <time>2014-09-07T08:07:32.000Z</time>
      </trkpt>
      <trkpt lat="47.37877" lon="-1.42976">
        <ele>72</ele>
        <time>2014-09-07T08:07:36.000Z</time>
      </trkpt>
      <trkpt lat="47.37881" lon="-1.42974">
        <ele>72</ele>
        <time>2014-09-07T08:07:38.000Z</time>
      </trkpt>
      <trkpt lat="47.37886" lon="-1.42973">
        <ele>72</ele>
        <time>2014-09-07T08:07:40.000Z</time>
      </trkpt>
      <trkpt lat="47.37889" lon="-1.42975">
        <ele>72</ele>
        <time>2014-09-07T08:07:42.000Z</time>
      </trkpt>
      <trkpt lat="47.37893" lon="-1.42979">
        <ele>72</ele>
        <time>2014-09-07T08:07:44.000Z</time>
      </trkpt>
      <trkpt lat="47.37898" lon="-1.42978">
        <ele>72</ele>
        <time>2014-09-07T08:07:46.000Z</time>
      </trkpt>
      <trkpt lat="47.37903" lon="-1.42974">
        <ele>72</ele>
        <time>2014-09-07T08:07:48.000Z</time>
      </trkpt>
      <trkpt lat="47.37908" lon="-1.42967">
        <ele>72</ele>
        <time>2014-09-07T08:07:50.000Z</time>
      </trkpt>
      <trkpt lat="47.3791" lon="-1.42961">
        <ele>72</ele>
        <time>2014-09-07T08:07:52.000Z</time>
      </trkpt>
      <trkpt lat="47.37912" lon="-1.42953">
        <ele>71</ele>
        <time>2014-09-07T08:07:54.000Z</time>
      </trkpt>
      <trkpt lat="47.3791" lon="-1.42944">
        <ele>71</ele>
        <time>2014-09-07T08:07:56.000Z</time>
      </trkpt>
      <trkpt lat="47.37908" lon="-1.42936">
        <ele>71</ele>
        <time>2014-09-07T08:07:58.000Z</time>
      </trkpt>
      <trkpt lat="47.37899" lon="-1.42907">
        <ele>70</ele>
        <time>2014-09-07T08:08:04.000Z</time>
      </trkpt>
      <trkpt lat="47.37893" lon="-1.42886">
        <ele>70</ele>
        <time>2014-09-07T08:08:08.000Z</time>
      </trkpt>
      <trkpt lat="47.37892" lon="-1.42876">
        <ele>71</ele>
        <time>2014-09-07T08:08:10.000Z</time>
      </trkpt>
      <trkpt lat="47.37889" lon="-1.42868">
        <ele>72</ele>
        <time>2014-09-07T08:08:12.000Z</time>
      </trkpt>
      <trkpt lat="47.37886" lon="-1.42865">
        <ele>72</ele>
        <time>2014-09-07T08:08:14.000Z</time>
      </trkpt>
      <trkpt lat="47.37881" lon="-1.42851">
        <ele>73</ele>
        <time>2014-09-07T08:08:18.000Z</time>
      </trkpt>
      <trkpt lat="47.37878" lon="-1.42835">
        <ele>74</ele>
        <time>2014-09-07T08:08:22.000Z</time>
      </trkpt>
      <trkpt lat="47.37876" lon="-1.42829">
        <ele>75</ele>
        <time>2014-09-07T08:08:24.000Z</time>
      </trkpt>
      <trkpt lat="47.37871" lon="-1.42816">
        <ele>76</ele>
        <time>2014-09-07T08:08:28.000Z</time>
      </trkpt>
      <trkpt lat="47.37868" lon="-1.42809">
        <ele>77</ele>
        <time>2014-09-07T08:08:30.000Z</time>
      </trkpt>
      <trkpt lat="47.37867" lon="-1.42803">
        <ele>77</ele>
        <time>2014-09-07T08:08:32.000Z</time>
      </trkpt>
      <trkpt lat="47.37864" lon="-1.42797">
        <ele>78</ele>
        <time>2014-09-07T08:08:34.000Z</time>
      </trkpt>
      <trkpt lat="47.37862" lon="-1.42791">
        <ele>77</ele>
        <time>2014-09-07T08:08:36.000Z</time>
      </trkpt>
      <trkpt lat="47.37859" lon="-1.42784">
        <ele>78</ele>
        <time>2014-09-07T08:08:38.000Z</time>
      </trkpt>
      <trkpt lat="47.37854" lon="-1.42768">
        <ele>79</ele>
        <time>2014-09-07T08:08:42.000Z</time>
      </trkpt>
      <trkpt lat="47.37853" lon="-1.4276">
        <ele>79</ele>
        <time>2014-09-07T08:08:44.000Z</time>
      </trkpt>
      <trkpt lat="47.37853" lon="-1.42752">
        <ele>80</ele>
        <time>2014-09-07T08:08:46.000Z</time>
      </trkpt>
      <trkpt lat="47.37852" lon="-1.42738">
        <ele>81</ele>
        <time>2014-09-07T08:08:50.000Z</time>
      </trkpt>
      <trkpt lat="47.3785" lon="-1.42733">
        <ele>81</ele>
        <time>2014-09-07T08:08:52.000Z</time>
      </trkpt>
      <trkpt lat="47.3785" lon="-1.42721">
        <ele>81</ele>
        <time>2014-09-07T08:08:56.000Z</time>
      </trkpt>
      <trkpt lat="47.37851" lon="-1.42714">
        <ele>81</ele>
        <time>2014-09-07T08:08:58.000Z</time>
      </trkpt>
      <trkpt lat="47.37848" lon="-1.42697">
        <ele>82</ele>
        <time>2014-09-07T08:09:02.000Z</time>
      </trkpt>
      <trkpt lat="47.37847" lon="-1.42689">
        <ele>83</ele>
        <time>2014-09-07T08:09:04.000Z</time>
      </trkpt>
      <trkpt lat="47.37845" lon="-1.42681">
        <ele>83</ele>
        <time>2014-09-07T08:09:06.000Z</time>
      </trkpt>
      <trkpt lat="47.37842" lon="-1.4267">
        <ele>83</ele>
        <time>2014-09-07T08:09:10.000Z</time>
      </trkpt>
      <trkpt lat="47.37841" lon="-1.42658">
        <ele>84</ele>
        <time>2014-09-07T08:09:14.000Z</time>
      </trkpt>
      <trkpt lat="47.3784" lon="-1.42651">
        <ele>84</ele>
        <time>2014-09-07T08:09:16.000Z</time>
      </trkpt>
      <trkpt lat="47.37837" lon="-1.42644">
        <ele>84</ele>
        <time>2014-09-07T08:09:18.000Z</time>
      </trkpt>
      <trkpt lat="47.37831" lon="-1.42629">
        <ele>84</ele>
        <time>2014-09-07T08:09:22.000Z</time>
      </trkpt>
      <trkpt lat="47.37827" lon="-1.42616">
        <ele>85</ele>
        <time>2014-09-07T08:09:26.000Z</time>
      </trkpt>
      <trkpt lat="47.37825" lon="-1.4261">
        <ele>85</ele>
        <time>2014-09-07T08:09:28.000Z</time>
      </trkpt>
      <trkpt lat="47.37824" lon="-1.42605">
        <ele>86</ele>
        <time>2014-09-07T08:09:30.000Z</time>
      </trkpt>
      <trkpt lat="47.3782" lon="-1.426">
        <ele>86</ele>
        <time>2014-09-07T08:09:32.000Z</time>
      </trkpt>
      <trkpt lat="47.37804" lon="-1.42577">
        <ele>87</ele>
        <time>2014-09-07T08:09:40.000Z</time>
      </trkpt>
      <trkpt lat="47.37801" lon="-1.42572">
        <ele>88</ele>
        <time>2014-09-07T08:09:42.000Z</time>
      </trkpt>
      <trkpt lat="47.37798" lon="-1.42564">
        <ele>88</ele>
        <time>2014-09-07T08:09:44.000Z</time>
      </trkpt>
      <trkpt lat="47.37789" lon="-1.42549">
        <ele>89</ele>
        <time>2014-09-07T08:09:48.000Z</time>
      </trkpt>
      <trkpt lat="47.37786" lon="-1.4254">
        <ele>90</ele>
        <time>2014-09-07T08:09:50.000Z</time>
      </trkpt>
      <trkpt lat="47.37784" lon="-1.42532">
        <ele>90</ele>
        <time>2014-09-07T08:09:52.000Z</time>
      </trkpt>
      <trkpt lat="47.37781" lon="-1.42524">
        <ele>90</ele>
        <time>2014-09-07T08:09:54.000Z</time>
      </trkpt>
      <trkpt lat="47.37778" lon="-1.4252">
        <ele>90</ele>
        <time>2014-09-07T08:09:56.000Z</time>
      </trkpt>
      <trkpt lat="47.37777" lon="-1.42515">
        <ele>90</ele>
        <time>2014-09-07T08:09:58.000Z</time>
      </trkpt>
      <trkpt lat="47.37777" lon="-1.4251">
        <ele>91</ele>
        <time>2014-09-07T08:10:00.000Z</time>
      </trkpt>
      <trkpt lat="47.37775" lon="-1.42503">
        <ele>91</ele>
        <time>2014-09-07T08:10:02.000Z</time>
      </trkpt>
      <trkpt lat="47.37773" lon="-1.42499">
        <ele>90</ele>
        <time>2014-09-07T08:10:04.000Z</time>
      </trkpt>
      <trkpt lat="47.37772" lon="-1.42494">
        <ele>90</ele>
        <time>2014-09-07T08:10:06.000Z</time>
      </trkpt>
      <trkpt lat="47.37771" lon="-1.4249">
        <ele>90</ele>
        <time>2014-09-07T08:10:08.000Z</time>
      </trkpt>
      <trkpt lat="47.37772" lon="-1.42486">
        <ele>89</ele>
        <time>2014-09-07T08:10:10.000Z</time>
      </trkpt>
      <trkpt lat="47.37772" lon="-1.42484">
        <ele>90</ele>
        <time>2014-09-07T08:10:12.000Z</time>
      </trkpt>
      <trkpt lat="47.37772" lon="-1.42481">
        <ele>89</ele>
        <time>2014-09-07T08:10:14.000Z</time>
      </trkpt>
      <trkpt lat="47.37772" lon="-1.42478">
        <ele>89</ele>
        <time>2014-09-07T08:10:16.000Z</time>
      </trkpt>
      <trkpt lat="47.37772" lon="-1.42476">
        <ele>89</ele>
        <time>2014-09-07T08:10:18.000Z</time>
      </trkpt>
      <trkpt lat="47.37771" lon="-1.42474">
        <ele>89</ele>
        <time>2014-09-07T08:10:20.000Z</time>
      </trkpt>
      <trkpt lat="47.3777" lon="-1.42472">
        <ele>89</ele>
        <time>2014-09-07T08:10:22.000Z</time>
      </trkpt>
      <trkpt lat="47.3777" lon="-1.42471">
        <ele>88</ele>
        <time>2014-09-07T08:10:24.000Z</time>
      </trkpt>
      <trkpt lat="47.37769" lon="-1.4247">
        <ele>88</ele>
        <time>2014-09-07T08:10:26.000Z</time>
      </trkpt>
      <trkpt lat="47.37769" lon="-1.4247">
        <ele>88</ele>
        <time>2014-09-07T08:10:30.000Z</time>
      </trkpt>
      <trkpt lat="47.3777" lon="-1.42469">
        <ele>88</ele>
        <time>2014-09-07T08:10:32.000Z</time>
      </trkpt>
      <trkpt lat="47.37767" lon="-1.42464">
        <ele>89</ele>
        <time>2014-09-07T08:10:36.000Z</time>
      </trkpt>
      <trkpt lat="47.37765" lon="-1.42462">
        <ele>88</ele>
        <time>2014-09-07T08:10:38.000Z</time>
      </trkpt>
      <trkpt lat="47.3776" lon="-1.42458">
        <ele>89</ele>
        <time>2014-09-07T08:10:40.000Z</time>
      </trkpt>
      <trkpt lat="47.37755" lon="-1.42457">
        <ele>90</ele>
        <time>2014-09-07T08:10:42.000Z</time>
      </trkpt>
      <trkpt lat="47.3775" lon="-1.42456">
        <ele>91</ele>
        <time>2014-09-07T08:10:46.000Z</time>
      </trkpt>
      <trkpt lat="47.37747" lon="-1.42454">
        <ele>91</ele>
        <time>2014-09-07T08:10:48.000Z</time>
      </trkpt>
      <trkpt lat="47.37745" lon="-1.42449">
        <ele>91</ele>
        <time>2014-09-07T08:10:50.000Z</time>
      </trkpt>
      <trkpt lat="47.3774" lon="-1.42442">
        <ele>90</ele>
        <time>2014-09-07T08:10:54.000Z</time>
      </trkpt>
      <trkpt lat="47.37734" lon="-1.42438">
        <ele>90</ele>
        <time>2014-09-07T08:10:58.000Z</time>
      </trkpt>
      <trkpt lat="47.37731" lon="-1.42436">
        <ele>90</ele>
        <time>2014-09-07T08:11:00.000Z</time>
      </trkpt>
      <trkpt lat="47.3773" lon="-1.42435">
        <ele>90</ele>
        <time>2014-09-07T08:11:02.000Z</time>
      </trkpt>
      <trkpt lat="47.37728" lon="-1.42435">
        <ele>91</ele>
        <time>2014-09-07T08:11:04.000Z</time>
      </trkpt>
      <trkpt lat="47.37727" lon="-1.42434">
        <ele>91</ele>
        <time>2014-09-07T08:11:06.000Z</time>
      </trkpt>
      <trkpt lat="47.37727" lon="-1.42434">
        <ele>90</ele>
        <time>2014-09-07T08:11:08.000Z</time>
      </trkpt>
      <trkpt lat="47.37727" lon="-1.42435">
        <ele>90</ele>
        <time>2014-09-07T08:11:10.000Z</time>
      </trkpt>
      <trkpt lat="47.37727" lon="-1.42435">
        <ele>90</ele>
        <time>2014-09-07T08:11:12.000Z</time>
      </trkpt>
      <trkpt lat="47.37724" lon="-1.42439">
        <ele>90</ele>
        <time>2014-09-07T08:11:16.000Z</time>
      </trkpt>
      <trkpt lat="47.37723" lon="-1.4244">
        <ele>90</ele>
        <time>2014-09-07T08:11:19.000Z</time>
      </trkpt>
      <trkpt lat="47.37723" lon="-1.4244">
        <ele>90</ele>
        <time>2014-09-07T08:11:20.000Z</time>
      </trkpt>
      <trkpt lat="47.37722" lon="-1.42441">
        <ele>90</ele>
        <time>2014-09-07T08:11:22.000Z</time>
      </trkpt>
      <trkpt lat="47.37721" lon="-1.42442">
        <ele>90</ele>
        <time>2014-09-07T08:11:24.000Z</time>
      </trkpt>
      <trkpt lat="47.3772" lon="-1.42444">
        <ele>90</ele>
        <time>2014-09-07T08:11:26.000Z</time>
      </trkpt>
      <trkpt lat="47.3772" lon="-1.42446">
        <ele>90</ele>
        <time>2014-09-07T08:11:28.000Z</time>
      </trkpt>
      <trkpt lat="47.37721" lon="-1.4245">
        <ele>89</ele>
        <time>2014-09-07T08:11:30.000Z</time>
      </trkpt>
      <trkpt lat="47.37721" lon="-1.42454">
        <ele>89</ele>
        <time>2014-09-07T08:11:32.000Z</time>
      </trkpt>
      <trkpt lat="47.37719" lon="-1.42457">
        <ele>89</ele>
        <time>2014-09-07T08:11:34.000Z</time>
      </trkpt>
      <trkpt lat="47.37717" lon="-1.42459">
        <ele>89</ele>
        <time>2014-09-07T08:11:36.000Z</time>
      </trkpt>
      <trkpt lat="47.3771" lon="-1.42458">
        <ele>88</ele>
        <time>2014-09-07T08:11:38.000Z</time>
      </trkpt>
      <trkpt lat="47.37703" lon="-1.42456">
        <ele>89</ele>
        <time>2014-09-07T08:11:40.000Z</time>
      </trkpt>
      <trkpt lat="47.37689" lon="-1.42446">
        <ele>90</ele>
        <time>2014-09-07T08:11:46.000Z</time>
      </trkpt>
      <trkpt lat="47.37678" lon="-1.42434">
        <ele>90</ele>
        <time>2014-09-07T08:11:50.000Z</time>
      </trkpt>
      <trkpt lat="47.37668" lon="-1.42421">
        <ele>91</ele>
        <time>2014-09-07T08:11:54.000Z</time>
      </trkpt>
      <trkpt lat="47.37657" lon="-1.42414">
        <ele>90</ele>
        <time>2014-09-07T08:11:58.000Z</time>
      </trkpt>
      <trkpt lat="47.37651" lon="-1.42412">
        <ele>89</ele>
        <time>2014-09-07T08:12:00.000Z</time>
      </trkpt>
      <trkpt lat="47.37644" lon="-1.42406">
        <ele>88</ele>
        <time>2014-09-07T08:12:02.000Z</time>
      </trkpt>
      <trkpt lat="47.37638" lon="-1.42403">
        <ele>87</ele>
        <time>2014-09-07T08:12:04.000Z</time>
      </trkpt>
      <trkpt lat="47.37634" lon="-1.42401">
        <ele>86</ele>
        <time>2014-09-07T08:12:06.000Z</time>
      </trkpt>
      <trkpt lat="47.3763" lon="-1.42399">
        <ele>85</ele>
        <time>2014-09-07T08:12:08.000Z</time>
      </trkpt>
      <trkpt lat="47.37621" lon="-1.42395">
        <ele>85</ele>
        <time>2014-09-07T08:12:12.000Z</time>
      </trkpt>
      <trkpt lat="47.37617" lon="-1.42393">
        <ele>85</ele>
        <time>2014-09-07T08:12:14.000Z</time>
      </trkpt>
      <trkpt lat="47.37609" lon="-1.42387">
        <ele>84</ele>
        <time>2014-09-07T08:12:18.000Z</time>
      </trkpt>
      <trkpt lat="47.37606" lon="-1.42382">
        <ele>84</ele>
        <time>2014-09-07T08:12:20.000Z</time>
      </trkpt>
      <trkpt lat="47.37603" lon="-1.42378">
        <ele>84</ele>
        <time>2014-09-07T08:12:22.000Z</time>
      </trkpt>
      <trkpt lat="47.37599" lon="-1.42372">
        <ele>85</ele>
        <time>2014-09-07T08:12:24.000Z</time>
      </trkpt>
      <trkpt lat="47.37596" lon="-1.42364">
        <ele>84</ele>
        <time>2014-09-07T08:12:26.000Z</time>
      </trkpt>
      <trkpt lat="47.37588" lon="-1.42344">
        <ele>84</ele>
        <time>2014-09-07T08:12:30.000Z</time>
      </trkpt>
      <trkpt lat="47.37581" lon="-1.42337">
        <ele>84</ele>
        <time>2014-09-07T08:12:32.000Z</time>
      </trkpt>
      <trkpt lat="47.37569" lon="-1.42322">
        <ele>84</ele>
        <time>2014-09-07T08:12:36.000Z</time>
      </trkpt>
      <trkpt lat="47.37563" lon="-1.42313">
        <ele>85</ele>
        <time>2014-09-07T08:12:38.000Z</time>
      </trkpt>
      <trkpt lat="47.37557" lon="-1.42305">
        <ele>85</ele>
        <time>2014-09-07T08:12:40.000Z</time>
      </trkpt>
      <trkpt lat="47.37551" lon="-1.42297">
        <ele>85</ele>
        <time>2014-09-07T08:12:42.000Z</time>
      </trkpt>
      <trkpt lat="47.37521" lon="-1.42269">
        <ele>86</ele>
        <time>2014-09-07T08:12:50.000Z</time>
      </trkpt>
      <trkpt lat="47.37513" lon="-1.42264">
        <ele>85</ele>
        <time>2014-09-07T08:12:52.000Z</time>
      </trkpt>
      <trkpt lat="47.37505" lon="-1.42267">
        <ele>85</ele>
        <time>2014-09-07T08:12:54.000Z</time>
      </trkpt>
      <trkpt lat="47.37489" lon="-1.42277">
        <ele>84</ele>
        <time>2014-09-07T08:12:58.000Z</time>
      </trkpt>
      <trkpt lat="47.37482" lon="-1.4228">
        <ele>84</ele>
        <time>2014-09-07T08:13:01.000Z</time>
      </trkpt>
      <trkpt lat="47.37475" lon="-1.42281">
        <ele>84</ele>
        <time>2014-09-07T08:13:02.000Z</time>
      </trkpt>
      <trkpt lat="47.37468" lon="-1.42281">
        <ele>83</ele>
        <time>2014-09-07T08:13:04.000Z</time>
      </trkpt>
      <trkpt lat="47.37452" lon="-1.42277">
        <ele>84</ele>
        <time>2014-09-07T08:13:08.000Z</time>
      </trkpt>
      <trkpt lat="47.3743" lon="-1.42267">
        <ele>84</ele>
        <time>2014-09-07T08:13:14.000Z</time>
      </trkpt>
      <trkpt lat="47.37423" lon="-1.42263">
        <ele>85</ele>
        <time>2014-09-07T08:13:16.000Z</time>
      </trkpt>
      <trkpt lat="47.37408" lon="-1.42257">
        <ele>85</ele>
        <time>2014-09-07T08:13:20.000Z</time>
      </trkpt>
      <trkpt lat="47.374" lon="-1.42257">
        <ele>85</ele>
        <time>2014-09-07T08:13:22.000Z</time>
      </trkpt>
      <trkpt lat="47.37385" lon="-1.42259">
        <ele>86</ele>
        <time>2014-09-07T08:13:26.000Z</time>
      </trkpt>
      <trkpt lat="47.3738" lon="-1.42259">
        <ele>86</ele>
        <time>2014-09-07T08:13:28.000Z</time>
      </trkpt>
      <trkpt lat="47.37378" lon="-1.42251">
        <ele>87</ele>
        <time>2014-09-07T08:13:30.000Z</time>
      </trkpt>
      <trkpt lat="47.37378" lon="-1.42239">
        <ele>87</ele>
        <time>2014-09-07T08:13:32.000Z</time>
      </trkpt>
      <trkpt lat="47.37373" lon="-1.42228">
        <ele>87</ele>
        <time>2014-09-07T08:13:34.000Z</time>
      </trkpt>
      <trkpt lat="47.37369" lon="-1.42216">
        <ele>87</ele>
        <time>2014-09-07T08:13:36.000Z</time>
      </trkpt>
      <trkpt lat="47.3737" lon="-1.42203">
        <ele>87</ele>
        <time>2014-09-07T08:13:38.000Z</time>
      </trkpt>
      <trkpt lat="47.37379" lon="-1.42199">
        <ele>87</ele>
        <time>2014-09-07T08:13:40.000Z</time>
      </trkpt>
      <trkpt lat="47.37393" lon="-1.42198">
        <ele>87</ele>
        <time>2014-09-07T08:13:42.000Z</time>
      </trkpt>
      <trkpt lat="47.37409" lon="-1.42197">
        <ele>86</ele>
        <time>2014-09-07T08:13:44.000Z</time>
      </trkpt>
      <trkpt lat="47.37423" lon="-1.42191">
        <ele>86</ele>
        <time>2014-09-07T08:13:46.000Z</time>
      </trkpt>
      <trkpt lat="47.37432" lon="-1.42179">
        <ele>85</ele>
        <time>2014-09-07T08:13:48.000Z</time>
      </trkpt>
      <trkpt lat="47.37436" lon="-1.42165">
        <ele>86</ele>
        <time>2014-09-07T08:13:50.000Z</time>
      </trkpt>
      <trkpt lat="47.37432" lon="-1.4215">
        <ele>85</ele>
        <time>2014-09-07T08:13:52.000Z</time>
      </trkpt>
      <trkpt lat="47.37429" lon="-1.42131">
        <ele>86</ele>
        <time>2014-09-07T08:13:54.000Z</time>
      </trkpt>
      <trkpt lat="47.37424" lon="-1.42096">
        <ele>86</ele>
        <time>2014-09-07T08:13:58.000Z</time>
      </trkpt>
      <trkpt lat="47.37416" lon="-1.42055">
        <ele>85</ele>
        <time>2014-09-07T08:14:04.000Z</time>
      </trkpt>
      <trkpt lat="47.37414" lon="-1.42027">
        <ele>85</ele>
        <time>2014-09-07T08:14:08.000Z</time>
      </trkpt>
      <trkpt lat="47.37414" lon="-1.41995">
        <ele>84</ele>
        <time>2014-09-07T08:14:12.000Z</time>
      </trkpt>
      <trkpt lat="47.37414" lon="-1.41981">
        <ele>83</ele>
        <time>2014-09-07T08:14:14.000Z</time>
      </trkpt>
      <trkpt lat="47.37416" lon="-1.41968">
        <ele>83</ele>
        <time>2014-09-07T08:14:16.000Z</time>
      </trkpt>
      <trkpt lat="47.37426" lon="-1.41949">
        <ele>83</ele>
        <time>2014-09-07T08:14:20.000Z</time>
      </trkpt>
      <trkpt lat="47.37428" lon="-1.41941">
        <ele>83</ele>
        <time>2014-09-07T08:14:22.000Z</time>
      </trkpt>
      <trkpt lat="47.37428" lon="-1.41935">
        <ele>83</ele>
        <time>2014-09-07T08:14:24.000Z</time>
      </trkpt>
      <trkpt lat="47.37432" lon="-1.41905">
        <ele>84</ele>
        <time>2014-09-07T08:14:32.000Z</time>
      </trkpt>
      <trkpt lat="47.37431" lon="-1.41897">
        <ele>83</ele>
        <time>2014-09-07T08:14:34.000Z</time>
      </trkpt>
      <trkpt lat="47.37429" lon="-1.41872">
        <ele>84</ele>
        <time>2014-09-07T08:14:40.000Z</time>
      </trkpt>
      <trkpt lat="47.37427" lon="-1.41856">
        <ele>84</ele>
        <time>2014-09-07T08:14:44.000Z</time>
      </trkpt>
      <trkpt lat="47.37425" lon="-1.41848">
        <ele>84</ele>
        <time>2014-09-07T08:14:46.000Z</time>
      </trkpt>
      <trkpt lat="47.37418" lon="-1.41831">
        <ele>84</ele>
        <time>2014-09-07T08:14:52.000Z</time>
      </trkpt>
      <trkpt lat="47.37413" lon="-1.41819">
        <ele>84</ele>
        <time>2014-09-07T08:14:56.000Z</time>
      </trkpt>
      <trkpt lat="47.37411" lon="-1.41811">
        <ele>84</ele>
        <time>2014-09-07T08:14:58.000Z</time>
      </trkpt>
      <trkpt lat="47.37408" lon="-1.41805">
        <ele>85</ele>
        <time>2014-09-07T08:15:00.000Z</time>
      </trkpt>
      <trkpt lat="47.37401" lon="-1.41797">
        <ele>85</ele>
        <time>2014-09-07T08:15:04.000Z</time>
      </trkpt>
      <trkpt lat="47.37397" lon="-1.41797">
        <ele>85</ele>
        <time>2014-09-07T08:15:06.000Z</time>
      </trkpt>
      <trkpt lat="47.37394" lon="-1.41799">
        <ele>85</ele>
        <time>2014-09-07T08:15:08.000Z</time>
      </trkpt>
      <trkpt lat="47.37392" lon="-1.41802">
        <ele>85</ele>
        <time>2014-09-07T08:15:10.000Z</time>
      </trkpt>
      <trkpt lat="47.37386" lon="-1.41807">
        <ele>84</ele>
        <time>2014-09-07T08:15:14.000Z</time>
      </trkpt>
      <trkpt lat="47.37378" lon="-1.41812">
        <ele>83</ele>
        <time>2014-09-07T08:15:18.000Z</time>
      </trkpt>
      <trkpt lat="47.3737" lon="-1.4182">
        <ele>82</ele>
        <time>2014-09-07T08:15:22.000Z</time>
      </trkpt>
      <trkpt lat="47.37357" lon="-1.4183">
        <ele>81</ele>
        <time>2014-09-07T08:15:28.000Z</time>
      </trkpt>
      <trkpt lat="47.37345" lon="-1.41837">
        <ele>80</ele>
        <time>2014-09-07T08:15:34.000Z</time>
      </trkpt>
      <trkpt lat="47.37337" lon="-1.41842">
        <ele>81</ele>
        <time>2014-09-07T08:15:38.000Z</time>
      </trkpt>
      <trkpt lat="47.37328" lon="-1.41852">
        <ele>80</ele>
        <time>2014-09-07T08:15:44.000Z</time>
      </trkpt>
      <trkpt lat="47.37322" lon="-1.41857">
        <ele>81</ele>
        <time>2014-09-07T08:15:48.000Z</time>
      </trkpt>
      <trkpt lat="47.37307" lon="-1.41866">
        <ele>82</ele>
        <time>2014-09-07T08:15:56.000Z</time>
      </trkpt>
      <trkpt lat="47.37304" lon="-1.41868">
        <ele>81</ele>
        <time>2014-09-07T08:15:58.000Z</time>
      </trkpt>
      <trkpt lat="47.37297" lon="-1.41873">
        <ele>84</ele>
        <time>2014-09-07T08:16:02.000Z</time>
      </trkpt>
      <trkpt lat="47.37287" lon="-1.41881">
        <ele>85</ele>
        <time>2014-09-07T08:16:08.000Z</time>
      </trkpt>
      <trkpt lat="47.37284" lon="-1.41883">
        <ele>86</ele>
        <time>2014-09-07T08:16:10.000Z</time>
      </trkpt>
      <trkpt lat="47.37277" lon="-1.41888">
        <ele>87</ele>
        <time>2014-09-07T08:16:14.000Z</time>
      </trkpt>
      <trkpt lat="47.37271" lon="-1.41893">
        <ele>89</ele>
        <time>2014-09-07T08:16:18.000Z</time>
      </trkpt>
      <trkpt lat="47.37264" lon="-1.41897">
        <ele>90</ele>
        <time>2014-09-07T08:16:22.000Z</time>
      </trkpt>
      <trkpt lat="47.3726" lon="-1.41899">
        <ele>91</ele>
        <time>2014-09-07T08:16:24.000Z</time>
      </trkpt>
      <trkpt lat="47.37257" lon="-1.41902">
        <ele>92</ele>
        <time>2014-09-07T08:16:26.000Z</time>
      </trkpt>
      <trkpt lat="47.37254" lon="-1.41904">
        <ele>93</ele>
        <time>2014-09-07T08:16:28.000Z</time>
      </trkpt>
      <trkpt lat="47.3725" lon="-1.41906">
        <ele>93</ele>
        <time>2014-09-07T08:16:30.000Z</time>
      </trkpt>
      <trkpt lat="47.37247" lon="-1.41906">
        <ele>94</ele>
        <time>2014-09-07T08:16:32.000Z</time>
      </trkpt>
      <trkpt lat="47.37245" lon="-1.41903">
        <ele>94</ele>
        <time>2014-09-07T08:16:34.000Z</time>
      </trkpt>
      <trkpt lat="47.37244" lon="-1.41899">
        <ele>95</ele>
        <time>2014-09-07T08:16:36.000Z</time>
      </trkpt>
      <trkpt lat="47.37241" lon="-1.41892">
        <ele>95</ele>
        <time>2014-09-07T08:16:40.000Z</time>
      </trkpt>
      <trkpt lat="47.37241" lon="-1.41887">
        <ele>95</ele>
        <time>2014-09-07T08:16:42.000Z</time>
      </trkpt>
      <trkpt lat="47.37244" lon="-1.41882">
        <ele>96</ele>
        <time>2014-09-07T08:16:44.000Z</time>
      </trkpt>
      <trkpt lat="47.37246" lon="-1.41874">
        <ele>96</ele>
        <time>2014-09-07T08:16:46.000Z</time>
      </trkpt>
      <trkpt lat="47.37245" lon="-1.41864">
        <ele>96</ele>
        <time>2014-09-07T08:16:48.000Z</time>
      </trkpt>
      <trkpt lat="47.3724" lon="-1.41853">
        <ele>97</ele>
        <time>2014-09-07T08:16:50.000Z</time>
      </trkpt>
      <trkpt lat="47.3723" lon="-1.41839">
        <ele>97</ele>
        <time>2014-09-07T08:16:54.000Z</time>
      </trkpt>
      <trkpt lat="47.37227" lon="-1.41833">
        <ele>98</ele>
        <time>2014-09-07T08:16:56.000Z</time>
      </trkpt>
      <trkpt lat="47.37227" lon="-1.41831">
        <ele>98</ele>
        <time>2014-09-07T08:16:58.000Z</time>
      </trkpt>
      <trkpt lat="47.3723" lon="-1.4183">
        <ele>98</ele>
        <time>2014-09-07T08:17:00.000Z</time>
      </trkpt>
      <trkpt lat="47.37234" lon="-1.41828">
        <ele>98</ele>
        <time>2014-09-07T08:17:02.000Z</time>
      </trkpt>
      <trkpt lat="47.37238" lon="-1.41822">
        <ele>99</ele>
        <time>2014-09-07T08:17:04.000Z</time>
      </trkpt>
      <trkpt lat="47.37244" lon="-1.41818">
        <ele>99</ele>
        <time>2014-09-07T08:17:06.000Z</time>
      </trkpt>
      <trkpt lat="47.37247" lon="-1.41814">
        <ele>100</ele>
        <time>2014-09-07T08:17:08.000Z</time>
      </trkpt>
      <trkpt lat="47.37251" lon="-1.41811">
        <ele>100</ele>
        <time>2014-09-07T08:17:10.000Z</time>
      </trkpt>
      <trkpt lat="47.37254" lon="-1.41808">
        <ele>99</ele>
        <time>2014-09-07T08:17:12.000Z</time>
      </trkpt>
      <trkpt lat="47.37258" lon="-1.41807">
        <ele>99</ele>
        <time>2014-09-07T08:17:14.000Z</time>
      </trkpt>
      <trkpt lat="47.37268" lon="-1.418">
        <ele>100</ele>
        <time>2014-09-07T08:17:18.000Z</time>
      </trkpt>
      <trkpt lat="47.37272" lon="-1.41794">
        <ele>100</ele>
        <time>2014-09-07T08:17:20.000Z</time>
      </trkpt>
      <trkpt lat="47.37276" lon="-1.41788">
        <ele>99</ele>
        <time>2014-09-07T08:17:22.000Z</time>
      </trkpt>
      <trkpt lat="47.37281" lon="-1.41783">
        <ele>100</ele>
        <time>2014-09-07T08:17:26.000Z</time>
      </trkpt>
      <trkpt lat="47.37292" lon="-1.41779">
        <ele>100</ele>
        <time>2014-09-07T08:17:30.000Z</time>
      </trkpt>
      <trkpt lat="47.37297" lon="-1.41779">
        <ele>100</ele>
        <time>2014-09-07T08:17:32.000Z</time>
      </trkpt>
      <trkpt lat="47.37303" lon="-1.41777">
        <ele>100</ele>
        <time>2014-09-07T08:17:34.000Z</time>
      </trkpt>
      <trkpt lat="47.37313" lon="-1.41776">
        <ele>100</ele>
        <time>2014-09-07T08:17:36.000Z</time>
      </trkpt>
      <trkpt lat="47.37321" lon="-1.41769">
        <ele>100</ele>
        <time>2014-09-07T08:17:38.000Z</time>
      </trkpt>
      <trkpt lat="47.37326" lon="-1.41767">
        <ele>99</ele>
        <time>2014-09-07T08:17:40.000Z</time>
      </trkpt>
      <trkpt lat="47.37331" lon="-1.41764">
        <ele>98</ele>
        <time>2014-09-07T08:17:42.000Z</time>
      </trkpt>
      <trkpt lat="47.37341" lon="-1.41763">
        <ele>99</ele>
        <time>2014-09-07T08:17:44.000Z</time>
      </trkpt>
      <trkpt lat="47.37349" lon="-1.41764">
        <ele>98</ele>
        <time>2014-09-07T08:17:46.000Z</time>
      </trkpt>
      <trkpt lat="47.3736" lon="-1.41761">
        <ele>99</ele>
        <time>2014-09-07T08:17:48.000Z</time>
      </trkpt>
      <trkpt lat="47.3737" lon="-1.41755">
        <ele>98</ele>
        <time>2014-09-07T08:17:50.000Z</time>
      </trkpt>
      <trkpt lat="47.37375" lon="-1.4175">
        <ele>99</ele>
        <time>2014-09-07T08:17:52.000Z</time>
      </trkpt>
      <trkpt lat="47.37376" lon="-1.41745">
        <ele>99</ele>
        <time>2014-09-07T08:17:54.000Z</time>
      </trkpt>
      <trkpt lat="47.37375" lon="-1.41742">
        <ele>99</ele>
        <time>2014-09-07T08:17:56.000Z</time>
      </trkpt>
      <trkpt lat="47.37373" lon="-1.41741">
        <ele>99</ele>
        <time>2014-09-07T08:17:58.000Z</time>
      </trkpt>
      <trkpt lat="47.37365" lon="-1.41717">
        <ele>99</ele>
        <time>2014-09-07T08:18:04.000Z</time>
      </trkpt>
      <trkpt lat="47.37365" lon="-1.41709">
        <ele>98</ele>
        <time>2014-09-07T08:18:06.000Z</time>
      </trkpt>
      <trkpt lat="47.37363" lon="-1.41701">
        <ele>99</ele>
        <time>2014-09-07T08:18:08.000Z</time>
      </trkpt>
      <trkpt lat="47.37363" lon="-1.41695">
        <ele>99</ele>
        <time>2014-09-07T08:18:10.000Z</time>
      </trkpt>
      <trkpt lat="47.37363" lon="-1.41687">
        <ele>100</ele>
        <time>2014-09-07T08:18:12.000Z</time>
      </trkpt>
      <trkpt lat="47.37364" lon="-1.41667">
        <ele>100</ele>
        <time>2014-09-07T08:18:16.000Z</time>
      </trkpt>
      <trkpt lat="47.37362" lon="-1.41641">
        <ele>99</ele>
        <time>2014-09-07T08:18:20.000Z</time>
      </trkpt>
      <trkpt lat="47.37359" lon="-1.41628">
        <ele>99</ele>
        <time>2014-09-07T08:18:22.000Z</time>
      </trkpt>
      <trkpt lat="47.37357" lon="-1.41616">
        <ele>99</ele>
        <time>2014-09-07T08:18:24.000Z</time>
      </trkpt>
      <trkpt lat="47.37355" lon="-1.41607">
        <ele>99</ele>
        <time>2014-09-07T08:18:26.000Z</time>
      </trkpt>
      <trkpt lat="47.37357" lon="-1.41594">
        <ele>98</ele>
        <time>2014-09-07T08:18:28.000Z</time>
      </trkpt>
      <trkpt lat="47.3736" lon="-1.41584">
        <ele>97</ele>
        <time>2014-09-07T08:18:30.000Z</time>
      </trkpt>
      <trkpt lat="47.37366" lon="-1.41578">
        <ele>96</ele>
        <time>2014-09-07T08:18:32.000Z</time>
      </trkpt>
      <trkpt lat="47.3737" lon="-1.41572">
        <ele>96</ele>
        <time>2014-09-07T08:18:34.000Z</time>
      </trkpt>
      <trkpt lat="47.3737" lon="-1.41568">
        <ele>96</ele>
        <time>2014-09-07T08:18:36.000Z</time>
      </trkpt>
      <trkpt lat="47.37368" lon="-1.41563">
        <ele>96</ele>
        <time>2014-09-07T08:18:38.000Z</time>
      </trkpt>
      <trkpt lat="47.37366" lon="-1.4156">
        <ele>96</ele>
        <time>2014-09-07T08:18:40.000Z</time>
      </trkpt>
      <trkpt lat="47.37363" lon="-1.41557">
        <ele>96</ele>
        <time>2014-09-07T08:18:42.000Z</time>
      </trkpt>
      <trkpt lat="47.37363" lon="-1.41548">
        <ele>96</ele>
        <time>2014-09-07T08:18:46.000Z</time>
      </trkpt>
      <trkpt lat="47.37364" lon="-1.41548">
        <ele>96</ele>
        <time>2014-09-07T08:18:48.000Z</time>
      </trkpt>
      <trkpt lat="47.37363" lon="-1.41547">
        <ele>96</ele>
        <time>2014-09-07T08:18:50.000Z</time>
      </trkpt>
      <trkpt lat="47.37362" lon="-1.41544">
        <ele>96</ele>
        <time>2014-09-07T08:18:52.000Z</time>
      </trkpt>
      <trkpt lat="47.37358" lon="-1.41541">
        <ele>96</ele>
        <time>2014-09-07T08:18:54.000Z</time>
      </trkpt>
      <trkpt lat="47.37357" lon="-1.41538">
        <ele>96</ele>
        <time>2014-09-07T08:18:56.000Z</time>
      </trkpt>
      <trkpt lat="47.37357" lon="-1.41534">
        <ele>96</ele>
        <time>2014-09-07T08:18:58.000Z</time>
      </trkpt>
      <trkpt lat="47.37357" lon="-1.41525">
        <ele>96</ele>
        <time>2014-09-07T08:19:02.000Z</time>
      </trkpt>
      <trkpt lat="47.37357" lon="-1.41514">
        <ele>96</ele>
        <time>2014-09-07T08:19:06.000Z</time>
      </trkpt>
      <trkpt lat="47.37357" lon="-1.41508">
        <ele>94</ele>
        <time>2014-09-07T08:19:08.000Z</time>
      </trkpt>
      <trkpt lat="47.37355" lon="-1.41506">
        <ele>93</ele>
        <time>2014-09-07T08:19:10.000Z</time>
      </trkpt>
      <trkpt lat="47.37347" lon="-1.41496">
        <ele>94</ele>
        <time>2014-09-07T08:19:14.000Z</time>
      </trkpt>
      <trkpt lat="47.37341" lon="-1.41487">
        <ele>94</ele>
        <time>2014-09-07T08:19:16.000Z</time>
      </trkpt>
      <trkpt lat="47.37336" lon="-1.41475">
        <ele>95</ele>
        <time>2014-09-07T08:19:19.000Z</time>
      </trkpt>
      <trkpt lat="47.37334" lon="-1.41465">
        <ele>96</ele>
        <time>2014-09-07T08:19:20.000Z</time>
      </trkpt>
      <trkpt lat="47.37333" lon="-1.41459">
        <ele>96</ele>
        <time>2014-09-07T08:19:22.000Z</time>
      </trkpt>
      <trkpt lat="47.37333" lon="-1.41456">
        <ele>96</ele>
        <time>2014-09-07T08:19:24.000Z</time>
      </trkpt>
      <trkpt lat="47.3733" lon="-1.41453">
        <ele>96</ele>
        <time>2014-09-07T08:19:26.000Z</time>
      </trkpt>
      <trkpt lat="47.37326" lon="-1.41447">
        <ele>96</ele>
        <time>2014-09-07T08:19:28.000Z</time>
      </trkpt>
      <trkpt lat="47.37323" lon="-1.41444">
        <ele>96</ele>
        <time>2014-09-07T08:19:30.000Z</time>
      </trkpt>
      <trkpt lat="47.37315" lon="-1.41441">
        <ele>96</ele>
        <time>2014-09-07T08:19:34.000Z</time>
      </trkpt>
      <trkpt lat="47.37313" lon="-1.41438">
        <ele>96</ele>
        <time>2014-09-07T08:19:36.000Z</time>
      </trkpt>
      <trkpt lat="47.37312" lon="-1.41434">
        <ele>96</ele>
        <time>2014-09-07T08:19:38.000Z</time>
      </trkpt>
      <trkpt lat="47.37309" lon="-1.41428">
        <ele>96</ele>
        <time>2014-09-07T08:19:40.000Z</time>
      </trkpt>
      <trkpt lat="47.37308" lon="-1.41424">
        <ele>96</ele>
        <time>2014-09-07T08:19:42.000Z</time>
      </trkpt>
      <trkpt lat="47.37306" lon="-1.41416">
        <ele>96</ele>
        <time>2014-09-07T08:19:44.000Z</time>
      </trkpt>
      <trkpt lat="47.37305" lon="-1.41411">
        <ele>96</ele>
        <time>2014-09-07T08:19:46.000Z</time>
      </trkpt>
      <trkpt lat="47.373" lon="-1.41399">
        <ele>96</ele>
        <time>2014-09-07T08:19:50.000Z</time>
      </trkpt>
      <trkpt lat="47.37296" lon="-1.41388">
        <ele>95</ele>
        <time>2014-09-07T08:19:54.000Z</time>
      </trkpt>
      <trkpt lat="47.37293" lon="-1.41379">
        <ele>94</ele>
        <time>2014-09-07T08:19:56.000Z</time>
      </trkpt>
      <trkpt lat="47.37289" lon="-1.41372">
        <ele>94</ele>
        <time>2014-09-07T08:19:58.000Z</time>
      </trkpt>
      <trkpt lat="47.37286" lon="-1.41365">
        <ele>95</ele>
        <time>2014-09-07T08:20:00.000Z</time>
      </trkpt>
      <trkpt lat="47.37283" lon="-1.41361">
        <ele>95</ele>
        <time>2014-09-07T08:20:02.000Z</time>
      </trkpt>
      <trkpt lat="47.37281" lon="-1.41356">
        <ele>96</ele>
        <time>2014-09-07T08:20:04.000Z</time>
      </trkpt>
      <trkpt lat="47.37279" lon="-1.41354">
        <ele>96</ele>
        <time>2014-09-07T08:20:06.000Z</time>
      </trkpt>
      <trkpt lat="47.37277" lon="-1.41351">
        <ele>96</ele>
        <time>2014-09-07T08:20:08.000Z</time>
      </trkpt>
      <trkpt lat="47.37276" lon="-1.41351">
        <ele>95</ele>
        <time>2014-09-07T08:20:10.000Z</time>
      </trkpt>
      <trkpt lat="47.37277" lon="-1.41351">
        <ele>95</ele>
        <time>2014-09-07T08:20:16.000Z</time>
      </trkpt>
      <trkpt lat="47.37277" lon="-1.4135">
        <ele>95</ele>
        <time>2014-09-07T08:20:18.000Z</time>
      </trkpt>
      <trkpt lat="47.37277" lon="-1.4135">
        <ele>95</ele>
        <time>2014-09-07T08:20:20.000Z</time>
      </trkpt>
      <trkpt lat="47.37276" lon="-1.41349">
        <ele>96</ele>
        <time>2014-09-07T08:20:22.000Z</time>
      </trkpt>
      <trkpt lat="47.37274" lon="-1.41347">
        <ele>97</ele>
        <time>2014-09-07T08:20:24.000Z</time>
      </trkpt>
      <trkpt lat="47.37274" lon="-1.41346">
        <ele>97</ele>
        <time>2014-09-07T08:20:26.000Z</time>
      </trkpt>
      <trkpt lat="47.37274" lon="-1.41346">
        <ele>98</ele>
        <time>2014-09-07T08:20:28.000Z</time>
      </trkpt>
      <trkpt lat="47.37274" lon="-1.41346">
        <ele>98</ele>
        <time>2014-09-07T08:20:30.000Z</time>
      </trkpt>
      <trkpt lat="47.37273" lon="-1.41345">
        <ele>98</ele>
        <time>2014-09-07T08:20:32.000Z</time>
      </trkpt>
      <trkpt lat="47.37273" lon="-1.41344">
        <ele>99</ele>
        <time>2014-09-07T08:20:34.000Z</time>
      </trkpt>
      <trkpt lat="47.37273" lon="-1.41342">
        <ele>100</ele>
        <time>2014-09-07T08:20:36.000Z</time>
      </trkpt>
      <trkpt lat="47.37271" lon="-1.41339">
        <ele>100</ele>
        <time>2014-09-07T08:20:38.000Z</time>
      </trkpt>
      <trkpt lat="47.37269" lon="-1.41337">
        <ele>100</ele>
        <time>2014-09-07T08:20:40.000Z</time>
      </trkpt>
      <trkpt lat="47.37269" lon="-1.41338">
        <ele>100</ele>
        <time>2014-09-07T08:20:42.000Z</time>
      </trkpt>
      <trkpt lat="47.37269" lon="-1.41339">
        <ele>99</ele>
        <time>2014-09-07T08:20:44.000Z</time>
      </trkpt>
      <trkpt lat="47.37265" lon="-1.4134">
        <ele>98</ele>
        <time>2014-09-07T08:20:48.000Z</time>
      </trkpt>
      <trkpt lat="47.37262" lon="-1.41341">
        <ele>97</ele>
        <time>2014-09-07T08:20:50.000Z</time>
      </trkpt>
      <trkpt lat="47.3726" lon="-1.41341">
        <ele>97</ele>
        <time>2014-09-07T08:20:52.000Z</time>
      </trkpt>
      <trkpt lat="47.37258" lon="-1.41339">
        <ele>97</ele>
        <time>2014-09-07T08:20:54.000Z</time>
      </trkpt>
      <trkpt lat="47.37255" lon="-1.41337">
        <ele>97</ele>
        <time>2014-09-07T08:20:56.000Z</time>
      </trkpt>
      <trkpt lat="47.37253" lon="-1.41334">
        <ele>98</ele>
        <time>2014-09-07T08:20:58.000Z</time>
      </trkpt>
      <trkpt lat="47.37246" lon="-1.41323">
        <ele>97</ele>
        <time>2014-09-07T08:21:02.000Z</time>
      </trkpt>
      <trkpt lat="47.3723" lon="-1.41298">
        <ele>96</ele>
        <time>2014-09-07T08:21:10.000Z</time>
      </trkpt>
      <trkpt lat="47.37221" lon="-1.41281">
        <ele>96</ele>
        <time>2014-09-07T08:21:14.000Z</time>
      </trkpt>
      <trkpt lat="47.37218" lon="-1.41273">
        <ele>97</ele>
        <time>2014-09-07T08:21:16.000Z</time>
      </trkpt>
      <trkpt lat="47.37215" lon="-1.41265">
        <ele>98</ele>
        <time>2014-09-07T08:21:18.000Z</time>
      </trkpt>
      <trkpt lat="47.37213" lon="-1.41254">
        <ele>98</ele>
        <time>2014-09-07T08:21:20.000Z</time>
      </trkpt>
      <trkpt lat="47.37211" lon="-1.41244">
        <ele>98</ele>
        <time>2014-09-07T08:21:22.000Z</time>
      </trkpt>
      <trkpt lat="47.37209" lon="-1.41234">
        <ele>99</ele>
        <time>2014-09-07T08:21:24.000Z</time>
      </trkpt>
      <trkpt lat="47.37206" lon="-1.41222">
        <ele>98</ele>
        <time>2014-09-07T08:21:26.000Z</time>
      </trkpt>
      <trkpt lat="47.37203" lon="-1.41209">
        <ele>98</ele>
        <time>2014-09-07T08:21:28.000Z</time>
      </trkpt>
      <trkpt lat="47.37203" lon="-1.41199">
        <ele>99</ele>
        <time>2014-09-07T08:21:30.000Z</time>
      </trkpt>
      <trkpt lat="47.37206" lon="-1.41182">
        <ele>98</ele>
        <time>2014-09-07T08:21:32.000Z</time>
      </trkpt>
      <trkpt lat="47.37207" lon="-1.41166">
        <ele>98</ele>
        <time>2014-09-07T08:21:35.000Z</time>
      </trkpt>
      <trkpt lat="47.37204" lon="-1.41154">
        <ele>98</ele>
        <time>2014-09-07T08:21:36.000Z</time>
      </trkpt>
      <trkpt lat="47.37203" lon="-1.41138">
        <ele>98</ele>
        <time>2014-09-07T08:21:38.000Z</time>
      </trkpt>
      <trkpt lat="47.37205" lon="-1.41127">
        <ele>98</ele>
        <time>2014-09-07T08:21:40.000Z</time>
      </trkpt>
      <trkpt lat="47.37213" lon="-1.41124">
        <ele>98</ele>
        <time>2014-09-07T08:21:42.000Z</time>
      </trkpt>
      <trkpt lat="47.37218" lon="-1.41119">
        <ele>99</ele>
        <time>2014-09-07T08:21:44.000Z</time>
      </trkpt>
      <trkpt lat="47.37221" lon="-1.41115">
        <ele>99</ele>
        <time>2014-09-07T08:21:46.000Z</time>
      </trkpt>
      <trkpt lat="47.37223" lon="-1.41112">
        <ele>99</ele>
        <time>2014-09-07T08:21:48.000Z</time>
      </trkpt>
      <trkpt lat="47.37223" lon="-1.41106">
        <ele>99</ele>
        <time>2014-09-07T08:21:50.000Z</time>
      </trkpt>
      <trkpt lat="47.37222" lon="-1.41101">
        <ele>99</ele>
        <time>2014-09-07T08:21:52.000Z</time>
      </trkpt>
      <trkpt lat="47.37223" lon="-1.41098">
        <ele>98</ele>
        <time>2014-09-07T08:21:54.000Z</time>
      </trkpt>
      <trkpt lat="47.37225" lon="-1.41096">
        <ele>98</ele>
        <time>2014-09-07T08:21:56.000Z</time>
      </trkpt>
      <trkpt lat="47.37226" lon="-1.4109">
        <ele>97</ele>
        <time>2014-09-07T08:22:00.000Z</time>
      </trkpt>
      <trkpt lat="47.37228" lon="-1.41089">
        <ele>96</ele>
        <time>2014-09-07T08:22:02.000Z</time>
      </trkpt>
      <trkpt lat="47.37229" lon="-1.41087">
        <ele>96</ele>
        <time>2014-09-07T08:22:04.000Z</time>
      </trkpt>
      <trkpt lat="47.37228" lon="-1.41086">
        <ele>96</ele>
        <time>2014-09-07T08:22:06.000Z</time>
      </trkpt>
      <trkpt lat="47.37229" lon="-1.41086">
        <ele>98</ele>
        <time>2014-09-07T08:22:08.000Z</time>
      </trkpt>
      <trkpt lat="47.3723" lon="-1.41086">
        <ele>98</ele>
        <time>2014-09-07T08:22:10.000Z</time>
      </trkpt>
      <trkpt lat="47.3723" lon="-1.41086">
        <ele>98</ele>
        <time>2014-09-07T08:22:12.000Z</time>
      </trkpt>
      <trkpt lat="47.3723" lon="-1.41086">
        <ele>98</ele>
        <time>2014-09-07T08:22:14.000Z</time>
      </trkpt>
      <trkpt lat="47.3723" lon="-1.41086">
        <ele>98</ele>
        <time>2014-09-07T08:22:18.000Z</time>
      </trkpt>
      <trkpt lat="47.3723" lon="-1.41086">
        <ele>98</ele>
        <time>2014-09-07T08:22:26.000Z</time>
      </trkpt>
      <trkpt lat="47.3723" lon="-1.41086">
        <ele>98</ele>
        <time>2014-09-07T08:22:28.000Z</time>
      </trkpt>
      <trkpt lat="47.3723" lon="-1.41086">
        <ele>98</ele>
        <time>2014-09-07T08:22:30.000Z</time>
      </trkpt>
      <trkpt lat="47.37231" lon="-1.41086">
        <ele>99</ele>
        <time>2014-09-07T08:22:32.000Z</time>
      </trkpt>
      <trkpt lat="47.37231" lon="-1.41086">
        <ele>99</ele>
        <time>2014-09-07T08:22:34.000Z</time>
      </trkpt>
      <trkpt lat="47.37231" lon="-1.41086">
        <ele>99</ele>
        <time>2014-09-07T08:22:36.000Z</time>
      </trkpt>
      <trkpt lat="47.37231" lon="-1.41086">
        <ele>100</ele>
        <time>2014-09-07T08:22:38.000Z</time>
      </trkpt>
      <trkpt lat="47.37231" lon="-1.41086">
        <ele>100</ele>
        <time>2014-09-07T08:22:40.000Z</time>
      </trkpt>
      <trkpt lat="47.37231" lon="-1.41086">
        <ele>100</ele>
        <time>2014-09-07T08:22:42.000Z</time>
      </trkpt>
      <trkpt lat="47.37231" lon="-1.41086">
        <ele>100</ele>
        <time>2014-09-07T08:22:44.000Z</time>
      </trkpt>
      <trkpt lat="47.37232" lon="-1.41087">
        <ele>99</ele>
        <time>2014-09-07T08:22:46.000Z</time>
      </trkpt>
      <trkpt lat="47.37232" lon="-1.41087">
        <ele>99</ele>
        <time>2014-09-07T08:22:50.000Z</time>
      </trkpt>
      <trkpt lat="47.37233" lon="-1.41087">
        <ele>99</ele>
        <time>2014-09-07T08:22:52.000Z</time>
      </trkpt>
      <trkpt lat="47.37233" lon="-1.41087">
        <ele>99</ele>
        <time>2014-09-07T08:22:54.000Z</time>
      </trkpt>
      <trkpt lat="47.37233" lon="-1.41087">
        <ele>100</ele>
        <time>2014-09-07T08:22:56.000Z</time>
      </trkpt>
      <trkpt lat="47.37233" lon="-1.41086">
        <ele>99</ele>
        <time>2014-09-07T08:22:58.000Z</time>
      </trkpt>
      <trkpt lat="47.37232" lon="-1.41083">
        <ele>99</ele>
        <time>2014-09-07T08:23:00.000Z</time>
      </trkpt>
      <trkpt lat="47.3723" lon="-1.41079">
        <ele>99</ele>
        <time>2014-09-07T08:23:02.000Z</time>
      </trkpt>
      <trkpt lat="47.37219" lon="-1.4105">
        <ele>100</ele>
        <time>2014-09-07T08:23:12.000Z</time>
      </trkpt>
      <trkpt lat="47.37218" lon="-1.41043">
        <ele>100</ele>
        <time>2014-09-07T08:23:14.000Z</time>
      </trkpt>
      <trkpt lat="47.37218" lon="-1.41035">
        <ele>100</ele>
        <time>2014-09-07T08:23:16.000Z</time>
      </trkpt>
      <trkpt lat="47.3722" lon="-1.41025">
        <ele>100</ele>
        <time>2014-09-07T08:23:18.000Z</time>
      </trkpt>
      <trkpt lat="47.37221" lon="-1.41015">
        <ele>99</ele>
        <time>2014-09-07T08:23:20.000Z</time>
      </trkpt>
      <trkpt lat="47.37227" lon="-1.40996">
        <ele>98</ele>
        <time>2014-09-07T08:23:24.000Z</time>
      </trkpt>
      <trkpt lat="47.37247" lon="-1.40949">
        <ele>99</ele>
        <time>2014-09-07T08:23:36.000Z</time>
      </trkpt>
      <trkpt lat="47.37249" lon="-1.40943">
        <ele>100</ele>
        <time>2014-09-07T08:23:38.000Z</time>
      </trkpt>
      <trkpt lat="47.37255" lon="-1.40922">
        <ele>100</ele>
        <time>2014-09-07T08:23:44.000Z</time>
      </trkpt>
      <trkpt lat="47.37257" lon="-1.40915">
        <ele>101</ele>
        <time>2014-09-07T08:23:46.000Z</time>
      </trkpt>
      <trkpt lat="47.37261" lon="-1.40902">
        <ele>102</ele>
        <time>2014-09-07T08:23:50.000Z</time>
      </trkpt>
      <trkpt lat="47.37267" lon="-1.40882">
        <ele>103</ele>
        <time>2014-09-07T08:23:56.000Z</time>
      </trkpt>
      <trkpt lat="47.3727" lon="-1.40878">
        <ele>103</ele>
        <time>2014-09-07T08:23:58.000Z</time>
      </trkpt>
      <trkpt lat="47.37279" lon="-1.40881">
        <ele>105</ele>
        <time>2014-09-07T08:24:02.000Z</time>
      </trkpt>
      <trkpt lat="47.37283" lon="-1.40882">
        <ele>106</ele>
        <time>2014-09-07T08:24:04.000Z</time>
      </trkpt>
      <trkpt lat="47.37298" lon="-1.40886">
        <ele>106</ele>
        <time>2014-09-07T08:24:10.000Z</time>
      </trkpt>
      <trkpt lat="47.37303" lon="-1.40887">
        <ele>107</ele>
        <time>2014-09-07T08:24:12.000Z</time>
      </trkpt>
      <trkpt lat="47.37309" lon="-1.40889">
        <ele>107</ele>
        <time>2014-09-07T08:24:14.000Z</time>
      </trkpt>
      <trkpt lat="47.37315" lon="-1.40889">
        <ele>108</ele>
        <time>2014-09-07T08:24:16.000Z</time>
      </trkpt>
      <trkpt lat="47.37324" lon="-1.40893">
        <ele>107</ele>
        <time>2014-09-07T08:24:20.000Z</time>
      </trkpt>
      <trkpt lat="47.37327" lon="-1.40902">
        <ele>107</ele>
        <time>2014-09-07T08:24:22.000Z</time>
      </trkpt>
      <trkpt lat="47.37329" lon="-1.40913">
        <ele>107</ele>
        <time>2014-09-07T08:24:24.000Z</time>
      </trkpt>
      <trkpt lat="47.37331" lon="-1.40925">
        <ele>108</ele>
        <time>2014-09-07T08:24:26.000Z</time>
      </trkpt>
      <trkpt lat="47.37334" lon="-1.40952">
        <ele>108</ele>
        <time>2014-09-07T08:24:30.000Z</time>
      </trkpt>
      <trkpt lat="47.37341" lon="-1.40981">
        <ele>108</ele>
        <time>2014-09-07T08:24:34.000Z</time>
      </trkpt>
      <trkpt lat="47.37346" lon="-1.40995">
        <ele>109</ele>
        <time>2014-09-07T08:24:36.000Z</time>
      </trkpt>
      <trkpt lat="47.37357" lon="-1.41024">
        <ele>110</ele>
        <time>2014-09-07T08:24:40.000Z</time>
      </trkpt>
      <trkpt lat="47.37378" lon="-1.41066">
        <ele>110</ele>
        <time>2014-09-07T08:24:46.000Z</time>
      </trkpt>
      <trkpt lat="47.37393" lon="-1.41102">
        <ele>111</ele>
        <time>2014-09-07T08:24:50.000Z</time>
      </trkpt>
      <trkpt lat="47.374" lon="-1.4112">
        <ele>111</ele>
        <time>2014-09-07T08:24:52.000Z</time>
      </trkpt>
      <trkpt lat="47.37414" lon="-1.4115">
        <ele>110</ele>
        <time>2014-09-07T08:24:56.000Z</time>
      </trkpt>
      <trkpt lat="47.37428" lon="-1.41149">
        <ele>109</ele>
        <time>2014-09-07T08:24:58.000Z</time>
      </trkpt>
      <trkpt lat="47.37454" lon="-1.41127">
        <ele>108</ele>
        <time>2014-09-07T08:25:02.000Z</time>
      </trkpt>
      <trkpt lat="47.37481" lon="-1.41102">
        <ele>108</ele>
        <time>2014-09-07T08:25:06.000Z</time>
      </trkpt>
      <trkpt lat="47.3751" lon="-1.41081">
        <ele>107</ele>
        <time>2014-09-07T08:25:10.000Z</time>
      </trkpt>
      <trkpt lat="47.3754" lon="-1.41064">
        <ele>106</ele>
        <time>2014-09-07T08:25:14.000Z</time>
      </trkpt>
      <trkpt lat="47.37557" lon="-1.41053">
        <ele>105</ele>
        <time>2014-09-07T08:25:16.000Z</time>
      </trkpt>
      <trkpt lat="47.37577" lon="-1.41044">
        <ele>102</ele>
        <time>2014-09-07T08:25:18.000Z</time>
      </trkpt>
      <trkpt lat="47.37613" lon="-1.41024">
        <ele>101</ele>
        <time>2014-09-07T08:25:22.000Z</time>
      </trkpt>
      <trkpt lat="47.3765" lon="-1.41008">
        <ele>101</ele>
        <time>2014-09-07T08:25:26.000Z</time>
      </trkpt>
      <trkpt lat="47.37687" lon="-1.40996">
        <ele>99</ele>
        <time>2014-09-07T08:25:30.000Z</time>
      </trkpt>
      <trkpt lat="47.3772" lon="-1.40988">
        <ele>96</ele>
        <time>2014-09-07T08:25:34.000Z</time>
      </trkpt>
      <trkpt lat="47.37735" lon="-1.40986">
        <ele>95</ele>
        <time>2014-09-07T08:25:36.000Z</time>
      </trkpt>
      <trkpt lat="47.3776" lon="-1.40985">
        <ele>97</ele>
        <time>2014-09-07T08:25:40.000Z</time>
      </trkpt>
      <trkpt lat="47.3777" lon="-1.40981">
        <ele>97</ele>
        <time>2014-09-07T08:25:42.000Z</time>
      </trkpt>
      <trkpt lat="47.37779" lon="-1.40979">
        <ele>96</ele>
        <time>2014-09-07T08:25:44.000Z</time>
      </trkpt>
      <trkpt lat="47.3779" lon="-1.40978">
        <ele>98</ele>
        <time>2014-09-07T08:25:46.000Z</time>
      </trkpt>
      <trkpt lat="47.37806" lon="-1.40967">
        <ele>98</ele>
        <time>2014-09-07T08:25:50.000Z</time>
      </trkpt>
      <trkpt lat="47.37812" lon="-1.40956">
        <ele>98</ele>
        <time>2014-09-07T08:25:52.000Z</time>
      </trkpt>
      <trkpt lat="47.37812" lon="-1.40943">
        <ele>98</ele>
        <time>2014-09-07T08:25:54.000Z</time>
      </trkpt>
      <trkpt lat="47.37813" lon="-1.40929">
        <ele>97</ele>
        <time>2014-09-07T08:25:56.000Z</time>
      </trkpt>
      <trkpt lat="47.37813" lon="-1.40916">
        <ele>98</ele>
        <time>2014-09-07T08:25:58.000Z</time>
      </trkpt>
      <trkpt lat="47.37811" lon="-1.40903">
        <ele>99</ele>
        <time>2014-09-07T08:26:00.000Z</time>
      </trkpt>
      <trkpt lat="47.37808" lon="-1.40893">
        <ele>100</ele>
        <time>2014-09-07T08:26:02.000Z</time>
      </trkpt>
      <trkpt lat="47.378" lon="-1.4087">
        <ele>101</ele>
        <time>2014-09-07T08:26:06.000Z</time>
      </trkpt>
      <trkpt lat="47.37796" lon="-1.40852">
        <ele>100</ele>
        <time>2014-09-07T08:26:08.000Z</time>
      </trkpt>
      <trkpt lat="47.37791" lon="-1.40819">
        <ele>99</ele>
        <time>2014-09-07T08:26:12.000Z</time>
      </trkpt>
      <trkpt lat="47.37788" lon="-1.40803">
        <ele>100</ele>
        <time>2014-09-07T08:26:14.000Z</time>
      </trkpt>
      <trkpt lat="47.37774" lon="-1.40742">
        <ele>101</ele>
        <time>2014-09-07T08:26:22.000Z</time>
      </trkpt>
      <trkpt lat="47.37767" lon="-1.40715">
        <ele>101</ele>
        <time>2014-09-07T08:26:26.000Z</time>
      </trkpt>
      <trkpt lat="47.37758" lon="-1.40662">
        <ele>102</ele>
        <time>2014-09-07T08:26:34.000Z</time>
      </trkpt>
      <trkpt lat="47.37755" lon="-1.40648">
        <ele>103</ele>
        <time>2014-09-07T08:26:36.000Z</time>
      </trkpt>
      <trkpt lat="47.37747" lon="-1.40622">
        <ele>104</ele>
        <time>2014-09-07T08:26:40.000Z</time>
      </trkpt>
      <trkpt lat="47.37743" lon="-1.40608">
        <ele>104</ele>
        <time>2014-09-07T08:26:42.000Z</time>
      </trkpt>
      <trkpt lat="47.37732" lon="-1.40552">
        <ele>103</ele>
        <time>2014-09-07T08:26:48.000Z</time>
      </trkpt>
      <trkpt lat="47.37716" lon="-1.40478">
        <ele>103</ele>
        <time>2014-09-07T08:26:58.000Z</time>
      </trkpt>
      <trkpt lat="47.37705" lon="-1.40434">
        <ele>104</ele>
        <time>2014-09-07T08:27:04.000Z</time>
      </trkpt>
      <trkpt lat="47.37695" lon="-1.40392">
        <ele>105</ele>
        <time>2014-09-07T08:27:10.000Z</time>
      </trkpt>
      <trkpt lat="47.37692" lon="-1.40366">
        <ele>105</ele>
        <time>2014-09-07T08:27:14.000Z</time>
      </trkpt>
      <trkpt lat="47.377" lon="-1.40351">
        <ele>105</ele>
        <time>2014-09-07T08:27:16.000Z</time>
      </trkpt>
      <trkpt lat="47.37709" lon="-1.40341">
        <ele>104</ele>
        <time>2014-09-07T08:27:18.000Z</time>
      </trkpt>
      <trkpt lat="47.37717" lon="-1.40335">
        <ele>104</ele>
        <time>2014-09-07T08:27:20.000Z</time>
      </trkpt>
      <trkpt lat="47.37747" lon="-1.40325">
        <ele>105</ele>
        <time>2014-09-07T08:27:28.000Z</time>
      </trkpt>
      <trkpt lat="47.37761" lon="-1.40322">
        <ele>105</ele>
        <time>2014-09-07T08:27:32.000Z</time>
      </trkpt>
      <trkpt lat="47.37768" lon="-1.4032">
        <ele>106</ele>
        <time>2014-09-07T08:27:34.000Z</time>
      </trkpt>
      <trkpt lat="47.37776" lon="-1.40318">
        <ele>107</ele>
        <time>2014-09-07T08:27:36.000Z</time>
      </trkpt>
      <trkpt lat="47.37798" lon="-1.40312">
        <ele>108</ele>
        <time>2014-09-07T08:27:42.000Z</time>
      </trkpt>
      <trkpt lat="47.37806" lon="-1.40312">
        <ele>108</ele>
        <time>2014-09-07T08:27:44.000Z</time>
      </trkpt>
      <trkpt lat="47.37813" lon="-1.40312">
        <ele>109</ele>
        <time>2014-09-07T08:27:46.000Z</time>
      </trkpt>
      <trkpt lat="47.37819" lon="-1.40311">
        <ele>109</ele>
        <time>2014-09-07T08:27:48.000Z</time>
      </trkpt>
      <trkpt lat="47.37827" lon="-1.40307">
        <ele>108</ele>
        <time>2014-09-07T08:27:50.000Z</time>
      </trkpt>
      <trkpt lat="47.37856" lon="-1.40295">
        <ele>108</ele>
        <time>2014-09-07T08:27:58.000Z</time>
      </trkpt>
      <trkpt lat="47.37862" lon="-1.40289">
        <ele>108</ele>
        <time>2014-09-07T08:28:00.000Z</time>
      </trkpt>
      <trkpt lat="47.37866" lon="-1.40281">
        <ele>108</ele>
        <time>2014-09-07T08:28:02.000Z</time>
      </trkpt>
      <trkpt lat="47.37869" lon="-1.40271">
        <ele>108</ele>
        <time>2014-09-07T08:28:04.000Z</time>
      </trkpt>
      <trkpt lat="47.37873" lon="-1.40263">
        <ele>109</ele>
        <time>2014-09-07T08:28:06.000Z</time>
      </trkpt>
      <trkpt lat="47.3788" lon="-1.40259">
        <ele>108</ele>
        <time>2014-09-07T08:28:08.000Z</time>
      </trkpt>
      <trkpt lat="47.37886" lon="-1.40263">
        <ele>108</ele>
        <time>2014-09-07T08:28:10.000Z</time>
      </trkpt>
      <trkpt lat="47.37901" lon="-1.40277">
        <ele>109</ele>
        <time>2014-09-07T08:28:14.000Z</time>
      </trkpt>
      <trkpt lat="47.37909" lon="-1.40276">
        <ele>109</ele>
        <time>2014-09-07T08:28:16.000Z</time>
      </trkpt>
      <trkpt lat="47.37925" lon="-1.40266">
        <ele>111</ele>
        <time>2014-09-07T08:28:20.000Z</time>
      </trkpt>
      <trkpt lat="47.37933" lon="-1.40263">
        <ele>112</ele>
        <time>2014-09-07T08:28:22.000Z</time>
      </trkpt>
      <trkpt lat="47.3795" lon="-1.40254">
        <ele>112</ele>
        <time>2014-09-07T08:28:26.000Z</time>
      </trkpt>
      <trkpt lat="47.37973" lon="-1.40242">
        <ele>112</ele>
        <time>2014-09-07T08:28:30.000Z</time>
      </trkpt>
      <trkpt lat="47.38021" lon="-1.4022">
        <ele>112</ele>
        <time>2014-09-07T08:28:38.000Z</time>
      </trkpt>
      <trkpt lat="47.38048" lon="-1.40208">
        <ele>113</ele>
        <time>2014-09-07T08:28:44.000Z</time>
      </trkpt>
      <trkpt lat="47.38046" lon="-1.40198">
        <ele>114</ele>
        <time>2014-09-07T08:28:46.000Z</time>
      </trkpt>
      <trkpt lat="47.38045" lon="-1.40189">
        <ele>115</ele>
        <time>2014-09-07T08:28:48.000Z</time>
      </trkpt>
      <trkpt lat="47.38042" lon="-1.40169">
        <ele>116</ele>
        <time>2014-09-07T08:28:52.000Z</time>
      </trkpt>
      <trkpt lat="47.38034" lon="-1.40131">
        <ele>116</ele>
        <time>2014-09-07T08:29:00.000Z</time>
      </trkpt>
      <trkpt lat="47.38033" lon="-1.40118">
        <ele>115</ele>
        <time>2014-09-07T08:29:02.000Z</time>
      </trkpt>
      <trkpt lat="47.38031" lon="-1.40105">
        <ele>114</ele>
        <time>2014-09-07T08:29:04.000Z</time>
      </trkpt>
      <trkpt lat="47.38024" lon="-1.40075">
        <ele>114</ele>
        <time>2014-09-07T08:29:10.000Z</time>
      </trkpt>
      <trkpt lat="47.38016" lon="-1.40055">
        <ele>115</ele>
        <time>2014-09-07T08:29:14.000Z</time>
      </trkpt>
      <trkpt lat="47.3801" lon="-1.40051">
        <ele>114</ele>
        <time>2014-09-07T08:29:16.000Z</time>
      </trkpt>
      <trkpt lat="47.38008" lon="-1.40054">
        <ele>114</ele>
        <time>2014-09-07T08:29:18.000Z</time>
      </trkpt>
      <trkpt lat="47.38009" lon="-1.40059">
        <ele>114</ele>
        <time>2014-09-07T08:29:20.000Z</time>
      </trkpt>
      <trkpt lat="47.3801" lon="-1.40068">
        <ele>113</ele>
        <time>2014-09-07T08:29:22.000Z</time>
      </trkpt>
      <trkpt lat="47.38012" lon="-1.40083">
        <ele>113</ele>
        <time>2014-09-07T08:29:26.000Z</time>
      </trkpt>
      <trkpt lat="47.38012" lon="-1.40087">
        <ele>113</ele>
        <time>2014-09-07T08:29:28.000Z</time>
      </trkpt>
      <trkpt lat="47.3801" lon="-1.40088">
        <ele>113</ele>
        <time>2014-09-07T08:29:30.000Z</time>
      </trkpt>
      <trkpt lat="47.38009" lon="-1.40085">
        <ele>113</ele>
        <time>2014-09-07T08:29:32.000Z</time>
      </trkpt>
      <trkpt lat="47.38007" lon="-1.40081">
        <ele>113</ele>
        <time>2014-09-07T08:29:34.000Z</time>
      </trkpt>
      <trkpt lat="47.38006" lon="-1.40077">
        <ele>113</ele>
        <time>2014-09-07T08:29:36.000Z</time>
      </trkpt>
      <trkpt lat="47.38005" lon="-1.40073">
        <ele>113</ele>
        <time>2014-09-07T08:29:38.000Z</time>
      </trkpt>
      <trkpt lat="47.38002" lon="-1.40066">
        <ele>113</ele>
        <time>2014-09-07T08:29:42.000Z</time>
      </trkpt>
      <trkpt lat="47.37999" lon="-1.40065">
        <ele>113</ele>
        <time>2014-09-07T08:29:44.000Z</time>
      </trkpt>
      <trkpt lat="47.37993" lon="-1.4006">
        <ele>113</ele>
        <time>2014-09-07T08:29:48.000Z</time>
      </trkpt>
      <trkpt lat="47.37991" lon="-1.40055">
        <ele>113</ele>
        <time>2014-09-07T08:29:50.000Z</time>
      </trkpt>
      <trkpt lat="47.37988" lon="-1.4005">
        <ele>112</ele>
        <time>2014-09-07T08:29:52.000Z</time>
      </trkpt>
      <trkpt lat="47.37986" lon="-1.40046">
        <ele>113</ele>
        <time>2014-09-07T08:29:54.000Z</time>
      </trkpt>
      <trkpt lat="47.37981" lon="-1.4003">
        <ele>114</ele>
        <time>2014-09-07T08:29:58.000Z</time>
      </trkpt>
      <trkpt lat="47.37973" lon="-1.40006">
        <ele>116</ele>
        <time>2014-09-07T08:30:02.000Z</time>
      </trkpt>
      <trkpt lat="47.3797" lon="-1.39981">
        <ele>117</ele>
        <time>2014-09-07T08:30:06.000Z</time>
      </trkpt>
      <trkpt lat="47.37972" lon="-1.39969">
        <ele>118</ele>
        <time>2014-09-07T08:30:08.000Z</time>
      </trkpt>
      <trkpt lat="47.37977" lon="-1.39962">
        <ele>118</ele>
        <time>2014-09-07T08:30:10.000Z</time>
      </trkpt>
      <trkpt lat="47.37983" lon="-1.39956">
        <ele>117</ele>
        <time>2014-09-07T08:30:12.000Z</time>
      </trkpt>
      <trkpt lat="47.37994" lon="-1.3994">
        <ele>116</ele>
        <time>2014-09-07T08:30:16.000Z</time>
      </trkpt>
      <trkpt lat="47.38002" lon="-1.39934">
        <ele>115</ele>
        <time>2014-09-07T08:30:18.000Z</time>
      </trkpt>
      <trkpt lat="47.3801" lon="-1.39929">
        <ele>114</ele>
        <time>2014-09-07T08:30:20.000Z</time>
      </trkpt>
      <trkpt lat="47.38018" lon="-1.39923">
        <ele>114</ele>
        <time>2014-09-07T08:30:22.000Z</time>
      </trkpt>
      <trkpt lat="47.38027" lon="-1.39917">
        <ele>115</ele>
        <time>2014-09-07T08:30:24.000Z</time>
      </trkpt>
      <trkpt lat="47.38036" lon="-1.39914">
        <ele>115</ele>
        <time>2014-09-07T08:30:26.000Z</time>
      </trkpt>
      <trkpt lat="47.38043" lon="-1.39908">
        <ele>116</ele>
        <time>2014-09-07T08:30:28.000Z</time>
      </trkpt>
      <trkpt lat="47.38059" lon="-1.39889">
        <ele>116</ele>
        <time>2014-09-07T08:30:32.000Z</time>
      </trkpt>
      <trkpt lat="47.38062" lon="-1.39875">
        <ele>118</ele>
        <time>2014-09-07T08:30:34.000Z</time>
      </trkpt>
      <trkpt lat="47.38053" lon="-1.39831">
        <ele>119</ele>
        <time>2014-09-07T08:30:40.000Z</time>
      </trkpt>
      <trkpt lat="47.38057" lon="-1.39805">
        <ele>120</ele>
        <time>2014-09-07T08:30:44.000Z</time>
      </trkpt>
      <trkpt lat="47.38063" lon="-1.39801">
        <ele>120</ele>
        <time>2014-09-07T08:30:46.000Z</time>
      </trkpt>
      <trkpt lat="47.38074" lon="-1.39797">
        <ele>120</ele>
        <time>2014-09-07T08:30:48.000Z</time>
      </trkpt>
      <trkpt lat="47.38083" lon="-1.39792">
        <ele>120</ele>
        <time>2014-09-07T08:30:50.000Z</time>
      </trkpt>
      <trkpt lat="47.38088" lon="-1.39785">
        <ele>120</ele>
        <time>2014-09-07T08:30:52.000Z</time>
      </trkpt>
      <trkpt lat="47.38095" lon="-1.39778">
        <ele>120</ele>
        <time>2014-09-07T08:30:54.000Z</time>
      </trkpt>
      <trkpt lat="47.38108" lon="-1.39763">
        <ele>120</ele>
        <time>2014-09-07T08:30:58.000Z</time>
      </trkpt>
      <trkpt lat="47.38109" lon="-1.39752">
        <ele>120</ele>
        <time>2014-09-07T08:31:00.000Z</time>
      </trkpt>
      <trkpt lat="47.38104" lon="-1.39743">
        <ele>119</ele>
        <time>2014-09-07T08:31:02.000Z</time>
      </trkpt>
      <trkpt lat="47.381" lon="-1.39733">
        <ele>120</ele>
        <time>2014-09-07T08:31:04.000Z</time>
      </trkpt>
      <trkpt lat="47.38092" lon="-1.39711">
        <ele>120</ele>
        <time>2014-09-07T08:31:08.000Z</time>
      </trkpt>
      <trkpt lat="47.38075" lon="-1.39668">
        <ele>119</ele>
        <time>2014-09-07T08:31:16.000Z</time>
      </trkpt>
      <trkpt lat="47.38072" lon="-1.39658">
        <ele>117</ele>
        <time>2014-09-07T08:31:18.000Z</time>
      </trkpt>
      <trkpt lat="47.38062" lon="-1.39637">
        <ele>117</ele>
        <time>2014-09-07T08:31:22.000Z</time>
      </trkpt>
      <trkpt lat="47.38058" lon="-1.39627">
        <ele>116</ele>
        <time>2014-09-07T08:31:24.000Z</time>
      </trkpt>
      <trkpt lat="47.38055" lon="-1.39611">
        <ele>116</ele>
        <time>2014-09-07T08:31:28.000Z</time>
      </trkpt>
      <trkpt lat="47.38054" lon="-1.39605">
        <ele>117</ele>
        <time>2014-09-07T08:31:30.000Z</time>
      </trkpt>
      <trkpt lat="47.38051" lon="-1.396">
        <ele>117</ele>
        <time>2014-09-07T08:31:32.000Z</time>
      </trkpt>
      <trkpt lat="47.3805" lon="-1.39595">
        <ele>117</ele>
        <time>2014-09-07T08:31:34.000Z</time>
      </trkpt>
      <trkpt lat="47.38051" lon="-1.39589">
        <ele>117</ele>
        <time>2014-09-07T08:31:36.000Z</time>
      </trkpt>
      <trkpt lat="47.38054" lon="-1.39586">
        <ele>116</ele>
        <time>2014-09-07T08:31:38.000Z</time>
      </trkpt>
      <trkpt lat="47.38057" lon="-1.39584">
        <ele>116</ele>
        <time>2014-09-07T08:31:40.000Z</time>
      </trkpt>
      <trkpt lat="47.38059" lon="-1.39583">
        <ele>117</ele>
        <time>2014-09-07T08:31:42.000Z</time>
      </trkpt>
      <trkpt lat="47.38063" lon="-1.39582">
        <ele>117</ele>
        <time>2014-09-07T08:31:44.000Z</time>
      </trkpt>
      <trkpt lat="47.38071" lon="-1.39577">
        <ele>116</ele>
        <time>2014-09-07T08:31:48.000Z</time>
      </trkpt>
      <trkpt lat="47.38074" lon="-1.39575">
        <ele>117</ele>
        <time>2014-09-07T08:31:50.000Z</time>
      </trkpt>
      <trkpt lat="47.38078" lon="-1.39567">
        <ele>117</ele>
        <time>2014-09-07T08:31:52.000Z</time>
      </trkpt>
      <trkpt lat="47.38079" lon="-1.39559">
        <ele>116</ele>
        <time>2014-09-07T08:31:54.000Z</time>
      </trkpt>
      <trkpt lat="47.3808" lon="-1.39554">
        <ele>115</ele>
        <time>2014-09-07T08:31:56.000Z</time>
      </trkpt>
      <trkpt lat="47.38084" lon="-1.39547">
        <ele>112</ele>
        <time>2014-09-07T08:31:58.000Z</time>
      </trkpt>
      <trkpt lat="47.38084" lon="-1.39541">
        <ele>112</ele>
        <time>2014-09-07T08:32:00.000Z</time>
      </trkpt>
      <trkpt lat="47.38083" lon="-1.39536">
        <ele>113</ele>
        <time>2014-09-07T08:32:02.000Z</time>
      </trkpt>
      <trkpt lat="47.3808" lon="-1.39531">
        <ele>113</ele>
        <time>2014-09-07T08:32:04.000Z</time>
      </trkpt>
      <trkpt lat="47.38078" lon="-1.39526">
        <ele>112</ele>
        <time>2014-09-07T08:32:06.000Z</time>
      </trkpt>
      <trkpt lat="47.38076" lon="-1.39521">
        <ele>111</ele>
        <time>2014-09-07T08:32:10.000Z</time>
      </trkpt>
      <trkpt lat="47.38073" lon="-1.3952">
        <ele>111</ele>
        <time>2014-09-07T08:32:12.000Z</time>
      </trkpt>
      <trkpt lat="47.38067" lon="-1.39515">
        <ele>111</ele>
        <time>2014-09-07T08:32:14.000Z</time>
      </trkpt>
      <trkpt lat="47.38052" lon="-1.395">
        <ele>111</ele>
        <time>2014-09-07T08:32:20.000Z</time>
      </trkpt>
      <trkpt lat="47.38048" lon="-1.39494">
        <ele>112</ele>
        <time>2014-09-07T08:32:22.000Z</time>
      </trkpt>
      <trkpt lat="47.38043" lon="-1.39487">
        <ele>111</ele>
        <time>2014-09-07T08:32:24.000Z</time>
      </trkpt>
      <trkpt lat="47.3803" lon="-1.39471">
        <ele>112</ele>
        <time>2014-09-07T08:32:28.000Z</time>
      </trkpt>
      <trkpt lat="47.38024" lon="-1.39465">
        <ele>111</ele>
        <time>2014-09-07T08:32:30.000Z</time>
      </trkpt>
      <trkpt lat="47.38009" lon="-1.39446">
        <ele>112</ele>
        <time>2014-09-07T08:32:34.000Z</time>
      </trkpt>
      <trkpt lat="47.37989" lon="-1.39422">
        <ele>111</ele>
        <time>2014-09-07T08:32:38.000Z</time>
      </trkpt>
      <trkpt lat="47.3797" lon="-1.39396">
        <ele>112</ele>
        <time>2014-09-07T08:32:42.000Z</time>
      </trkpt>
      <trkpt lat="47.3793" lon="-1.39341">
        <ele>112</ele>
        <time>2014-09-07T08:32:50.000Z</time>
      </trkpt>
      <trkpt lat="47.37899" lon="-1.39306">
        <ele>111</ele>
        <time>2014-09-07T08:32:56.000Z</time>
      </trkpt>
      <trkpt lat="47.3789" lon="-1.39293">
        <ele>110</ele>
        <time>2014-09-07T08:32:58.000Z</time>
      </trkpt>
      <trkpt lat="47.37867" lon="-1.39252">
        <ele>109</ele>
        <time>2014-09-07T08:33:04.000Z</time>
      </trkpt>
      <trkpt lat="47.37851" lon="-1.39218">
        <ele>110</ele>
        <time>2014-09-07T08:33:08.000Z</time>
      </trkpt>
      <trkpt lat="47.37847" lon="-1.39209">
        <ele>109</ele>
        <time>2014-09-07T08:33:10.000Z</time>
      </trkpt>
      <trkpt lat="47.37846" lon="-1.39199">
        <ele>110</ele>
        <time>2014-09-07T08:33:12.000Z</time>
      </trkpt>
      <trkpt lat="47.37849" lon="-1.39188">
        <ele>111</ele>
        <time>2014-09-07T08:33:14.000Z</time>
      </trkpt>
      <trkpt lat="47.37854" lon="-1.3918">
        <ele>110</ele>
        <time>2014-09-07T08:33:16.000Z</time>
      </trkpt>
      <trkpt lat="47.37878" lon="-1.39151">
        <ele>111</ele>
        <time>2014-09-07T08:33:22.000Z</time>
      </trkpt>
      <trkpt lat="47.37895" lon="-1.39127">
        <ele>111</ele>
        <time>2014-09-07T08:33:26.000Z</time>
      </trkpt>
      <trkpt lat="47.37913" lon="-1.39107">
        <ele>111</ele>
        <time>2014-09-07T08:33:30.000Z</time>
      </trkpt>
      <trkpt lat="47.37922" lon="-1.39096">
        <ele>110</ele>
        <time>2014-09-07T08:33:32.000Z</time>
      </trkpt>
      <trkpt lat="47.37929" lon="-1.39084">
        <ele>111</ele>
        <time>2014-09-07T08:33:34.000Z</time>
      </trkpt>
      <trkpt lat="47.37947" lon="-1.3905">
        <ele>112</ele>
        <time>2014-09-07T08:33:40.000Z</time>
      </trkpt>
      <trkpt lat="47.3798" lon="-1.38983">
        <ele>112</ele>
        <time>2014-09-07T08:33:50.000Z</time>
      </trkpt>
      <trkpt lat="47.37985" lon="-1.3897">
        <ele>111</ele>
        <time>2014-09-07T08:33:52.000Z</time>
      </trkpt>
      <trkpt lat="47.37997" lon="-1.38944">
        <ele>110</ele>
        <time>2014-09-07T08:33:56.000Z</time>
      </trkpt>
      <trkpt lat="47.38007" lon="-1.38922">
        <ele>109</ele>
        <time>2014-09-07T08:34:00.000Z</time>
      </trkpt>
      <trkpt lat="47.38012" lon="-1.3891">
        <ele>109</ele>
        <time>2014-09-07T08:34:02.000Z</time>
      </trkpt>
      <trkpt lat="47.38013" lon="-1.38898">
        <ele>109</ele>
        <time>2014-09-07T08:34:04.000Z</time>
      </trkpt>
      <trkpt lat="47.38008" lon="-1.38887">
        <ele>108</ele>
        <time>2014-09-07T08:34:06.000Z</time>
      </trkpt>
      <trkpt lat="47.37977" lon="-1.38845">
        <ele>107</ele>
        <time>2014-09-07T08:34:14.000Z</time>
      </trkpt>
      <trkpt lat="47.37961" lon="-1.38827">
        <ele>108</ele>
        <time>2014-09-07T08:34:18.000Z</time>
      </trkpt>
      <trkpt lat="47.37954" lon="-1.38817">
        <ele>107</ele>
        <time>2014-09-07T08:34:20.000Z</time>
      </trkpt>
      <trkpt lat="47.37938" lon="-1.38798">
        <ele>108</ele>
        <time>2014-09-07T08:34:24.000Z</time>
      </trkpt>
      <trkpt lat="47.37923" lon="-1.3878">
        <ele>109</ele>
        <time>2014-09-07T08:34:28.000Z</time>
      </trkpt>
      <trkpt lat="47.37892" lon="-1.38742">
        <ele>109</ele>
        <time>2014-09-07T08:34:38.000Z</time>
      </trkpt>
      <trkpt lat="47.37885" lon="-1.38734">
        <ele>110</ele>
        <time>2014-09-07T08:34:40.000Z</time>
      </trkpt>
      <trkpt lat="47.37878" lon="-1.38727">
        <ele>111</ele>
        <time>2014-09-07T08:34:42.000Z</time>
      </trkpt>
      <trkpt lat="47.37872" lon="-1.38721">
        <ele>111</ele>
        <time>2014-09-07T08:34:44.000Z</time>
      </trkpt>
      <trkpt lat="47.37865" lon="-1.38713">
        <ele>111</ele>
        <time>2014-09-07T08:34:46.000Z</time>
      </trkpt>
      <trkpt lat="47.37851" lon="-1.38697">
        <ele>112</ele>
        <time>2014-09-07T08:34:50.000Z</time>
      </trkpt>
      <trkpt lat="47.37836" lon="-1.3868">
        <ele>112</ele>
        <time>2014-09-07T08:34:54.000Z</time>
      </trkpt>
      <trkpt lat="47.37812" lon="-1.38641">
        <ele>113</ele>
        <time>2014-09-07T08:35:02.000Z</time>
      </trkpt>
      <trkpt lat="47.37787" lon="-1.38598">
        <ele>113</ele>
        <time>2014-09-07T08:35:10.000Z</time>
      </trkpt>
      <trkpt lat="47.3777" lon="-1.3856">
        <ele>113</ele>
        <time>2014-09-07T08:35:16.000Z</time>
      </trkpt>
      <trkpt lat="47.37761" lon="-1.38534">
        <ele>113</ele>
        <time>2014-09-07T08:35:20.000Z</time>
      </trkpt>
      <trkpt lat="47.37755" lon="-1.38521">
        <ele>114</ele>
        <time>2014-09-07T08:35:22.000Z</time>
      </trkpt>
      <trkpt lat="47.37731" lon="-1.38465">
        <ele>114</ele>
        <time>2014-09-07T08:35:30.000Z</time>
      </trkpt>
      <trkpt lat="47.37705" lon="-1.384">
        <ele>113</ele>
        <time>2014-09-07T08:35:38.000Z</time>
      </trkpt>
      <trkpt lat="47.37698" lon="-1.38383">
        <ele>112</ele>
        <time>2014-09-07T08:35:40.000Z</time>
      </trkpt>
      <trkpt lat="47.37677" lon="-1.38332">
        <ele>111</ele>
        <time>2014-09-07T08:35:46.000Z</time>
      </trkpt>
      <trkpt lat="47.37651" lon="-1.38269">
        <ele>111</ele>
        <time>2014-09-07T08:35:54.000Z</time>
      </trkpt>
      <trkpt lat="47.37637" lon="-1.3824">
        <ele>110</ele>
        <time>2014-09-07T08:35:58.000Z</time>
      </trkpt>
      <trkpt lat="47.3763" lon="-1.38224">
        <ele>110</ele>
        <time>2014-09-07T08:36:00.000Z</time>
      </trkpt>
      <trkpt lat="47.37614" lon="-1.38188">
        <ele>111</ele>
        <time>2014-09-07T08:36:04.000Z</time>
      </trkpt>
      <trkpt lat="47.37606" lon="-1.38171">
        <ele>110</ele>
        <time>2014-09-07T08:36:06.000Z</time>
      </trkpt>
      <trkpt lat="47.37597" lon="-1.38155">
        <ele>111</ele>
        <time>2014-09-07T08:36:08.000Z</time>
      </trkpt>
      <trkpt lat="47.37589" lon="-1.38139">
        <ele>110</ele>
        <time>2014-09-07T08:36:10.000Z</time>
      </trkpt>
      <trkpt lat="47.37559" lon="-1.38075">
        <ele>110</ele>
        <time>2014-09-07T08:36:20.000Z</time>
      </trkpt>
      <trkpt lat="47.3755" lon="-1.38053">
        <ele>111</ele>
        <time>2014-09-07T08:36:24.000Z</time>
      </trkpt>
      <trkpt lat="47.37546" lon="-1.38041">
        <ele>112</ele>
        <time>2014-09-07T08:36:26.000Z</time>
      </trkpt>
      <trkpt lat="47.37541" lon="-1.38031">
        <ele>111</ele>
        <time>2014-09-07T08:36:28.000Z</time>
      </trkpt>
      <trkpt lat="47.37536" lon="-1.38021">
        <ele>112</ele>
        <time>2014-09-07T08:36:30.000Z</time>
      </trkpt>
      <trkpt lat="47.37514" lon="-1.37976">
        <ele>113</ele>
        <time>2014-09-07T08:36:40.000Z</time>
      </trkpt>
      <trkpt lat="47.37502" lon="-1.37946">
        <ele>113</ele>
        <time>2014-09-07T08:36:46.000Z</time>
      </trkpt>
      <trkpt lat="47.37498" lon="-1.37937">
        <ele>113</ele>
        <time>2014-09-07T08:36:48.000Z</time>
      </trkpt>
      <trkpt lat="47.37489" lon="-1.37917">
        <ele>113</ele>
        <time>2014-09-07T08:36:52.000Z</time>
      </trkpt>
      <trkpt lat="47.37467" lon="-1.37867">
        <ele>113</ele>
        <time>2014-09-07T08:37:02.000Z</time>
      </trkpt>
      <trkpt lat="47.37461" lon="-1.37857">
        <ele>113</ele>
        <time>2014-09-07T08:37:04.000Z</time>
      </trkpt>
      <trkpt lat="47.37434" lon="-1.37801">
        <ele>114</ele>
        <time>2014-09-07T08:37:14.000Z</time>
      </trkpt>
      <trkpt lat="47.37423" lon="-1.3778">
        <ele>114</ele>
        <time>2014-09-07T08:37:18.000Z</time>
      </trkpt>
      <trkpt lat="47.37413" lon="-1.37759">
        <ele>114</ele>
        <time>2014-09-07T08:37:22.000Z</time>
      </trkpt>
      <trkpt lat="47.37407" lon="-1.37748">
        <ele>115</ele>
        <time>2014-09-07T08:37:24.000Z</time>
      </trkpt>
      <trkpt lat="47.37378" lon="-1.37686">
        <ele>115</ele>
        <time>2014-09-07T08:37:34.000Z</time>
      </trkpt>
      <trkpt lat="47.37374" lon="-1.37674">
        <ele>116</ele>
        <time>2014-09-07T08:37:36.000Z</time>
      </trkpt>
      <trkpt lat="47.37355" lon="-1.37631">
        <ele>115</ele>
        <time>2014-09-07T08:37:42.000Z</time>
      </trkpt>
      <trkpt lat="47.37337" lon="-1.37593">
        <ele>114</ele>
        <time>2014-09-07T08:37:48.000Z</time>
      </trkpt>
      <trkpt lat="47.37325" lon="-1.37569">
        <ele>114</ele>
        <time>2014-09-07T08:37:52.000Z</time>
      </trkpt>
      <trkpt lat="47.37318" lon="-1.37559">
        <ele>113</ele>
        <time>2014-09-07T08:37:54.000Z</time>
      </trkpt>
      <trkpt lat="47.37307" lon="-1.37539">
        <ele>112</ele>
        <time>2014-09-07T08:37:58.000Z</time>
      </trkpt>
      <trkpt lat="47.37304" lon="-1.37512">
        <ele>111</ele>
        <time>2014-09-07T08:38:02.000Z</time>
      </trkpt>
      <trkpt lat="47.37299" lon="-1.37498">
        <ele>111</ele>
        <time>2014-09-07T08:38:04.000Z</time>
      </trkpt>
      <trkpt lat="47.37291" lon="-1.37485">
        <ele>112</ele>
        <time>2014-09-07T08:38:06.000Z</time>
      </trkpt>
      <trkpt lat="47.37262" lon="-1.3743">
        <ele>113</ele>
        <time>2014-09-07T08:38:14.000Z</time>
      </trkpt>
      <trkpt lat="47.37249" lon="-1.37405">
        <ele>114</ele>
        <time>2014-09-07T08:38:18.000Z</time>
      </trkpt>
      <trkpt lat="47.37231" lon="-1.37381">
        <ele>115</ele>
        <time>2014-09-07T08:38:22.000Z</time>
      </trkpt>
      <trkpt lat="47.37214" lon="-1.3736">
        <ele>114</ele>
        <time>2014-09-07T08:38:26.000Z</time>
      </trkpt>
      <trkpt lat="47.37206" lon="-1.37348">
        <ele>115</ele>
        <time>2014-09-07T08:38:28.000Z</time>
      </trkpt>
      <trkpt lat="47.37197" lon="-1.37338">
        <ele>115</ele>
        <time>2014-09-07T08:38:30.000Z</time>
      </trkpt>
      <trkpt lat="47.3718" lon="-1.37318">
        <ele>114</ele>
        <time>2014-09-07T08:38:34.000Z</time>
      </trkpt>
      <trkpt lat="47.37144" lon="-1.37274">
        <ele>112</ele>
        <time>2014-09-07T08:38:42.000Z</time>
      </trkpt>
      <trkpt lat="47.37133" lon="-1.37261">
        <ele>111</ele>
        <time>2014-09-07T08:38:44.000Z</time>
      </trkpt>
      <trkpt lat="47.37103" lon="-1.37227">
        <ele>110</ele>
        <time>2014-09-07T08:38:50.000Z</time>
      </trkpt>
      <trkpt lat="47.37083" lon="-1.37208">
        <ele>109</ele>
        <time>2014-09-07T08:38:54.000Z</time>
      </trkpt>
      <trkpt lat="47.37051" lon="-1.3718">
        <ele>110</ele>
        <time>2014-09-07T08:39:00.000Z</time>
      </trkpt>
      <trkpt lat="47.37019" lon="-1.37154">
        <ele>109</ele>
        <time>2014-09-07T08:39:06.000Z</time>
      </trkpt>
      <trkpt lat="47.3701" lon="-1.37146">
        <ele>108</ele>
        <time>2014-09-07T08:39:08.000Z</time>
      </trkpt>
      <trkpt lat="47.36988" lon="-1.37129">
        <ele>108</ele>
        <time>2014-09-07T08:39:12.000Z</time>
      </trkpt>
      <trkpt lat="47.36976" lon="-1.37121">
        <ele>107</ele>
        <time>2014-09-07T08:39:14.000Z</time>
      </trkpt>
      <trkpt lat="47.36965" lon="-1.37112">
        <ele>106</ele>
        <time>2014-09-07T08:39:16.000Z</time>
      </trkpt>
      <trkpt lat="47.36938" lon="-1.37083">
        <ele>107</ele>
        <time>2014-09-07T08:39:22.000Z</time>
      </trkpt>
      <trkpt lat="47.36932" lon="-1.37073">
        <ele>108</ele>
        <time>2014-09-07T08:39:24.000Z</time>
      </trkpt>
      <trkpt lat="47.36924" lon="-1.37064">
        <ele>108</ele>
        <time>2014-09-07T08:39:26.000Z</time>
      </trkpt>
      <trkpt lat="47.36918" lon="-1.37057">
        <ele>108</ele>
        <time>2014-09-07T08:39:28.000Z</time>
      </trkpt>
      <trkpt lat="47.36911" lon="-1.37047">
        <ele>107</ele>
        <time>2014-09-07T08:39:30.000Z</time>
      </trkpt>
      <trkpt lat="47.36903" lon="-1.37036">
        <ele>107</ele>
        <time>2014-09-07T08:39:32.000Z</time>
      </trkpt>
      <trkpt lat="47.36896" lon="-1.37028">
        <ele>108</ele>
        <time>2014-09-07T08:39:34.000Z</time>
      </trkpt>
      <trkpt lat="47.3689" lon="-1.3702">
        <ele>108</ele>
        <time>2014-09-07T08:39:36.000Z</time>
      </trkpt>
      <trkpt lat="47.36884" lon="-1.37013">
        <ele>108</ele>
        <time>2014-09-07T08:39:38.000Z</time>
      </trkpt>
      <trkpt lat="47.36877" lon="-1.37004">
        <ele>108</ele>
        <time>2014-09-07T08:39:40.000Z</time>
      </trkpt>
      <trkpt lat="47.36866" lon="-1.36988">
        <ele>109</ele>
        <time>2014-09-07T08:39:44.000Z</time>
      </trkpt>
      <trkpt lat="47.36855" lon="-1.3697">
        <ele>110</ele>
        <time>2014-09-07T08:39:48.000Z</time>
      </trkpt>
      <trkpt lat="47.36844" lon="-1.36951">
        <ele>111</ele>
        <time>2014-09-07T08:39:52.000Z</time>
      </trkpt>
      <trkpt lat="47.36833" lon="-1.36927">
        <ele>112</ele>
        <time>2014-09-07T08:39:56.000Z</time>
      </trkpt>
      <trkpt lat="47.36804" lon="-1.36861">
        <ele>112</ele>
        <time>2014-09-07T08:40:08.000Z</time>
      </trkpt>
      <trkpt lat="47.36798" lon="-1.36849">
        <ele>113</ele>
        <time>2014-09-07T08:40:10.000Z</time>
      </trkpt>
      <trkpt lat="47.36786" lon="-1.36823">
        <ele>112</ele>
        <time>2014-09-07T08:40:14.000Z</time>
      </trkpt>
      <trkpt lat="47.3678" lon="-1.3681">
        <ele>113</ele>
        <time>2014-09-07T08:40:16.000Z</time>
      </trkpt>
      <trkpt lat="47.36762" lon="-1.36773">
        <ele>114</ele>
        <time>2014-09-07T08:40:22.000Z</time>
      </trkpt>
      <trkpt lat="47.36743" lon="-1.36736">
        <ele>114</ele>
        <time>2014-09-07T08:40:28.000Z</time>
      </trkpt>
      <trkpt lat="47.36726" lon="-1.36714">
        <ele>115</ele>
        <time>2014-09-07T08:40:32.000Z</time>
      </trkpt>
      <trkpt lat="47.36704" lon="-1.36681">
        <ele>116</ele>
        <time>2014-09-07T08:40:38.000Z</time>
      </trkpt>
      <trkpt lat="47.36697" lon="-1.36673">
        <ele>116</ele>
        <time>2014-09-07T08:40:40.000Z</time>
      </trkpt>
      <trkpt lat="47.36671" lon="-1.36644">
        <ele>117</ele>
        <time>2014-09-07T08:40:46.000Z</time>
      </trkpt>
      <trkpt lat="47.36656" lon="-1.36628">
        <ele>118</ele>
        <time>2014-09-07T08:40:50.000Z</time>
      </trkpt>
      <trkpt lat="47.36649" lon="-1.36622">
        <ele>117</ele>
        <time>2014-09-07T08:40:52.000Z</time>
      </trkpt>
      <trkpt lat="47.36622" lon="-1.36601">
        <ele>117</ele>
        <time>2014-09-07T08:40:58.000Z</time>
      </trkpt>
      <trkpt lat="47.36614" lon="-1.36595">
        <ele>118</ele>
        <time>2014-09-07T08:41:00.000Z</time>
      </trkpt>
      <trkpt lat="47.36605" lon="-1.36586">
        <ele>117</ele>
        <time>2014-09-07T08:41:02.000Z</time>
      </trkpt>
      <trkpt lat="47.36598" lon="-1.36576">
        <ele>117</ele>
        <time>2014-09-07T08:41:04.000Z</time>
      </trkpt>
      <trkpt lat="47.36578" lon="-1.3654">
        <ele>117</ele>
        <time>2014-09-07T08:41:10.000Z</time>
      </trkpt>
      <trkpt lat="47.36572" lon="-1.36526">
        <ele>116</ele>
        <time>2014-09-07T08:41:12.000Z</time>
      </trkpt>
      <trkpt lat="47.36566" lon="-1.36512">
        <ele>117</ele>
        <time>2014-09-07T08:41:14.000Z</time>
      </trkpt>
      <trkpt lat="47.3656" lon="-1.36498">
        <ele>116</ele>
        <time>2014-09-07T08:41:16.000Z</time>
      </trkpt>
      <trkpt lat="47.36553" lon="-1.36484">
        <ele>117</ele>
        <time>2014-09-07T08:41:18.000Z</time>
      </trkpt>
      <trkpt lat="47.36547" lon="-1.36469">
        <ele>117</ele>
        <time>2014-09-07T08:41:20.000Z</time>
      </trkpt>
      <trkpt lat="47.36542" lon="-1.36453">
        <ele>117</ele>
        <time>2014-09-07T08:41:22.000Z</time>
      </trkpt>
      <trkpt lat="47.36514" lon="-1.36387">
        <ele>117</ele>
        <time>2014-09-07T08:41:30.000Z</time>
      </trkpt>
      <trkpt lat="47.36491" lon="-1.36331">
        <ele>118</ele>
        <time>2014-09-07T08:41:36.000Z</time>
      </trkpt>
      <trkpt lat="47.36485" lon="-1.36311">
        <ele>119</ele>
        <time>2014-09-07T08:41:38.000Z</time>
      </trkpt>
      <trkpt lat="47.3647" lon="-1.3627">
        <ele>119</ele>
        <time>2014-09-07T08:41:42.000Z</time>
      </trkpt>
      <trkpt lat="47.36452" lon="-1.36233">
        <ele>119</ele>
        <time>2014-09-07T08:41:46.000Z</time>
      </trkpt>
      <trkpt lat="47.36445" lon="-1.36216">
        <ele>120</ele>
        <time>2014-09-07T08:41:48.000Z</time>
      </trkpt>
      <trkpt lat="47.36437" lon="-1.362">
        <ele>121</ele>
        <time>2014-09-07T08:41:50.000Z</time>
      </trkpt>
      <trkpt lat="47.36429" lon="-1.36186">
        <ele>120</ele>
        <time>2014-09-07T08:41:52.000Z</time>
      </trkpt>
      <trkpt lat="47.36428" lon="-1.36173">
        <ele>119</ele>
        <time>2014-09-07T08:41:54.000Z</time>
      </trkpt>
      <trkpt lat="47.36428" lon="-1.36147">
        <ele>118</ele>
        <time>2014-09-07T08:41:58.000Z</time>
      </trkpt>
      <trkpt lat="47.36431" lon="-1.36134">
        <ele>117</ele>
        <time>2014-09-07T08:42:00.000Z</time>
      </trkpt>
      <trkpt lat="47.3643" lon="-1.36113">
        <ele>116</ele>
        <time>2014-09-07T08:42:02.000Z</time>
      </trkpt>
      <trkpt lat="47.36427" lon="-1.36097">
        <ele>115</ele>
        <time>2014-09-07T08:42:04.000Z</time>
      </trkpt>
      <trkpt lat="47.36414" lon="-1.36084">
        <ele>114</ele>
        <time>2014-09-07T08:42:06.000Z</time>
      </trkpt>
      <trkpt lat="47.36407" lon="-1.36074">
        <ele>115</ele>
        <time>2014-09-07T08:42:08.000Z</time>
      </trkpt>
      <trkpt lat="47.36386" lon="-1.36053">
        <ele>116</ele>
        <time>2014-09-07T08:42:12.000Z</time>
      </trkpt>
      <trkpt lat="47.36375" lon="-1.36045">
        <ele>115</ele>
        <time>2014-09-07T08:42:14.000Z</time>
      </trkpt>
      <trkpt lat="47.36365" lon="-1.36042">
        <ele>115</ele>
        <time>2014-09-07T08:42:16.000Z</time>
      </trkpt>
      <trkpt lat="47.36347" lon="-1.36038">
        <ele>116</ele>
        <time>2014-09-07T08:42:20.000Z</time>
      </trkpt>
      <trkpt lat="47.3634" lon="-1.36035">
        <ele>115</ele>
        <time>2014-09-07T08:42:22.000Z</time>
      </trkpt>
      <trkpt lat="47.36322" lon="-1.36026">
        <ele>115</ele>
        <time>2014-09-07T08:42:26.000Z</time>
      </trkpt>
      <trkpt lat="47.36304" lon="-1.36013">
        <ele>115</ele>
        <time>2014-09-07T08:42:30.000Z</time>
      </trkpt>
      <trkpt lat="47.36298" lon="-1.36007">
        <ele>115</ele>
        <time>2014-09-07T08:42:32.000Z</time>
      </trkpt>
      <trkpt lat="47.3629" lon="-1.36001">
        <ele>117</ele>
        <time>2014-09-07T08:42:34.000Z</time>
      </trkpt>
      <trkpt lat="47.36282" lon="-1.35996">
        <ele>117</ele>
        <time>2014-09-07T08:42:36.000Z</time>
      </trkpt>
      <trkpt lat="47.36264" lon="-1.35985">
        <ele>118</ele>
        <time>2014-09-07T08:42:40.000Z</time>
      </trkpt>
      <trkpt lat="47.36246" lon="-1.35978">
        <ele>116</ele>
        <time>2014-09-07T08:42:44.000Z</time>
      </trkpt>
      <trkpt lat="47.3624" lon="-1.35975">
        <ele>115</ele>
        <time>2014-09-07T08:42:46.000Z</time>
      </trkpt>
      <trkpt lat="47.36225" lon="-1.35964">
        <ele>116</ele>
        <time>2014-09-07T08:42:50.000Z</time>
      </trkpt>
      <trkpt lat="47.36218" lon="-1.35959">
        <ele>117</ele>
        <time>2014-09-07T08:42:52.000Z</time>
      </trkpt>
      <trkpt lat="47.36213" lon="-1.35956">
        <ele>118</ele>
        <time>2014-09-07T08:42:54.000Z</time>
      </trkpt>
      <trkpt lat="47.36207" lon="-1.35949">
        <ele>118</ele>
        <time>2014-09-07T08:42:56.000Z</time>
      </trkpt>
      <trkpt lat="47.3619" lon="-1.35933">
        <ele>118</ele>
        <time>2014-09-07T08:43:02.000Z</time>
      </trkpt>
      <trkpt lat="47.36183" lon="-1.35925">
        <ele>119</ele>
        <time>2014-09-07T08:43:04.000Z</time>
      </trkpt>
      <trkpt lat="47.36175" lon="-1.35919">
        <ele>120</ele>
        <time>2014-09-07T08:43:06.000Z</time>
      </trkpt>
      <trkpt lat="47.36168" lon="-1.35914">
        <ele>119</ele>
        <time>2014-09-07T08:43:08.000Z</time>
      </trkpt>
      <trkpt lat="47.36154" lon="-1.35901">
        <ele>120</ele>
        <time>2014-09-07T08:43:12.000Z</time>
      </trkpt>
      <trkpt lat="47.36145" lon="-1.35893">
        <ele>121</ele>
        <time>2014-09-07T08:43:14.000Z</time>
      </trkpt>
      <trkpt lat="47.36128" lon="-1.35876">
        <ele>121</ele>
        <time>2014-09-07T08:43:18.000Z</time>
      </trkpt>
      <trkpt lat="47.3612" lon="-1.35869">
        <ele>122</ele>
        <time>2014-09-07T08:43:20.000Z</time>
      </trkpt>
      <trkpt lat="47.36102" lon="-1.35852">
        <ele>122</ele>
        <time>2014-09-07T08:43:24.000Z</time>
      </trkpt>
      <trkpt lat="47.36095" lon="-1.35844">
        <ele>123</ele>
        <time>2014-09-07T08:43:26.000Z</time>
      </trkpt>
      <trkpt lat="47.36087" lon="-1.35835">
        <ele>123</ele>
        <time>2014-09-07T08:43:28.000Z</time>
      </trkpt>
      <trkpt lat="47.3608" lon="-1.35828">
        <ele>124</ele>
        <time>2014-09-07T08:43:30.000Z</time>
      </trkpt>
      <trkpt lat="47.3607" lon="-1.35815">
        <ele>124</ele>
        <time>2014-09-07T08:43:34.000Z</time>
      </trkpt>
      <trkpt lat="47.36064" lon="-1.35806">
        <ele>125</ele>
        <time>2014-09-07T08:43:36.000Z</time>
      </trkpt>
      <trkpt lat="47.36044" lon="-1.35781">
        <ele>126</ele>
        <time>2014-09-07T08:43:42.000Z</time>
      </trkpt>
      <trkpt lat="47.36036" lon="-1.35775">
        <ele>125</ele>
        <time>2014-09-07T08:43:44.000Z</time>
      </trkpt>
      <trkpt lat="47.36019" lon="-1.35757">
        <ele>126</ele>
        <time>2014-09-07T08:43:48.000Z</time>
      </trkpt>
      <trkpt lat="47.35995" lon="-1.35729">
        <ele>126</ele>
        <time>2014-09-07T08:43:54.000Z</time>
      </trkpt>
      <trkpt lat="47.35975" lon="-1.35701">
        <ele>126</ele>
        <time>2014-09-07T08:44:00.000Z</time>
      </trkpt>
      <trkpt lat="47.35958" lon="-1.35685">
        <ele>126</ele>
        <time>2014-09-07T08:44:04.000Z</time>
      </trkpt>
      <trkpt lat="47.3595" lon="-1.35682">
        <ele>126</ele>
        <time>2014-09-07T08:44:06.000Z</time>
      </trkpt>
      <trkpt lat="47.35942" lon="-1.35688">
        <ele>126</ele>
        <time>2014-09-07T08:44:08.000Z</time>
      </trkpt>
      <trkpt lat="47.3592" lon="-1.35701">
        <ele>125</ele>
        <time>2014-09-07T08:44:12.000Z</time>
      </trkpt>
      <trkpt lat="47.35913" lon="-1.3571">
        <ele>125</ele>
        <time>2014-09-07T08:44:14.000Z</time>
      </trkpt>
      <trkpt lat="47.3591" lon="-1.35719">
        <ele>126</ele>
        <time>2014-09-07T08:44:16.000Z</time>
      </trkpt>
      <trkpt lat="47.35901" lon="-1.35726">
        <ele>126</ele>
        <time>2014-09-07T08:44:18.000Z</time>
      </trkpt>
      <trkpt lat="47.35892" lon="-1.35732">
        <ele>127</ele>
        <time>2014-09-07T08:44:20.000Z</time>
      </trkpt>
      <trkpt lat="47.35883" lon="-1.3574">
        <ele>127</ele>
        <time>2014-09-07T08:44:22.000Z</time>
      </trkpt>
      <trkpt lat="47.35877" lon="-1.3575">
        <ele>127</ele>
        <time>2014-09-07T08:44:24.000Z</time>
      </trkpt>
      <trkpt lat="47.35867" lon="-1.35758">
        <ele>127</ele>
        <time>2014-09-07T08:44:26.000Z</time>
      </trkpt>
      <trkpt lat="47.35857" lon="-1.3577">
        <ele>126</ele>
        <time>2014-09-07T08:44:28.000Z</time>
      </trkpt>
      <trkpt lat="47.35849" lon="-1.35781">
        <ele>126</ele>
        <time>2014-09-07T08:44:30.000Z</time>
      </trkpt>
      <trkpt lat="47.35844" lon="-1.3579">
        <ele>127</ele>
        <time>2014-09-07T08:44:32.000Z</time>
      </trkpt>
      <trkpt lat="47.35833" lon="-1.35808">
        <ele>128</ele>
        <time>2014-09-07T08:44:36.000Z</time>
      </trkpt>
      <trkpt lat="47.35827" lon="-1.35819">
        <ele>128</ele>
        <time>2014-09-07T08:44:38.000Z</time>
      </trkpt>
      <trkpt lat="47.35807" lon="-1.35839">
        <ele>128</ele>
        <time>2014-09-07T08:44:42.000Z</time>
      </trkpt>
      <trkpt lat="47.35798" lon="-1.35852">
        <ele>127</ele>
        <time>2014-09-07T08:44:44.000Z</time>
      </trkpt>
      <trkpt lat="47.35788" lon="-1.35864">
        <ele>127</ele>
        <time>2014-09-07T08:44:46.000Z</time>
      </trkpt>
      <trkpt lat="47.35775" lon="-1.35872">
        <ele>127</ele>
        <time>2014-09-07T08:44:48.000Z</time>
      </trkpt>
      <trkpt lat="47.35743" lon="-1.35903">
        <ele>128</ele>
        <time>2014-09-07T08:44:54.000Z</time>
      </trkpt>
      <trkpt lat="47.35735" lon="-1.35914">
        <ele>128</ele>
        <time>2014-09-07T08:44:56.000Z</time>
      </trkpt>
      <trkpt lat="47.3573" lon="-1.35922">
        <ele>129</ele>
        <time>2014-09-07T08:44:58.000Z</time>
      </trkpt>
      <trkpt lat="47.3572" lon="-1.35935">
        <ele>131</ele>
        <time>2014-09-07T08:45:02.000Z</time>
      </trkpt>
      <trkpt lat="47.35714" lon="-1.3594">
        <ele>131</ele>
        <time>2014-09-07T08:45:04.000Z</time>
      </trkpt>
      <trkpt lat="47.35698" lon="-1.35952">
        <ele>132</ele>
        <time>2014-09-07T08:45:08.000Z</time>
      </trkpt>
      <trkpt lat="47.35692" lon="-1.3596">
        <ele>133</ele>
        <time>2014-09-07T08:45:10.000Z</time>
      </trkpt>
      <trkpt lat="47.35685" lon="-1.35967">
        <ele>134</ele>
        <time>2014-09-07T08:45:12.000Z</time>
      </trkpt>
      <trkpt lat="47.35672" lon="-1.35986">
        <ele>135</ele>
        <time>2014-09-07T08:45:16.000Z</time>
      </trkpt>
      <trkpt lat="47.35665" lon="-1.35992">
        <ele>136</ele>
        <time>2014-09-07T08:45:18.000Z</time>
      </trkpt>
      <trkpt lat="47.35656" lon="-1.35996">
        <ele>137</ele>
        <time>2014-09-07T08:45:20.000Z</time>
      </trkpt>
      <trkpt lat="47.3565" lon="-1.36005">
        <ele>138</ele>
        <time>2014-09-07T08:45:22.000Z</time>
      </trkpt>
      <trkpt lat="47.35637" lon="-1.36017">
        <ele>139</ele>
        <time>2014-09-07T08:45:26.000Z</time>
      </trkpt>
      <trkpt lat="47.3562" lon="-1.36033">
        <ele>139</ele>
        <time>2014-09-07T08:45:32.000Z</time>
      </trkpt>
      <trkpt lat="47.35605" lon="-1.36046">
        <ele>140</ele>
        <time>2014-09-07T08:45:36.000Z</time>
      </trkpt>
      <trkpt lat="47.35586" lon="-1.36054">
        <ele>140</ele>
        <time>2014-09-07T08:45:40.000Z</time>
      </trkpt>
      <trkpt lat="47.3558" lon="-1.36058">
        <ele>141</ele>
        <time>2014-09-07T08:45:42.000Z</time>
      </trkpt>
      <trkpt lat="47.35577" lon="-1.36064">
        <ele>141</ele>
        <time>2014-09-07T08:45:44.000Z</time>
      </trkpt>
      <trkpt lat="47.35568" lon="-1.3608">
        <ele>141</ele>
        <time>2014-09-07T08:45:48.000Z</time>
      </trkpt>
      <trkpt lat="47.35556" lon="-1.36093">
        <ele>142</ele>
        <time>2014-09-07T08:45:52.000Z</time>
      </trkpt>
      <trkpt lat="47.35537" lon="-1.36103">
        <ele>142</ele>
        <time>2014-09-07T08:45:56.000Z</time>
      </trkpt>
      <trkpt lat="47.35528" lon="-1.36109">
        <ele>143</ele>
        <time>2014-09-07T08:45:58.000Z</time>
      </trkpt>
      <trkpt lat="47.35486" lon="-1.36139">
        <ele>145</ele>
        <time>2014-09-07T08:46:08.000Z</time>
      </trkpt>
      <trkpt lat="47.35478" lon="-1.36145">
        <ele>145</ele>
        <time>2014-09-07T08:46:10.000Z</time>
      </trkpt>
      <trkpt lat="47.35469" lon="-1.36151">
        <ele>145</ele>
        <time>2014-09-07T08:46:12.000Z</time>
      </trkpt>
      <trkpt lat="47.35452" lon="-1.36162">
        <ele>145</ele>
        <time>2014-09-07T08:46:16.000Z</time>
      </trkpt>
      <trkpt lat="47.35436" lon="-1.36179">
        <ele>145</ele>
        <time>2014-09-07T08:46:20.000Z</time>
      </trkpt>
      <trkpt lat="47.3543" lon="-1.36188">
        <ele>146</ele>
        <time>2014-09-07T08:46:22.000Z</time>
      </trkpt>
      <trkpt lat="47.35412" lon="-1.36207">
        <ele>147</ele>
        <time>2014-09-07T08:46:28.000Z</time>
      </trkpt>
      <trkpt lat="47.35404" lon="-1.36216">
        <ele>147</ele>
        <time>2014-09-07T08:46:30.000Z</time>
      </trkpt>
      <trkpt lat="47.35397" lon="-1.36226">
        <ele>148</ele>
        <time>2014-09-07T08:46:32.000Z</time>
      </trkpt>
      <trkpt lat="47.3539" lon="-1.36232">
        <ele>149</ele>
        <time>2014-09-07T08:46:34.000Z</time>
      </trkpt>
      <trkpt lat="47.35382" lon="-1.36238">
        <ele>150</ele>
        <time>2014-09-07T08:46:36.000Z</time>
      </trkpt>
      <trkpt lat="47.35376" lon="-1.36243">
        <ele>152</ele>
        <time>2014-09-07T08:46:38.000Z</time>
      </trkpt>
      <trkpt lat="47.35369" lon="-1.3625">
        <ele>153</ele>
        <time>2014-09-07T08:46:40.000Z</time>
      </trkpt>
      <trkpt lat="47.35364" lon="-1.36257">
        <ele>153</ele>
        <time>2014-09-07T08:46:42.000Z</time>
      </trkpt>
      <trkpt lat="47.35359" lon="-1.36266">
        <ele>154</ele>
        <time>2014-09-07T08:46:44.000Z</time>
      </trkpt>
      <trkpt lat="47.35351" lon="-1.36277">
        <ele>156</ele>
        <time>2014-09-07T08:46:46.000Z</time>
      </trkpt>
      <trkpt lat="47.35345" lon="-1.36282">
        <ele>157</ele>
        <time>2014-09-07T08:46:48.000Z</time>
      </trkpt>
      <trkpt lat="47.35331" lon="-1.36294">
        <ele>157</ele>
        <time>2014-09-07T08:46:52.000Z</time>
      </trkpt>
      <trkpt lat="47.35313" lon="-1.36308">
        <ele>158</ele>
        <time>2014-09-07T08:46:56.000Z</time>
      </trkpt>
      <trkpt lat="47.35296" lon="-1.36319">
        <ele>158</ele>
        <time>2014-09-07T08:47:00.000Z</time>
      </trkpt>
      <trkpt lat="47.35276" lon="-1.36335">
        <ele>158</ele>
        <time>2014-09-07T08:47:06.000Z</time>
      </trkpt>
      <trkpt lat="47.35272" lon="-1.36344">
        <ele>158</ele>
        <time>2014-09-07T08:47:08.000Z</time>
      </trkpt>
      <trkpt lat="47.35266" lon="-1.3635">
        <ele>158</ele>
        <time>2014-09-07T08:47:10.000Z</time>
      </trkpt>
      <trkpt lat="47.35259" lon="-1.36355">
        <ele>158</ele>
        <time>2014-09-07T08:47:12.000Z</time>
      </trkpt>
      <trkpt lat="47.35251" lon="-1.36362">
        <ele>158</ele>
        <time>2014-09-07T08:47:14.000Z</time>
      </trkpt>
      <trkpt lat="47.35239" lon="-1.36378">
        <ele>157</ele>
        <time>2014-09-07T08:47:18.000Z</time>
      </trkpt>
      <trkpt lat="47.35233" lon="-1.36384">
        <ele>158</ele>
        <time>2014-09-07T08:47:20.000Z</time>
      </trkpt>
      <trkpt lat="47.35226" lon="-1.3639">
        <ele>158</ele>
        <time>2014-09-07T08:47:22.000Z</time>
      </trkpt>
      <trkpt lat="47.3522" lon="-1.36393">
        <ele>158</ele>
        <time>2014-09-07T08:47:24.000Z</time>
      </trkpt>
      <trkpt lat="47.35202" lon="-1.36407">
        <ele>157</ele>
        <time>2014-09-07T08:47:30.000Z</time>
      </trkpt>
      <trkpt lat="47.35198" lon="-1.36411">
        <ele>157</ele>
        <time>2014-09-07T08:47:32.000Z</time>
      </trkpt>
      <trkpt lat="47.35192" lon="-1.36411">
        <ele>157</ele>
        <time>2014-09-07T08:47:34.000Z</time>
      </trkpt>
      <trkpt lat="47.35183" lon="-1.36409">
        <ele>157</ele>
        <time>2014-09-07T08:47:36.000Z</time>
      </trkpt>
      <trkpt lat="47.35143" lon="-1.36403">
        <ele>158</ele>
        <time>2014-09-07T08:47:44.000Z</time>
      </trkpt>
      <trkpt lat="47.35113" lon="-1.36407">
        <ele>157</ele>
        <time>2014-09-07T08:47:50.000Z</time>
      </trkpt>
      <trkpt lat="47.35095" lon="-1.36419">
        <ele>157</ele>
        <time>2014-09-07T08:47:54.000Z</time>
      </trkpt>
      <trkpt lat="47.35089" lon="-1.36434">
        <ele>157</ele>
        <time>2014-09-07T08:47:56.000Z</time>
      </trkpt>
      <trkpt lat="47.35083" lon="-1.36445">
        <ele>156</ele>
        <time>2014-09-07T08:47:58.000Z</time>
      </trkpt>
      <trkpt lat="47.35067" lon="-1.36463">
        <ele>151</ele>
        <time>2014-09-07T08:48:02.000Z</time>
      </trkpt>
      <trkpt lat="47.35049" lon="-1.3648">
        <ele>146</ele>
        <time>2014-09-07T08:48:06.000Z</time>
      </trkpt>
      <trkpt lat="47.35049" lon="-1.36486">
        <ele>147</ele>
        <time>2014-09-07T08:48:08.000Z</time>
      </trkpt>
      <trkpt lat="47.35044" lon="-1.36492">
        <ele>146</ele>
        <time>2014-09-07T08:48:10.000Z</time>
      </trkpt>
      <trkpt lat="47.35035" lon="-1.36498">
        <ele>145</ele>
        <time>2014-09-07T08:48:12.000Z</time>
      </trkpt>
      <trkpt lat="47.35028" lon="-1.36506">
        <ele>144</ele>
        <time>2014-09-07T08:48:14.000Z</time>
      </trkpt>
      <trkpt lat="47.35021" lon="-1.36515">
        <ele>144</ele>
        <time>2014-09-07T08:48:16.000Z</time>
      </trkpt>
      <trkpt lat="47.35013" lon="-1.36523">
        <ele>144</ele>
        <time>2014-09-07T08:48:18.000Z</time>
      </trkpt>
      <trkpt lat="47.34997" lon="-1.36539">
        <ele>143</ele>
        <time>2014-09-07T08:48:22.000Z</time>
      </trkpt>
      <trkpt lat="47.34989" lon="-1.36548">
        <ele>142</ele>
        <time>2014-09-07T08:48:24.000Z</time>
      </trkpt>
      <trkpt lat="47.34966" lon="-1.36575">
        <ele>141</ele>
        <time>2014-09-07T08:48:30.000Z</time>
      </trkpt>
      <trkpt lat="47.34959" lon="-1.36584">
        <ele>141</ele>
        <time>2014-09-07T08:48:32.000Z</time>
      </trkpt>
      <trkpt lat="47.34944" lon="-1.36606">
        <ele>140</ele>
        <time>2014-09-07T08:48:36.000Z</time>
      </trkpt>
      <trkpt lat="47.34936" lon="-1.36631">
        <ele>141</ele>
        <time>2014-09-07T08:48:40.000Z</time>
      </trkpt>
      <trkpt lat="47.34929" lon="-1.36654">
        <ele>142</ele>
        <time>2014-09-07T08:48:44.000Z</time>
      </trkpt>
      <trkpt lat="47.34894" lon="-1.36713">
        <ele>141</ele>
        <time>2014-09-07T08:48:54.000Z</time>
      </trkpt>
      <trkpt lat="47.34888" lon="-1.36727">
        <ele>141</ele>
        <time>2014-09-07T08:48:56.000Z</time>
      </trkpt>
      <trkpt lat="47.34884" lon="-1.36743">
        <ele>141</ele>
        <time>2014-09-07T08:48:58.000Z</time>
      </trkpt>
      <trkpt lat="47.34875" lon="-1.36772">
        <ele>141</ele>
        <time>2014-09-07T08:49:02.000Z</time>
      </trkpt>
      <trkpt lat="47.34864" lon="-1.36777">
        <ele>141</ele>
        <time>2014-09-07T08:49:04.000Z</time>
      </trkpt>
      <trkpt lat="47.34829" lon="-1.36758">
        <ele>140</ele>
        <time>2014-09-07T08:49:08.000Z</time>
      </trkpt>
      <trkpt lat="47.34808" lon="-1.36734">
        <ele>140</ele>
        <time>2014-09-07T08:49:12.000Z</time>
      </trkpt>
      <trkpt lat="47.348" lon="-1.36722">
        <ele>139</ele>
        <time>2014-09-07T08:49:14.000Z</time>
      </trkpt>
      <trkpt lat="47.3479" lon="-1.36707">
        <ele>139</ele>
        <time>2014-09-07T08:49:16.000Z</time>
      </trkpt>
      <trkpt lat="47.34752" lon="-1.36652">
        <ele>138</ele>
        <time>2014-09-07T08:49:24.000Z</time>
      </trkpt>
      <trkpt lat="47.34716" lon="-1.36596">
        <ele>138</ele>
        <time>2014-09-07T08:49:32.000Z</time>
      </trkpt>
      <trkpt lat="47.34709" lon="-1.36585">
        <ele>137</ele>
        <time>2014-09-07T08:49:34.000Z</time>
      </trkpt>
      <trkpt lat="47.34694" lon="-1.36566">
        <ele>137</ele>
        <time>2014-09-07T08:49:38.000Z</time>
      </trkpt>
      <trkpt lat="47.34676" lon="-1.36546">
        <ele>137</ele>
        <time>2014-09-07T08:49:42.000Z</time>
      </trkpt>
      <trkpt lat="47.34669" lon="-1.36537">
        <ele>138</ele>
        <time>2014-09-07T08:49:44.000Z</time>
      </trkpt>
      <trkpt lat="47.34664" lon="-1.36526">
        <ele>139</ele>
        <time>2014-09-07T08:49:46.000Z</time>
      </trkpt>
      <trkpt lat="47.3464" lon="-1.36494">
        <ele>139</ele>
        <time>2014-09-07T08:49:52.000Z</time>
      </trkpt>
      <trkpt lat="47.3463" lon="-1.36494">
        <ele>140</ele>
        <time>2014-09-07T08:49:54.000Z</time>
      </trkpt>
      <trkpt lat="47.34623" lon="-1.36506">
        <ele>141</ele>
        <time>2014-09-07T08:49:56.000Z</time>
      </trkpt>
      <trkpt lat="47.3462" lon="-1.36519">
        <ele>141</ele>
        <time>2014-09-07T08:49:58.000Z</time>
      </trkpt>
      <trkpt lat="47.34609" lon="-1.36552">
        <ele>141</ele>
        <time>2014-09-07T08:50:04.000Z</time>
      </trkpt>
      <trkpt lat="47.34604" lon="-1.36563">
        <ele>141</ele>
        <time>2014-09-07T08:50:06.000Z</time>
      </trkpt>
      <trkpt lat="47.34582" lon="-1.36604">
        <ele>142</ele>
        <time>2014-09-07T08:50:14.000Z</time>
      </trkpt>
      <trkpt lat="47.34578" lon="-1.36616">
        <ele>142</ele>
        <time>2014-09-07T08:50:16.000Z</time>
      </trkpt>
      <trkpt lat="47.34571" lon="-1.36638">
        <ele>141</ele>
        <time>2014-09-07T08:50:20.000Z</time>
      </trkpt>
      <trkpt lat="47.34566" lon="-1.36649">
        <ele>141</ele>
        <time>2014-09-07T08:50:22.000Z</time>
      </trkpt>
      <trkpt lat="47.34555" lon="-1.36669">
        <ele>141</ele>
        <time>2014-09-07T08:50:26.000Z</time>
      </trkpt>
      <trkpt lat="47.34547" lon="-1.36688">
        <ele>140</ele>
        <time>2014-09-07T08:50:30.000Z</time>
      </trkpt>
      <trkpt lat="47.34543" lon="-1.36695">
        <ele>140</ele>
        <time>2014-09-07T08:50:32.000Z</time>
      </trkpt>
      <trkpt lat="47.34533" lon="-1.36715">
        <ele>140</ele>
        <time>2014-09-07T08:50:36.000Z</time>
      </trkpt>
      <trkpt lat="47.34528" lon="-1.36724">
        <ele>140</ele>
        <time>2014-09-07T08:50:38.000Z</time>
      </trkpt>
      <trkpt lat="47.3452" lon="-1.36746">
        <ele>139</ele>
        <time>2014-09-07T08:50:42.000Z</time>
      </trkpt>
      <trkpt lat="47.34512" lon="-1.36767">
        <ele>140</ele>
        <time>2014-09-07T08:50:46.000Z</time>
      </trkpt>
      <trkpt lat="47.34505" lon="-1.36792">
        <ele>141</ele>
        <time>2014-09-07T08:50:50.000Z</time>
      </trkpt>
      <trkpt lat="47.34502" lon="-1.36804">
        <ele>141</ele>
        <time>2014-09-07T08:50:52.000Z</time>
      </trkpt>
      <trkpt lat="47.34501" lon="-1.36812">
        <ele>141</ele>
        <time>2014-09-07T08:50:54.000Z</time>
      </trkpt>
      <trkpt lat="47.34502" lon="-1.36822">
        <ele>142</ele>
        <time>2014-09-07T08:50:58.000Z</time>
      </trkpt>
      <trkpt lat="47.34499" lon="-1.36823">
        <ele>142</ele>
        <time>2014-09-07T08:51:00.000Z</time>
      </trkpt>
      <trkpt lat="47.34491" lon="-1.36836">
        <ele>141</ele>
        <time>2014-09-07T08:51:08.000Z</time>
      </trkpt>
      <trkpt lat="47.34491" lon="-1.36843">
        <ele>140</ele>
        <time>2014-09-07T08:51:10.000Z</time>
      </trkpt>
      <trkpt lat="47.34492" lon="-1.36848">
        <ele>140</ele>
        <time>2014-09-07T08:51:12.000Z</time>
      </trkpt>
      <trkpt lat="47.34499" lon="-1.36875">
        <ele>141</ele>
        <time>2014-09-07T08:51:18.000Z</time>
      </trkpt>
      <trkpt lat="47.34499" lon="-1.36878">
        <ele>141</ele>
        <time>2014-09-07T08:51:20.000Z</time>
      </trkpt>
      <trkpt lat="47.345" lon="-1.36881">
        <ele>141</ele>
        <time>2014-09-07T08:51:22.000Z</time>
      </trkpt>
      <trkpt lat="47.34501" lon="-1.36886">
        <ele>141</ele>
        <time>2014-09-07T08:51:24.000Z</time>
      </trkpt>
      <trkpt lat="47.34501" lon="-1.36887">
        <ele>141</ele>
        <time>2014-09-07T08:51:26.000Z</time>
      </trkpt>
      <trkpt lat="47.34498" lon="-1.36889">
        <ele>142</ele>
        <time>2014-09-07T08:51:28.000Z</time>
      </trkpt>
      <trkpt lat="47.34498" lon="-1.36893">
        <ele>141</ele>
        <time>2014-09-07T08:51:30.000Z</time>
      </trkpt>
      <trkpt lat="47.34495" lon="-1.36895">
        <ele>141</ele>
        <time>2014-09-07T08:51:32.000Z</time>
      </trkpt>
      <trkpt lat="47.34492" lon="-1.36891">
        <ele>141</ele>
        <time>2014-09-07T08:51:34.000Z</time>
      </trkpt>
      <trkpt lat="47.3449" lon="-1.36885">
        <ele>141</ele>
        <time>2014-09-07T08:51:36.000Z</time>
      </trkpt>
      <trkpt lat="47.34488" lon="-1.36881">
        <ele>141</ele>
        <time>2014-09-07T08:51:38.000Z</time>
      </trkpt>
      <trkpt lat="47.34486" lon="-1.36881">
        <ele>141</ele>
        <time>2014-09-07T08:51:40.000Z</time>
      </trkpt>
      <trkpt lat="47.34484" lon="-1.36881">
        <ele>141</ele>
        <time>2014-09-07T08:51:42.000Z</time>
      </trkpt>
      <trkpt lat="47.34482" lon="-1.3688">
        <ele>141</ele>
        <time>2014-09-07T08:51:44.000Z</time>
      </trkpt>
      <trkpt lat="47.3448" lon="-1.36878">
        <ele>141</ele>
        <time>2014-09-07T08:51:46.000Z</time>
      </trkpt>
      <trkpt lat="47.34478" lon="-1.36879">
        <ele>141</ele>
        <time>2014-09-07T08:51:48.000Z</time>
      </trkpt>
      <trkpt lat="47.34477" lon="-1.3688">
        <ele>141</ele>
        <time>2014-09-07T08:51:50.000Z</time>
      </trkpt>
      <trkpt lat="47.34475" lon="-1.36882">
        <ele>142</ele>
        <time>2014-09-07T08:51:52.000Z</time>
      </trkpt>
      <trkpt lat="47.34469" lon="-1.36881">
        <ele>141</ele>
        <time>2014-09-07T08:51:54.000Z</time>
      </trkpt>
      <trkpt lat="47.34466" lon="-1.36881">
        <ele>141</ele>
        <time>2014-09-07T08:51:56.000Z</time>
      </trkpt>
      <trkpt lat="47.34469" lon="-1.36887">
        <ele>141</ele>
        <time>2014-09-07T08:51:58.000Z</time>
      </trkpt>
      <trkpt lat="47.34469" lon="-1.3689">
        <ele>142</ele>
        <time>2014-09-07T08:52:00.000Z</time>
      </trkpt>
      <trkpt lat="47.34471" lon="-1.36891">
        <ele>142</ele>
        <time>2014-09-07T08:52:02.000Z</time>
      </trkpt>
      <trkpt lat="47.34471" lon="-1.36896">
        <ele>141</ele>
        <time>2014-09-07T08:52:04.000Z</time>
      </trkpt>
      <trkpt lat="47.34475" lon="-1.36909">
        <ele>140</ele>
        <time>2014-09-07T08:52:08.000Z</time>
      </trkpt>
      <trkpt lat="47.34475" lon="-1.36915">
        <ele>140</ele>
        <time>2014-09-07T08:52:10.000Z</time>
      </trkpt>
      <trkpt lat="47.34473" lon="-1.36921">
        <ele>140</ele>
        <time>2014-09-07T08:52:12.000Z</time>
      </trkpt>
      <trkpt lat="47.3447" lon="-1.36926">
        <ele>139</ele>
        <time>2014-09-07T08:52:14.000Z</time>
      </trkpt>
      <trkpt lat="47.34465" lon="-1.36925">
        <ele>139</ele>
        <time>2014-09-07T08:52:16.000Z</time>
      </trkpt>
      <trkpt lat="47.34462" lon="-1.36928">
        <ele>140</ele>
        <time>2014-09-07T08:52:18.000Z</time>
      </trkpt>
      <trkpt lat="47.3446" lon="-1.36935">
        <ele>141</ele>
        <time>2014-09-07T08:52:20.000Z</time>
      </trkpt>
      <trkpt lat="47.34457" lon="-1.36937">
        <ele>141</ele>
        <time>2014-09-07T08:52:22.000Z</time>
      </trkpt>
      <trkpt lat="47.34453" lon="-1.36937">
        <ele>141</ele>
        <time>2014-09-07T08:52:24.000Z</time>
      </trkpt>
      <trkpt lat="47.34452" lon="-1.36938">
        <ele>141</ele>
        <time>2014-09-07T08:52:26.000Z</time>
      </trkpt>
      <trkpt lat="47.34449" lon="-1.36941">
        <ele>141</ele>
        <time>2014-09-07T08:52:28.000Z</time>
      </trkpt>
      <trkpt lat="47.34447" lon="-1.36942">
        <ele>142</ele>
        <time>2014-09-07T08:52:30.000Z</time>
      </trkpt>
      <trkpt lat="47.34448" lon="-1.36945">
        <ele>142</ele>
        <time>2014-09-07T08:52:32.000Z</time>
      </trkpt>
      <trkpt lat="47.34447" lon="-1.36949">
        <ele>143</ele>
        <time>2014-09-07T08:52:34.000Z</time>
      </trkpt>
      <trkpt lat="47.34447" lon="-1.36954">
        <ele>144</ele>
        <time>2014-09-07T08:52:36.000Z</time>
      </trkpt>
      <trkpt lat="47.34446" lon="-1.36967">
        <ele>144</ele>
        <time>2014-09-07T08:52:40.000Z</time>
      </trkpt>
      <trkpt lat="47.34444" lon="-1.36969">
        <ele>143</ele>
        <time>2014-09-07T08:52:42.000Z</time>
      </trkpt>
      <trkpt lat="47.34445" lon="-1.36975">
        <ele>143</ele>
        <time>2014-09-07T08:52:44.000Z</time>
      </trkpt>
      <trkpt lat="47.34444" lon="-1.36982">
        <ele>143</ele>
        <time>2014-09-07T08:52:46.000Z</time>
      </trkpt>
      <trkpt lat="47.34443" lon="-1.36986">
        <ele>143</ele>
        <time>2014-09-07T08:52:48.000Z</time>
      </trkpt>
      <trkpt lat="47.34441" lon="-1.36995">
        <ele>143</ele>
        <time>2014-09-07T08:52:52.000Z</time>
      </trkpt>
      <trkpt lat="47.34443" lon="-1.37003">
        <ele>142</ele>
        <time>2014-09-07T08:52:54.000Z</time>
      </trkpt>
      <trkpt lat="47.34444" lon="-1.37007">
        <ele>142</ele>
        <time>2014-09-07T08:52:56.000Z</time>
      </trkpt>
      <trkpt lat="47.34443" lon="-1.37011">
        <ele>141</ele>
        <time>2014-09-07T08:52:58.000Z</time>
      </trkpt>
      <trkpt lat="47.34446" lon="-1.37019">
        <ele>140</ele>
        <time>2014-09-07T08:53:02.000Z</time>
      </trkpt>
      <trkpt lat="47.34448" lon="-1.3702">
        <ele>139</ele>
        <time>2014-09-07T08:53:04.000Z</time>
      </trkpt>
      <trkpt lat="47.3445" lon="-1.37021">
        <ele>139</ele>
        <time>2014-09-07T08:53:06.000Z</time>
      </trkpt>
      <trkpt lat="47.34451" lon="-1.3702">
        <ele>139</ele>
        <time>2014-09-07T08:53:08.000Z</time>
      </trkpt>
      <trkpt lat="47.3445" lon="-1.37019">
        <ele>139</ele>
        <time>2014-09-07T08:53:10.000Z</time>
      </trkpt>
      <trkpt lat="47.3445" lon="-1.37016">
        <ele>139</ele>
        <time>2014-09-07T08:53:12.000Z</time>
      </trkpt>
      <trkpt lat="47.34448" lon="-1.37014">
        <ele>139</ele>
        <time>2014-09-07T08:53:14.000Z</time>
      </trkpt>
      <trkpt lat="47.34448" lon="-1.37015">
        <ele>139</ele>
        <time>2014-09-07T08:53:16.000Z</time>
      </trkpt>
      <trkpt lat="47.34448" lon="-1.37014">
        <ele>139</ele>
        <time>2014-09-07T08:53:18.000Z</time>
      </trkpt>
      <trkpt lat="47.34447" lon="-1.3701">
        <ele>139</ele>
        <time>2014-09-07T08:53:20.000Z</time>
      </trkpt>
      <trkpt lat="47.34447" lon="-1.37008">
        <ele>139</ele>
        <time>2014-09-07T08:53:22.000Z</time>
      </trkpt>
      <trkpt lat="47.34449" lon="-1.37008">
        <ele>139</ele>
        <time>2014-09-07T08:53:24.000Z</time>
      </trkpt>
      <trkpt lat="47.34448" lon="-1.37004">
        <ele>139</ele>
        <time>2014-09-07T08:53:26.000Z</time>
      </trkpt>
      <trkpt lat="47.34447" lon="-1.37">
        <ele>139</ele>
        <time>2014-09-07T08:53:28.000Z</time>
      </trkpt>
      <trkpt lat="47.34449" lon="-1.36997">
        <ele>138</ele>
        <time>2014-09-07T08:53:30.000Z</time>
      </trkpt>
      <trkpt lat="47.34452" lon="-1.36997">
        <ele>138</ele>
        <time>2014-09-07T08:53:32.000Z</time>
      </trkpt>
      <trkpt lat="47.34455" lon="-1.36995">
        <ele>137</ele>
        <time>2014-09-07T08:53:34.000Z</time>
      </trkpt>
      <trkpt lat="47.34456" lon="-1.36994">
        <ele>137</ele>
        <time>2014-09-07T08:53:36.000Z</time>
      </trkpt>
      <trkpt lat="47.34459" lon="-1.36993">
        <ele>137</ele>
        <time>2014-09-07T08:53:38.000Z</time>
      </trkpt>
      <trkpt lat="47.34461" lon="-1.36993">
        <ele>137</ele>
        <time>2014-09-07T08:53:40.000Z</time>
      </trkpt>
      <trkpt lat="47.34467" lon="-1.36998">
        <ele>137</ele>
        <time>2014-09-07T08:53:46.000Z</time>
      </trkpt>
      <trkpt lat="47.34468" lon="-1.37002">
        <ele>138</ele>
        <time>2014-09-07T08:53:48.000Z</time>
      </trkpt>
      <trkpt lat="47.34468" lon="-1.37005">
        <ele>138</ele>
        <time>2014-09-07T08:53:50.000Z</time>
      </trkpt>
      <trkpt lat="47.34469" lon="-1.3701">
        <ele>139</ele>
        <time>2014-09-07T08:53:52.000Z</time>
      </trkpt>
      <trkpt lat="47.3447" lon="-1.37013">
        <ele>139</ele>
        <time>2014-09-07T08:53:54.000Z</time>
      </trkpt>
      <trkpt lat="47.34472" lon="-1.37021">
        <ele>139</ele>
        <time>2014-09-07T08:53:58.000Z</time>
      </trkpt>
      <trkpt lat="47.34472" lon="-1.37026">
        <ele>138</ele>
        <time>2014-09-07T08:54:00.000Z</time>
      </trkpt>
      <trkpt lat="47.34472" lon="-1.37035">
        <ele>137</ele>
        <time>2014-09-07T08:54:04.000Z</time>
      </trkpt>
      <trkpt lat="47.34475" lon="-1.37041">
        <ele>137</ele>
        <time>2014-09-07T08:54:06.000Z</time>
      </trkpt>
      <trkpt lat="47.34475" lon="-1.37047">
        <ele>137</ele>
        <time>2014-09-07T08:54:08.000Z</time>
      </trkpt>
      <trkpt lat="47.34478" lon="-1.37054">
        <ele>136</ele>
        <time>2014-09-07T08:54:12.000Z</time>
      </trkpt>
      <trkpt lat="47.34485" lon="-1.37064">
        <ele>137</ele>
        <time>2014-09-07T08:54:16.000Z</time>
      </trkpt>
      <trkpt lat="47.34488" lon="-1.37068">
        <ele>137</ele>
        <time>2014-09-07T08:54:18.000Z</time>
      </trkpt>
      <trkpt lat="47.34491" lon="-1.3707">
        <ele>137</ele>
        <time>2014-09-07T08:54:20.000Z</time>
      </trkpt>
      <trkpt lat="47.34496" lon="-1.37069">
        <ele>137</ele>
        <time>2014-09-07T08:54:22.000Z</time>
      </trkpt>
      <trkpt lat="47.34501" lon="-1.37071">
        <ele>137</ele>
        <time>2014-09-07T08:54:24.000Z</time>
      </trkpt>
      <trkpt lat="47.34505" lon="-1.37075">
        <ele>138</ele>
        <time>2014-09-07T08:54:26.000Z</time>
      </trkpt>
      <trkpt lat="47.34513" lon="-1.37078">
        <ele>138</ele>
        <time>2014-09-07T08:54:30.000Z</time>
      </trkpt>
      <trkpt lat="47.34515" lon="-1.37081">
        <ele>138</ele>
        <time>2014-09-07T08:54:32.000Z</time>
      </trkpt>
      <trkpt lat="47.34517" lon="-1.37086">
        <ele>138</ele>
        <time>2014-09-07T08:54:34.000Z</time>
      </trkpt>
      <trkpt lat="47.34517" lon="-1.37092">
        <ele>139</ele>
        <time>2014-09-07T08:54:36.000Z</time>
      </trkpt>
      <trkpt lat="47.34518" lon="-1.37102">
        <ele>140</ele>
        <time>2014-09-07T08:54:40.000Z</time>
      </trkpt>
      <trkpt lat="47.34516" lon="-1.37115">
        <ele>140</ele>
        <time>2014-09-07T08:54:44.000Z</time>
      </trkpt>
      <trkpt lat="47.34512" lon="-1.37124">
        <ele>141</ele>
        <time>2014-09-07T08:54:48.000Z</time>
      </trkpt>
      <trkpt lat="47.34514" lon="-1.37133">
        <ele>140</ele>
        <time>2014-09-07T08:54:50.000Z</time>
      </trkpt>
      <trkpt lat="47.34514" lon="-1.37137">
        <ele>141</ele>
        <time>2014-09-07T08:54:52.000Z</time>
      </trkpt>
      <trkpt lat="47.34514" lon="-1.37148">
        <ele>141</ele>
        <time>2014-09-07T08:54:56.000Z</time>
      </trkpt>
      <trkpt lat="47.34513" lon="-1.37156">
        <ele>140</ele>
        <time>2014-09-07T08:55:00.000Z</time>
      </trkpt>
      <trkpt lat="47.34515" lon="-1.37161">
        <ele>139</ele>
        <time>2014-09-07T08:55:02.000Z</time>
      </trkpt>
      <trkpt lat="47.34515" lon="-1.37165">
        <ele>138</ele>
        <time>2014-09-07T08:55:04.000Z</time>
      </trkpt>
      <trkpt lat="47.34515" lon="-1.37171">
        <ele>138</ele>
        <time>2014-09-07T08:55:06.000Z</time>
      </trkpt>
      <trkpt lat="47.34512" lon="-1.3718">
        <ele>139</ele>
        <time>2014-09-07T08:55:08.000Z</time>
      </trkpt>
      <trkpt lat="47.34508" lon="-1.37191">
        <ele>140</ele>
        <time>2014-09-07T08:55:10.000Z</time>
      </trkpt>
      <trkpt lat="47.34507" lon="-1.37206">
        <ele>140</ele>
        <time>2014-09-07T08:55:12.000Z</time>
      </trkpt>
      <trkpt lat="47.34507" lon="-1.3722">
        <ele>141</ele>
        <time>2014-09-07T08:55:14.000Z</time>
      </trkpt>
      <trkpt lat="47.3451" lon="-1.37241">
        <ele>142</ele>
        <time>2014-09-07T08:55:16.000Z</time>
      </trkpt>
      <trkpt lat="47.3451" lon="-1.37256">
        <ele>143</ele>
        <time>2014-09-07T08:55:18.000Z</time>
      </trkpt>
      <trkpt lat="47.34507" lon="-1.37271">
        <ele>144</ele>
        <time>2014-09-07T08:55:20.000Z</time>
      </trkpt>
      <trkpt lat="47.34497" lon="-1.37279">
        <ele>145</ele>
        <time>2014-09-07T08:55:22.000Z</time>
      </trkpt>
      <trkpt lat="47.34485" lon="-1.37288">
        <ele>146</ele>
        <time>2014-09-07T08:55:24.000Z</time>
      </trkpt>
      <trkpt lat="47.34472" lon="-1.37295">
        <ele>147</ele>
        <time>2014-09-07T08:55:26.000Z</time>
      </trkpt>
      <trkpt lat="47.34459" lon="-1.37304">
        <ele>147</ele>
        <time>2014-09-07T08:55:28.000Z</time>
      </trkpt>
      <trkpt lat="47.34444" lon="-1.37313">
        <ele>148</ele>
        <time>2014-09-07T08:55:30.000Z</time>
      </trkpt>
      <trkpt lat="47.34425" lon="-1.37327">
        <ele>148</ele>
        <time>2014-09-07T08:55:32.000Z</time>
      </trkpt>
      <trkpt lat="47.34406" lon="-1.37338">
        <ele>147</ele>
        <time>2014-09-07T08:55:34.000Z</time>
      </trkpt>
      <trkpt lat="47.3437" lon="-1.37353">
        <ele>146</ele>
        <time>2014-09-07T08:55:38.000Z</time>
      </trkpt>
      <trkpt lat="47.34358" lon="-1.3736">
        <ele>145</ele>
        <time>2014-09-07T08:55:40.000Z</time>
      </trkpt>
      <trkpt lat="47.34346" lon="-1.37364">
        <ele>146</ele>
        <time>2014-09-07T08:55:42.000Z</time>
      </trkpt>
      <trkpt lat="47.34321" lon="-1.37372">
        <ele>144</ele>
        <time>2014-09-07T08:55:46.000Z</time>
      </trkpt>
      <trkpt lat="47.34309" lon="-1.37374">
        <ele>143</ele>
        <time>2014-09-07T08:55:48.000Z</time>
      </trkpt>
      <trkpt lat="47.34298" lon="-1.37376">
        <ele>142</ele>
        <time>2014-09-07T08:55:50.000Z</time>
      </trkpt>
      <trkpt lat="47.34286" lon="-1.37376">
        <ele>142</ele>
        <time>2014-09-07T08:55:52.000Z</time>
      </trkpt>
      <trkpt lat="47.34266" lon="-1.37378">
        <ele>141</ele>
        <time>2014-09-07T08:55:56.000Z</time>
      </trkpt>
      <trkpt lat="47.34233" lon="-1.37376">
        <ele>140</ele>
        <time>2014-09-07T08:56:02.000Z</time>
      </trkpt>
      <trkpt lat="47.34222" lon="-1.37376">
        <ele>139</ele>
        <time>2014-09-07T08:56:04.000Z</time>
      </trkpt>
      <trkpt lat="47.34202" lon="-1.37375">
        <ele>138</ele>
        <time>2014-09-07T08:56:08.000Z</time>
      </trkpt>
      <trkpt lat="47.34173" lon="-1.37377">
        <ele>138</ele>
        <time>2014-09-07T08:56:14.000Z</time>
      </trkpt>
      <trkpt lat="47.34161" lon="-1.37377">
        <ele>139</ele>
        <time>2014-09-07T08:56:16.000Z</time>
      </trkpt>
      <trkpt lat="47.34138" lon="-1.37379">
        <ele>140</ele>
        <time>2014-09-07T08:56:20.000Z</time>
      </trkpt>
      <trkpt lat="47.34127" lon="-1.37383">
        <ele>140</ele>
        <time>2014-09-07T08:56:22.000Z</time>
      </trkpt>
      <trkpt lat="47.34116" lon="-1.37391">
        <ele>140</ele>
        <time>2014-09-07T08:56:24.000Z</time>
      </trkpt>
      <trkpt lat="47.34105" lon="-1.37402">
        <ele>139</ele>
        <time>2014-09-07T08:56:26.000Z</time>
      </trkpt>
      <trkpt lat="47.34095" lon="-1.37415">
        <ele>140</ele>
        <time>2014-09-07T08:56:28.000Z</time>
      </trkpt>
      <trkpt lat="47.34086" lon="-1.3743">
        <ele>139</ele>
        <time>2014-09-07T08:56:30.000Z</time>
      </trkpt>
      <trkpt lat="47.34078" lon="-1.37446">
        <ele>139</ele>
        <time>2014-09-07T08:56:32.000Z</time>
      </trkpt>
      <trkpt lat="47.34069" lon="-1.37462">
        <ele>138</ele>
        <time>2014-09-07T08:56:34.000Z</time>
      </trkpt>
      <trkpt lat="47.34064" lon="-1.37481">
        <ele>137</ele>
        <time>2014-09-07T08:56:36.000Z</time>
      </trkpt>
      <trkpt lat="47.34059" lon="-1.375">
        <ele>136</ele>
        <time>2014-09-07T08:56:38.000Z</time>
      </trkpt>
      <trkpt lat="47.34052" lon="-1.3754">
        <ele>136</ele>
        <time>2014-09-07T08:56:42.000Z</time>
      </trkpt>
      <trkpt lat="47.34046" lon="-1.3758">
        <ele>135</ele>
        <time>2014-09-07T08:56:46.000Z</time>
      </trkpt>
      <trkpt lat="47.3404" lon="-1.37598">
        <ele>136</ele>
        <time>2014-09-07T08:56:48.000Z</time>
      </trkpt>
      <trkpt lat="47.34035" lon="-1.37614">
        <ele>137</ele>
        <time>2014-09-07T08:56:50.000Z</time>
      </trkpt>
      <trkpt lat="47.3403" lon="-1.37631">
        <ele>137</ele>
        <time>2014-09-07T08:56:52.000Z</time>
      </trkpt>
      <trkpt lat="47.34024" lon="-1.37647">
        <ele>138</ele>
        <time>2014-09-07T08:56:54.000Z</time>
      </trkpt>
      <trkpt lat="47.34018" lon="-1.37654">
        <ele>139</ele>
        <time>2014-09-07T08:56:56.000Z</time>
      </trkpt>
      <trkpt lat="47.34013" lon="-1.37654">
        <ele>139</ele>
        <time>2014-09-07T08:57:00.000Z</time>
      </trkpt>
      <trkpt lat="47.34013" lon="-1.37653">
        <ele>139</ele>
        <time>2014-09-07T08:57:02.000Z</time>
      </trkpt>
      <trkpt lat="47.34012" lon="-1.37652">
        <ele>138</ele>
        <time>2014-09-07T08:57:04.000Z</time>
      </trkpt>
      <trkpt lat="47.34012" lon="-1.37653">
        <ele>138</ele>
        <time>2014-09-07T08:57:06.000Z</time>
      </trkpt>
      <trkpt lat="47.34012" lon="-1.37651">
        <ele>138</ele>
        <time>2014-09-07T08:57:10.000Z</time>
      </trkpt>
      <trkpt lat="47.34012" lon="-1.3765">
        <ele>138</ele>
        <time>2014-09-07T08:57:14.000Z</time>
      </trkpt>
      <trkpt lat="47.34011" lon="-1.37651">
        <ele>138</ele>
        <time>2014-09-07T08:57:16.000Z</time>
      </trkpt>
      <trkpt lat="47.34011" lon="-1.37652">
        <ele>138</ele>
        <time>2014-09-07T08:57:18.000Z</time>
      </trkpt>
      <trkpt lat="47.34011" lon="-1.37652">
        <ele>138</ele>
        <time>2014-09-07T08:57:20.000Z</time>
      </trkpt>
      <trkpt lat="47.34011" lon="-1.37652">
        <ele>138</ele>
        <time>2014-09-07T08:57:22.000Z</time>
      </trkpt>
      <trkpt lat="47.34011" lon="-1.37653">
        <ele>139</ele>
        <time>2014-09-07T08:57:24.000Z</time>
      </trkpt>
      <trkpt lat="47.3401" lon="-1.37654">
        <ele>139</ele>
        <time>2014-09-07T08:57:28.000Z</time>
      </trkpt>
      <trkpt lat="47.3401" lon="-1.37654">
        <ele>139</ele>
        <time>2014-09-07T08:57:30.000Z</time>
      </trkpt>
      <trkpt lat="47.3401" lon="-1.37654">
        <ele>139</ele>
        <time>2014-09-07T08:57:32.000Z</time>
      </trkpt>
      <trkpt lat="47.3401" lon="-1.37654">
        <ele>139</ele>
        <time>2014-09-07T08:57:34.000Z</time>
      </trkpt>
      <trkpt lat="47.3401" lon="-1.37654">
        <ele>139</ele>
        <time>2014-09-07T08:57:36.000Z</time>
      </trkpt>
      <trkpt lat="47.3401" lon="-1.37654">
        <ele>139</ele>
        <time>2014-09-07T08:57:38.000Z</time>
      </trkpt>
      <trkpt lat="47.3401" lon="-1.37654">
        <ele>139</ele>
        <time>2014-09-07T08:57:40.000Z</time>
      </trkpt>
      <trkpt lat="47.3401" lon="-1.37654">
        <ele>139</ele>
        <time>2014-09-07T08:57:42.000Z</time>
      </trkpt>
      <trkpt lat="47.3401" lon="-1.37654">
        <ele>139</ele>
        <time>2014-09-07T08:57:44.000Z</time>
      </trkpt>
      <trkpt lat="47.3401" lon="-1.37654">
        <ele>139</ele>
        <time>2014-09-07T08:57:46.000Z</time>
      </trkpt>
      <trkpt lat="47.3401" lon="-1.37654">
        <ele>139</ele>
        <time>2014-09-07T08:57:48.000Z</time>
      </trkpt>
      <trkpt lat="47.3401" lon="-1.37654">
        <ele>139</ele>
        <time>2014-09-07T08:57:50.000Z</time>
      </trkpt>
      <trkpt lat="47.3401" lon="-1.37654">
        <ele>139</ele>
        <time>2014-09-07T08:57:52.000Z</time>
      </trkpt>
      <trkpt lat="47.3401" lon="-1.37654">
        <ele>139</ele>
        <time>2014-09-07T08:57:54.000Z</time>
      </trkpt>
      <trkpt lat="47.3401" lon="-1.37654">
        <ele>139</ele>
        <time>2014-09-07T08:57:56.000Z</time>
      </trkpt>
      <trkpt lat="47.3401" lon="-1.37654">
        <ele>139</ele>
        <time>2014-09-07T08:57:58.000Z</time>
      </trkpt>
      <trkpt lat="47.3401" lon="-1.37654">
        <ele>139</ele>
        <time>2014-09-07T08:58:00.000Z</time>
      </trkpt>
      <trkpt lat="47.3401" lon="-1.37654">
        <ele>139</ele>
        <time>2014-09-07T08:58:02.000Z</time>
      </trkpt>
      <trkpt lat="47.3401" lon="-1.37654">
        <ele>139</ele>
        <time>2014-09-07T08:58:04.000Z</time>
      </trkpt>
      <trkpt lat="47.3401" lon="-1.37654">
        <ele>139</ele>
        <time>2014-09-07T08:58:06.000Z</time>
      </trkpt>
      <trkpt lat="47.3401" lon="-1.37654">
        <ele>139</ele>
        <time>2014-09-07T08:58:08.000Z</time>
      </trkpt>
      <trkpt lat="47.3401" lon="-1.37654">
        <ele>139</ele>
        <time>2014-09-07T08:58:10.000Z</time>
      </trkpt>
      <trkpt lat="47.3401" lon="-1.37654">
        <ele>139</ele>
        <time>2014-09-07T08:58:14.000Z</time>
      </trkpt>
      <trkpt lat="47.3401" lon="-1.37654">
        <ele>139</ele>
        <time>2014-09-07T08:58:16.000Z</time>
      </trkpt>
      <trkpt lat="47.3401" lon="-1.37654">
        <ele>139</ele>
        <time>2014-09-07T08:58:22.000Z</time>
      </trkpt>
      <trkpt lat="47.3401" lon="-1.37654">
        <ele>139</ele>
        <time>2014-09-07T08:58:24.000Z</time>
      </trkpt>
      <trkpt lat="47.3401" lon="-1.37654">
        <ele>139</ele>
        <time>2014-09-07T08:58:26.000Z</time>
      </trkpt>
      <trkpt lat="47.3401" lon="-1.37654">
        <ele>139</ele>
        <time>2014-09-07T08:58:28.000Z</time>
      </trkpt>
      <trkpt lat="47.3401" lon="-1.37654">
        <ele>139</ele>
        <time>2014-09-07T08:58:30.000Z</time>
      </trkpt>
      <trkpt lat="47.3401" lon="-1.37654">
        <ele>139</ele>
        <time>2014-09-07T08:58:32.000Z</time>
      </trkpt>
      <trkpt lat="47.3401" lon="-1.37654">
        <ele>139</ele>
        <time>2014-09-07T08:58:34.000Z</time>
      </trkpt>
      <trkpt lat="47.3401" lon="-1.37654">
        <ele>139</ele>
        <time>2014-09-07T08:58:36.000Z</time>
      </trkpt>
      <trkpt lat="47.3401" lon="-1.37654">
        <ele>139</ele>
        <time>2014-09-07T08:58:38.000Z</time>
      </trkpt>
      <trkpt lat="47.3401" lon="-1.37654">
        <ele>139</ele>
        <time>2014-09-07T08:58:40.000Z</time>
      </trkpt>
      <trkpt lat="47.3401" lon="-1.37654">
        <ele>139</ele>
        <time>2014-09-07T08:58:42.000Z</time>
      </trkpt>
      <trkpt lat="47.3401" lon="-1.37654">
        <ele>139</ele>
        <time>2014-09-07T08:58:44.000Z</time>
      </trkpt>
      <trkpt lat="47.3401" lon="-1.37654">
        <ele>139</ele>
        <time>2014-09-07T08:58:46.000Z</time>
      </trkpt>
      <trkpt lat="47.3401" lon="-1.37654">
        <ele>139</ele>
        <time>2014-09-07T08:58:48.000Z</time>
      </trkpt>
      <trkpt lat="47.34011" lon="-1.37655">
        <ele>139</ele>
        <time>2014-09-07T08:58:50.000Z</time>
      </trkpt>
      <trkpt lat="47.34012" lon="-1.37656">
        <ele>139</ele>
        <time>2014-09-07T08:58:52.000Z</time>
      </trkpt>
      <trkpt lat="47.34012" lon="-1.37654">
        <ele>139</ele>
        <time>2014-09-07T08:58:54.000Z</time>
      </trkpt>
      <trkpt lat="47.34012" lon="-1.37653">
        <ele>139</ele>
        <time>2014-09-07T08:58:56.000Z</time>
      </trkpt>
      <trkpt lat="47.34013" lon="-1.37649">
        <ele>138</ele>
        <time>2014-09-07T08:58:58.000Z</time>
      </trkpt>
      <trkpt lat="47.34015" lon="-1.37645">
        <ele>138</ele>
        <time>2014-09-07T08:59:01.000Z</time>
      </trkpt>
      <trkpt lat="47.34019" lon="-1.37638">
        <ele>138</ele>
        <time>2014-09-07T08:59:04.000Z</time>
      </trkpt>
      <trkpt lat="47.34023" lon="-1.37624">
        <ele>138</ele>
        <time>2014-09-07T08:59:08.000Z</time>
      </trkpt>
      <trkpt lat="47.34021" lon="-1.37618">
        <ele>138</ele>
        <time>2014-09-07T08:59:10.000Z</time>
      </trkpt>
      <trkpt lat="47.34021" lon="-1.3761">
        <ele>138</ele>
        <time>2014-09-07T08:59:12.000Z</time>
      </trkpt>
      <trkpt lat="47.34024" lon="-1.37603">
        <ele>137</ele>
        <time>2014-09-07T08:59:14.000Z</time>
      </trkpt>
      <trkpt lat="47.34026" lon="-1.3759">
        <ele>138</ele>
        <time>2014-09-07T08:59:18.000Z</time>
      </trkpt>
      <trkpt lat="47.34027" lon="-1.3758">
        <ele>138</ele>
        <time>2014-09-07T08:59:20.000Z</time>
      </trkpt>
      <trkpt lat="47.34032" lon="-1.37565">
        <ele>138</ele>
        <time>2014-09-07T08:59:22.000Z</time>
      </trkpt>
      <trkpt lat="47.34037" lon="-1.37543">
        <ele>138</ele>
        <time>2014-09-07T08:59:26.000Z</time>
      </trkpt>
      <trkpt lat="47.34038" lon="-1.37531">
        <ele>137</ele>
        <time>2014-09-07T08:59:28.000Z</time>
      </trkpt>
      <trkpt lat="47.34039" lon="-1.37519">
        <ele>138</ele>
        <time>2014-09-07T08:59:30.000Z</time>
      </trkpt>
      <trkpt lat="47.34041" lon="-1.37511">
        <ele>138</ele>
        <time>2014-09-07T08:59:32.000Z</time>
      </trkpt>
      <trkpt lat="47.34043" lon="-1.375">
        <ele>139</ele>
        <time>2014-09-07T08:59:34.000Z</time>
      </trkpt>
      <trkpt lat="47.34047" lon="-1.37481">
        <ele>139</ele>
        <time>2014-09-07T08:59:38.000Z</time>
      </trkpt>
      <trkpt lat="47.34051" lon="-1.37466">
        <ele>139</ele>
        <time>2014-09-07T08:59:40.000Z</time>
      </trkpt>
      <trkpt lat="47.34055" lon="-1.37453">
        <ele>140</ele>
        <time>2014-09-07T08:59:42.000Z</time>
      </trkpt>
      <trkpt lat="47.34058" lon="-1.37443">
        <ele>139</ele>
        <time>2014-09-07T08:59:44.000Z</time>
      </trkpt>
      <trkpt lat="47.34062" lon="-1.37435">
        <ele>140</ele>
        <time>2014-09-07T08:59:46.000Z</time>
      </trkpt>
      <trkpt lat="47.34066" lon="-1.37423">
        <ele>139</ele>
        <time>2014-09-07T08:59:50.000Z</time>
      </trkpt>
      <trkpt lat="47.34068" lon="-1.37412">
        <ele>139</ele>
        <time>2014-09-07T08:59:52.000Z</time>
      </trkpt>
      <trkpt lat="47.34068" lon="-1.37406">
        <ele>139</ele>
        <time>2014-09-07T08:59:54.000Z</time>
      </trkpt>
      <trkpt lat="47.34064" lon="-1.374">
        <ele>138</ele>
        <time>2014-09-07T08:59:56.000Z</time>
      </trkpt>
      <trkpt lat="47.34059" lon="-1.37393">
        <ele>138</ele>
        <time>2014-09-07T08:59:58.000Z</time>
      </trkpt>
      <trkpt lat="47.34053" lon="-1.37382">
        <ele>138</ele>
        <time>2014-09-07T09:00:02.000Z</time>
      </trkpt>
      <trkpt lat="47.34041" lon="-1.37364">
        <ele>138</ele>
        <time>2014-09-07T09:00:06.000Z</time>
      </trkpt>
      <trkpt lat="47.34034" lon="-1.37358">
        <ele>137</ele>
        <time>2014-09-07T09:00:08.000Z</time>
      </trkpt>
      <trkpt lat="47.34013" lon="-1.37329">
        <ele>137</ele>
        <time>2014-09-07T09:00:14.000Z</time>
      </trkpt>
      <trkpt lat="47.34008" lon="-1.3732">
        <ele>136</ele>
        <time>2014-09-07T09:00:16.000Z</time>
      </trkpt>
      <trkpt lat="47.34003" lon="-1.37311">
        <ele>135</ele>
        <time>2014-09-07T09:00:18.000Z</time>
      </trkpt>
      <trkpt lat="47.3399" lon="-1.37289">
        <ele>136</ele>
        <time>2014-09-07T09:00:22.000Z</time>
      </trkpt>
      <trkpt lat="47.33982" lon="-1.37277">
        <ele>136</ele>
        <time>2014-09-07T09:00:26.000Z</time>
      </trkpt>
      <trkpt lat="47.3398" lon="-1.37268">
        <ele>136</ele>
        <time>2014-09-07T09:00:28.000Z</time>
      </trkpt>
      <trkpt lat="47.33975" lon="-1.37262">
        <ele>136</ele>
        <time>2014-09-07T09:00:30.000Z</time>
      </trkpt>
      <trkpt lat="47.33968" lon="-1.37255">
        <ele>136</ele>
        <time>2014-09-07T09:00:32.000Z</time>
      </trkpt>
      <trkpt lat="47.33961" lon="-1.37244">
        <ele>136</ele>
        <time>2014-09-07T09:00:34.000Z</time>
      </trkpt>
      <trkpt lat="47.33958" lon="-1.37233">
        <ele>136</ele>
        <time>2014-09-07T09:00:36.000Z</time>
      </trkpt>
      <trkpt lat="47.3396" lon="-1.37224">
        <ele>135</ele>
        <time>2014-09-07T09:00:38.000Z</time>
      </trkpt>
      <trkpt lat="47.33976" lon="-1.37196">
        <ele>134</ele>
        <time>2014-09-07T09:00:44.000Z</time>
      </trkpt>
      <trkpt lat="47.33981" lon="-1.37186">
        <ele>135</ele>
        <time>2014-09-07T09:00:46.000Z</time>
      </trkpt>
      <trkpt lat="47.33987" lon="-1.37177">
        <ele>135</ele>
        <time>2014-09-07T09:00:48.000Z</time>
      </trkpt>
      <trkpt lat="47.33992" lon="-1.37168">
        <ele>136</ele>
        <time>2014-09-07T09:00:50.000Z</time>
      </trkpt>
      <trkpt lat="47.33998" lon="-1.3716">
        <ele>135</ele>
        <time>2014-09-07T09:00:52.000Z</time>
      </trkpt>
      <trkpt lat="47.34004" lon="-1.37151">
        <ele>136</ele>
        <time>2014-09-07T09:00:54.000Z</time>
      </trkpt>
      <trkpt lat="47.3401" lon="-1.37142">
        <ele>137</ele>
        <time>2014-09-07T09:00:56.000Z</time>
      </trkpt>
      <trkpt lat="47.34017" lon="-1.37133">
        <ele>136</ele>
        <time>2014-09-07T09:00:58.000Z</time>
      </trkpt>
      <trkpt lat="47.34035" lon="-1.37106">
        <ele>137</ele>
        <time>2014-09-07T09:01:04.000Z</time>
      </trkpt>
      <trkpt lat="47.34039" lon="-1.3709">
        <ele>136</ele>
        <time>2014-09-07T09:01:06.000Z</time>
      </trkpt>
      <trkpt lat="47.34038" lon="-1.37074">
        <ele>136</ele>
        <time>2014-09-07T09:01:08.000Z</time>
      </trkpt>
      <trkpt lat="47.34032" lon="-1.37061">
        <ele>135</ele>
        <time>2014-09-07T09:01:10.000Z</time>
      </trkpt>
      <trkpt lat="47.34024" lon="-1.37047">
        <ele>135</ele>
        <time>2014-09-07T09:01:12.000Z</time>
      </trkpt>
      <trkpt lat="47.34011" lon="-1.37018">
        <ele>134</ele>
        <time>2014-09-07T09:01:16.000Z</time>
      </trkpt>
      <trkpt lat="47.33981" lon="-1.36951">
        <ele>134</ele>
        <time>2014-09-07T09:01:24.000Z</time>
      </trkpt>
      <trkpt lat="47.33973" lon="-1.36932">
        <ele>133</ele>
        <time>2014-09-07T09:01:26.000Z</time>
      </trkpt>
      <trkpt lat="47.33948" lon="-1.36877">
        <ele>133</ele>
        <time>2014-09-07T09:01:32.000Z</time>
      </trkpt>
      <trkpt lat="47.33924" lon="-1.36819">
        <ele>132</ele>
        <time>2014-09-07T09:01:38.000Z</time>
      </trkpt>
      <trkpt lat="47.33917" lon="-1.36798">
        <ele>133</ele>
        <time>2014-09-07T09:01:40.000Z</time>
      </trkpt>
      <trkpt lat="47.33909" lon="-1.36778">
        <ele>133</ele>
        <time>2014-09-07T09:01:42.000Z</time>
      </trkpt>
      <trkpt lat="47.339" lon="-1.36765">
        <ele>133</ele>
        <time>2014-09-07T09:01:44.000Z</time>
      </trkpt>
      <trkpt lat="47.33889" lon="-1.36769">
        <ele>133</ele>
        <time>2014-09-07T09:01:46.000Z</time>
      </trkpt>
      <trkpt lat="47.33873" lon="-1.36791">
        <ele>133</ele>
        <time>2014-09-07T09:01:50.000Z</time>
      </trkpt>
      <trkpt lat="47.33838" lon="-1.36832">
        <ele>132</ele>
        <time>2014-09-07T09:01:58.000Z</time>
      </trkpt>
      <trkpt lat="47.33829" lon="-1.36841">
        <ele>132</ele>
        <time>2014-09-07T09:02:00.000Z</time>
      </trkpt>
      <trkpt lat="47.3381" lon="-1.3686">
        <ele>133</ele>
        <time>2014-09-07T09:02:04.000Z</time>
      </trkpt>
      <trkpt lat="47.33801" lon="-1.3687">
        <ele>132</ele>
        <time>2014-09-07T09:02:06.000Z</time>
      </trkpt>
      <trkpt lat="47.33786" lon="-1.36892">
        <ele>132</ele>
        <time>2014-09-07T09:02:10.000Z</time>
      </trkpt>
      <trkpt lat="47.3378" lon="-1.36903">
        <ele>131</ele>
        <time>2014-09-07T09:02:12.000Z</time>
      </trkpt>
      <trkpt lat="47.3377" lon="-1.36925">
        <ele>131</ele>
        <time>2014-09-07T09:02:16.000Z</time>
      </trkpt>
      <trkpt lat="47.33761" lon="-1.36927">
        <ele>130</ele>
        <time>2014-09-07T09:02:18.000Z</time>
      </trkpt>
      <trkpt lat="47.33754" lon="-1.36923">
        <ele>130</ele>
        <time>2014-09-07T09:02:20.000Z</time>
      </trkpt>
      <trkpt lat="47.33747" lon="-1.36912">
        <ele>130</ele>
        <time>2014-09-07T09:02:22.000Z</time>
      </trkpt>
      <trkpt lat="47.33741" lon="-1.369">
        <ele>131</ele>
        <time>2014-09-07T09:02:24.000Z</time>
      </trkpt>
      <trkpt lat="47.33726" lon="-1.36871">
        <ele>131</ele>
        <time>2014-09-07T09:02:28.000Z</time>
      </trkpt>
      <trkpt lat="47.33713" lon="-1.3684">
        <ele>131</ele>
        <time>2014-09-07T09:02:32.000Z</time>
      </trkpt>
      <trkpt lat="47.33704" lon="-1.36828">
        <ele>132</ele>
        <time>2014-09-07T09:02:34.000Z</time>
      </trkpt>
      <trkpt lat="47.33697" lon="-1.36821">
        <ele>132</ele>
        <time>2014-09-07T09:02:36.000Z</time>
      </trkpt>
      <trkpt lat="47.33693" lon="-1.36821">
        <ele>131</ele>
        <time>2014-09-07T09:02:38.000Z</time>
      </trkpt>
      <trkpt lat="47.33688" lon="-1.36816">
        <ele>131</ele>
        <time>2014-09-07T09:02:44.000Z</time>
      </trkpt>
      <trkpt lat="47.3369" lon="-1.36818">
        <ele>131</ele>
        <time>2014-09-07T09:02:46.000Z</time>
      </trkpt>
      <trkpt lat="47.33693" lon="-1.36821">
        <ele>132</ele>
        <time>2014-09-07T09:02:50.000Z</time>
      </trkpt>
      <trkpt lat="47.33693" lon="-1.36823">
        <ele>132</ele>
        <time>2014-09-07T09:02:52.000Z</time>
      </trkpt>
      <trkpt lat="47.33692" lon="-1.36825">
        <ele>132</ele>
        <time>2014-09-07T09:02:54.000Z</time>
      </trkpt>
      <trkpt lat="47.33688" lon="-1.36826">
        <ele>132</ele>
        <time>2014-09-07T09:02:56.000Z</time>
      </trkpt>
      <trkpt lat="47.33685" lon="-1.3683">
        <ele>132</ele>
        <time>2014-09-07T09:02:58.000Z</time>
      </trkpt>
      <trkpt lat="47.33681" lon="-1.36833">
        <ele>132</ele>
        <time>2014-09-07T09:03:00.000Z</time>
      </trkpt>
      <trkpt lat="47.33677" lon="-1.36835">
        <ele>132</ele>
        <time>2014-09-07T09:03:02.000Z</time>
      </trkpt>
      <trkpt lat="47.33673" lon="-1.36838">
        <ele>132</ele>
        <time>2014-09-07T09:03:04.000Z</time>
      </trkpt>
      <trkpt lat="47.33669" lon="-1.36841">
        <ele>132</ele>
        <time>2014-09-07T09:03:06.000Z</time>
      </trkpt>
      <trkpt lat="47.33669" lon="-1.36844">
        <ele>132</ele>
        <time>2014-09-07T09:03:08.000Z</time>
      </trkpt>
      <trkpt lat="47.33667" lon="-1.36843">
        <ele>132</ele>
        <time>2014-09-07T09:03:10.000Z</time>
      </trkpt>
      <trkpt lat="47.33664" lon="-1.36846">
        <ele>131</ele>
        <time>2014-09-07T09:03:12.000Z</time>
      </trkpt>
      <trkpt lat="47.33662" lon="-1.36848">
        <ele>130</ele>
        <time>2014-09-07T09:03:14.000Z</time>
      </trkpt>
      <trkpt lat="47.33655" lon="-1.36849">
        <ele>131</ele>
        <time>2014-09-07T09:03:18.000Z</time>
      </trkpt>
      <trkpt lat="47.3365" lon="-1.36851">
        <ele>131</ele>
        <time>2014-09-07T09:03:20.000Z</time>
      </trkpt>
      <trkpt lat="47.33648" lon="-1.36852">
        <ele>130</ele>
        <time>2014-09-07T09:03:22.000Z</time>
      </trkpt>
      <trkpt lat="47.33645" lon="-1.36853">
        <ele>130</ele>
        <time>2014-09-07T09:03:24.000Z</time>
      </trkpt>
      <trkpt lat="47.33641" lon="-1.36855">
        <ele>129</ele>
        <time>2014-09-07T09:03:26.000Z</time>
      </trkpt>
      <trkpt lat="47.33638" lon="-1.36856">
        <ele>129</ele>
        <time>2014-09-07T09:03:28.000Z</time>
      </trkpt>
      <trkpt lat="47.33637" lon="-1.36857">
        <ele>128</ele>
        <time>2014-09-07T09:03:30.000Z</time>
      </trkpt>
      <trkpt lat="47.33636" lon="-1.36859">
        <ele>128</ele>
        <time>2014-09-07T09:03:34.000Z</time>
      </trkpt>
      <trkpt lat="47.33635" lon="-1.36858">
        <ele>129</ele>
        <time>2014-09-07T09:03:36.000Z</time>
      </trkpt>
      <trkpt lat="47.33635" lon="-1.36858">
        <ele>129</ele>
        <time>2014-09-07T09:03:38.000Z</time>
      </trkpt>
      <trkpt lat="47.33636" lon="-1.36858">
        <ele>129</ele>
        <time>2014-09-07T09:03:40.000Z</time>
      </trkpt>
      <trkpt lat="47.33637" lon="-1.36859">
        <ele>129</ele>
        <time>2014-09-07T09:03:42.000Z</time>
      </trkpt>
      <trkpt lat="47.33636" lon="-1.36862">
        <ele>129</ele>
        <time>2014-09-07T09:03:44.000Z</time>
      </trkpt>
      <trkpt lat="47.33632" lon="-1.36863">
        <ele>130</ele>
        <time>2014-09-07T09:03:46.000Z</time>
      </trkpt>
      <trkpt lat="47.33623" lon="-1.36873">
        <ele>130</ele>
        <time>2014-09-07T09:03:52.000Z</time>
      </trkpt>
      <trkpt lat="47.3362" lon="-1.36875">
        <ele>130</ele>
        <time>2014-09-07T09:03:54.000Z</time>
      </trkpt>
      <trkpt lat="47.33601" lon="-1.36888">
        <ele>130</ele>
        <time>2014-09-07T09:04:06.000Z</time>
      </trkpt>
      <trkpt lat="47.33597" lon="-1.36889">
        <ele>128</ele>
        <time>2014-09-07T09:04:08.000Z</time>
      </trkpt>
      <trkpt lat="47.33594" lon="-1.36892">
        <ele>128</ele>
        <time>2014-09-07T09:04:10.000Z</time>
      </trkpt>
      <trkpt lat="47.33592" lon="-1.36895">
        <ele>127</ele>
        <time>2014-09-07T09:04:12.000Z</time>
      </trkpt>
      <trkpt lat="47.3359" lon="-1.369">
        <ele>126</ele>
        <time>2014-09-07T09:04:14.000Z</time>
      </trkpt>
      <trkpt lat="47.33586" lon="-1.36904">
        <ele>125</ele>
        <time>2014-09-07T09:04:16.000Z</time>
      </trkpt>
      <trkpt lat="47.33583" lon="-1.36908">
        <ele>125</ele>
        <time>2014-09-07T09:04:18.000Z</time>
      </trkpt>
      <trkpt lat="47.3358" lon="-1.36912">
        <ele>124</ele>
        <time>2014-09-07T09:04:20.000Z</time>
      </trkpt>
      <trkpt lat="47.33577" lon="-1.36916">
        <ele>124</ele>
        <time>2014-09-07T09:04:22.000Z</time>
      </trkpt>
      <trkpt lat="47.33571" lon="-1.36918">
        <ele>124</ele>
        <time>2014-09-07T09:04:26.000Z</time>
      </trkpt>
      <trkpt lat="47.33564" lon="-1.36921">
        <ele>124</ele>
        <time>2014-09-07T09:04:30.000Z</time>
      </trkpt>
      <trkpt lat="47.33552" lon="-1.36926">
        <ele>125</ele>
        <time>2014-09-07T09:04:34.000Z</time>
      </trkpt>
      <trkpt lat="47.33546" lon="-1.36929">
        <ele>124</ele>
        <time>2014-09-07T09:04:36.000Z</time>
      </trkpt>
      <trkpt lat="47.33542" lon="-1.3693">
        <ele>123</ele>
        <time>2014-09-07T09:04:38.000Z</time>
      </trkpt>
      <trkpt lat="47.3354" lon="-1.36934">
        <ele>123</ele>
        <time>2014-09-07T09:04:40.000Z</time>
      </trkpt>
      <trkpt lat="47.3354" lon="-1.36938">
        <ele>124</ele>
        <time>2014-09-07T09:04:42.000Z</time>
      </trkpt>
      <trkpt lat="47.33537" lon="-1.3694">
        <ele>125</ele>
        <time>2014-09-07T09:04:44.000Z</time>
      </trkpt>
      <trkpt lat="47.33538" lon="-1.36942">
        <ele>125</ele>
        <time>2014-09-07T09:04:46.000Z</time>
      </trkpt>
      <trkpt lat="47.33537" lon="-1.36944">
        <ele>125</ele>
        <time>2014-09-07T09:04:48.000Z</time>
      </trkpt>
      <trkpt lat="47.33533" lon="-1.36946">
        <ele>126</ele>
        <time>2014-09-07T09:04:50.000Z</time>
      </trkpt>
      <trkpt lat="47.33529" lon="-1.36948">
        <ele>126</ele>
        <time>2014-09-07T09:04:52.000Z</time>
      </trkpt>
      <trkpt lat="47.33528" lon="-1.36948">
        <ele>126</ele>
        <time>2014-09-07T09:04:56.000Z</time>
      </trkpt>
      <trkpt lat="47.33526" lon="-1.3695">
        <ele>126</ele>
        <time>2014-09-07T09:04:58.000Z</time>
      </trkpt>
      <trkpt lat="47.33525" lon="-1.3695">
        <ele>126</ele>
        <time>2014-09-07T09:05:00.000Z</time>
      </trkpt>
      <trkpt lat="47.33525" lon="-1.3695">
        <ele>126</ele>
        <time>2014-09-07T09:05:02.000Z</time>
      </trkpt>
      <trkpt lat="47.33524" lon="-1.3695">
        <ele>126</ele>
        <time>2014-09-07T09:05:04.000Z</time>
      </trkpt>
      <trkpt lat="47.33522" lon="-1.3695">
        <ele>126</ele>
        <time>2014-09-07T09:05:06.000Z</time>
      </trkpt>
      <trkpt lat="47.33521" lon="-1.36951">
        <ele>126</ele>
        <time>2014-09-07T09:05:08.000Z</time>
      </trkpt>
      <trkpt lat="47.33519" lon="-1.36952">
        <ele>125</ele>
        <time>2014-09-07T09:05:10.000Z</time>
      </trkpt>
      <trkpt lat="47.33514" lon="-1.36954">
        <ele>125</ele>
        <time>2014-09-07T09:05:14.000Z</time>
      </trkpt>
      <trkpt lat="47.33515" lon="-1.36954">
        <ele>125</ele>
        <time>2014-09-07T09:05:16.000Z</time>
      </trkpt>
      <trkpt lat="47.33515" lon="-1.36955">
        <ele>125</ele>
        <time>2014-09-07T09:05:18.000Z</time>
      </trkpt>
      <trkpt lat="47.33511" lon="-1.36957">
        <ele>125</ele>
        <time>2014-09-07T09:05:20.000Z</time>
      </trkpt>
      <trkpt lat="47.33506" lon="-1.36962">
        <ele>125</ele>
        <time>2014-09-07T09:05:22.000Z</time>
      </trkpt>
      <trkpt lat="47.33504" lon="-1.36965">
        <ele>124</ele>
        <time>2014-09-07T09:05:24.000Z</time>
      </trkpt>
      <trkpt lat="47.335" lon="-1.36967">
        <ele>124</ele>
        <time>2014-09-07T09:05:26.000Z</time>
      </trkpt>
      <trkpt lat="47.33485" lon="-1.36976">
        <ele>123</ele>
        <time>2014-09-07T09:05:32.000Z</time>
      </trkpt>
      <trkpt lat="47.3348" lon="-1.3698">
        <ele>123</ele>
        <time>2014-09-07T09:05:36.000Z</time>
      </trkpt>
      <trkpt lat="47.33478" lon="-1.36983">
        <ele>123</ele>
        <time>2014-09-07T09:05:38.000Z</time>
      </trkpt>
      <trkpt lat="47.33475" lon="-1.36986">
        <ele>124</ele>
        <time>2014-09-07T09:05:40.000Z</time>
      </trkpt>
      <trkpt lat="47.33472" lon="-1.36988">
        <ele>125</ele>
        <time>2014-09-07T09:05:42.000Z</time>
      </trkpt>
      <trkpt lat="47.33466" lon="-1.36986">
        <ele>126</ele>
        <time>2014-09-07T09:05:44.000Z</time>
      </trkpt>
      <trkpt lat="47.33451" lon="-1.36991">
        <ele>126</ele>
        <time>2014-09-07T09:05:48.000Z</time>
      </trkpt>
      <trkpt lat="47.33427" lon="-1.36999">
        <ele>128</ele>
        <time>2014-09-07T09:05:54.000Z</time>
      </trkpt>
      <trkpt lat="47.33419" lon="-1.37001">
        <ele>129</ele>
        <time>2014-09-07T09:05:58.000Z</time>
      </trkpt>
      <trkpt lat="47.33416" lon="-1.37">
        <ele>129</ele>
        <time>2014-09-07T09:06:00.000Z</time>
      </trkpt>
      <trkpt lat="47.33417" lon="-1.37004">
        <ele>129</ele>
        <time>2014-09-07T09:06:02.000Z</time>
      </trkpt>
      <trkpt lat="47.33417" lon="-1.37006">
        <ele>129</ele>
        <time>2014-09-07T09:06:04.000Z</time>
      </trkpt>
      <trkpt lat="47.33416" lon="-1.37007">
        <ele>130</ele>
        <time>2014-09-07T09:06:06.000Z</time>
      </trkpt>
      <trkpt lat="47.33416" lon="-1.37009">
        <ele>130</ele>
        <time>2014-09-07T09:06:08.000Z</time>
      </trkpt>
      <trkpt lat="47.33414" lon="-1.37013">
        <ele>131</ele>
        <time>2014-09-07T09:06:10.000Z</time>
      </trkpt>
      <trkpt lat="47.33412" lon="-1.37019">
        <ele>131</ele>
        <time>2014-09-07T09:06:12.000Z</time>
      </trkpt>
      <trkpt lat="47.33406" lon="-1.37025">
        <ele>131</ele>
        <time>2014-09-07T09:06:14.000Z</time>
      </trkpt>
      <trkpt lat="47.33401" lon="-1.37032">
        <ele>130</ele>
        <time>2014-09-07T09:06:16.000Z</time>
      </trkpt>
      <trkpt lat="47.33395" lon="-1.37035">
        <ele>130</ele>
        <time>2014-09-07T09:06:18.000Z</time>
      </trkpt>
      <trkpt lat="47.33383" lon="-1.3704">
        <ele>130</ele>
        <time>2014-09-07T09:06:20.000Z</time>
      </trkpt>
      <trkpt lat="47.33372" lon="-1.37045">
        <ele>130</ele>
        <time>2014-09-07T09:06:22.000Z</time>
      </trkpt>
      <trkpt lat="47.33364" lon="-1.37052">
        <ele>131</ele>
        <time>2014-09-07T09:06:24.000Z</time>
      </trkpt>
      <trkpt lat="47.33357" lon="-1.37062">
        <ele>131</ele>
        <time>2014-09-07T09:06:26.000Z</time>
      </trkpt>
      <trkpt lat="47.33352" lon="-1.37073">
        <ele>132</ele>
        <time>2014-09-07T09:06:28.000Z</time>
      </trkpt>
      <trkpt lat="47.33352" lon="-1.3709">
        <ele>132</ele>
        <time>2014-09-07T09:06:30.000Z</time>
      </trkpt>
      <trkpt lat="47.33352" lon="-1.37122">
        <ele>133</ele>
        <time>2014-09-07T09:06:34.000Z</time>
      </trkpt>
      <trkpt lat="47.3335" lon="-1.37139">
        <ele>134</ele>
        <time>2014-09-07T09:06:38.000Z</time>
      </trkpt>
      <trkpt lat="47.33343" lon="-1.3715">
        <ele>133</ele>
        <time>2014-09-07T09:06:40.000Z</time>
      </trkpt>
      <trkpt lat="47.33335" lon="-1.3716">
        <ele>134</ele>
        <time>2014-09-07T09:06:42.000Z</time>
      </trkpt>
      <trkpt lat="47.33326" lon="-1.37168">
        <ele>133</ele>
        <time>2014-09-07T09:06:44.000Z</time>
      </trkpt>
      <trkpt lat="47.33318" lon="-1.37172">
        <ele>134</ele>
        <time>2014-09-07T09:06:46.000Z</time>
      </trkpt>
      <trkpt lat="47.33309" lon="-1.37175">
        <ele>134</ele>
        <time>2014-09-07T09:06:48.000Z</time>
      </trkpt>
      <trkpt lat="47.33303" lon="-1.37179">
        <ele>134</ele>
        <time>2014-09-07T09:06:50.000Z</time>
      </trkpt>
      <trkpt lat="47.333" lon="-1.37186">
        <ele>133</ele>
        <time>2014-09-07T09:06:52.000Z</time>
      </trkpt>
      <trkpt lat="47.33295" lon="-1.37189">
        <ele>133</ele>
        <time>2014-09-07T09:06:54.000Z</time>
      </trkpt>
      <trkpt lat="47.33289" lon="-1.37192">
        <ele>133</ele>
        <time>2014-09-07T09:06:56.000Z</time>
      </trkpt>
      <trkpt lat="47.33283" lon="-1.37196">
        <ele>133</ele>
        <time>2014-09-07T09:06:58.000Z</time>
      </trkpt>
      <trkpt lat="47.33274" lon="-1.37203">
        <ele>133</ele>
        <time>2014-09-07T09:07:02.000Z</time>
      </trkpt>
      <trkpt lat="47.33268" lon="-1.37207">
        <ele>132</ele>
        <time>2014-09-07T09:07:04.000Z</time>
      </trkpt>
      <trkpt lat="47.33262" lon="-1.37211">
        <ele>131</ele>
        <time>2014-09-07T09:07:06.000Z</time>
      </trkpt>
      <trkpt lat="47.33253" lon="-1.37212">
        <ele>130</ele>
        <time>2014-09-07T09:07:08.000Z</time>
      </trkpt>
      <trkpt lat="47.33247" lon="-1.37213">
        <ele>129</ele>
        <time>2014-09-07T09:07:10.000Z</time>
      </trkpt>
      <trkpt lat="47.33236" lon="-1.37217">
        <ele>129</ele>
        <time>2014-09-07T09:07:14.000Z</time>
      </trkpt>
      <trkpt lat="47.33233" lon="-1.37219">
        <ele>128</ele>
        <time>2014-09-07T09:07:16.000Z</time>
      </trkpt>
      <trkpt lat="47.33221" lon="-1.37223">
        <ele>129</ele>
        <time>2014-09-07T09:07:20.000Z</time>
      </trkpt>
      <trkpt lat="47.33218" lon="-1.37224">
        <ele>128</ele>
        <time>2014-09-07T09:07:22.000Z</time>
      </trkpt>
      <trkpt lat="47.33193" lon="-1.37231">
        <ele>127</ele>
        <time>2014-09-07T09:07:32.000Z</time>
      </trkpt>
      <trkpt lat="47.33189" lon="-1.37232">
        <ele>127</ele>
        <time>2014-09-07T09:07:34.000Z</time>
      </trkpt>
      <trkpt lat="47.33182" lon="-1.37233">
        <ele>128</ele>
        <time>2014-09-07T09:07:38.000Z</time>
      </trkpt>
      <trkpt lat="47.33172" lon="-1.37234">
        <ele>128</ele>
        <time>2014-09-07T09:07:44.000Z</time>
      </trkpt>
      <trkpt lat="47.33168" lon="-1.37233">
        <ele>129</ele>
        <time>2014-09-07T09:07:46.000Z</time>
      </trkpt>
      <trkpt lat="47.33142" lon="-1.37226">
        <ele>130</ele>
        <time>2014-09-07T09:08:02.000Z</time>
      </trkpt>
      <trkpt lat="47.33132" lon="-1.37223">
        <ele>129</ele>
        <time>2014-09-07T09:08:08.000Z</time>
      </trkpt>
      <trkpt lat="47.33128" lon="-1.37221">
        <ele>130</ele>
        <time>2014-09-07T09:08:10.000Z</time>
      </trkpt>
      <trkpt lat="47.33123" lon="-1.37217">
        <ele>130</ele>
        <time>2014-09-07T09:08:12.000Z</time>
      </trkpt>
      <trkpt lat="47.33118" lon="-1.37216">
        <ele>130</ele>
        <time>2014-09-07T09:08:14.000Z</time>
      </trkpt>
      <trkpt lat="47.33107" lon="-1.37211">
        <ele>131</ele>
        <time>2014-09-07T09:08:18.000Z</time>
      </trkpt>
      <trkpt lat="47.33092" lon="-1.37208">
        <ele>131</ele>
        <time>2014-09-07T09:08:26.000Z</time>
      </trkpt>
      <trkpt lat="47.33089" lon="-1.37206">
        <ele>131</ele>
        <time>2014-09-07T09:08:28.000Z</time>
      </trkpt>
      <trkpt lat="47.33085" lon="-1.37203">
        <ele>131</ele>
        <time>2014-09-07T09:08:30.000Z</time>
      </trkpt>
      <trkpt lat="47.3308" lon="-1.372">
        <ele>132</ele>
        <time>2014-09-07T09:08:32.000Z</time>
      </trkpt>
      <trkpt lat="47.33075" lon="-1.37196">
        <ele>131</ele>
        <time>2014-09-07T09:08:34.000Z</time>
      </trkpt>
      <trkpt lat="47.33075" lon="-1.37194">
        <ele>130</ele>
        <time>2014-09-07T09:08:36.000Z</time>
      </trkpt>
      <trkpt lat="47.33076" lon="-1.37191">
        <ele>130</ele>
        <time>2014-09-07T09:08:38.000Z</time>
      </trkpt>
      <trkpt lat="47.33078" lon="-1.37188">
        <ele>130</ele>
        <time>2014-09-07T09:08:40.000Z</time>
      </trkpt>
      <trkpt lat="47.3308" lon="-1.37186">
        <ele>130</ele>
        <time>2014-09-07T09:08:42.000Z</time>
      </trkpt>
      <trkpt lat="47.33084" lon="-1.37176">
        <ele>130</ele>
        <time>2014-09-07T09:08:46.000Z</time>
      </trkpt>
      <trkpt lat="47.33087" lon="-1.37163">
        <ele>130</ele>
        <time>2014-09-07T09:08:50.000Z</time>
      </trkpt>
      <trkpt lat="47.33089" lon="-1.37152">
        <ele>129</ele>
        <time>2014-09-07T09:08:52.000Z</time>
      </trkpt>
      <trkpt lat="47.33096" lon="-1.37136">
        <ele>129</ele>
        <time>2014-09-07T09:08:56.000Z</time>
      </trkpt>
      <trkpt lat="47.331" lon="-1.3713">
        <ele>129</ele>
        <time>2014-09-07T09:08:58.000Z</time>
      </trkpt>
      <trkpt lat="47.33104" lon="-1.37124">
        <ele>129</ele>
        <time>2014-09-07T09:09:00.000Z</time>
      </trkpt>
      <trkpt lat="47.33109" lon="-1.37105">
        <ele>128</ele>
        <time>2014-09-07T09:09:04.000Z</time>
      </trkpt>
      <trkpt lat="47.33113" lon="-1.37099">
        <ele>129</ele>
        <time>2014-09-07T09:09:06.000Z</time>
      </trkpt>
      <trkpt lat="47.3312" lon="-1.37089">
        <ele>130</ele>
        <time>2014-09-07T09:09:08.000Z</time>
      </trkpt>
      <trkpt lat="47.33123" lon="-1.37079">
        <ele>130</ele>
        <time>2014-09-07T09:09:10.000Z</time>
      </trkpt>
      <trkpt lat="47.33128" lon="-1.3707">
        <ele>129</ele>
        <time>2014-09-07T09:09:14.000Z</time>
      </trkpt>
      <trkpt lat="47.3313" lon="-1.37064">
        <ele>128</ele>
        <time>2014-09-07T09:09:16.000Z</time>
      </trkpt>
      <trkpt lat="47.3313" lon="-1.37059">
        <ele>128</ele>
        <time>2014-09-07T09:09:18.000Z</time>
      </trkpt>
      <trkpt lat="47.33134" lon="-1.37037">
        <ele>128</ele>
        <time>2014-09-07T09:09:22.000Z</time>
      </trkpt>
      <trkpt lat="47.33139" lon="-1.37024">
        <ele>128</ele>
        <time>2014-09-07T09:09:24.000Z</time>
      </trkpt>
      <trkpt lat="47.33149" lon="-1.37005">
        <ele>127</ele>
        <time>2014-09-07T09:09:28.000Z</time>
      </trkpt>
      <trkpt lat="47.33158" lon="-1.3699">
        <ele>127</ele>
        <time>2014-09-07T09:09:32.000Z</time>
      </trkpt>
      <trkpt lat="47.33164" lon="-1.36986">
        <ele>126</ele>
        <time>2014-09-07T09:09:34.000Z</time>
      </trkpt>
      <trkpt lat="47.33176" lon="-1.36977">
        <ele>125</ele>
        <time>2014-09-07T09:09:38.000Z</time>
      </trkpt>
      <trkpt lat="47.33187" lon="-1.36973">
        <ele>125</ele>
        <time>2014-09-07T09:09:40.000Z</time>
      </trkpt>
      <trkpt lat="47.33195" lon="-1.36964">
        <ele>125</ele>
        <time>2014-09-07T09:09:42.000Z</time>
      </trkpt>
      <trkpt lat="47.33197" lon="-1.36956">
        <ele>126</ele>
        <time>2014-09-07T09:09:44.000Z</time>
      </trkpt>
      <trkpt lat="47.33197" lon="-1.36949">
        <ele>126</ele>
        <time>2014-09-07T09:09:46.000Z</time>
      </trkpt>
      <trkpt lat="47.33197" lon="-1.36947">
        <ele>127</ele>
        <time>2014-09-07T09:09:48.000Z</time>
      </trkpt>
      <trkpt lat="47.332" lon="-1.36945">
        <ele>127</ele>
        <time>2014-09-07T09:09:50.000Z</time>
      </trkpt>
      <trkpt lat="47.33201" lon="-1.36943">
        <ele>128</ele>
        <time>2014-09-07T09:09:52.000Z</time>
      </trkpt>
      <trkpt lat="47.33203" lon="-1.3694">
        <ele>129</ele>
        <time>2014-09-07T09:09:54.000Z</time>
      </trkpt>
      <trkpt lat="47.33204" lon="-1.36937">
        <ele>130</ele>
        <time>2014-09-07T09:09:56.000Z</time>
      </trkpt>
      <trkpt lat="47.33205" lon="-1.36938">
        <ele>130</ele>
        <time>2014-09-07T09:09:58.000Z</time>
      </trkpt>
      <trkpt lat="47.33207" lon="-1.36938">
        <ele>131</ele>
        <time>2014-09-07T09:10:00.000Z</time>
      </trkpt>
      <trkpt lat="47.3321" lon="-1.36937">
        <ele>131</ele>
        <time>2014-09-07T09:10:02.000Z</time>
      </trkpt>
      <trkpt lat="47.33214" lon="-1.36938">
        <ele>131</ele>
        <time>2014-09-07T09:10:04.000Z</time>
      </trkpt>
      <trkpt lat="47.33218" lon="-1.3694">
        <ele>132</ele>
        <time>2014-09-07T09:10:06.000Z</time>
      </trkpt>
      <trkpt lat="47.33222" lon="-1.36942">
        <ele>132</ele>
        <time>2014-09-07T09:10:08.000Z</time>
      </trkpt>
      <trkpt lat="47.33225" lon="-1.36941">
        <ele>132</ele>
        <time>2014-09-07T09:10:10.000Z</time>
      </trkpt>
      <trkpt lat="47.33224" lon="-1.36934">
        <ele>134</ele>
        <time>2014-09-07T09:10:12.000Z</time>
      </trkpt>
      <trkpt lat="47.33222" lon="-1.36923">
        <ele>135</ele>
        <time>2014-09-07T09:10:14.000Z</time>
      </trkpt>
      <trkpt lat="47.33217" lon="-1.36915">
        <ele>136</ele>
        <time>2014-09-07T09:10:16.000Z</time>
      </trkpt>
      <trkpt lat="47.33213" lon="-1.36905">
        <ele>136</ele>
        <time>2014-09-07T09:10:18.000Z</time>
      </trkpt>
      <trkpt lat="47.33207" lon="-1.36898">
        <ele>136</ele>
        <time>2014-09-07T09:10:20.000Z</time>
      </trkpt>
      <trkpt lat="47.332" lon="-1.36892">
        <ele>136</ele>
        <time>2014-09-07T09:10:22.000Z</time>
      </trkpt>
      <trkpt lat="47.33191" lon="-1.36887">
        <ele>136</ele>
        <time>2014-09-07T09:10:24.000Z</time>
      </trkpt>
      <trkpt lat="47.33178" lon="-1.36884">
        <ele>136</ele>
        <time>2014-09-07T09:10:26.000Z</time>
      </trkpt>
      <trkpt lat="47.3317" lon="-1.36879">
        <ele>136</ele>
        <time>2014-09-07T09:10:28.000Z</time>
      </trkpt>
      <trkpt lat="47.33164" lon="-1.36869">
        <ele>137</ele>
        <time>2014-09-07T09:10:30.000Z</time>
      </trkpt>
      <trkpt lat="47.33157" lon="-1.36858">
        <ele>138</ele>
        <time>2014-09-07T09:10:32.000Z</time>
      </trkpt>
      <trkpt lat="47.33151" lon="-1.3685">
        <ele>139</ele>
        <time>2014-09-07T09:10:34.000Z</time>
      </trkpt>
      <trkpt lat="47.33147" lon="-1.36845">
        <ele>141</ele>
        <time>2014-09-07T09:10:36.000Z</time>
      </trkpt>
      <trkpt lat="47.3314" lon="-1.36836">
        <ele>143</ele>
        <time>2014-09-07T09:10:38.000Z</time>
      </trkpt>
      <trkpt lat="47.33135" lon="-1.3683">
        <ele>145</ele>
        <time>2014-09-07T09:10:40.000Z</time>
      </trkpt>
      <trkpt lat="47.33129" lon="-1.36825">
        <ele>146</ele>
        <time>2014-09-07T09:10:42.000Z</time>
      </trkpt>
      <trkpt lat="47.33118" lon="-1.36817">
        <ele>147</ele>
        <time>2014-09-07T09:10:44.000Z</time>
      </trkpt>
      <trkpt lat="47.33112" lon="-1.36809">
        <ele>148</ele>
        <time>2014-09-07T09:10:46.000Z</time>
      </trkpt>
      <trkpt lat="47.33105" lon="-1.36801">
        <ele>149</ele>
        <time>2014-09-07T09:10:48.000Z</time>
      </trkpt>
      <trkpt lat="47.33097" lon="-1.36793">
        <ele>150</ele>
        <time>2014-09-07T09:10:50.000Z</time>
      </trkpt>
      <trkpt lat="47.33072" lon="-1.36768">
        <ele>151</ele>
        <time>2014-09-07T09:10:54.000Z</time>
      </trkpt>
      <trkpt lat="47.33059" lon="-1.36754">
        <ele>151</ele>
        <time>2014-09-07T09:10:56.000Z</time>
      </trkpt>
      <trkpt lat="47.33012" lon="-1.36696">
        <ele>152</ele>
        <time>2014-09-07T09:11:02.000Z</time>
      </trkpt>
      <trkpt lat="47.3298" lon="-1.36641">
        <ele>152</ele>
        <time>2014-09-07T09:11:06.000Z</time>
      </trkpt>
      <trkpt lat="47.32972" lon="-1.36621">
        <ele>151</ele>
        <time>2014-09-07T09:11:08.000Z</time>
      </trkpt>
      <trkpt lat="47.32964" lon="-1.36606">
        <ele>151</ele>
        <time>2014-09-07T09:11:10.000Z</time>
      </trkpt>
      <trkpt lat="47.32952" lon="-1.36594">
        <ele>152</ele>
        <time>2014-09-07T09:11:12.000Z</time>
      </trkpt>
      <trkpt lat="47.32943" lon="-1.36581">
        <ele>154</ele>
        <time>2014-09-07T09:11:14.000Z</time>
      </trkpt>
      <trkpt lat="47.32936" lon="-1.36567">
        <ele>155</ele>
        <time>2014-09-07T09:11:16.000Z</time>
      </trkpt>
      <trkpt lat="47.32932" lon="-1.36557">
        <ele>156</ele>
        <time>2014-09-07T09:11:18.000Z</time>
      </trkpt>
      <trkpt lat="47.32926" lon="-1.36551">
        <ele>157</ele>
        <time>2014-09-07T09:11:20.000Z</time>
      </trkpt>
      <trkpt lat="47.32919" lon="-1.36541">
        <ele>159</ele>
        <time>2014-09-07T09:11:22.000Z</time>
      </trkpt>
      <trkpt lat="47.32909" lon="-1.3653">
        <ele>160</ele>
        <time>2014-09-07T09:11:24.000Z</time>
      </trkpt>
      <trkpt lat="47.32899" lon="-1.36517">
        <ele>161</ele>
        <time>2014-09-07T09:11:26.000Z</time>
      </trkpt>
      <trkpt lat="47.32892" lon="-1.36506">
        <ele>161</ele>
        <time>2014-09-07T09:11:28.000Z</time>
      </trkpt>
      <trkpt lat="47.32883" lon="-1.3649">
        <ele>162</ele>
        <time>2014-09-07T09:11:30.000Z</time>
      </trkpt>
      <trkpt lat="47.32874" lon="-1.36477">
        <ele>162</ele>
        <time>2014-09-07T09:11:32.000Z</time>
      </trkpt>
      <trkpt lat="47.32849" lon="-1.36447">
        <ele>163</ele>
        <time>2014-09-07T09:11:36.000Z</time>
      </trkpt>
      <trkpt lat="47.3284" lon="-1.3643">
        <ele>163</ele>
        <time>2014-09-07T09:11:38.000Z</time>
      </trkpt>
      <trkpt lat="47.32832" lon="-1.36408">
        <ele>163</ele>
        <time>2014-09-07T09:11:40.000Z</time>
      </trkpt>
      <trkpt lat="47.32791" lon="-1.36314">
        <ele>158</ele>
        <time>2014-09-07T09:11:48.000Z</time>
      </trkpt>
      <trkpt lat="47.32787" lon="-1.36296">
        <ele>157</ele>
        <time>2014-09-07T09:11:50.000Z</time>
      </trkpt>
      <trkpt lat="47.32781" lon="-1.36285">
        <ele>156</ele>
        <time>2014-09-07T09:11:52.000Z</time>
      </trkpt>
      <trkpt lat="47.32777" lon="-1.36272">
        <ele>154</ele>
        <time>2014-09-07T09:11:54.000Z</time>
      </trkpt>
      <trkpt lat="47.32775" lon="-1.36267">
        <ele>153</ele>
        <time>2014-09-07T09:11:56.000Z</time>
      </trkpt>
      <trkpt lat="47.32777" lon="-1.36267">
        <ele>151</ele>
        <time>2014-09-07T09:11:58.000Z</time>
      </trkpt>
      <trkpt lat="47.32776" lon="-1.36265">
        <ele>150</ele>
        <time>2014-09-07T09:12:00.000Z</time>
      </trkpt>
      <trkpt lat="47.32777" lon="-1.36262">
        <ele>150</ele>
        <time>2014-09-07T09:12:02.000Z</time>
      </trkpt>
      <trkpt lat="47.32774" lon="-1.36255">
        <ele>148</ele>
        <time>2014-09-07T09:12:04.000Z</time>
      </trkpt>
      <trkpt lat="47.32769" lon="-1.36248">
        <ele>148</ele>
        <time>2014-09-07T09:12:06.000Z</time>
      </trkpt>
      <trkpt lat="47.32765" lon="-1.36245">
        <ele>148</ele>
        <time>2014-09-07T09:12:08.000Z</time>
      </trkpt>
      <trkpt lat="47.32766" lon="-1.36242">
        <ele>147</ele>
        <time>2014-09-07T09:12:10.000Z</time>
      </trkpt>
      <trkpt lat="47.32765" lon="-1.36239">
        <ele>148</ele>
        <time>2014-09-07T09:12:12.000Z</time>
      </trkpt>
      <trkpt lat="47.32757" lon="-1.36232">
        <ele>148</ele>
        <time>2014-09-07T09:12:14.000Z</time>
      </trkpt>
      <trkpt lat="47.32752" lon="-1.36222">
        <ele>148</ele>
        <time>2014-09-07T09:12:16.000Z</time>
      </trkpt>
      <trkpt lat="47.32748" lon="-1.36212">
        <ele>149</ele>
        <time>2014-09-07T09:12:18.000Z</time>
      </trkpt>
      <trkpt lat="47.32742" lon="-1.36204">
        <ele>149</ele>
        <time>2014-09-07T09:12:20.000Z</time>
      </trkpt>
      <trkpt lat="47.32735" lon="-1.36198">
        <ele>149</ele>
        <time>2014-09-07T09:12:22.000Z</time>
      </trkpt>
      <trkpt lat="47.32721" lon="-1.36189">
        <ele>150</ele>
        <time>2014-09-07T09:12:26.000Z</time>
      </trkpt>
      <trkpt lat="47.32714" lon="-1.36182">
        <ele>151</ele>
        <time>2014-09-07T09:12:28.000Z</time>
      </trkpt>
      <trkpt lat="47.32705" lon="-1.36171">
        <ele>150</ele>
        <time>2014-09-07T09:12:30.000Z</time>
      </trkpt>
      <trkpt lat="47.32698" lon="-1.36158">
        <ele>148</ele>
        <time>2014-09-07T09:12:32.000Z</time>
      </trkpt>
      <trkpt lat="47.32692" lon="-1.36144">
        <ele>147</ele>
        <time>2014-09-07T09:12:34.000Z</time>
      </trkpt>
      <trkpt lat="47.32686" lon="-1.36128">
        <ele>147</ele>
        <time>2014-09-07T09:12:36.000Z</time>
      </trkpt>
      <trkpt lat="47.32677" lon="-1.36112">
        <ele>148</ele>
        <time>2014-09-07T09:12:38.000Z</time>
      </trkpt>
      <trkpt lat="47.32671" lon="-1.36097">
        <ele>148</ele>
        <time>2014-09-07T09:12:40.000Z</time>
      </trkpt>
      <trkpt lat="47.32666" lon="-1.36084">
        <ele>149</ele>
        <time>2014-09-07T09:12:42.000Z</time>
      </trkpt>
      <trkpt lat="47.32661" lon="-1.3607">
        <ele>149</ele>
        <time>2014-09-07T09:12:44.000Z</time>
      </trkpt>
      <trkpt lat="47.32653" lon="-1.36059">
        <ele>150</ele>
        <time>2014-09-07T09:12:46.000Z</time>
      </trkpt>
      <trkpt lat="47.32635" lon="-1.3604">
        <ele>151</ele>
        <time>2014-09-07T09:12:50.000Z</time>
      </trkpt>
      <trkpt lat="47.32618" lon="-1.36025">
        <ele>150</ele>
        <time>2014-09-07T09:12:54.000Z</time>
      </trkpt>
      <trkpt lat="47.3261" lon="-1.36021">
        <ele>150</ele>
        <time>2014-09-07T09:12:56.000Z</time>
      </trkpt>
      <trkpt lat="47.32602" lon="-1.36017">
        <ele>149</ele>
        <time>2014-09-07T09:12:58.000Z</time>
      </trkpt>
      <trkpt lat="47.3259" lon="-1.36003">
        <ele>148</ele>
        <time>2014-09-07T09:13:04.000Z</time>
      </trkpt>
      <trkpt lat="47.32583" lon="-1.36003">
        <ele>146</ele>
        <time>2014-09-07T09:13:06.000Z</time>
      </trkpt>
      <trkpt lat="47.3258" lon="-1.36007">
        <ele>145</ele>
        <time>2014-09-07T09:13:08.000Z</time>
      </trkpt>
      <trkpt lat="47.32578" lon="-1.36011">
        <ele>143</ele>
        <time>2014-09-07T09:13:10.000Z</time>
      </trkpt>
      <trkpt lat="47.32577" lon="-1.36017">
        <ele>141</ele>
        <time>2014-09-07T09:13:12.000Z</time>
      </trkpt>
      <trkpt lat="47.32576" lon="-1.36023">
        <ele>140</ele>
        <time>2014-09-07T09:13:14.000Z</time>
      </trkpt>
      <trkpt lat="47.32577" lon="-1.36026">
        <ele>139</ele>
        <time>2014-09-07T09:13:16.000Z</time>
      </trkpt>
      <trkpt lat="47.32576" lon="-1.36028">
        <ele>138</ele>
        <time>2014-09-07T09:13:18.000Z</time>
      </trkpt>
      <trkpt lat="47.32575" lon="-1.36028">
        <ele>136</ele>
        <time>2014-09-07T09:13:20.000Z</time>
      </trkpt>
      <trkpt lat="47.32576" lon="-1.36031">
        <ele>136</ele>
        <time>2014-09-07T09:13:22.000Z</time>
      </trkpt>
      <trkpt lat="47.32577" lon="-1.36038">
        <ele>135</ele>
        <time>2014-09-07T09:13:24.000Z</time>
      </trkpt>
      <trkpt lat="47.32578" lon="-1.36044">
        <ele>134</ele>
        <time>2014-09-07T09:13:26.000Z</time>
      </trkpt>
      <trkpt lat="47.32579" lon="-1.36051">
        <ele>132</ele>
        <time>2014-09-07T09:13:28.000Z</time>
      </trkpt>
      <trkpt lat="47.3258" lon="-1.36056">
        <ele>131</ele>
        <time>2014-09-07T09:13:30.000Z</time>
      </trkpt>
      <trkpt lat="47.32579" lon="-1.3606">
        <ele>129</ele>
        <time>2014-09-07T09:13:32.000Z</time>
      </trkpt>
      <trkpt lat="47.32579" lon="-1.36062">
        <ele>128</ele>
        <time>2014-09-07T09:13:34.000Z</time>
      </trkpt>
      <trkpt lat="47.32579" lon="-1.36067">
        <ele>126</ele>
        <time>2014-09-07T09:13:36.000Z</time>
      </trkpt>
      <trkpt lat="47.32581" lon="-1.3607">
        <ele>126</ele>
        <time>2014-09-07T09:13:38.000Z</time>
      </trkpt>
      <trkpt lat="47.32581" lon="-1.36071">
        <ele>125</ele>
        <time>2014-09-07T09:13:40.000Z</time>
      </trkpt>
      <trkpt lat="47.32579" lon="-1.36066">
        <ele>125</ele>
        <time>2014-09-07T09:13:42.000Z</time>
      </trkpt>
      <trkpt lat="47.32574" lon="-1.36061">
        <ele>123</ele>
        <time>2014-09-07T09:13:44.000Z</time>
      </trkpt>
      <trkpt lat="47.32571" lon="-1.36061">
        <ele>122</ele>
        <time>2014-09-07T09:13:46.000Z</time>
      </trkpt>
      <trkpt lat="47.32571" lon="-1.36062">
        <ele>121</ele>
        <time>2014-09-07T09:13:48.000Z</time>
      </trkpt>
      <trkpt lat="47.32572" lon="-1.36065">
        <ele>119</ele>
        <time>2014-09-07T09:13:50.000Z</time>
      </trkpt>
      <trkpt lat="47.32573" lon="-1.36065">
        <ele>118</ele>
        <time>2014-09-07T09:13:52.000Z</time>
      </trkpt>
      <trkpt lat="47.32571" lon="-1.36065">
        <ele>117</ele>
        <time>2014-09-07T09:13:54.000Z</time>
      </trkpt>
      <trkpt lat="47.32571" lon="-1.36065">
        <ele>117</ele>
        <time>2014-09-07T09:13:56.000Z</time>
      </trkpt>
      <trkpt lat="47.32571" lon="-1.36065">
        <ele>117</ele>
        <time>2014-09-07T09:13:58.000Z</time>
      </trkpt>
      <trkpt lat="47.32572" lon="-1.36065">
        <ele>116</ele>
        <time>2014-09-07T09:14:00.000Z</time>
      </trkpt>
      <trkpt lat="47.32572" lon="-1.36065">
        <ele>116</ele>
        <time>2014-09-07T09:14:02.000Z</time>
      </trkpt>
      <trkpt lat="47.32573" lon="-1.36066">
        <ele>114</ele>
        <time>2014-09-07T09:14:04.000Z</time>
      </trkpt>
      <trkpt lat="47.3257" lon="-1.36067">
        <ele>114</ele>
        <time>2014-09-07T09:14:06.000Z</time>
      </trkpt>
      <trkpt lat="47.32571" lon="-1.36067">
        <ele>113</ele>
        <time>2014-09-07T09:14:08.000Z</time>
      </trkpt>
      <trkpt lat="47.3257" lon="-1.36068">
        <ele>112</ele>
        <time>2014-09-07T09:14:10.000Z</time>
      </trkpt>
      <trkpt lat="47.3257" lon="-1.36068">
        <ele>112</ele>
        <time>2014-09-07T09:14:12.000Z</time>
      </trkpt>
      <trkpt lat="47.3257" lon="-1.36068">
        <ele>112</ele>
        <time>2014-09-07T09:14:18.000Z</time>
      </trkpt>
      <trkpt lat="47.3257" lon="-1.36068">
        <ele>112</ele>
        <time>2014-09-07T09:14:20.000Z</time>
      </trkpt>
      <trkpt lat="47.3257" lon="-1.36068">
        <ele>112</ele>
        <time>2014-09-07T09:14:22.000Z</time>
      </trkpt>
      <trkpt lat="47.3257" lon="-1.36068">
        <ele>112</ele>
        <time>2014-09-07T09:14:24.000Z</time>
      </trkpt>
      <trkpt lat="47.3257" lon="-1.36068">
        <ele>112</ele>
        <time>2014-09-07T09:14:26.000Z</time>
      </trkpt>
      <trkpt lat="47.3257" lon="-1.36068">
        <ele>112</ele>
        <time>2014-09-07T09:14:28.000Z</time>
      </trkpt>
      <trkpt lat="47.3257" lon="-1.36068">
        <ele>112</ele>
        <time>2014-09-07T09:14:30.000Z</time>
      </trkpt>
      <trkpt lat="47.3257" lon="-1.36067">
        <ele>112</ele>
        <time>2014-09-07T09:14:32.000Z</time>
      </trkpt>
      <trkpt lat="47.3257" lon="-1.36067">
        <ele>112</ele>
        <time>2014-09-07T09:14:34.000Z</time>
      </trkpt>
      <trkpt lat="47.3257" lon="-1.36066">
        <ele>111</ele>
        <time>2014-09-07T09:14:36.000Z</time>
      </trkpt>
      <trkpt lat="47.32568" lon="-1.36063">
        <ele>111</ele>
        <time>2014-09-07T09:14:38.000Z</time>
      </trkpt>
      <trkpt lat="47.32568" lon="-1.36062">
        <ele>110</ele>
        <time>2014-09-07T09:14:40.000Z</time>
      </trkpt>
      <trkpt lat="47.32568" lon="-1.36058">
        <ele>109</ele>
        <time>2014-09-07T09:14:42.000Z</time>
      </trkpt>
      <trkpt lat="47.32565" lon="-1.36055">
        <ele>109</ele>
        <time>2014-09-07T09:14:44.000Z</time>
      </trkpt>
      <trkpt lat="47.3256" lon="-1.36049">
        <ele>111</ele>
        <time>2014-09-07T09:14:46.000Z</time>
      </trkpt>
      <trkpt lat="47.32555" lon="-1.36044">
        <ele>112</ele>
        <time>2014-09-07T09:14:48.000Z</time>
      </trkpt>
      <trkpt lat="47.32553" lon="-1.36038">
        <ele>113</ele>
        <time>2014-09-07T09:14:50.000Z</time>
      </trkpt>
      <trkpt lat="47.32553" lon="-1.3603">
        <ele>114</ele>
        <time>2014-09-07T09:14:52.000Z</time>
      </trkpt>
      <trkpt lat="47.32553" lon="-1.36027">
        <ele>114</ele>
        <time>2014-09-07T09:14:54.000Z</time>
      </trkpt>
      <trkpt lat="47.32553" lon="-1.36025">
        <ele>115</ele>
        <time>2014-09-07T09:14:56.000Z</time>
      </trkpt>
      <trkpt lat="47.32553" lon="-1.36028">
        <ele>115</ele>
        <time>2014-09-07T09:14:58.000Z</time>
      </trkpt>
      <trkpt lat="47.32552" lon="-1.36029">
        <ele>116</ele>
        <time>2014-09-07T09:15:00.000Z</time>
      </trkpt>
      <trkpt lat="47.32552" lon="-1.3603">
        <ele>116</ele>
        <time>2014-09-07T09:15:02.000Z</time>
      </trkpt>
      <trkpt lat="47.32549" lon="-1.3603">
        <ele>117</ele>
        <time>2014-09-07T09:15:04.000Z</time>
      </trkpt>
      <trkpt lat="47.32542" lon="-1.36032">
        <ele>118</ele>
        <time>2014-09-07T09:15:06.000Z</time>
      </trkpt>
      <trkpt lat="47.32532" lon="-1.36036">
        <ele>118</ele>
        <time>2014-09-07T09:15:08.000Z</time>
      </trkpt>
      <trkpt lat="47.32523" lon="-1.36036">
        <ele>119</ele>
        <time>2014-09-07T09:15:10.000Z</time>
      </trkpt>
      <trkpt lat="47.32512" lon="-1.36036">
        <ele>119</ele>
        <time>2014-09-07T09:15:12.000Z</time>
      </trkpt>
      <trkpt lat="47.32501" lon="-1.36042">
        <ele>120</ele>
        <time>2014-09-07T09:15:14.000Z</time>
      </trkpt>
      <trkpt lat="47.32491" lon="-1.36046">
        <ele>121</ele>
        <time>2014-09-07T09:15:16.000Z</time>
      </trkpt>
      <trkpt lat="47.32475" lon="-1.36055">
        <ele>121</ele>
        <time>2014-09-07T09:15:20.000Z</time>
      </trkpt>
      <trkpt lat="47.32467" lon="-1.36065">
        <ele>122</ele>
        <time>2014-09-07T09:15:22.000Z</time>
      </trkpt>
      <trkpt lat="47.32445" lon="-1.36083">
        <ele>123</ele>
        <time>2014-09-07T09:15:26.000Z</time>
      </trkpt>
      <trkpt lat="47.32436" lon="-1.36089">
        <ele>124</ele>
        <time>2014-09-07T09:15:28.000Z</time>
      </trkpt>
      <trkpt lat="47.32426" lon="-1.36091">
        <ele>124</ele>
        <time>2014-09-07T09:15:30.000Z</time>
      </trkpt>
      <trkpt lat="47.32417" lon="-1.36095">
        <ele>125</ele>
        <time>2014-09-07T09:15:32.000Z</time>
      </trkpt>
      <trkpt lat="47.32386" lon="-1.361">
        <ele>125</ele>
        <time>2014-09-07T09:15:38.000Z</time>
      </trkpt>
      <trkpt lat="47.32373" lon="-1.36098">
        <ele>126</ele>
        <time>2014-09-07T09:15:40.000Z</time>
      </trkpt>
      <trkpt lat="47.32351" lon="-1.36092">
        <ele>126</ele>
        <time>2014-09-07T09:15:44.000Z</time>
      </trkpt>
      <trkpt lat="47.32339" lon="-1.36083">
        <ele>127</ele>
        <time>2014-09-07T09:15:46.000Z</time>
      </trkpt>
      <trkpt lat="47.32328" lon="-1.36075">
        <ele>127</ele>
        <time>2014-09-07T09:15:48.000Z</time>
      </trkpt>
      <trkpt lat="47.32292" lon="-1.36043">
        <ele>128</ele>
        <time>2014-09-07T09:15:54.000Z</time>
      </trkpt>
      <trkpt lat="47.32254" lon="-1.36007">
        <ele>128</ele>
        <time>2014-09-07T09:16:04.000Z</time>
      </trkpt>
      <trkpt lat="47.32247" lon="-1.36005">
        <ele>128</ele>
        <time>2014-09-07T09:16:06.000Z</time>
      </trkpt>
      <trkpt lat="47.32238" lon="-1.36003">
        <ele>129</ele>
        <time>2014-09-07T09:16:08.000Z</time>
      </trkpt>
      <trkpt lat="47.32231" lon="-1.36001">
        <ele>130</ele>
        <time>2014-09-07T09:16:10.000Z</time>
      </trkpt>
      <trkpt lat="47.32227" lon="-1.35997">
        <ele>131</ele>
        <time>2014-09-07T09:16:12.000Z</time>
      </trkpt>
      <trkpt lat="47.32224" lon="-1.36001">
        <ele>132</ele>
        <time>2014-09-07T09:16:14.000Z</time>
      </trkpt>
      <trkpt lat="47.32221" lon="-1.36004">
        <ele>132</ele>
        <time>2014-09-07T09:16:16.000Z</time>
      </trkpt>
      <trkpt lat="47.32217" lon="-1.36008">
        <ele>132</ele>
        <time>2014-09-07T09:16:18.000Z</time>
      </trkpt>
      <trkpt lat="47.3221" lon="-1.36012">
        <ele>133</ele>
        <time>2014-09-07T09:16:20.000Z</time>
      </trkpt>
      <trkpt lat="47.32199" lon="-1.36014">
        <ele>134</ele>
        <time>2014-09-07T09:16:22.000Z</time>
      </trkpt>
      <trkpt lat="47.32187" lon="-1.36016">
        <ele>135</ele>
        <time>2014-09-07T09:16:24.000Z</time>
      </trkpt>
      <trkpt lat="47.32172" lon="-1.36019">
        <ele>136</ele>
        <time>2014-09-07T09:16:26.000Z</time>
      </trkpt>
      <trkpt lat="47.32161" lon="-1.36025">
        <ele>135</ele>
        <time>2014-09-07T09:16:28.000Z</time>
      </trkpt>
      <trkpt lat="47.32146" lon="-1.36029">
        <ele>134</ele>
        <time>2014-09-07T09:16:30.000Z</time>
      </trkpt>
      <trkpt lat="47.32105" lon="-1.36027">
        <ele>134</ele>
        <time>2014-09-07T09:16:34.000Z</time>
      </trkpt>
      <trkpt lat="47.32024" lon="-1.36095">
        <ele>128</ele>
        <time>2014-09-07T09:16:48.000Z</time>
      </trkpt>
      <trkpt lat="47.3203" lon="-1.36104">
        <ele>128</ele>
        <time>2014-09-07T09:16:50.000Z</time>
      </trkpt>
      <trkpt lat="47.32035" lon="-1.36117">
        <ele>127</ele>
        <time>2014-09-07T09:16:54.000Z</time>
      </trkpt>
      <trkpt lat="47.32033" lon="-1.36126">
        <ele>127</ele>
        <time>2014-09-07T09:16:56.000Z</time>
      </trkpt>
      <trkpt lat="47.32032" lon="-1.36133">
        <ele>127</ele>
        <time>2014-09-07T09:16:58.000Z</time>
      </trkpt>
      <trkpt lat="47.32037" lon="-1.36205">
        <ele>125</ele>
        <time>2014-09-07T09:17:24.000Z</time>
      </trkpt>
      <trkpt lat="47.32038" lon="-1.36212">
        <ele>125</ele>
        <time>2014-09-07T09:17:26.000Z</time>
      </trkpt>
      <trkpt lat="47.32041" lon="-1.36219">
        <ele>126</ele>
        <time>2014-09-07T09:17:28.000Z</time>
      </trkpt>
      <trkpt lat="47.32043" lon="-1.36225">
        <ele>126</ele>
        <time>2014-09-07T09:17:30.000Z</time>
      </trkpt>
      <trkpt lat="47.32045" lon="-1.36233">
        <ele>127</ele>
        <time>2014-09-07T09:17:34.000Z</time>
      </trkpt>
      <trkpt lat="47.3205" lon="-1.36234">
        <ele>127</ele>
        <time>2014-09-07T09:17:36.000Z</time>
      </trkpt>
      <trkpt lat="47.32056" lon="-1.36239">
        <ele>126</ele>
        <time>2014-09-07T09:17:38.000Z</time>
      </trkpt>
      <trkpt lat="47.32062" lon="-1.36245">
        <ele>125</ele>
        <time>2014-09-07T09:17:40.000Z</time>
      </trkpt>
      <trkpt lat="47.32067" lon="-1.36251">
        <ele>125</ele>
        <time>2014-09-07T09:17:42.000Z</time>
      </trkpt>
      <trkpt lat="47.32071" lon="-1.36257">
        <ele>124</ele>
        <time>2014-09-07T09:17:44.000Z</time>
      </trkpt>
      <trkpt lat="47.32072" lon="-1.36265">
        <ele>124</ele>
        <time>2014-09-07T09:17:46.000Z</time>
      </trkpt>
      <trkpt lat="47.32076" lon="-1.36278">
        <ele>124</ele>
        <time>2014-09-07T09:17:50.000Z</time>
      </trkpt>
      <trkpt lat="47.32083" lon="-1.36283">
        <ele>124</ele>
        <time>2014-09-07T09:17:52.000Z</time>
      </trkpt>
      <trkpt lat="47.32087" lon="-1.36288">
        <ele>124</ele>
        <time>2014-09-07T09:17:54.000Z</time>
      </trkpt>
      <trkpt lat="47.32088" lon="-1.36294">
        <ele>124</ele>
        <time>2014-09-07T09:17:56.000Z</time>
      </trkpt>
      <trkpt lat="47.32087" lon="-1.36302">
        <ele>123</ele>
        <time>2014-09-07T09:17:58.000Z</time>
      </trkpt>
      <trkpt lat="47.3209" lon="-1.3632">
        <ele>122</ele>
        <time>2014-09-07T09:18:02.000Z</time>
      </trkpt>
      <trkpt lat="47.32098" lon="-1.36362">
        <ele>121</ele>
        <time>2014-09-07T09:18:10.000Z</time>
      </trkpt>
      <trkpt lat="47.32099" lon="-1.36372">
        <ele>122</ele>
        <time>2014-09-07T09:18:12.000Z</time>
      </trkpt>
      <trkpt lat="47.32099" lon="-1.36377">
        <ele>122</ele>
        <time>2014-09-07T09:18:14.000Z</time>
      </trkpt>
      <trkpt lat="47.32103" lon="-1.36399">
        <ele>121</ele>
        <time>2014-09-07T09:18:18.000Z</time>
      </trkpt>
      <trkpt lat="47.32108" lon="-1.36406">
        <ele>121</ele>
        <time>2014-09-07T09:18:20.000Z</time>
      </trkpt>
      <trkpt lat="47.32113" lon="-1.36413">
        <ele>121</ele>
        <time>2014-09-07T09:18:22.000Z</time>
      </trkpt>
      <trkpt lat="47.32117" lon="-1.36421">
        <ele>121</ele>
        <time>2014-09-07T09:18:24.000Z</time>
      </trkpt>
      <trkpt lat="47.32121" lon="-1.36427">
        <ele>122</ele>
        <time>2014-09-07T09:18:26.000Z</time>
      </trkpt>
      <trkpt lat="47.32123" lon="-1.36431">
        <ele>121</ele>
        <time>2014-09-07T09:18:28.000Z</time>
      </trkpt>
      <trkpt lat="47.3213" lon="-1.36442">
        <ele>121</ele>
        <time>2014-09-07T09:18:32.000Z</time>
      </trkpt>
      <trkpt lat="47.32136" lon="-1.36458">
        <ele>120</ele>
        <time>2014-09-07T09:18:36.000Z</time>
      </trkpt>
      <trkpt lat="47.32138" lon="-1.36467">
        <ele>120</ele>
        <time>2014-09-07T09:18:38.000Z</time>
      </trkpt>
      <trkpt lat="47.3214" lon="-1.36475">
        <ele>119</ele>
        <time>2014-09-07T09:18:40.000Z</time>
      </trkpt>
      <trkpt lat="47.32145" lon="-1.36494">
        <ele>118</ele>
        <time>2014-09-07T09:18:44.000Z</time>
      </trkpt>
      <trkpt lat="47.32149" lon="-1.36506">
        <ele>118</ele>
        <time>2014-09-07T09:18:46.000Z</time>
      </trkpt>
      <trkpt lat="47.32156" lon="-1.36521">
        <ele>118</ele>
        <time>2014-09-07T09:18:50.000Z</time>
      </trkpt>
      <trkpt lat="47.3216" lon="-1.36528">
        <ele>118</ele>
        <time>2014-09-07T09:18:52.000Z</time>
      </trkpt>
      <trkpt lat="47.32165" lon="-1.36533">
        <ele>118</ele>
        <time>2014-09-07T09:18:54.000Z</time>
      </trkpt>
      <trkpt lat="47.32176" lon="-1.36556">
        <ele>118</ele>
        <time>2014-09-07T09:19:00.000Z</time>
      </trkpt>
      <trkpt lat="47.32175" lon="-1.36566">
        <ele>117</ele>
        <time>2014-09-07T09:19:02.000Z</time>
      </trkpt>
      <trkpt lat="47.32174" lon="-1.36574">
        <ele>117</ele>
        <time>2014-09-07T09:19:04.000Z</time>
      </trkpt>
      <trkpt lat="47.32174" lon="-1.3658">
        <ele>118</ele>
        <time>2014-09-07T09:19:06.000Z</time>
      </trkpt>
      <trkpt lat="47.32175" lon="-1.3659">
        <ele>118</ele>
        <time>2014-09-07T09:19:10.000Z</time>
      </trkpt>
      <trkpt lat="47.32178" lon="-1.36612">
        <ele>119</ele>
        <time>2014-09-07T09:19:16.000Z</time>
      </trkpt>
      <trkpt lat="47.32179" lon="-1.36616">
        <ele>120</ele>
        <time>2014-09-07T09:19:18.000Z</time>
      </trkpt>
      <trkpt lat="47.32179" lon="-1.36621">
        <ele>121</ele>
        <time>2014-09-07T09:19:20.000Z</time>
      </trkpt>
      <trkpt lat="47.32182" lon="-1.36626">
        <ele>121</ele>
        <time>2014-09-07T09:19:22.000Z</time>
      </trkpt>
      <trkpt lat="47.32186" lon="-1.36636">
        <ele>121</ele>
        <time>2014-09-07T09:19:26.000Z</time>
      </trkpt>
      <trkpt lat="47.32188" lon="-1.36641">
        <ele>122</ele>
        <time>2014-09-07T09:19:28.000Z</time>
      </trkpt>
      <trkpt lat="47.32191" lon="-1.36644">
        <ele>122</ele>
        <time>2014-09-07T09:19:30.000Z</time>
      </trkpt>
      <trkpt lat="47.32195" lon="-1.36649">
        <ele>122</ele>
        <time>2014-09-07T09:19:32.000Z</time>
      </trkpt>
      <trkpt lat="47.32201" lon="-1.36654">
        <ele>123</ele>
        <time>2014-09-07T09:19:36.000Z</time>
      </trkpt>
      <trkpt lat="47.32205" lon="-1.36657">
        <ele>123</ele>
        <time>2014-09-07T09:19:38.000Z</time>
      </trkpt>
      <trkpt lat="47.32211" lon="-1.3666">
        <ele>124</ele>
        <time>2014-09-07T09:19:40.000Z</time>
      </trkpt>
      <trkpt lat="47.32226" lon="-1.36672">
        <ele>124</ele>
        <time>2014-09-07T09:19:46.000Z</time>
      </trkpt>
      <trkpt lat="47.3223" lon="-1.36674">
        <ele>124</ele>
        <time>2014-09-07T09:19:48.000Z</time>
      </trkpt>
      <trkpt lat="47.32235" lon="-1.36678">
        <ele>124</ele>
        <time>2014-09-07T09:19:50.000Z</time>
      </trkpt>
      <trkpt lat="47.32239" lon="-1.36683">
        <ele>124</ele>
        <time>2014-09-07T09:19:52.000Z</time>
      </trkpt>
      <trkpt lat="47.32247" lon="-1.36695">
        <ele>124</ele>
        <time>2014-09-07T09:19:56.000Z</time>
      </trkpt>
      <trkpt lat="47.32259" lon="-1.36712">
        <ele>125</ele>
        <time>2014-09-07T09:20:02.000Z</time>
      </trkpt>
      <trkpt lat="47.32264" lon="-1.36715">
        <ele>125</ele>
        <time>2014-09-07T09:20:04.000Z</time>
      </trkpt>
      <trkpt lat="47.32269" lon="-1.36719">
        <ele>126</ele>
        <time>2014-09-07T09:20:06.000Z</time>
      </trkpt>
      <trkpt lat="47.32276" lon="-1.36723">
        <ele>127</ele>
        <time>2014-09-07T09:20:08.000Z</time>
      </trkpt>
      <trkpt lat="47.32279" lon="-1.36726">
        <ele>128</ele>
        <time>2014-09-07T09:20:10.000Z</time>
      </trkpt>
      <trkpt lat="47.32281" lon="-1.36727">
        <ele>128</ele>
        <time>2014-09-07T09:20:12.000Z</time>
      </trkpt>
      <trkpt lat="47.32284" lon="-1.36732">
        <ele>127</ele>
        <time>2014-09-07T09:20:14.000Z</time>
      </trkpt>
      <trkpt lat="47.3229" lon="-1.36734">
        <ele>127</ele>
        <time>2014-09-07T09:20:16.000Z</time>
      </trkpt>
      <trkpt lat="47.32296" lon="-1.36737">
        <ele>126</ele>
        <time>2014-09-07T09:20:18.000Z</time>
      </trkpt>
      <trkpt lat="47.32299" lon="-1.3674">
        <ele>126</ele>
        <time>2014-09-07T09:20:20.000Z</time>
      </trkpt>
      <trkpt lat="47.3233" lon="-1.36773">
        <ele>126</ele>
        <time>2014-09-07T09:20:34.000Z</time>
      </trkpt>
      <trkpt lat="47.32335" lon="-1.36778">
        <ele>126</ele>
        <time>2014-09-07T09:20:36.000Z</time>
      </trkpt>
      <trkpt lat="47.3235" lon="-1.36791">
        <ele>126</ele>
        <time>2014-09-07T09:20:42.000Z</time>
      </trkpt>
      <trkpt lat="47.32357" lon="-1.36793">
        <ele>127</ele>
        <time>2014-09-07T09:20:44.000Z</time>
      </trkpt>
      <trkpt lat="47.32366" lon="-1.368">
        <ele>128</ele>
        <time>2014-09-07T09:20:48.000Z</time>
      </trkpt>
      <trkpt lat="47.32373" lon="-1.36802">
        <ele>128</ele>
        <time>2014-09-07T09:20:52.000Z</time>
      </trkpt>
      <trkpt lat="47.32387" lon="-1.36808">
        <ele>127</ele>
        <time>2014-09-07T09:20:58.000Z</time>
      </trkpt>
      <trkpt lat="47.32398" lon="-1.36817">
        <ele>126</ele>
        <time>2014-09-07T09:21:02.000Z</time>
      </trkpt>
      <trkpt lat="47.32413" lon="-1.36831">
        <ele>125</ele>
        <time>2014-09-07T09:21:08.000Z</time>
      </trkpt>
      <trkpt lat="47.32418" lon="-1.36834">
        <ele>125</ele>
        <time>2014-09-07T09:21:10.000Z</time>
      </trkpt>
      <trkpt lat="47.32426" lon="-1.36842">
        <ele>125</ele>
        <time>2014-09-07T09:21:14.000Z</time>
      </trkpt>
      <trkpt lat="47.32429" lon="-1.36845">
        <ele>125</ele>
        <time>2014-09-07T09:21:16.000Z</time>
      </trkpt>
      <trkpt lat="47.32432" lon="-1.36846">
        <ele>126</ele>
        <time>2014-09-07T09:21:18.000Z</time>
      </trkpt>
      <trkpt lat="47.32435" lon="-1.36848">
        <ele>127</ele>
        <time>2014-09-07T09:21:20.000Z</time>
      </trkpt>
      <trkpt lat="47.32436" lon="-1.36848">
        <ele>127</ele>
        <time>2014-09-07T09:21:22.000Z</time>
      </trkpt>
      <trkpt lat="47.32438" lon="-1.36848">
        <ele>127</ele>
        <time>2014-09-07T09:21:24.000Z</time>
      </trkpt>
      <trkpt lat="47.32439" lon="-1.36847">
        <ele>126</ele>
        <time>2014-09-07T09:21:28.000Z</time>
      </trkpt>
      <trkpt lat="47.3244" lon="-1.36846">
        <ele>126</ele>
        <time>2014-09-07T09:21:30.000Z</time>
      </trkpt>
      <trkpt lat="47.32442" lon="-1.36849">
        <ele>125</ele>
        <time>2014-09-07T09:21:32.000Z</time>
      </trkpt>
      <trkpt lat="47.32443" lon="-1.36852">
        <ele>125</ele>
        <time>2014-09-07T09:21:34.000Z</time>
      </trkpt>
      <trkpt lat="47.32444" lon="-1.36857">
        <ele>125</ele>
        <time>2014-09-07T09:21:36.000Z</time>
      </trkpt>
      <trkpt lat="47.32444" lon="-1.36869">
        <ele>126</ele>
        <time>2014-09-07T09:21:40.000Z</time>
      </trkpt>
      <trkpt lat="47.32441" lon="-1.36873">
        <ele>126</ele>
        <time>2014-09-07T09:21:42.000Z</time>
      </trkpt>
      <trkpt lat="47.32439" lon="-1.3688">
        <ele>126</ele>
        <time>2014-09-07T09:21:44.000Z</time>
      </trkpt>
      <trkpt lat="47.32437" lon="-1.36888">
        <ele>126</ele>
        <time>2014-09-07T09:21:46.000Z</time>
      </trkpt>
      <trkpt lat="47.32437" lon="-1.36897">
        <ele>126</ele>
        <time>2014-09-07T09:21:48.000Z</time>
      </trkpt>
      <trkpt lat="47.32438" lon="-1.36929">
        <ele>126</ele>
        <time>2014-09-07T09:21:54.000Z</time>
      </trkpt>
      <trkpt lat="47.32438" lon="-1.36938">
        <ele>125</ele>
        <time>2014-09-07T09:21:56.000Z</time>
      </trkpt>
      <trkpt lat="47.32436" lon="-1.36946">
        <ele>125</ele>
        <time>2014-09-07T09:21:58.000Z</time>
      </trkpt>
      <trkpt lat="47.3243" lon="-1.36964">
        <ele>126</ele>
        <time>2014-09-07T09:22:06.000Z</time>
      </trkpt>
      <trkpt lat="47.32429" lon="-1.36967">
        <ele>126</ele>
        <time>2014-09-07T09:22:08.000Z</time>
      </trkpt>
      <trkpt lat="47.32428" lon="-1.36971">
        <ele>127</ele>
        <time>2014-09-07T09:22:12.000Z</time>
      </trkpt>
      <trkpt lat="47.32428" lon="-1.36972">
        <ele>128</ele>
        <time>2014-09-07T09:22:14.000Z</time>
      </trkpt>
      <trkpt lat="47.32428" lon="-1.36974">
        <ele>128</ele>
        <time>2014-09-07T09:22:16.000Z</time>
      </trkpt>
      <trkpt lat="47.32429" lon="-1.36976">
        <ele>127</ele>
        <time>2014-09-07T09:22:18.000Z</time>
      </trkpt>
      <trkpt lat="47.32429" lon="-1.36977">
        <ele>127</ele>
        <time>2014-09-07T09:22:20.000Z</time>
      </trkpt>
      <trkpt lat="47.32428" lon="-1.36978">
        <ele>126</ele>
        <time>2014-09-07T09:22:22.000Z</time>
      </trkpt>
      <trkpt lat="47.32428" lon="-1.36979">
        <ele>126</ele>
        <time>2014-09-07T09:22:24.000Z</time>
      </trkpt>
      <trkpt lat="47.32428" lon="-1.36979">
        <ele>126</ele>
        <time>2014-09-07T09:22:26.000Z</time>
      </trkpt>
      <trkpt lat="47.32428" lon="-1.36979">
        <ele>127</ele>
        <time>2014-09-07T09:22:28.000Z</time>
      </trkpt>
      <trkpt lat="47.32427" lon="-1.36979">
        <ele>127</ele>
        <time>2014-09-07T09:22:30.000Z</time>
      </trkpt>
      <trkpt lat="47.32427" lon="-1.36979">
        <ele>127</ele>
        <time>2014-09-07T09:22:32.000Z</time>
      </trkpt>
      <trkpt lat="47.32427" lon="-1.36979">
        <ele>127</ele>
        <time>2014-09-07T09:22:34.000Z</time>
      </trkpt>
      <trkpt lat="47.32427" lon="-1.36979">
        <ele>127</ele>
        <time>2014-09-07T09:22:38.000Z</time>
      </trkpt>
      <trkpt lat="47.32426" lon="-1.36979">
        <ele>128</ele>
        <time>2014-09-07T09:22:40.000Z</time>
      </trkpt>
      <trkpt lat="47.32426" lon="-1.36979">
        <ele>128</ele>
        <time>2014-09-07T09:22:42.000Z</time>
      </trkpt>
      <trkpt lat="47.32426" lon="-1.36979">
        <ele>128</ele>
        <time>2014-09-07T09:22:44.000Z</time>
      </trkpt>
      <trkpt lat="47.32426" lon="-1.36978">
        <ele>128</ele>
        <time>2014-09-07T09:22:47.000Z</time>
      </trkpt>
      <trkpt lat="47.32425" lon="-1.36979">
        <ele>128</ele>
        <time>2014-09-07T09:22:48.000Z</time>
      </trkpt>
      <trkpt lat="47.32424" lon="-1.36983">
        <ele>128</ele>
        <time>2014-09-07T09:22:50.000Z</time>
      </trkpt>
      <trkpt lat="47.32418" lon="-1.36999">
        <ele>128</ele>
        <time>2014-09-07T09:22:56.000Z</time>
      </trkpt>
      <trkpt lat="47.32413" lon="-1.37025">
        <ele>128</ele>
        <time>2014-09-07T09:23:04.000Z</time>
      </trkpt>
      <trkpt lat="47.32412" lon="-1.37026">
        <ele>129</ele>
        <time>2014-09-07T09:23:08.000Z</time>
      </trkpt>
      <trkpt lat="47.32406" lon="-1.37023">
        <ele>129</ele>
        <time>2014-09-07T09:23:10.000Z</time>
      </trkpt>
      <trkpt lat="47.324" lon="-1.37018">
        <ele>129</ele>
        <time>2014-09-07T09:23:12.000Z</time>
      </trkpt>
      <trkpt lat="47.32362" lon="-1.3697">
        <ele>129</ele>
        <time>2014-09-07T09:23:22.000Z</time>
      </trkpt>
      <trkpt lat="47.32362" lon="-1.36962">
        <ele>130</ele>
        <time>2014-09-07T09:23:24.000Z</time>
      </trkpt>
      <trkpt lat="47.32351" lon="-1.36934">
        <ele>130</ele>
        <time>2014-09-07T09:23:30.000Z</time>
      </trkpt>
      <trkpt lat="47.32353" lon="-1.36927">
        <ele>129</ele>
        <time>2014-09-07T09:23:32.000Z</time>
      </trkpt>
      <trkpt lat="47.32352" lon="-1.36917">
        <ele>129</ele>
        <time>2014-09-07T09:23:34.000Z</time>
      </trkpt>
      <trkpt lat="47.32349" lon="-1.36904">
        <ele>129</ele>
        <time>2014-09-07T09:23:36.000Z</time>
      </trkpt>
      <trkpt lat="47.32339" lon="-1.36881">
        <ele>130</ele>
        <time>2014-09-07T09:23:40.000Z</time>
      </trkpt>
      <trkpt lat="47.32329" lon="-1.36869">
        <ele>131</ele>
        <time>2014-09-07T09:23:42.000Z</time>
      </trkpt>
      <trkpt lat="47.32319" lon="-1.3686">
        <ele>131</ele>
        <time>2014-09-07T09:23:44.000Z</time>
      </trkpt>
      <trkpt lat="47.32299" lon="-1.36844">
        <ele>132</ele>
        <time>2014-09-07T09:23:48.000Z</time>
      </trkpt>
      <trkpt lat="47.32284" lon="-1.3683">
        <ele>133</ele>
        <time>2014-09-07T09:23:50.000Z</time>
      </trkpt>
      <trkpt lat="47.32273" lon="-1.36821">
        <ele>133</ele>
        <time>2014-09-07T09:23:52.000Z</time>
      </trkpt>
      <trkpt lat="47.32259" lon="-1.36807">
        <ele>132</ele>
        <time>2014-09-07T09:23:54.000Z</time>
      </trkpt>
      <trkpt lat="47.32249" lon="-1.36793">
        <ele>132</ele>
        <time>2014-09-07T09:23:56.000Z</time>
      </trkpt>
      <trkpt lat="47.32241" lon="-1.36781">
        <ele>132</ele>
        <time>2014-09-07T09:23:58.000Z</time>
      </trkpt>
      <trkpt lat="47.32232" lon="-1.3677">
        <ele>133</ele>
        <time>2014-09-07T09:24:00.000Z</time>
      </trkpt>
      <trkpt lat="47.32219" lon="-1.36752">
        <ele>133</ele>
        <time>2014-09-07T09:24:04.000Z</time>
      </trkpt>
      <trkpt lat="47.32199" lon="-1.36727">
        <ele>133</ele>
        <time>2014-09-07T09:24:08.000Z</time>
      </trkpt>
      <trkpt lat="47.32194" lon="-1.36714">
        <ele>133</ele>
        <time>2014-09-07T09:24:10.000Z</time>
      </trkpt>
      <trkpt lat="47.32189" lon="-1.367">
        <ele>133</ele>
        <time>2014-09-07T09:24:12.000Z</time>
      </trkpt>
      <trkpt lat="47.32185" lon="-1.36686">
        <ele>133</ele>
        <time>2014-09-07T09:24:14.000Z</time>
      </trkpt>
      <trkpt lat="47.32162" lon="-1.36641">
        <ele>133</ele>
        <time>2014-09-07T09:24:20.000Z</time>
      </trkpt>
      <trkpt lat="47.32153" lon="-1.3663">
        <ele>134</ele>
        <time>2014-09-07T09:24:22.000Z</time>
      </trkpt>
      <trkpt lat="47.32141" lon="-1.36618">
        <ele>134</ele>
        <time>2014-09-07T09:24:24.000Z</time>
      </trkpt>
      <trkpt lat="47.3213" lon="-1.36613">
        <ele>134</ele>
        <time>2014-09-07T09:24:26.000Z</time>
      </trkpt>
      <trkpt lat="47.32117" lon="-1.36604">
        <ele>130</ele>
        <time>2014-09-07T09:24:32.000Z</time>
      </trkpt>
      <trkpt lat="47.32119" lon="-1.36597">
        <ele>129</ele>
        <time>2014-09-07T09:24:36.000Z</time>
      </trkpt>
      <trkpt lat="47.3212" lon="-1.36595">
        <ele>129</ele>
        <time>2014-09-07T09:24:38.000Z</time>
      </trkpt>
      <trkpt lat="47.32117" lon="-1.36601">
        <ele>128</ele>
        <time>2014-09-07T09:24:40.000Z</time>
      </trkpt>
      <trkpt lat="47.32114" lon="-1.36605">
        <ele>128</ele>
        <time>2014-09-07T09:24:42.000Z</time>
      </trkpt>
      <trkpt lat="47.32113" lon="-1.36612">
        <ele>127</ele>
        <time>2014-09-07T09:24:44.000Z</time>
      </trkpt>
      <trkpt lat="47.32111" lon="-1.36617">
        <ele>127</ele>
        <time>2014-09-07T09:24:46.000Z</time>
      </trkpt>
      <trkpt lat="47.3211" lon="-1.36622">
        <ele>127</ele>
        <time>2014-09-07T09:24:48.000Z</time>
      </trkpt>
      <trkpt lat="47.32107" lon="-1.36635">
        <ele>126</ele>
        <time>2014-09-07T09:24:52.000Z</time>
      </trkpt>
      <trkpt lat="47.32107" lon="-1.36644">
        <ele>126</ele>
        <time>2014-09-07T09:24:54.000Z</time>
      </trkpt>
      <trkpt lat="47.32107" lon="-1.36651">
        <ele>126</ele>
        <time>2014-09-07T09:24:56.000Z</time>
      </trkpt>
      <trkpt lat="47.32106" lon="-1.36658">
        <ele>125</ele>
        <time>2014-09-07T09:24:58.000Z</time>
      </trkpt>
      <trkpt lat="47.32104" lon="-1.36664">
        <ele>125</ele>
        <time>2014-09-07T09:25:00.000Z</time>
      </trkpt>
      <trkpt lat="47.32103" lon="-1.3667">
        <ele>124</ele>
        <time>2014-09-07T09:25:02.000Z</time>
      </trkpt>
      <trkpt lat="47.32102" lon="-1.36678">
        <ele>123</ele>
        <time>2014-09-07T09:25:04.000Z</time>
      </trkpt>
      <trkpt lat="47.32104" lon="-1.36685">
        <ele>123</ele>
        <time>2014-09-07T09:25:06.000Z</time>
      </trkpt>
      <trkpt lat="47.32105" lon="-1.36689">
        <ele>123</ele>
        <time>2014-09-07T09:25:08.000Z</time>
      </trkpt>
      <trkpt lat="47.32109" lon="-1.36696">
        <ele>123</ele>
        <time>2014-09-07T09:25:10.000Z</time>
      </trkpt>
      <trkpt lat="47.32111" lon="-1.36708">
        <ele>122</ele>
        <time>2014-09-07T09:25:14.000Z</time>
      </trkpt>
      <trkpt lat="47.32111" lon="-1.36714">
        <ele>122</ele>
        <time>2014-09-07T09:25:16.000Z</time>
      </trkpt>
      <trkpt lat="47.32109" lon="-1.36722">
        <ele>122</ele>
        <time>2014-09-07T09:25:18.000Z</time>
      </trkpt>
      <trkpt lat="47.32108" lon="-1.36729">
        <ele>122</ele>
        <time>2014-09-07T09:25:20.000Z</time>
      </trkpt>
      <trkpt lat="47.32106" lon="-1.36735">
        <ele>121</ele>
        <time>2014-09-07T09:25:22.000Z</time>
      </trkpt>
      <trkpt lat="47.32102" lon="-1.36741">
        <ele>121</ele>
        <time>2014-09-07T09:25:24.000Z</time>
      </trkpt>
      <trkpt lat="47.32101" lon="-1.36744">
        <ele>122</ele>
        <time>2014-09-07T09:25:26.000Z</time>
      </trkpt>
      <trkpt lat="47.321" lon="-1.36752">
        <ele>121</ele>
        <time>2014-09-07T09:25:28.000Z</time>
      </trkpt>
      <trkpt lat="47.32096" lon="-1.36761">
        <ele>121</ele>
        <time>2014-09-07T09:25:32.000Z</time>
      </trkpt>
      <trkpt lat="47.32098" lon="-1.36765">
        <ele>122</ele>
        <time>2014-09-07T09:25:34.000Z</time>
      </trkpt>
      <trkpt lat="47.32098" lon="-1.36768">
        <ele>122</ele>
        <time>2014-09-07T09:25:36.000Z</time>
      </trkpt>
      <trkpt lat="47.32098" lon="-1.36782">
        <ele>122</ele>
        <time>2014-09-07T09:25:40.000Z</time>
      </trkpt>
      <trkpt lat="47.32098" lon="-1.36785">
        <ele>123</ele>
        <time>2014-09-07T09:25:42.000Z</time>
      </trkpt>
      <trkpt lat="47.32097" lon="-1.36787">
        <ele>123</ele>
        <time>2014-09-07T09:25:44.000Z</time>
      </trkpt>
      <trkpt lat="47.32099" lon="-1.36793">
        <ele>122</ele>
        <time>2014-09-07T09:25:46.000Z</time>
      </trkpt>
      <trkpt lat="47.32102" lon="-1.36799">
        <ele>122</ele>
        <time>2014-09-07T09:25:48.000Z</time>
      </trkpt>
      <trkpt lat="47.32104" lon="-1.36805">
        <ele>122</ele>
        <time>2014-09-07T09:25:50.000Z</time>
      </trkpt>
      <trkpt lat="47.32104" lon="-1.36811">
        <ele>122</ele>
        <time>2014-09-07T09:25:52.000Z</time>
      </trkpt>
      <trkpt lat="47.32105" lon="-1.36818">
        <ele>122</ele>
        <time>2014-09-07T09:25:54.000Z</time>
      </trkpt>
      <trkpt lat="47.32111" lon="-1.36849">
        <ele>123</ele>
        <time>2014-09-07T09:26:02.000Z</time>
      </trkpt>
      <trkpt lat="47.32111" lon="-1.36853">
        <ele>123</ele>
        <time>2014-09-07T09:26:04.000Z</time>
      </trkpt>
      <trkpt lat="47.32109" lon="-1.36859">
        <ele>123</ele>
        <time>2014-09-07T09:26:06.000Z</time>
      </trkpt>
      <trkpt lat="47.32108" lon="-1.36865">
        <ele>123</ele>
        <time>2014-09-07T09:26:08.000Z</time>
      </trkpt>
      <trkpt lat="47.32108" lon="-1.36872">
        <ele>123</ele>
        <time>2014-09-07T09:26:10.000Z</time>
      </trkpt>
      <trkpt lat="47.32108" lon="-1.36878">
        <ele>124</ele>
        <time>2014-09-07T09:26:12.000Z</time>
      </trkpt>
      <trkpt lat="47.32107" lon="-1.36885">
        <ele>125</ele>
        <time>2014-09-07T09:26:14.000Z</time>
      </trkpt>
      <trkpt lat="47.32109" lon="-1.3689">
        <ele>125</ele>
        <time>2014-09-07T09:26:16.000Z</time>
      </trkpt>
      <trkpt lat="47.32111" lon="-1.36895">
        <ele>126</ele>
        <time>2014-09-07T09:26:18.000Z</time>
      </trkpt>
      <trkpt lat="47.32113" lon="-1.36898">
        <ele>127</ele>
        <time>2014-09-07T09:26:20.000Z</time>
      </trkpt>
      <trkpt lat="47.32115" lon="-1.369">
        <ele>127</ele>
        <time>2014-09-07T09:26:22.000Z</time>
      </trkpt>
      <trkpt lat="47.32118" lon="-1.36904">
        <ele>128</ele>
        <time>2014-09-07T09:26:24.000Z</time>
      </trkpt>
      <trkpt lat="47.32122" lon="-1.36909">
        <ele>129</ele>
        <time>2014-09-07T09:26:26.000Z</time>
      </trkpt>
      <trkpt lat="47.32128" lon="-1.36919">
        <ele>129</ele>
        <time>2014-09-07T09:26:30.000Z</time>
      </trkpt>
      <trkpt lat="47.32127" lon="-1.36922">
        <ele>130</ele>
        <time>2014-09-07T09:26:32.000Z</time>
      </trkpt>
      <trkpt lat="47.3213" lon="-1.36926">
        <ele>130</ele>
        <time>2014-09-07T09:26:34.000Z</time>
      </trkpt>
      <trkpt lat="47.32132" lon="-1.36929">
        <ele>130</ele>
        <time>2014-09-07T09:26:36.000Z</time>
      </trkpt>
      <trkpt lat="47.32142" lon="-1.36941">
        <ele>130</ele>
        <time>2014-09-07T09:26:42.000Z</time>
      </trkpt>
      <trkpt lat="47.32146" lon="-1.36944">
        <ele>131</ele>
        <time>2014-09-07T09:26:44.000Z</time>
      </trkpt>
      <trkpt lat="47.3215" lon="-1.36947">
        <ele>131</ele>
        <time>2014-09-07T09:26:46.000Z</time>
      </trkpt>
      <trkpt lat="47.3218" lon="-1.36975">
        <ele>130</ele>
        <time>2014-09-07T09:26:58.000Z</time>
      </trkpt>
      <trkpt lat="47.32189" lon="-1.36989">
        <ele>130</ele>
        <time>2014-09-07T09:27:02.000Z</time>
      </trkpt>
      <trkpt lat="47.32198" lon="-1.36999">
        <ele>129</ele>
        <time>2014-09-07T09:27:06.000Z</time>
      </trkpt>
      <trkpt lat="47.32212" lon="-1.37014">
        <ele>128</ele>
        <time>2014-09-07T09:27:12.000Z</time>
      </trkpt>
      <trkpt lat="47.32224" lon="-1.37033">
        <ele>128</ele>
        <time>2014-09-07T09:27:18.000Z</time>
      </trkpt>
      <trkpt lat="47.32226" lon="-1.37038">
        <ele>129</ele>
        <time>2014-09-07T09:27:20.000Z</time>
      </trkpt>
      <trkpt lat="47.32229" lon="-1.37044">
        <ele>130</ele>
        <time>2014-09-07T09:27:22.000Z</time>
      </trkpt>
      <trkpt lat="47.32232" lon="-1.37048">
        <ele>130</ele>
        <time>2014-09-07T09:27:24.000Z</time>
      </trkpt>
      <trkpt lat="47.32236" lon="-1.37054">
        <ele>130</ele>
        <time>2014-09-07T09:27:26.000Z</time>
      </trkpt>
      <trkpt lat="47.32242" lon="-1.37063">
        <ele>129</ele>
        <time>2014-09-07T09:27:28.000Z</time>
      </trkpt>
      <trkpt lat="47.32247" lon="-1.37074">
        <ele>129</ele>
        <time>2014-09-07T09:27:32.000Z</time>
      </trkpt>
      <trkpt lat="47.32248" lon="-1.37081">
        <ele>129</ele>
        <time>2014-09-07T09:27:34.000Z</time>
      </trkpt>
      <trkpt lat="47.3225" lon="-1.37087">
        <ele>129</ele>
        <time>2014-09-07T09:27:36.000Z</time>
      </trkpt>
      <trkpt lat="47.32257" lon="-1.37099">
        <ele>130</ele>
        <time>2014-09-07T09:27:40.000Z</time>
      </trkpt>
      <trkpt lat="47.32263" lon="-1.37117">
        <ele>130</ele>
        <time>2014-09-07T09:27:44.000Z</time>
      </trkpt>
      <trkpt lat="47.32268" lon="-1.37136">
        <ele>130</ele>
        <time>2014-09-07T09:27:48.000Z</time>
      </trkpt>
      <trkpt lat="47.32279" lon="-1.3716">
        <ele>129</ele>
        <time>2014-09-07T09:27:52.000Z</time>
      </trkpt>
      <trkpt lat="47.32284" lon="-1.3717">
        <ele>129</ele>
        <time>2014-09-07T09:27:54.000Z</time>
      </trkpt>
      <trkpt lat="47.3231" lon="-1.37211">
        <ele>130</ele>
        <time>2014-09-07T09:28:02.000Z</time>
      </trkpt>
      <trkpt lat="47.32313" lon="-1.37224">
        <ele>131</ele>
        <time>2014-09-07T09:28:05.000Z</time>
      </trkpt>
      <trkpt lat="47.32308" lon="-1.37235">
        <ele>131</ele>
        <time>2014-09-07T09:28:06.000Z</time>
      </trkpt>
      <trkpt lat="47.32299" lon="-1.37246">
        <ele>132</ele>
        <time>2014-09-07T09:28:08.000Z</time>
      </trkpt>
      <trkpt lat="47.32257" lon="-1.37281">
        <ele>132</ele>
        <time>2014-09-07T09:28:16.000Z</time>
      </trkpt>
      <trkpt lat="47.32246" lon="-1.3729">
        <ele>131</ele>
        <time>2014-09-07T09:28:18.000Z</time>
      </trkpt>
      <trkpt lat="47.32222" lon="-1.3731">
        <ele>132</ele>
        <time>2014-09-07T09:28:22.000Z</time>
      </trkpt>
      <trkpt lat="47.32198" lon="-1.37334">
        <ele>132</ele>
        <time>2014-09-07T09:28:26.000Z</time>
      </trkpt>
      <trkpt lat="47.32168" lon="-1.37372">
        <ele>133</ele>
        <time>2014-09-07T09:28:32.000Z</time>
      </trkpt>
      <trkpt lat="47.32159" lon="-1.37384">
        <ele>134</ele>
        <time>2014-09-07T09:28:34.000Z</time>
      </trkpt>
      <trkpt lat="47.32141" lon="-1.37404">
        <ele>135</ele>
        <time>2014-09-07T09:28:38.000Z</time>
      </trkpt>
      <trkpt lat="47.32117" lon="-1.37429">
        <ele>135</ele>
        <time>2014-09-07T09:28:44.000Z</time>
      </trkpt>
      <trkpt lat="47.32103" lon="-1.37447">
        <ele>134</ele>
        <time>2014-09-07T09:28:48.000Z</time>
      </trkpt>
      <trkpt lat="47.32086" lon="-1.37464">
        <ele>135</ele>
        <time>2014-09-07T09:28:52.000Z</time>
      </trkpt>
      <trkpt lat="47.32059" lon="-1.37495">
        <ele>136</ele>
        <time>2014-09-07T09:29:00.000Z</time>
      </trkpt>
      <trkpt lat="47.3205" lon="-1.37499">
        <ele>137</ele>
        <time>2014-09-07T09:29:02.000Z</time>
      </trkpt>
      <trkpt lat="47.32041" lon="-1.37502">
        <ele>138</ele>
        <time>2014-09-07T09:29:04.000Z</time>
      </trkpt>
      <trkpt lat="47.32033" lon="-1.37504">
        <ele>139</ele>
        <time>2014-09-07T09:29:06.000Z</time>
      </trkpt>
      <trkpt lat="47.32022" lon="-1.37507">
        <ele>141</ele>
        <time>2014-09-07T09:29:10.000Z</time>
      </trkpt>
      <trkpt lat="47.32017" lon="-1.3751">
        <ele>143</ele>
        <time>2014-09-07T09:29:12.000Z</time>
      </trkpt>
      <trkpt lat="47.3201" lon="-1.37513">
        <ele>144</ele>
        <time>2014-09-07T09:29:14.000Z</time>
      </trkpt>
      <trkpt lat="47.31989" lon="-1.37515">
        <ele>143</ele>
        <time>2014-09-07T09:29:18.000Z</time>
      </trkpt>
      <trkpt lat="47.3197" lon="-1.37516">
        <ele>142</ele>
        <time>2014-09-07T09:29:22.000Z</time>
      </trkpt>
      <trkpt lat="47.31948" lon="-1.37517">
        <ele>141</ele>
        <time>2014-09-07T09:29:26.000Z</time>
      </trkpt>
      <trkpt lat="47.31938" lon="-1.37521">
        <ele>140</ele>
        <time>2014-09-07T09:29:28.000Z</time>
      </trkpt>
      <trkpt lat="47.31928" lon="-1.37531">
        <ele>142</ele>
        <time>2014-09-07T09:29:30.000Z</time>
      </trkpt>
      <trkpt lat="47.31923" lon="-1.37542">
        <ele>142</ele>
        <time>2014-09-07T09:29:32.000Z</time>
      </trkpt>
      <trkpt lat="47.31924" lon="-1.37555">
        <ele>143</ele>
        <time>2014-09-07T09:29:34.000Z</time>
      </trkpt>
      <trkpt lat="47.31926" lon="-1.37567">
        <ele>143</ele>
        <time>2014-09-07T09:29:36.000Z</time>
      </trkpt>
      <trkpt lat="47.31929" lon="-1.37576">
        <ele>144</ele>
        <time>2014-09-07T09:29:38.000Z</time>
      </trkpt>
      <trkpt lat="47.3193" lon="-1.37589">
        <ele>144</ele>
        <time>2014-09-07T09:29:40.000Z</time>
      </trkpt>
      <trkpt lat="47.31933" lon="-1.37604">
        <ele>144</ele>
        <time>2014-09-07T09:29:42.000Z</time>
      </trkpt>
      <trkpt lat="47.31935" lon="-1.37617">
        <ele>144</ele>
        <time>2014-09-07T09:29:44.000Z</time>
      </trkpt>
      <trkpt lat="47.31937" lon="-1.37631">
        <ele>143</ele>
        <time>2014-09-07T09:29:46.000Z</time>
      </trkpt>
      <trkpt lat="47.31941" lon="-1.3766">
        <ele>142</ele>
        <time>2014-09-07T09:29:50.000Z</time>
      </trkpt>
      <trkpt lat="47.31942" lon="-1.37677">
        <ele>143</ele>
        <time>2014-09-07T09:29:52.000Z</time>
      </trkpt>
      <trkpt lat="47.31947" lon="-1.37691">
        <ele>146</ele>
        <time>2014-09-07T09:29:54.000Z</time>
      </trkpt>
      <trkpt lat="47.31949" lon="-1.37708">
        <ele>146</ele>
        <time>2014-09-07T09:29:56.000Z</time>
      </trkpt>
      <trkpt lat="47.31951" lon="-1.37724">
        <ele>147</ele>
        <time>2014-09-07T09:29:58.000Z</time>
      </trkpt>
      <trkpt lat="47.31958" lon="-1.37756">
        <ele>147</ele>
        <time>2014-09-07T09:30:02.000Z</time>
      </trkpt>
      <trkpt lat="47.31965" lon="-1.37787">
        <ele>148</ele>
        <time>2014-09-07T09:30:06.000Z</time>
      </trkpt>
      <trkpt lat="47.31973" lon="-1.37821">
        <ele>147</ele>
        <time>2014-09-07T09:30:10.000Z</time>
      </trkpt>
      <trkpt lat="47.31974" lon="-1.37837">
        <ele>148</ele>
        <time>2014-09-07T09:30:12.000Z</time>
      </trkpt>
      <trkpt lat="47.31978" lon="-1.37854">
        <ele>147</ele>
        <time>2014-09-07T09:30:14.000Z</time>
      </trkpt>
      <trkpt lat="47.31984" lon="-1.37871">
        <ele>148</ele>
        <time>2014-09-07T09:30:16.000Z</time>
      </trkpt>
      <trkpt lat="47.31997" lon="-1.37907">
        <ele>148</ele>
        <time>2014-09-07T09:30:20.000Z</time>
      </trkpt>
      <trkpt lat="47.32013" lon="-1.37937">
        <ele>146</ele>
        <time>2014-09-07T09:30:24.000Z</time>
      </trkpt>
      <trkpt lat="47.32021" lon="-1.37948">
        <ele>145</ele>
        <time>2014-09-07T09:30:26.000Z</time>
      </trkpt>
      <trkpt lat="47.32029" lon="-1.3796">
        <ele>145</ele>
        <time>2014-09-07T09:30:28.000Z</time>
      </trkpt>
      <trkpt lat="47.32032" lon="-1.37976">
        <ele>144</ele>
        <time>2014-09-07T09:30:30.000Z</time>
      </trkpt>
      <trkpt lat="47.3203" lon="-1.37993">
        <ele>144</ele>
        <time>2014-09-07T09:30:32.000Z</time>
      </trkpt>
      <trkpt lat="47.3203" lon="-1.3801">
        <ele>144</ele>
        <time>2014-09-07T09:30:34.000Z</time>
      </trkpt>
      <trkpt lat="47.32033" lon="-1.38023">
        <ele>146</ele>
        <time>2014-09-07T09:30:36.000Z</time>
      </trkpt>
      <trkpt lat="47.32038" lon="-1.38036">
        <ele>147</ele>
        <time>2014-09-07T09:30:38.000Z</time>
      </trkpt>
      <trkpt lat="47.32036" lon="-1.38052">
        <ele>149</ele>
        <time>2014-09-07T09:30:40.000Z</time>
      </trkpt>
      <trkpt lat="47.32029" lon="-1.3807">
        <ele>150</ele>
        <time>2014-09-07T09:30:42.000Z</time>
      </trkpt>
      <trkpt lat="47.32024" lon="-1.38086">
        <ele>149</ele>
        <time>2014-09-07T09:30:44.000Z</time>
      </trkpt>
      <trkpt lat="47.32022" lon="-1.381">
        <ele>150</ele>
        <time>2014-09-07T09:30:46.000Z</time>
      </trkpt>
      <trkpt lat="47.32021" lon="-1.38116">
        <ele>149</ele>
        <time>2014-09-07T09:30:48.000Z</time>
      </trkpt>
      <trkpt lat="47.32019" lon="-1.3813">
        <ele>149</ele>
        <time>2014-09-07T09:30:50.000Z</time>
      </trkpt>
      <trkpt lat="47.32026" lon="-1.38136">
        <ele>152</ele>
        <time>2014-09-07T09:30:52.000Z</time>
      </trkpt>
      <trkpt lat="47.32025" lon="-1.38146">
        <ele>153</ele>
        <time>2014-09-07T09:30:54.000Z</time>
      </trkpt>
      <trkpt lat="47.32018" lon="-1.38155">
        <ele>152</ele>
        <time>2014-09-07T09:30:56.000Z</time>
      </trkpt>
      <trkpt lat="47.32017" lon="-1.38153">
        <ele>152</ele>
        <time>2014-09-07T09:30:58.000Z</time>
      </trkpt>
      <trkpt lat="47.32016" lon="-1.38147">
        <ele>152</ele>
        <time>2014-09-07T09:31:00.000Z</time>
      </trkpt>
      <trkpt lat="47.32016" lon="-1.3814">
        <ele>152</ele>
        <time>2014-09-07T09:31:02.000Z</time>
      </trkpt>
      <trkpt lat="47.32015" lon="-1.38115">
        <ele>152</ele>
        <time>2014-09-07T09:31:06.000Z</time>
      </trkpt>
      <trkpt lat="47.32011" lon="-1.38099">
        <ele>151</ele>
        <time>2014-09-07T09:31:08.000Z</time>
      </trkpt>
      <trkpt lat="47.32013" lon="-1.38084">
        <ele>151</ele>
        <time>2014-09-07T09:31:10.000Z</time>
      </trkpt>
      <trkpt lat="47.32021" lon="-1.38071">
        <ele>149</ele>
        <time>2014-09-07T09:31:12.000Z</time>
      </trkpt>
      <trkpt lat="47.32026" lon="-1.38053">
        <ele>148</ele>
        <time>2014-09-07T09:31:16.000Z</time>
      </trkpt>
      <trkpt lat="47.32029" lon="-1.38053">
        <ele>148</ele>
        <time>2014-09-07T09:31:18.000Z</time>
      </trkpt>
      <trkpt lat="47.32032" lon="-1.38051">
        <ele>148</ele>
        <time>2014-09-07T09:31:22.000Z</time>
      </trkpt>
      <trkpt lat="47.32035" lon="-1.38043">
        <ele>147</ele>
        <time>2014-09-07T09:31:24.000Z</time>
      </trkpt>
      <trkpt lat="47.32036" lon="-1.38036">
        <ele>148</ele>
        <time>2014-09-07T09:31:26.000Z</time>
      </trkpt>
      <trkpt lat="47.32037" lon="-1.38027">
        <ele>148</ele>
        <time>2014-09-07T09:31:28.000Z</time>
      </trkpt>
      <trkpt lat="47.32037" lon="-1.38015">
        <ele>149</ele>
        <time>2014-09-07T09:31:30.000Z</time>
      </trkpt>
      <trkpt lat="47.32037" lon="-1.38006">
        <ele>148</ele>
        <time>2014-09-07T09:31:32.000Z</time>
      </trkpt>
      <trkpt lat="47.32038" lon="-1.37999">
        <ele>147</ele>
        <time>2014-09-07T09:31:34.000Z</time>
      </trkpt>
      <trkpt lat="47.32043" lon="-1.37973">
        <ele>147</ele>
        <time>2014-09-07T09:31:40.000Z</time>
      </trkpt>
      <trkpt lat="47.32045" lon="-1.37963">
        <ele>146</ele>
        <time>2014-09-07T09:31:42.000Z</time>
      </trkpt>
      <trkpt lat="47.32052" lon="-1.37947">
        <ele>145</ele>
        <time>2014-09-07T09:31:46.000Z</time>
      </trkpt>
      <trkpt lat="47.32058" lon="-1.3794">
        <ele>145</ele>
        <time>2014-09-07T09:31:48.000Z</time>
      </trkpt>
      <trkpt lat="47.32072" lon="-1.37925">
        <ele>144</ele>
        <time>2014-09-07T09:31:52.000Z</time>
      </trkpt>
      <trkpt lat="47.32087" lon="-1.37913">
        <ele>143</ele>
        <time>2014-09-07T09:31:56.000Z</time>
      </trkpt>
      <trkpt lat="47.32096" lon="-1.37914">
        <ele>143</ele>
        <time>2014-09-07T09:31:58.000Z</time>
      </trkpt>
      <trkpt lat="47.32103" lon="-1.37926">
        <ele>143</ele>
        <time>2014-09-07T09:32:00.000Z</time>
      </trkpt>
      <trkpt lat="47.32117" lon="-1.37954">
        <ele>143</ele>
        <time>2014-09-07T09:32:06.000Z</time>
      </trkpt>
      <trkpt lat="47.32122" lon="-1.37962">
        <ele>144</ele>
        <time>2014-09-07T09:32:08.000Z</time>
      </trkpt>
      <trkpt lat="47.32128" lon="-1.37973">
        <ele>143</ele>
        <time>2014-09-07T09:32:10.000Z</time>
      </trkpt>
      <trkpt lat="47.32132" lon="-1.37983">
        <ele>144</ele>
        <time>2014-09-07T09:32:12.000Z</time>
      </trkpt>
      <trkpt lat="47.32138" lon="-1.37993">
        <ele>143</ele>
        <time>2014-09-07T09:32:14.000Z</time>
      </trkpt>
      <trkpt lat="47.32141" lon="-1.38002">
        <ele>144</ele>
        <time>2014-09-07T09:32:16.000Z</time>
      </trkpt>
      <trkpt lat="47.32146" lon="-1.3801">
        <ele>144</ele>
        <time>2014-09-07T09:32:18.000Z</time>
      </trkpt>
      <trkpt lat="47.32151" lon="-1.38016">
        <ele>143</ele>
        <time>2014-09-07T09:32:20.000Z</time>
      </trkpt>
      <trkpt lat="47.32169" lon="-1.38044">
        <ele>142</ele>
        <time>2014-09-07T09:32:26.000Z</time>
      </trkpt>
      <trkpt lat="47.32179" lon="-1.38061">
        <ele>141</ele>
        <time>2014-09-07T09:32:30.000Z</time>
      </trkpt>
      <trkpt lat="47.32195" lon="-1.38087">
        <ele>140</ele>
        <time>2014-09-07T09:32:36.000Z</time>
      </trkpt>
      <trkpt lat="47.32201" lon="-1.38097">
        <ele>140</ele>
        <time>2014-09-07T09:32:38.000Z</time>
      </trkpt>
      <trkpt lat="47.32232" lon="-1.38149">
        <ele>140</ele>
        <time>2014-09-07T09:32:50.000Z</time>
      </trkpt>
      <trkpt lat="47.32251" lon="-1.38179">
        <ele>140</ele>
        <time>2014-09-07T09:32:58.000Z</time>
      </trkpt>
      <trkpt lat="47.32285" lon="-1.38226">
        <ele>141</ele>
        <time>2014-09-07T09:33:12.000Z</time>
      </trkpt>
      <trkpt lat="47.32303" lon="-1.38251">
        <ele>141</ele>
        <time>2014-09-07T09:33:20.000Z</time>
      </trkpt>
      <trkpt lat="47.32307" lon="-1.38252">
        <ele>142</ele>
        <time>2014-09-07T09:33:22.000Z</time>
      </trkpt>
      <trkpt lat="47.32311" lon="-1.38246">
        <ele>142</ele>
        <time>2014-09-07T09:33:24.000Z</time>
      </trkpt>
      <trkpt lat="47.32317" lon="-1.38234">
        <ele>142</ele>
        <time>2014-09-07T09:33:28.000Z</time>
      </trkpt>
      <trkpt lat="47.32317" lon="-1.38235">
        <ele>142</ele>
        <time>2014-09-07T09:33:32.000Z</time>
      </trkpt>
      <trkpt lat="47.32317" lon="-1.38234">
        <ele>142</ele>
        <time>2014-09-07T09:33:34.000Z</time>
      </trkpt>
      <trkpt lat="47.32316" lon="-1.38235">
        <ele>142</ele>
        <time>2014-09-07T09:33:36.000Z</time>
      </trkpt>
      <trkpt lat="47.32316" lon="-1.38235">
        <ele>142</ele>
        <time>2014-09-07T09:33:38.000Z</time>
      </trkpt>
      <trkpt lat="47.32316" lon="-1.38235">
        <ele>141</ele>
        <time>2014-09-07T09:33:40.000Z</time>
      </trkpt>
      <trkpt lat="47.32316" lon="-1.38235">
        <ele>141</ele>
        <time>2014-09-07T09:33:42.000Z</time>
      </trkpt>
      <trkpt lat="47.32316" lon="-1.38235">
        <ele>141</ele>
        <time>2014-09-07T09:33:44.000Z</time>
      </trkpt>
      <trkpt lat="47.32317" lon="-1.38234">
        <ele>141</ele>
        <time>2014-09-07T09:33:48.000Z</time>
      </trkpt>
      <trkpt lat="47.32319" lon="-1.38233">
        <ele>141</ele>
        <time>2014-09-07T09:33:50.000Z</time>
      </trkpt>
      <trkpt lat="47.32319" lon="-1.38233">
        <ele>141</ele>
        <time>2014-09-07T09:33:54.000Z</time>
      </trkpt>
      <trkpt lat="47.3232" lon="-1.38233">
        <ele>141</ele>
        <time>2014-09-07T09:33:56.000Z</time>
      </trkpt>
      <trkpt lat="47.3232" lon="-1.38234">
        <ele>141</ele>
        <time>2014-09-07T09:33:58.000Z</time>
      </trkpt>
      <trkpt lat="47.32323" lon="-1.3823">
        <ele>141</ele>
        <time>2014-09-07T09:34:02.000Z</time>
      </trkpt>
      <trkpt lat="47.32325" lon="-1.38227">
        <ele>141</ele>
        <time>2014-09-07T09:34:04.000Z</time>
      </trkpt>
      <trkpt lat="47.32325" lon="-1.38226">
        <ele>141</ele>
        <time>2014-09-07T09:34:06.000Z</time>
      </trkpt>
      <trkpt lat="47.32325" lon="-1.38226">
        <ele>141</ele>
        <time>2014-09-07T09:34:08.000Z</time>
      </trkpt>
      <trkpt lat="47.32324" lon="-1.38226">
        <ele>140</ele>
        <time>2014-09-07T09:34:10.000Z</time>
      </trkpt>
      <trkpt lat="47.32324" lon="-1.38226">
        <ele>140</ele>
        <time>2014-09-07T09:34:14.000Z</time>
      </trkpt>
      <trkpt lat="47.32324" lon="-1.38227">
        <ele>140</ele>
        <time>2014-09-07T09:34:16.000Z</time>
      </trkpt>
      <trkpt lat="47.32325" lon="-1.38227">
        <ele>140</ele>
        <time>2014-09-07T09:34:18.000Z</time>
      </trkpt>
      <trkpt lat="47.32327" lon="-1.38224">
        <ele>140</ele>
        <time>2014-09-07T09:34:20.000Z</time>
      </trkpt>
      <trkpt lat="47.32333" lon="-1.38217">
        <ele>139</ele>
        <time>2014-09-07T09:34:22.000Z</time>
      </trkpt>
      <trkpt lat="47.32363" lon="-1.38182">
        <ele>140</ele>
        <time>2014-09-07T09:34:30.000Z</time>
      </trkpt>
      <trkpt lat="47.32376" lon="-1.38167">
        <ele>139</ele>
        <time>2014-09-07T09:34:34.000Z</time>
      </trkpt>
      <trkpt lat="47.3239" lon="-1.38151">
        <ele>139</ele>
        <time>2014-09-07T09:34:38.000Z</time>
      </trkpt>
      <trkpt lat="47.32398" lon="-1.38149">
        <ele>139</ele>
        <time>2014-09-07T09:34:40.000Z</time>
      </trkpt>
      <trkpt lat="47.32407" lon="-1.3815">
        <ele>139</ele>
        <time>2014-09-07T09:34:42.000Z</time>
      </trkpt>
      <trkpt lat="47.3246" lon="-1.3816">
        <ele>139</ele>
        <time>2014-09-07T09:34:52.000Z</time>
      </trkpt>
      <trkpt lat="47.32479" lon="-1.38161">
        <ele>139</ele>
        <time>2014-09-07T09:34:56.000Z</time>
      </trkpt>
      <trkpt lat="47.32486" lon="-1.38161">
        <ele>139</ele>
        <time>2014-09-07T09:34:58.000Z</time>
      </trkpt>
      <trkpt lat="47.32487" lon="-1.38169">
        <ele>138</ele>
        <time>2014-09-07T09:35:02.000Z</time>
      </trkpt>
      <trkpt lat="47.32485" lon="-1.38176">
        <ele>138</ele>
        <time>2014-09-07T09:35:04.000Z</time>
      </trkpt>
      <trkpt lat="47.32486" lon="-1.38184">
        <ele>139</ele>
        <time>2014-09-07T09:35:06.000Z</time>
      </trkpt>
      <trkpt lat="47.32488" lon="-1.38193">
        <ele>139</ele>
        <time>2014-09-07T09:35:08.000Z</time>
      </trkpt>
      <trkpt lat="47.32489" lon="-1.38205">
        <ele>138</ele>
        <time>2014-09-07T09:35:10.000Z</time>
      </trkpt>
      <trkpt lat="47.32491" lon="-1.38215">
        <ele>138</ele>
        <time>2014-09-07T09:35:12.000Z</time>
      </trkpt>
      <trkpt lat="47.32499" lon="-1.38259">
        <ele>138</ele>
        <time>2014-09-07T09:35:20.000Z</time>
      </trkpt>
      <trkpt lat="47.32502" lon="-1.38282">
        <ele>139</ele>
        <time>2014-09-07T09:35:24.000Z</time>
      </trkpt>
      <trkpt lat="47.32515" lon="-1.38347">
        <ele>140</ele>
        <time>2014-09-07T09:35:36.000Z</time>
      </trkpt>
      <trkpt lat="47.32519" lon="-1.38366">
        <ele>141</ele>
        <time>2014-09-07T09:35:40.000Z</time>
      </trkpt>
      <trkpt lat="47.32521" lon="-1.38376">
        <ele>141</ele>
        <time>2014-09-07T09:35:42.000Z</time>
      </trkpt>
      <trkpt lat="47.32531" lon="-1.38422">
        <ele>142</ele>
        <time>2014-09-07T09:35:50.000Z</time>
      </trkpt>
      <trkpt lat="47.32543" lon="-1.38486">
        <ele>142</ele>
        <time>2014-09-07T09:36:00.000Z</time>
      </trkpt>
      <trkpt lat="47.32554" lon="-1.38531">
        <ele>141</ele>
        <time>2014-09-07T09:36:06.000Z</time>
      </trkpt>
      <trkpt lat="47.32557" lon="-1.38545">
        <ele>140</ele>
        <time>2014-09-07T09:36:08.000Z</time>
      </trkpt>
      <trkpt lat="47.32563" lon="-1.38571">
        <ele>139</ele>
        <time>2014-09-07T09:36:12.000Z</time>
      </trkpt>
      <trkpt lat="47.32563" lon="-1.38582">
        <ele>137</ele>
        <time>2014-09-07T09:36:14.000Z</time>
      </trkpt>
      <trkpt lat="47.32554" lon="-1.38589">
        <ele>137</ele>
        <time>2014-09-07T09:36:16.000Z</time>
      </trkpt>
      <trkpt lat="47.32524" lon="-1.38603">
        <ele>137</ele>
        <time>2014-09-07T09:36:22.000Z</time>
      </trkpt>
      <trkpt lat="47.32475" lon="-1.38628">
        <ele>137</ele>
        <time>2014-09-07T09:36:32.000Z</time>
      </trkpt>
      <trkpt lat="47.32438" lon="-1.38648">
        <ele>137</ele>
        <time>2014-09-07T09:36:40.000Z</time>
      </trkpt>
      <trkpt lat="47.32433" lon="-1.38662">
        <ele>137</ele>
        <time>2014-09-07T09:36:42.000Z</time>
      </trkpt>
      <trkpt lat="47.32438" lon="-1.38678">
        <ele>137</ele>
        <time>2014-09-07T09:36:44.000Z</time>
      </trkpt>
      <trkpt lat="47.32444" lon="-1.38715">
        <ele>136</ele>
        <time>2014-09-07T09:36:50.000Z</time>
      </trkpt>
      <trkpt lat="47.32449" lon="-1.38736">
        <ele>136</ele>
        <time>2014-09-07T09:36:54.000Z</time>
      </trkpt>
      <trkpt lat="47.3246" lon="-1.38791">
        <ele>136</ele>
        <time>2014-09-07T09:37:04.000Z</time>
      </trkpt>
      <trkpt lat="47.32462" lon="-1.38801">
        <ele>136</ele>
        <time>2014-09-07T09:37:06.000Z</time>
      </trkpt>
      <trkpt lat="47.32467" lon="-1.38821">
        <ele>135</ele>
        <time>2014-09-07T09:37:10.000Z</time>
      </trkpt>
      <trkpt lat="47.32471" lon="-1.38835">
        <ele>134</ele>
        <time>2014-09-07T09:37:12.000Z</time>
      </trkpt>
      <trkpt lat="47.32475" lon="-1.38849">
        <ele>133</ele>
        <time>2014-09-07T09:37:14.000Z</time>
      </trkpt>
      <trkpt lat="47.32477" lon="-1.38863">
        <ele>132</ele>
        <time>2014-09-07T09:37:16.000Z</time>
      </trkpt>
      <trkpt lat="47.3248" lon="-1.38874">
        <ele>133</ele>
        <time>2014-09-07T09:37:18.000Z</time>
      </trkpt>
      <trkpt lat="47.32482" lon="-1.38885">
        <ele>132</ele>
        <time>2014-09-07T09:37:20.000Z</time>
      </trkpt>
      <trkpt lat="47.32488" lon="-1.38908">
        <ele>133</ele>
        <time>2014-09-07T09:37:24.000Z</time>
      </trkpt>
      <trkpt lat="47.3249" lon="-1.38919">
        <ele>133</ele>
        <time>2014-09-07T09:37:26.000Z</time>
      </trkpt>
      <trkpt lat="47.32492" lon="-1.38952">
        <ele>133</ele>
        <time>2014-09-07T09:37:32.000Z</time>
      </trkpt>
      <trkpt lat="47.32491" lon="-1.38959">
        <ele>134</ele>
        <time>2014-09-07T09:37:34.000Z</time>
      </trkpt>
      <trkpt lat="47.32489" lon="-1.38963">
        <ele>133</ele>
        <time>2014-09-07T09:37:36.000Z</time>
      </trkpt>
      <trkpt lat="47.32488" lon="-1.38966">
        <ele>134</ele>
        <time>2014-09-07T09:37:38.000Z</time>
      </trkpt>
      <trkpt lat="47.32489" lon="-1.38972">
        <ele>134</ele>
        <time>2014-09-07T09:37:40.000Z</time>
      </trkpt>
      <trkpt lat="47.32491" lon="-1.38978">
        <ele>133</ele>
        <time>2014-09-07T09:37:42.000Z</time>
      </trkpt>
      <trkpt lat="47.32493" lon="-1.3898">
        <ele>133</ele>
        <time>2014-09-07T09:37:44.000Z</time>
      </trkpt>
      <trkpt lat="47.32497" lon="-1.38979">
        <ele>133</ele>
        <time>2014-09-07T09:37:46.000Z</time>
      </trkpt>
      <trkpt lat="47.325" lon="-1.38977">
        <ele>133</ele>
        <time>2014-09-07T09:37:48.000Z</time>
      </trkpt>
      <trkpt lat="47.32505" lon="-1.38973">
        <ele>133</ele>
        <time>2014-09-07T09:37:50.000Z</time>
      </trkpt>
      <trkpt lat="47.32511" lon="-1.38968">
        <ele>135</ele>
        <time>2014-09-07T09:37:52.000Z</time>
      </trkpt>
      <trkpt lat="47.32524" lon="-1.38959">
        <ele>135</ele>
        <time>2014-09-07T09:37:56.000Z</time>
      </trkpt>
      <trkpt lat="47.32546" lon="-1.38944">
        <ele>137</ele>
        <time>2014-09-07T09:38:02.000Z</time>
      </trkpt>
      <trkpt lat="47.32552" lon="-1.38942">
        <ele>137</ele>
        <time>2014-09-07T09:38:04.000Z</time>
      </trkpt>
      <trkpt lat="47.32559" lon="-1.3894">
        <ele>138</ele>
        <time>2014-09-07T09:38:06.000Z</time>
      </trkpt>
      <trkpt lat="47.32573" lon="-1.38928">
        <ele>139</ele>
        <time>2014-09-07T09:38:10.000Z</time>
      </trkpt>
      <trkpt lat="47.32601" lon="-1.38909">
        <ele>139</ele>
        <time>2014-09-07T09:38:16.000Z</time>
      </trkpt>
      <trkpt lat="47.32613" lon="-1.38901">
        <ele>138</ele>
        <time>2014-09-07T09:38:18.000Z</time>
      </trkpt>
      <trkpt lat="47.32624" lon="-1.38889">
        <ele>137</ele>
        <time>2014-09-07T09:38:20.000Z</time>
      </trkpt>
      <trkpt lat="47.32635" lon="-1.38877">
        <ele>137</ele>
        <time>2014-09-07T09:38:22.000Z</time>
      </trkpt>
      <trkpt lat="47.32644" lon="-1.38866">
        <ele>136</ele>
        <time>2014-09-07T09:38:24.000Z</time>
      </trkpt>
      <trkpt lat="47.32651" lon="-1.38855">
        <ele>136</ele>
        <time>2014-09-07T09:38:26.000Z</time>
      </trkpt>
      <trkpt lat="47.32658" lon="-1.38845">
        <ele>135</ele>
        <time>2014-09-07T09:38:28.000Z</time>
      </trkpt>
      <trkpt lat="47.32665" lon="-1.38842">
        <ele>133</ele>
        <time>2014-09-07T09:38:30.000Z</time>
      </trkpt>
      <trkpt lat="47.32677" lon="-1.38828">
        <ele>132</ele>
        <time>2014-09-07T09:38:34.000Z</time>
      </trkpt>
      <trkpt lat="47.32683" lon="-1.38819">
        <ele>133</ele>
        <time>2014-09-07T09:38:36.000Z</time>
      </trkpt>
      <trkpt lat="47.32696" lon="-1.38804">
        <ele>134</ele>
        <time>2014-09-07T09:38:40.000Z</time>
      </trkpt>
      <trkpt lat="47.3272" lon="-1.38779">
        <ele>134</ele>
        <time>2014-09-07T09:38:48.000Z</time>
      </trkpt>
      <trkpt lat="47.32733" lon="-1.3877">
        <ele>135</ele>
        <time>2014-09-07T09:38:52.000Z</time>
      </trkpt>
      <trkpt lat="47.32739" lon="-1.38765">
        <ele>134</ele>
        <time>2014-09-07T09:38:54.000Z</time>
      </trkpt>
      <trkpt lat="47.32761" lon="-1.38744">
        <ele>135</ele>
        <time>2014-09-07T09:39:02.000Z</time>
      </trkpt>
      <trkpt lat="47.32772" lon="-1.38733">
        <ele>136</ele>
        <time>2014-09-07T09:39:06.000Z</time>
      </trkpt>
      <trkpt lat="47.32777" lon="-1.38727">
        <ele>136</ele>
        <time>2014-09-07T09:39:08.000Z</time>
      </trkpt>
      <trkpt lat="47.32783" lon="-1.38722">
        <ele>137</ele>
        <time>2014-09-07T09:39:10.000Z</time>
      </trkpt>
      <trkpt lat="47.32788" lon="-1.38717">
        <ele>136</ele>
        <time>2014-09-07T09:39:12.000Z</time>
      </trkpt>
      <trkpt lat="47.32804" lon="-1.38704">
        <ele>136</ele>
        <time>2014-09-07T09:39:18.000Z</time>
      </trkpt>
      <trkpt lat="47.32808" lon="-1.38707">
        <ele>136</ele>
        <time>2014-09-07T09:39:20.000Z</time>
      </trkpt>
      <trkpt lat="47.32817" lon="-1.38722">
        <ele>136</ele>
        <time>2014-09-07T09:39:24.000Z</time>
      </trkpt>
      <trkpt lat="47.3283" lon="-1.3875">
        <ele>135</ele>
        <time>2014-09-07T09:39:30.000Z</time>
      </trkpt>
      <trkpt lat="47.32835" lon="-1.3876">
        <ele>136</ele>
        <time>2014-09-07T09:39:32.000Z</time>
      </trkpt>
      <trkpt lat="47.32861" lon="-1.38823">
        <ele>135</ele>
        <time>2014-09-07T09:39:44.000Z</time>
      </trkpt>
      <trkpt lat="47.32866" lon="-1.38834">
        <ele>135</ele>
        <time>2014-09-07T09:39:46.000Z</time>
      </trkpt>
      <trkpt lat="47.32874" lon="-1.38837">
        <ele>134</ele>
        <time>2014-09-07T09:39:48.000Z</time>
      </trkpt>
      <trkpt lat="47.32882" lon="-1.38833">
        <ele>135</ele>
        <time>2014-09-07T09:39:50.000Z</time>
      </trkpt>
      <trkpt lat="47.32908" lon="-1.38821">
        <ele>136</ele>
        <time>2014-09-07T09:39:58.000Z</time>
      </trkpt>
      <trkpt lat="47.32927" lon="-1.38814">
        <ele>137</ele>
        <time>2014-09-07T09:40:02.000Z</time>
      </trkpt>
      <trkpt lat="47.32951" lon="-1.38806">
        <ele>138</ele>
        <time>2014-09-07T09:40:06.000Z</time>
      </trkpt>
      <trkpt lat="47.32964" lon="-1.38803">
        <ele>138</ele>
        <time>2014-09-07T09:40:08.000Z</time>
      </trkpt>
      <trkpt lat="47.32978" lon="-1.38806">
        <ele>138</ele>
        <time>2014-09-07T09:40:10.000Z</time>
      </trkpt>
      <trkpt lat="47.3303" lon="-1.38825">
        <ele>139</ele>
        <time>2014-09-07T09:40:18.000Z</time>
      </trkpt>
      <trkpt lat="47.33043" lon="-1.38831">
        <ele>138</ele>
        <time>2014-09-07T09:40:20.000Z</time>
      </trkpt>
      <trkpt lat="47.33059" lon="-1.38839">
        <ele>136</ele>
        <time>2014-09-07T09:40:22.000Z</time>
      </trkpt>
      <trkpt lat="47.33073" lon="-1.38845">
        <ele>135</ele>
        <time>2014-09-07T09:40:24.000Z</time>
      </trkpt>
      <trkpt lat="47.33104" lon="-1.38856">
        <ele>136</ele>
        <time>2014-09-07T09:40:28.000Z</time>
      </trkpt>
      <trkpt lat="47.33131" lon="-1.38868">
        <ele>136</ele>
        <time>2014-09-07T09:40:32.000Z</time>
      </trkpt>
      <trkpt lat="47.33155" lon="-1.38879">
        <ele>134</ele>
        <time>2014-09-07T09:40:36.000Z</time>
      </trkpt>
      <trkpt lat="47.33173" lon="-1.38891">
        <ele>133</ele>
        <time>2014-09-07T09:40:40.000Z</time>
      </trkpt>
      <trkpt lat="47.33177" lon="-1.38902">
        <ele>131</ele>
        <time>2014-09-07T09:40:42.000Z</time>
      </trkpt>
      <trkpt lat="47.33179" lon="-1.38912">
        <ele>130</ele>
        <time>2014-09-07T09:40:44.000Z</time>
      </trkpt>
      <trkpt lat="47.33182" lon="-1.38938">
        <ele>130</ele>
        <time>2014-09-07T09:40:48.000Z</time>
      </trkpt>
      <trkpt lat="47.33183" lon="-1.38954">
        <ele>129</ele>
        <time>2014-09-07T09:40:50.000Z</time>
      </trkpt>
      <trkpt lat="47.33181" lon="-1.38969">
        <ele>128</ele>
        <time>2014-09-07T09:40:52.000Z</time>
      </trkpt>
      <trkpt lat="47.33178" lon="-1.38984">
        <ele>127</ele>
        <time>2014-09-07T09:40:54.000Z</time>
      </trkpt>
      <trkpt lat="47.3316" lon="-1.39046">
        <ele>128</ele>
        <time>2014-09-07T09:41:02.000Z</time>
      </trkpt>
      <trkpt lat="47.33155" lon="-1.39063">
        <ele>129</ele>
        <time>2014-09-07T09:41:04.000Z</time>
      </trkpt>
      <trkpt lat="47.33138" lon="-1.3913">
        <ele>130</ele>
        <time>2014-09-07T09:41:12.000Z</time>
      </trkpt>
      <trkpt lat="47.3313" lon="-1.39163">
        <ele>129</ele>
        <time>2014-09-07T09:41:16.000Z</time>
      </trkpt>
      <trkpt lat="47.33125" lon="-1.39196">
        <ele>129</ele>
        <time>2014-09-07T09:41:20.000Z</time>
      </trkpt>
      <trkpt lat="47.33121" lon="-1.39229">
        <ele>128</ele>
        <time>2014-09-07T09:41:24.000Z</time>
      </trkpt>
      <trkpt lat="47.33114" lon="-1.39301">
        <ele>128</ele>
        <time>2014-09-07T09:41:34.000Z</time>
      </trkpt>
      <trkpt lat="47.33108" lon="-1.39307">
        <ele>127</ele>
        <time>2014-09-07T09:41:36.000Z</time>
      </trkpt>
      <trkpt lat="47.33101" lon="-1.39316">
        <ele>127</ele>
        <time>2014-09-07T09:41:38.000Z</time>
      </trkpt>
      <trkpt lat="47.33098" lon="-1.39332">
        <ele>127</ele>
        <time>2014-09-07T09:41:40.000Z</time>
      </trkpt>
      <trkpt lat="47.33092" lon="-1.39383">
        <ele>126</ele>
        <time>2014-09-07T09:41:46.000Z</time>
      </trkpt>
      <trkpt lat="47.33082" lon="-1.39441">
        <ele>126</ele>
        <time>2014-09-07T09:41:54.000Z</time>
      </trkpt>
      <trkpt lat="47.33096" lon="-1.39454">
        <ele>126</ele>
        <time>2014-09-07T09:41:58.000Z</time>
      </trkpt>
      <trkpt lat="47.33142" lon="-1.3947">
        <ele>126</ele>
        <time>2014-09-07T09:42:06.000Z</time>
      </trkpt>
      <trkpt lat="47.33176" lon="-1.39475">
        <ele>126</ele>
        <time>2014-09-07T09:42:12.000Z</time>
      </trkpt>
      <trkpt lat="47.33194" lon="-1.39476">
        <ele>127</ele>
        <time>2014-09-07T09:42:16.000Z</time>
      </trkpt>
      <trkpt lat="47.33224" lon="-1.3948">
        <ele>128</ele>
        <time>2014-09-07T09:42:22.000Z</time>
      </trkpt>
      <trkpt lat="47.33252" lon="-1.39486">
        <ele>128</ele>
        <time>2014-09-07T09:42:28.000Z</time>
      </trkpt>
      <trkpt lat="47.33277" lon="-1.39494">
        <ele>129</ele>
        <time>2014-09-07T09:42:34.000Z</time>
      </trkpt>
      <trkpt lat="47.33294" lon="-1.395">
        <ele>130</ele>
        <time>2014-09-07T09:42:38.000Z</time>
      </trkpt>
      <trkpt lat="47.33301" lon="-1.39504">
        <ele>131</ele>
        <time>2014-09-07T09:42:40.000Z</time>
      </trkpt>
      <trkpt lat="47.33316" lon="-1.39512">
        <ele>133</ele>
        <time>2014-09-07T09:42:44.000Z</time>
      </trkpt>
      <trkpt lat="47.33331" lon="-1.39521">
        <ele>134</ele>
        <time>2014-09-07T09:42:48.000Z</time>
      </trkpt>
      <trkpt lat="47.33352" lon="-1.39534">
        <ele>135</ele>
        <time>2014-09-07T09:42:54.000Z</time>
      </trkpt>
      <trkpt lat="47.33358" lon="-1.39538">
        <ele>136</ele>
        <time>2014-09-07T09:42:56.000Z</time>
      </trkpt>
      <trkpt lat="47.33364" lon="-1.39542">
        <ele>137</ele>
        <time>2014-09-07T09:42:58.000Z</time>
      </trkpt>
      <trkpt lat="47.33378" lon="-1.3955">
        <ele>138</ele>
        <time>2014-09-07T09:43:02.000Z</time>
      </trkpt>
      <trkpt lat="47.33386" lon="-1.39556">
        <ele>137</ele>
        <time>2014-09-07T09:43:04.000Z</time>
      </trkpt>
      <trkpt lat="47.33427" lon="-1.39584">
        <ele>137</ele>
        <time>2014-09-07T09:43:14.000Z</time>
      </trkpt>
      <trkpt lat="47.33446" lon="-1.39602">
        <ele>136</ele>
        <time>2014-09-07T09:43:18.000Z</time>
      </trkpt>
      <trkpt lat="47.33466" lon="-1.39621">
        <ele>135</ele>
        <time>2014-09-07T09:43:22.000Z</time>
      </trkpt>
      <trkpt lat="47.33476" lon="-1.39634">
        <ele>134</ele>
        <time>2014-09-07T09:43:24.000Z</time>
      </trkpt>
      <trkpt lat="47.33487" lon="-1.39648">
        <ele>133</ele>
        <time>2014-09-07T09:43:26.000Z</time>
      </trkpt>
      <trkpt lat="47.33498" lon="-1.39663">
        <ele>132</ele>
        <time>2014-09-07T09:43:28.000Z</time>
      </trkpt>
      <trkpt lat="47.33519" lon="-1.39695">
        <ele>131</ele>
        <time>2014-09-07T09:43:32.000Z</time>
      </trkpt>
      <trkpt lat="47.33553" lon="-1.39744">
        <ele>131</ele>
        <time>2014-09-07T09:43:38.000Z</time>
      </trkpt>
      <trkpt lat="47.33586" lon="-1.39789">
        <ele>131</ele>
        <time>2014-09-07T09:43:44.000Z</time>
      </trkpt>
      <trkpt lat="47.33595" lon="-1.39803">
        <ele>132</ele>
        <time>2014-09-07T09:43:46.000Z</time>
      </trkpt>
      <trkpt lat="47.3362" lon="-1.3984">
        <ele>133</ele>
        <time>2014-09-07T09:43:52.000Z</time>
      </trkpt>
      <trkpt lat="47.33628" lon="-1.39851">
        <ele>133</ele>
        <time>2014-09-07T09:43:54.000Z</time>
      </trkpt>
      <trkpt lat="47.33642" lon="-1.39872">
        <ele>133</ele>
        <time>2014-09-07T09:43:58.000Z</time>
      </trkpt>
      <trkpt lat="47.33656" lon="-1.39893">
        <ele>134</ele>
        <time>2014-09-07T09:44:02.000Z</time>
      </trkpt>
      <trkpt lat="47.33671" lon="-1.39916">
        <ele>133</ele>
        <time>2014-09-07T09:44:06.000Z</time>
      </trkpt>
      <trkpt lat="47.33711" lon="-1.39972">
        <ele>134</ele>
        <time>2014-09-07T09:44:16.000Z</time>
      </trkpt>
      <trkpt lat="47.33745" lon="-1.40019">
        <ele>134</ele>
        <time>2014-09-07T09:44:24.000Z</time>
      </trkpt>
      <trkpt lat="47.33762" lon="-1.40042">
        <ele>135</ele>
        <time>2014-09-07T09:44:28.000Z</time>
      </trkpt>
      <trkpt lat="47.33797" lon="-1.40084">
        <ele>135</ele>
        <time>2014-09-07T09:44:36.000Z</time>
      </trkpt>
      <trkpt lat="47.33833" lon="-1.40134">
        <ele>135</ele>
        <time>2014-09-07T09:44:46.000Z</time>
      </trkpt>
      <trkpt lat="47.33857" lon="-1.40167">
        <ele>135</ele>
        <time>2014-09-07T09:44:52.000Z</time>
      </trkpt>
      <trkpt lat="47.33873" lon="-1.4019">
        <ele>134</ele>
        <time>2014-09-07T09:44:56.000Z</time>
      </trkpt>
      <trkpt lat="47.33884" lon="-1.40202">
        <ele>133</ele>
        <time>2014-09-07T09:44:58.000Z</time>
      </trkpt>
      <trkpt lat="47.33925" lon="-1.40245">
        <ele>134</ele>
        <time>2014-09-07T09:45:06.000Z</time>
      </trkpt>
      <trkpt lat="47.33933" lon="-1.40257">
        <ele>134</ele>
        <time>2014-09-07T09:45:08.000Z</time>
      </trkpt>
      <trkpt lat="47.33937" lon="-1.40271">
        <ele>134</ele>
        <time>2014-09-07T09:45:10.000Z</time>
      </trkpt>
      <trkpt lat="47.33933" lon="-1.40285">
        <ele>135</ele>
        <time>2014-09-07T09:45:12.000Z</time>
      </trkpt>
      <trkpt lat="47.33932" lon="-1.40301">
        <ele>135</ele>
        <time>2014-09-07T09:45:14.000Z</time>
      </trkpt>
      <trkpt lat="47.33936" lon="-1.40319">
        <ele>135</ele>
        <time>2014-09-07T09:45:16.000Z</time>
      </trkpt>
      <trkpt lat="47.3395" lon="-1.40352">
        <ele>135</ele>
        <time>2014-09-07T09:45:20.000Z</time>
      </trkpt>
      <trkpt lat="47.33957" lon="-1.40368">
        <ele>136</ele>
        <time>2014-09-07T09:45:22.000Z</time>
      </trkpt>
      <trkpt lat="47.33965" lon="-1.40387">
        <ele>135</ele>
        <time>2014-09-07T09:45:24.000Z</time>
      </trkpt>
      <trkpt lat="47.33971" lon="-1.40406">
        <ele>136</ele>
        <time>2014-09-07T09:45:26.000Z</time>
      </trkpt>
      <trkpt lat="47.33986" lon="-1.4044">
        <ele>135</ele>
        <time>2014-09-07T09:45:30.000Z</time>
      </trkpt>
      <trkpt lat="47.33994" lon="-1.4046">
        <ele>133</ele>
        <time>2014-09-07T09:45:32.000Z</time>
      </trkpt>
      <trkpt lat="47.34001" lon="-1.40479">
        <ele>132</ele>
        <time>2014-09-07T09:45:34.000Z</time>
      </trkpt>
      <trkpt lat="47.34022" lon="-1.40534">
        <ele>133</ele>
        <time>2014-09-07T09:45:40.000Z</time>
      </trkpt>
      <trkpt lat="47.34044" lon="-1.40585">
        <ele>134</ele>
        <time>2014-09-07T09:45:46.000Z</time>
      </trkpt>
      <trkpt lat="47.34057" lon="-1.40617">
        <ele>135</ele>
        <time>2014-09-07T09:45:50.000Z</time>
      </trkpt>
      <trkpt lat="47.34061" lon="-1.40632">
        <ele>136</ele>
        <time>2014-09-07T09:45:52.000Z</time>
      </trkpt>
      <trkpt lat="47.34067" lon="-1.40643">
        <ele>137</ele>
        <time>2014-09-07T09:45:54.000Z</time>
      </trkpt>
      <trkpt lat="47.34072" lon="-1.40656">
        <ele>139</ele>
        <time>2014-09-07T09:45:56.000Z</time>
      </trkpt>
      <trkpt lat="47.34076" lon="-1.40667">
        <ele>140</ele>
        <time>2014-09-07T09:45:58.000Z</time>
      </trkpt>
      <trkpt lat="47.34092" lon="-1.40705">
        <ele>141</ele>
        <time>2014-09-07T09:46:02.000Z</time>
      </trkpt>
      <trkpt lat="47.34097" lon="-1.40719">
        <ele>140</ele>
        <time>2014-09-07T09:46:04.000Z</time>
      </trkpt>
      <trkpt lat="47.34104" lon="-1.40737">
        <ele>139</ele>
        <time>2014-09-07T09:46:08.000Z</time>
      </trkpt>
      <trkpt lat="47.34108" lon="-1.40746">
        <ele>138</ele>
        <time>2014-09-07T09:46:10.000Z</time>
      </trkpt>
      <trkpt lat="47.34113" lon="-1.40759">
        <ele>137</ele>
        <time>2014-09-07T09:46:12.000Z</time>
      </trkpt>
      <trkpt lat="47.34119" lon="-1.40772">
        <ele>136</ele>
        <time>2014-09-07T09:46:14.000Z</time>
      </trkpt>
      <trkpt lat="47.34125" lon="-1.40785">
        <ele>135</ele>
        <time>2014-09-07T09:46:16.000Z</time>
      </trkpt>
      <trkpt lat="47.34129" lon="-1.40798">
        <ele>136</ele>
        <time>2014-09-07T09:46:18.000Z</time>
      </trkpt>
      <trkpt lat="47.34135" lon="-1.40814">
        <ele>135</ele>
        <time>2014-09-07T09:46:20.000Z</time>
      </trkpt>
      <trkpt lat="47.34142" lon="-1.40828">
        <ele>134</ele>
        <time>2014-09-07T09:46:22.000Z</time>
      </trkpt>
      <trkpt lat="47.34149" lon="-1.40842">
        <ele>133</ele>
        <time>2014-09-07T09:46:24.000Z</time>
      </trkpt>
      <trkpt lat="47.34156" lon="-1.40858">
        <ele>132</ele>
        <time>2014-09-07T09:46:26.000Z</time>
      </trkpt>
      <trkpt lat="47.34182" lon="-1.40921">
        <ele>133</ele>
        <time>2014-09-07T09:46:34.000Z</time>
      </trkpt>
      <trkpt lat="47.34208" lon="-1.40985">
        <ele>132</ele>
        <time>2014-09-07T09:46:42.000Z</time>
      </trkpt>
      <trkpt lat="47.34233" lon="-1.41049">
        <ele>132</ele>
        <time>2014-09-07T09:46:50.000Z</time>
      </trkpt>
      <trkpt lat="47.34259" lon="-1.4111">
        <ele>132</ele>
        <time>2014-09-07T09:46:58.000Z</time>
      </trkpt>
      <trkpt lat="47.34283" lon="-1.4117">
        <ele>131</ele>
        <time>2014-09-07T09:47:06.000Z</time>
      </trkpt>
      <trkpt lat="47.34291" lon="-1.41176">
        <ele>131</ele>
        <time>2014-09-07T09:47:08.000Z</time>
      </trkpt>
      <trkpt lat="47.34295" lon="-1.41167">
        <ele>131</ele>
        <time>2014-09-07T09:47:11.000Z</time>
      </trkpt>
      <trkpt lat="47.34295" lon="-1.41129">
        <ele>132</ele>
        <time>2014-09-07T09:47:14.000Z</time>
      </trkpt>
      <trkpt lat="47.34295" lon="-1.41088">
        <ele>131</ele>
        <time>2014-09-07T09:47:18.000Z</time>
      </trkpt>
      <trkpt lat="47.34298" lon="-1.41033">
        <ele>131</ele>
        <time>2014-09-07T09:47:24.000Z</time>
      </trkpt>
      <trkpt lat="47.343" lon="-1.41019">
        <ele>130</ele>
        <time>2014-09-07T09:47:26.000Z</time>
      </trkpt>
      <trkpt lat="47.34303" lon="-1.41007">
        <ele>131</ele>
        <time>2014-09-07T09:47:28.000Z</time>
      </trkpt>
      <trkpt lat="47.34309" lon="-1.40977">
        <ele>130</ele>
        <time>2014-09-07T09:47:32.000Z</time>
      </trkpt>
      <trkpt lat="47.34314" lon="-1.4095">
        <ele>131</ele>
        <time>2014-09-07T09:47:36.000Z</time>
      </trkpt>
      <trkpt lat="47.34317" lon="-1.40937">
        <ele>130</ele>
        <time>2014-09-07T09:47:38.000Z</time>
      </trkpt>
      <trkpt lat="47.34325" lon="-1.40894">
        <ele>129</ele>
        <time>2014-09-07T09:47:44.000Z</time>
      </trkpt>
      <trkpt lat="47.34339" lon="-1.40824">
        <ele>129</ele>
        <time>2014-09-07T09:47:54.000Z</time>
      </trkpt>
      <trkpt lat="47.34356" lon="-1.40752">
        <ele>129</ele>
        <time>2014-09-07T09:48:04.000Z</time>
      </trkpt>
      <trkpt lat="47.34367" lon="-1.40707">
        <ele>130</ele>
        <time>2014-09-07T09:48:10.000Z</time>
      </trkpt>
      <trkpt lat="47.34369" lon="-1.40694">
        <ele>129</ele>
        <time>2014-09-07T09:48:12.000Z</time>
      </trkpt>
      <trkpt lat="47.3437" lon="-1.4068">
        <ele>129</ele>
        <time>2014-09-07T09:48:14.000Z</time>
      </trkpt>
      <trkpt lat="47.34372" lon="-1.40665">
        <ele>128</ele>
        <time>2014-09-07T09:48:16.000Z</time>
      </trkpt>
      <trkpt lat="47.34374" lon="-1.40654">
        <ele>128</ele>
        <time>2014-09-07T09:48:18.000Z</time>
      </trkpt>
      <trkpt lat="47.34382" lon="-1.40649">
        <ele>128</ele>
        <time>2014-09-07T09:48:20.000Z</time>
      </trkpt>
      <trkpt lat="47.34391" lon="-1.40649">
        <ele>129</ele>
        <time>2014-09-07T09:48:22.000Z</time>
      </trkpt>
      <trkpt lat="47.34402" lon="-1.40654">
        <ele>130</ele>
        <time>2014-09-07T09:48:24.000Z</time>
      </trkpt>
      <trkpt lat="47.34415" lon="-1.40663">
        <ele>129</ele>
        <time>2014-09-07T09:48:26.000Z</time>
      </trkpt>
      <trkpt lat="47.3444" lon="-1.40675">
        <ele>128</ele>
        <time>2014-09-07T09:48:30.000Z</time>
      </trkpt>
      <trkpt lat="47.34452" lon="-1.4068">
        <ele>127</ele>
        <time>2014-09-07T09:48:32.000Z</time>
      </trkpt>
      <trkpt lat="47.34465" lon="-1.40686">
        <ele>127</ele>
        <time>2014-09-07T09:48:34.000Z</time>
      </trkpt>
      <trkpt lat="47.34488" lon="-1.40698">
        <ele>127</ele>
        <time>2014-09-07T09:48:38.000Z</time>
      </trkpt>
      <trkpt lat="47.34513" lon="-1.40706">
        <ele>128</ele>
        <time>2014-09-07T09:48:42.000Z</time>
      </trkpt>
      <trkpt lat="47.34522" lon="-1.40713">
        <ele>127</ele>
        <time>2014-09-07T09:48:44.000Z</time>
      </trkpt>
      <trkpt lat="47.34521" lon="-1.40724">
        <ele>127</ele>
        <time>2014-09-07T09:48:46.000Z</time>
      </trkpt>
      <trkpt lat="47.34514" lon="-1.40743">
        <ele>128</ele>
        <time>2014-09-07T09:48:48.000Z</time>
      </trkpt>
      <trkpt lat="47.34507" lon="-1.40786">
        <ele>127</ele>
        <time>2014-09-07T09:48:52.000Z</time>
      </trkpt>
      <trkpt lat="47.34486" lon="-1.40868">
        <ele>128</ele>
        <time>2014-09-07T09:49:02.000Z</time>
      </trkpt>
      <trkpt lat="47.34474" lon="-1.40932">
        <ele>127</ele>
        <time>2014-09-07T09:49:10.000Z</time>
      </trkpt>
      <trkpt lat="47.34464" lon="-1.40994">
        <ele>128</ele>
        <time>2014-09-07T09:49:18.000Z</time>
      </trkpt>
      <trkpt lat="47.34464" lon="-1.41021">
        <ele>128</ele>
        <time>2014-09-07T09:49:22.000Z</time>
      </trkpt>
      <trkpt lat="47.34472" lon="-1.41031">
        <ele>128</ele>
        <time>2014-09-07T09:49:24.000Z</time>
      </trkpt>
      <trkpt lat="47.34481" lon="-1.41037">
        <ele>128</ele>
        <time>2014-09-07T09:49:26.000Z</time>
      </trkpt>
      <trkpt lat="47.34515" lon="-1.4106">
        <ele>127</ele>
        <time>2014-09-07T09:49:32.000Z</time>
      </trkpt>
      <trkpt lat="47.34526" lon="-1.41066">
        <ele>128</ele>
        <time>2014-09-07T09:49:34.000Z</time>
      </trkpt>
      <trkpt lat="47.34537" lon="-1.41071">
        <ele>127</ele>
        <time>2014-09-07T09:49:36.000Z</time>
      </trkpt>
      <trkpt lat="47.34549" lon="-1.41078">
        <ele>128</ele>
        <time>2014-09-07T09:49:38.000Z</time>
      </trkpt>
      <trkpt lat="47.34561" lon="-1.41085">
        <ele>128</ele>
        <time>2014-09-07T09:49:40.000Z</time>
      </trkpt>
      <trkpt lat="47.34573" lon="-1.41093">
        <ele>129</ele>
        <time>2014-09-07T09:49:42.000Z</time>
      </trkpt>
      <trkpt lat="47.34623" lon="-1.41131">
        <ele>129</ele>
        <time>2014-09-07T09:49:50.000Z</time>
      </trkpt>
      <trkpt lat="47.34674" lon="-1.41167">
        <ele>129</ele>
        <time>2014-09-07T09:49:58.000Z</time>
      </trkpt>
      <trkpt lat="47.34697" lon="-1.41186">
        <ele>129</ele>
        <time>2014-09-07T09:50:02.000Z</time>
      </trkpt>
      <trkpt lat="47.34708" lon="-1.41195">
        <ele>128</ele>
        <time>2014-09-07T09:50:04.000Z</time>
      </trkpt>
      <trkpt lat="47.34718" lon="-1.41204">
        <ele>129</ele>
        <time>2014-09-07T09:50:06.000Z</time>
      </trkpt>
      <trkpt lat="47.34734" lon="-1.41223">
        <ele>129</ele>
        <time>2014-09-07T09:50:10.000Z</time>
      </trkpt>
      <trkpt lat="47.34742" lon="-1.41243">
        <ele>127</ele>
        <time>2014-09-07T09:50:12.000Z</time>
      </trkpt>
      <trkpt lat="47.34745" lon="-1.41265">
        <ele>126</ele>
        <time>2014-09-07T09:50:14.000Z</time>
      </trkpt>
      <trkpt lat="47.34745" lon="-1.41334">
        <ele>126</ele>
        <time>2014-09-07T09:50:20.000Z</time>
      </trkpt>
      <trkpt lat="47.34745" lon="-1.41356">
        <ele>127</ele>
        <time>2014-09-07T09:50:22.000Z</time>
      </trkpt>
      <trkpt lat="47.34745" lon="-1.41378">
        <ele>126</ele>
        <time>2014-09-07T09:50:24.000Z</time>
      </trkpt>
      <trkpt lat="47.34744" lon="-1.41401">
        <ele>126</ele>
        <time>2014-09-07T09:50:26.000Z</time>
      </trkpt>
      <trkpt lat="47.34744" lon="-1.41422">
        <ele>126</ele>
        <time>2014-09-07T09:50:28.000Z</time>
      </trkpt>
      <trkpt lat="47.34745" lon="-1.41486">
        <ele>125</ele>
        <time>2014-09-07T09:50:34.000Z</time>
      </trkpt>
      <trkpt lat="47.34745" lon="-1.41527">
        <ele>124</ele>
        <time>2014-09-07T09:50:38.000Z</time>
      </trkpt>
      <trkpt lat="47.34743" lon="-1.41599">
        <ele>123</ele>
        <time>2014-09-07T09:50:46.000Z</time>
      </trkpt>
      <trkpt lat="47.34743" lon="-1.41616">
        <ele>124</ele>
        <time>2014-09-07T09:50:48.000Z</time>
      </trkpt>
      <trkpt lat="47.34742" lon="-1.41636">
        <ele>123</ele>
        <time>2014-09-07T09:50:50.000Z</time>
      </trkpt>
      <trkpt lat="47.34741" lon="-1.41655">
        <ele>124</ele>
        <time>2014-09-07T09:50:52.000Z</time>
      </trkpt>
      <trkpt lat="47.3474" lon="-1.41695">
        <ele>126</ele>
        <time>2014-09-07T09:50:56.000Z</time>
      </trkpt>
      <trkpt lat="47.34739" lon="-1.41768">
        <ele>126</ele>
        <time>2014-09-07T09:51:04.000Z</time>
      </trkpt>
      <trkpt lat="47.34735" lon="-1.41838">
        <ele>126</ele>
        <time>2014-09-07T09:51:12.000Z</time>
      </trkpt>
      <trkpt lat="47.34734" lon="-1.41874">
        <ele>125</ele>
        <time>2014-09-07T09:51:16.000Z</time>
      </trkpt>
      <trkpt lat="47.34734" lon="-1.41893">
        <ele>126</ele>
        <time>2014-09-07T09:51:18.000Z</time>
      </trkpt>
      <trkpt lat="47.34733" lon="-1.41937">
        <ele>125</ele>
        <time>2014-09-07T09:51:22.000Z</time>
      </trkpt>
      <trkpt lat="47.34732" lon="-1.42019">
        <ele>124</ele>
        <time>2014-09-07T09:51:28.000Z</time>
      </trkpt>
      <trkpt lat="47.34732" lon="-1.42053">
        <ele>123</ele>
        <time>2014-09-07T09:51:30.000Z</time>
      </trkpt>
      <trkpt lat="47.34732" lon="-1.42088">
        <ele>121</ele>
        <time>2014-09-07T09:51:32.000Z</time>
      </trkpt>
      <trkpt lat="47.34731" lon="-1.42126">
        <ele>120</ele>
        <time>2014-09-07T09:51:34.000Z</time>
      </trkpt>
      <trkpt lat="47.3473" lon="-1.42163">
        <ele>118</ele>
        <time>2014-09-07T09:51:36.000Z</time>
      </trkpt>
      <trkpt lat="47.3473" lon="-1.42191">
        <ele>117</ele>
        <time>2014-09-07T09:51:38.000Z</time>
      </trkpt>
      <trkpt lat="47.34732" lon="-1.42205">
        <ele>117</ele>
        <time>2014-09-07T09:51:40.000Z</time>
      </trkpt>
      <trkpt lat="47.34742" lon="-1.42209">
        <ele>116</ele>
        <time>2014-09-07T09:51:42.000Z</time>
      </trkpt>
      <trkpt lat="47.34754" lon="-1.42216">
        <ele>116</ele>
        <time>2014-09-07T09:51:44.000Z</time>
      </trkpt>
      <trkpt lat="47.34763" lon="-1.42226">
        <ele>115</ele>
        <time>2014-09-07T09:51:46.000Z</time>
      </trkpt>
      <trkpt lat="47.34806" lon="-1.42266">
        <ele>114</ele>
        <time>2014-09-07T09:51:54.000Z</time>
      </trkpt>
      <trkpt lat="47.34817" lon="-1.42278">
        <ele>113</ele>
        <time>2014-09-07T09:51:56.000Z</time>
      </trkpt>
      <trkpt lat="47.34827" lon="-1.42291">
        <ele>112</ele>
        <time>2014-09-07T09:51:58.000Z</time>
      </trkpt>
      <trkpt lat="47.34835" lon="-1.42305">
        <ele>112</ele>
        <time>2014-09-07T09:52:00.000Z</time>
      </trkpt>
      <trkpt lat="47.34842" lon="-1.42321">
        <ele>111</ele>
        <time>2014-09-07T09:52:02.000Z</time>
      </trkpt>
      <trkpt lat="47.3485" lon="-1.42333">
        <ele>111</ele>
        <time>2014-09-07T09:52:04.000Z</time>
      </trkpt>
      <trkpt lat="47.34858" lon="-1.42334">
        <ele>111</ele>
        <time>2014-09-07T09:52:06.000Z</time>
      </trkpt>
      <trkpt lat="47.34867" lon="-1.42328">
        <ele>111</ele>
        <time>2014-09-07T09:52:08.000Z</time>
      </trkpt>
      <trkpt lat="47.34885" lon="-1.42313">
        <ele>111</ele>
        <time>2014-09-07T09:52:14.000Z</time>
      </trkpt>
      <trkpt lat="47.34887" lon="-1.42313">
        <ele>111</ele>
        <time>2014-09-07T09:52:16.000Z</time>
      </trkpt>
      <trkpt lat="47.34889" lon="-1.42312">
        <ele>110</ele>
        <time>2014-09-07T09:52:18.000Z</time>
      </trkpt>
      <trkpt lat="47.34899" lon="-1.42308">
        <ele>110</ele>
        <time>2014-09-07T09:52:22.000Z</time>
      </trkpt>
      <trkpt lat="47.34902" lon="-1.42305">
        <ele>111</ele>
        <time>2014-09-07T09:52:24.000Z</time>
      </trkpt>
      <trkpt lat="47.34905" lon="-1.42304">
        <ele>111</ele>
        <time>2014-09-07T09:52:26.000Z</time>
      </trkpt>
      <trkpt lat="47.34907" lon="-1.42304">
        <ele>112</ele>
        <time>2014-09-07T09:52:28.000Z</time>
      </trkpt>
      <trkpt lat="47.34906" lon="-1.42302">
        <ele>112</ele>
        <time>2014-09-07T09:52:30.000Z</time>
      </trkpt>
      <trkpt lat="47.34906" lon="-1.42301">
        <ele>112</ele>
        <time>2014-09-07T09:52:32.000Z</time>
      </trkpt>
      <trkpt lat="47.34908" lon="-1.42304">
        <ele>112</ele>
        <time>2014-09-07T09:52:34.000Z</time>
      </trkpt>
      <trkpt lat="47.34908" lon="-1.4231">
        <ele>112</ele>
        <time>2014-09-07T09:52:36.000Z</time>
      </trkpt>
      <trkpt lat="47.34908" lon="-1.42318">
        <ele>111</ele>
        <time>2014-09-07T09:52:38.000Z</time>
      </trkpt>
      <trkpt lat="47.34912" lon="-1.4232">
        <ele>110</ele>
        <time>2014-09-07T09:52:40.000Z</time>
      </trkpt>
      <trkpt lat="47.34918" lon="-1.42317">
        <ele>111</ele>
        <time>2014-09-07T09:52:42.000Z</time>
      </trkpt>
      <trkpt lat="47.34918" lon="-1.42317">
        <ele>110</ele>
        <time>2014-09-07T09:52:44.000Z</time>
      </trkpt>
      <trkpt lat="47.3492" lon="-1.42319">
        <ele>109</ele>
        <time>2014-09-07T09:52:46.000Z</time>
      </trkpt>
      <trkpt lat="47.34921" lon="-1.42323">
        <ele>107</ele>
        <time>2014-09-07T09:52:48.000Z</time>
      </trkpt>
      <trkpt lat="47.34924" lon="-1.42329">
        <ele>106</ele>
        <time>2014-09-07T09:52:50.000Z</time>
      </trkpt>
      <trkpt lat="47.34928" lon="-1.42338">
        <ele>103</ele>
        <time>2014-09-07T09:52:52.000Z</time>
      </trkpt>
      <trkpt lat="47.34932" lon="-1.42366">
        <ele>103</ele>
        <time>2014-09-07T09:52:56.000Z</time>
      </trkpt>
      <trkpt lat="47.34932" lon="-1.42382">
        <ele>102</ele>
        <time>2014-09-07T09:52:58.000Z</time>
      </trkpt>
      <trkpt lat="47.34932" lon="-1.42412">
        <ele>103</ele>
        <time>2014-09-07T09:53:02.000Z</time>
      </trkpt>
      <trkpt lat="47.34933" lon="-1.42435">
        <ele>104</ele>
        <time>2014-09-07T09:53:06.000Z</time>
      </trkpt>
      <trkpt lat="47.34935" lon="-1.42449">
        <ele>105</ele>
        <time>2014-09-07T09:53:08.000Z</time>
      </trkpt>
      <trkpt lat="47.34937" lon="-1.42481">
        <ele>104</ele>
        <time>2014-09-07T09:53:12.000Z</time>
      </trkpt>
      <trkpt lat="47.34939" lon="-1.42498">
        <ele>105</ele>
        <time>2014-09-07T09:53:14.000Z</time>
      </trkpt>
      <trkpt lat="47.34943" lon="-1.42517">
        <ele>104</ele>
        <time>2014-09-07T09:53:16.000Z</time>
      </trkpt>
      <trkpt lat="47.34945" lon="-1.42536">
        <ele>102</ele>
        <time>2014-09-07T09:53:18.000Z</time>
      </trkpt>
      <trkpt lat="47.34948" lon="-1.42575">
        <ele>101</ele>
        <time>2014-09-07T09:53:22.000Z</time>
      </trkpt>
      <trkpt lat="47.34951" lon="-1.42592">
        <ele>101</ele>
        <time>2014-09-07T09:53:24.000Z</time>
      </trkpt>
      <trkpt lat="47.34954" lon="-1.42607">
        <ele>100</ele>
        <time>2014-09-07T09:53:26.000Z</time>
      </trkpt>
      <trkpt lat="47.34957" lon="-1.42659">
        <ele>100</ele>
        <time>2014-09-07T09:53:32.000Z</time>
      </trkpt>
      <trkpt lat="47.3496" lon="-1.42693">
        <ele>100</ele>
        <time>2014-09-07T09:53:36.000Z</time>
      </trkpt>
      <trkpt lat="47.34963" lon="-1.42709">
        <ele>101</ele>
        <time>2014-09-07T09:53:38.000Z</time>
      </trkpt>
      <trkpt lat="47.34966" lon="-1.42727">
        <ele>102</ele>
        <time>2014-09-07T09:53:40.000Z</time>
      </trkpt>
      <trkpt lat="47.34972" lon="-1.42763">
        <ele>103</ele>
        <time>2014-09-07T09:53:44.000Z</time>
      </trkpt>
      <trkpt lat="47.34975" lon="-1.42779">
        <ele>105</ele>
        <time>2014-09-07T09:53:46.000Z</time>
      </trkpt>
      <trkpt lat="47.34979" lon="-1.42795">
        <ele>106</ele>
        <time>2014-09-07T09:53:48.000Z</time>
      </trkpt>
      <trkpt lat="47.34984" lon="-1.42809">
        <ele>107</ele>
        <time>2014-09-07T09:53:50.000Z</time>
      </trkpt>
      <trkpt lat="47.3499" lon="-1.42818">
        <ele>109</ele>
        <time>2014-09-07T09:53:52.000Z</time>
      </trkpt>
      <trkpt lat="47.34995" lon="-1.42822">
        <ele>110</ele>
        <time>2014-09-07T09:53:54.000Z</time>
      </trkpt>
      <trkpt lat="47.35001" lon="-1.42823">
        <ele>107</ele>
        <time>2014-09-07T09:53:56.000Z</time>
      </trkpt>
      <trkpt lat="47.35" lon="-1.42821">
        <ele>107</ele>
        <time>2014-09-07T09:53:58.000Z</time>
      </trkpt>
      <trkpt lat="47.34999" lon="-1.42818">
        <ele>106</ele>
        <time>2014-09-07T09:54:01.000Z</time>
      </trkpt>
      <trkpt lat="47.34998" lon="-1.42816">
        <ele>106</ele>
        <time>2014-09-07T09:54:02.000Z</time>
      </trkpt>
      <trkpt lat="47.34997" lon="-1.42812">
        <ele>107</ele>
        <time>2014-09-07T09:54:04.000Z</time>
      </trkpt>
      <trkpt lat="47.34997" lon="-1.42807">
        <ele>106</ele>
        <time>2014-09-07T09:54:06.000Z</time>
      </trkpt>
      <trkpt lat="47.34997" lon="-1.42804">
        <ele>107</ele>
        <time>2014-09-07T09:54:08.000Z</time>
      </trkpt>
      <trkpt lat="47.34999" lon="-1.42789">
        <ele>107</ele>
        <time>2014-09-07T09:54:14.000Z</time>
      </trkpt>
      <trkpt lat="47.35004" lon="-1.42787">
        <ele>107</ele>
        <time>2014-09-07T09:54:16.000Z</time>
      </trkpt>
      <trkpt lat="47.35008" lon="-1.42786">
        <ele>107</ele>
        <time>2014-09-07T09:54:18.000Z</time>
      </trkpt>
      <trkpt lat="47.35012" lon="-1.42787">
        <ele>107</ele>
        <time>2014-09-07T09:54:20.000Z</time>
      </trkpt>
      <trkpt lat="47.35017" lon="-1.42788">
        <ele>108</ele>
        <time>2014-09-07T09:54:22.000Z</time>
      </trkpt>
      <trkpt lat="47.35025" lon="-1.42792">
        <ele>108</ele>
        <time>2014-09-07T09:54:26.000Z</time>
      </trkpt>
      <trkpt lat="47.35027" lon="-1.42794">
        <ele>109</ele>
        <time>2014-09-07T09:54:28.000Z</time>
      </trkpt>
      <trkpt lat="47.35029" lon="-1.42795">
        <ele>109</ele>
        <time>2014-09-07T09:54:30.000Z</time>
      </trkpt>
      <trkpt lat="47.35029" lon="-1.42797">
        <ele>108</ele>
        <time>2014-09-07T09:54:32.000Z</time>
      </trkpt>
      <trkpt lat="47.35028" lon="-1.42799">
        <ele>108</ele>
        <time>2014-09-07T09:54:34.000Z</time>
      </trkpt>
      <trkpt lat="47.35028" lon="-1.42802">
        <ele>108</ele>
        <time>2014-09-07T09:54:36.000Z</time>
      </trkpt>
      <trkpt lat="47.3503" lon="-1.42805">
        <ele>108</ele>
        <time>2014-09-07T09:54:38.000Z</time>
      </trkpt>
      <trkpt lat="47.35031" lon="-1.42808">
        <ele>109</ele>
        <time>2014-09-07T09:54:40.000Z</time>
      </trkpt>
      <trkpt lat="47.35032" lon="-1.42809">
        <ele>109</ele>
        <time>2014-09-07T09:54:42.000Z</time>
      </trkpt>
      <trkpt lat="47.35035" lon="-1.42814">
        <ele>110</ele>
        <time>2014-09-07T09:54:44.000Z</time>
      </trkpt>
      <trkpt lat="47.35038" lon="-1.42821">
        <ele>110</ele>
        <time>2014-09-07T09:54:46.000Z</time>
      </trkpt>
      <trkpt lat="47.35042" lon="-1.42832">
        <ele>109</ele>
        <time>2014-09-07T09:54:48.000Z</time>
      </trkpt>
      <trkpt lat="47.35049" lon="-1.4284">
        <ele>109</ele>
        <time>2014-09-07T09:54:50.000Z</time>
      </trkpt>
      <trkpt lat="47.35054" lon="-1.42851">
        <ele>110</ele>
        <time>2014-09-07T09:54:54.000Z</time>
      </trkpt>
      <trkpt lat="47.3506" lon="-1.42863">
        <ele>110</ele>
        <time>2014-09-07T09:54:58.000Z</time>
      </trkpt>
      <trkpt lat="47.35063" lon="-1.42867">
        <ele>110</ele>
        <time>2014-09-07T09:55:02.000Z</time>
      </trkpt>
      <trkpt lat="47.35063" lon="-1.42867">
        <ele>110</ele>
        <time>2014-09-07T09:55:04.000Z</time>
      </trkpt>
      <trkpt lat="47.35063" lon="-1.4287">
        <ele>110</ele>
        <time>2014-09-07T09:55:06.000Z</time>
      </trkpt>
      <trkpt lat="47.35061" lon="-1.42875">
        <ele>110</ele>
        <time>2014-09-07T09:55:08.000Z</time>
      </trkpt>
      <trkpt lat="47.35058" lon="-1.42883">
        <ele>109</ele>
        <time>2014-09-07T09:55:10.000Z</time>
      </trkpt>
      <trkpt lat="47.35054" lon="-1.42894">
        <ele>109</ele>
        <time>2014-09-07T09:55:12.000Z</time>
      </trkpt>
      <trkpt lat="47.35055" lon="-1.42914">
        <ele>108</ele>
        <time>2014-09-07T09:55:14.000Z</time>
      </trkpt>
      <trkpt lat="47.35057" lon="-1.42931">
        <ele>108</ele>
        <time>2014-09-07T09:55:16.000Z</time>
      </trkpt>
      <trkpt lat="47.35059" lon="-1.42944">
        <ele>108</ele>
        <time>2014-09-07T09:55:18.000Z</time>
      </trkpt>
      <trkpt lat="47.35064" lon="-1.42959">
        <ele>106</ele>
        <time>2014-09-07T09:55:20.000Z</time>
      </trkpt>
      <trkpt lat="47.35068" lon="-1.42972">
        <ele>104</ele>
        <time>2014-09-07T09:55:22.000Z</time>
      </trkpt>
      <trkpt lat="47.35073" lon="-1.42982">
        <ele>103</ele>
        <time>2014-09-07T09:55:24.000Z</time>
      </trkpt>
      <trkpt lat="47.35078" lon="-1.42991">
        <ele>102</ele>
        <time>2014-09-07T09:55:26.000Z</time>
      </trkpt>
      <trkpt lat="47.35081" lon="-1.43">
        <ele>101</ele>
        <time>2014-09-07T09:55:28.000Z</time>
      </trkpt>
      <trkpt lat="47.35085" lon="-1.43006">
        <ele>100</ele>
        <time>2014-09-07T09:55:30.000Z</time>
      </trkpt>
      <trkpt lat="47.35088" lon="-1.43014">
        <ele>99</ele>
        <time>2014-09-07T09:55:32.000Z</time>
      </trkpt>
      <trkpt lat="47.35095" lon="-1.43035">
        <ele>99</ele>
        <time>2014-09-07T09:55:36.000Z</time>
      </trkpt>
      <trkpt lat="47.351" lon="-1.43046">
        <ele>99</ele>
        <time>2014-09-07T09:55:38.000Z</time>
      </trkpt>
      <trkpt lat="47.35106" lon="-1.43054">
        <ele>99</ele>
        <time>2014-09-07T09:55:40.000Z</time>
      </trkpt>
      <trkpt lat="47.35109" lon="-1.43062">
        <ele>99</ele>
        <time>2014-09-07T09:55:42.000Z</time>
      </trkpt>
      <trkpt lat="47.35111" lon="-1.43071">
        <ele>99</ele>
        <time>2014-09-07T09:55:44.000Z</time>
      </trkpt>
      <trkpt lat="47.35113" lon="-1.43085">
        <ele>98</ele>
        <time>2014-09-07T09:55:46.000Z</time>
      </trkpt>
      <trkpt lat="47.35113" lon="-1.43101">
        <ele>98</ele>
        <time>2014-09-07T09:55:48.000Z</time>
      </trkpt>
      <trkpt lat="47.35117" lon="-1.43123">
        <ele>99</ele>
        <time>2014-09-07T09:55:52.000Z</time>
      </trkpt>
      <trkpt lat="47.35125" lon="-1.43137">
        <ele>100</ele>
        <time>2014-09-07T09:55:56.000Z</time>
      </trkpt>
      <trkpt lat="47.35126" lon="-1.43143">
        <ele>100</ele>
        <time>2014-09-07T09:55:58.000Z</time>
      </trkpt>
      <trkpt lat="47.35126" lon="-1.4315">
        <ele>101</ele>
        <time>2014-09-07T09:56:00.000Z</time>
      </trkpt>
      <trkpt lat="47.35126" lon="-1.43154">
        <ele>102</ele>
        <time>2014-09-07T09:56:02.000Z</time>
      </trkpt>
      <trkpt lat="47.35132" lon="-1.43171">
        <ele>103</ele>
        <time>2014-09-07T09:56:06.000Z</time>
      </trkpt>
      <trkpt lat="47.35138" lon="-1.43184">
        <ele>104</ele>
        <time>2014-09-07T09:56:10.000Z</time>
      </trkpt>
      <trkpt lat="47.3514" lon="-1.43189">
        <ele>104</ele>
        <time>2014-09-07T09:56:12.000Z</time>
      </trkpt>
      <trkpt lat="47.35145" lon="-1.43215">
        <ele>103</ele>
        <time>2014-09-07T09:56:24.000Z</time>
      </trkpt>
      <trkpt lat="47.35147" lon="-1.43228">
        <ele>103</ele>
        <time>2014-09-07T09:56:28.000Z</time>
      </trkpt>
      <trkpt lat="47.35148" lon="-1.43233">
        <ele>104</ele>
        <time>2014-09-07T09:56:30.000Z</time>
      </trkpt>
      <trkpt lat="47.3515" lon="-1.43242">
        <ele>105</ele>
        <time>2014-09-07T09:56:34.000Z</time>
      </trkpt>
      <trkpt lat="47.35152" lon="-1.43245">
        <ele>106</ele>
        <time>2014-09-07T09:56:36.000Z</time>
      </trkpt>
      <trkpt lat="47.35155" lon="-1.43254">
        <ele>107</ele>
        <time>2014-09-07T09:56:40.000Z</time>
      </trkpt>
      <trkpt lat="47.35161" lon="-1.43259">
        <ele>107</ele>
        <time>2014-09-07T09:56:44.000Z</time>
      </trkpt>
      <trkpt lat="47.35162" lon="-1.43263">
        <ele>108</ele>
        <time>2014-09-07T09:56:46.000Z</time>
      </trkpt>
      <trkpt lat="47.35164" lon="-1.43266">
        <ele>108</ele>
        <time>2014-09-07T09:56:48.000Z</time>
      </trkpt>
      <trkpt lat="47.35165" lon="-1.43268">
        <ele>109</ele>
        <time>2014-09-07T09:56:50.000Z</time>
      </trkpt>
      <trkpt lat="47.35167" lon="-1.43267">
        <ele>110</ele>
        <time>2014-09-07T09:56:52.000Z</time>
      </trkpt>
      <trkpt lat="47.35173" lon="-1.43266">
        <ele>110</ele>
        <time>2014-09-07T09:56:56.000Z</time>
      </trkpt>
      <trkpt lat="47.35177" lon="-1.43265">
        <ele>110</ele>
        <time>2014-09-07T09:56:58.000Z</time>
      </trkpt>
      <trkpt lat="47.35183" lon="-1.43266">
        <ele>109</ele>
        <time>2014-09-07T09:57:02.000Z</time>
      </trkpt>
      <trkpt lat="47.35186" lon="-1.43267">
        <ele>109</ele>
        <time>2014-09-07T09:57:04.000Z</time>
      </trkpt>
      <trkpt lat="47.35188" lon="-1.43266">
        <ele>109</ele>
        <time>2014-09-07T09:57:06.000Z</time>
      </trkpt>
      <trkpt lat="47.35191" lon="-1.43264">
        <ele>109</ele>
        <time>2014-09-07T09:57:08.000Z</time>
      </trkpt>
      <trkpt lat="47.35195" lon="-1.43263">
        <ele>109</ele>
        <time>2014-09-07T09:57:10.000Z</time>
      </trkpt>
      <trkpt lat="47.35201" lon="-1.4326">
        <ele>109</ele>
        <time>2014-09-07T09:57:14.000Z</time>
      </trkpt>
      <trkpt lat="47.35202" lon="-1.43258">
        <ele>109</ele>
        <time>2014-09-07T09:57:16.000Z</time>
      </trkpt>
      <trkpt lat="47.35202" lon="-1.4326">
        <ele>110</ele>
        <time>2014-09-07T09:57:18.000Z</time>
      </trkpt>
      <trkpt lat="47.35202" lon="-1.43259">
        <ele>110</ele>
        <time>2014-09-07T09:57:20.000Z</time>
      </trkpt>
      <trkpt lat="47.35204" lon="-1.43257">
        <ele>110</ele>
        <time>2014-09-07T09:57:22.000Z</time>
      </trkpt>
      <trkpt lat="47.35204" lon="-1.43252">
        <ele>111</ele>
        <time>2014-09-07T09:57:24.000Z</time>
      </trkpt>
      <trkpt lat="47.35207" lon="-1.43246">
        <ele>111</ele>
        <time>2014-09-07T09:57:26.000Z</time>
      </trkpt>
      <trkpt lat="47.3521" lon="-1.43245">
        <ele>111</ele>
        <time>2014-09-07T09:57:28.000Z</time>
      </trkpt>
      <trkpt lat="47.35213" lon="-1.43246">
        <ele>112</ele>
        <time>2014-09-07T09:57:30.000Z</time>
      </trkpt>
      <trkpt lat="47.35214" lon="-1.43246">
        <ele>113</ele>
        <time>2014-09-07T09:57:32.000Z</time>
      </trkpt>
      <trkpt lat="47.35217" lon="-1.43242">
        <ele>114</ele>
        <time>2014-09-07T09:57:34.000Z</time>
      </trkpt>
      <trkpt lat="47.3522" lon="-1.4324">
        <ele>115</ele>
        <time>2014-09-07T09:57:36.000Z</time>
      </trkpt>
      <trkpt lat="47.35223" lon="-1.43239">
        <ele>115</ele>
        <time>2014-09-07T09:57:38.000Z</time>
      </trkpt>
      <trkpt lat="47.35226" lon="-1.43238">
        <ele>115</ele>
        <time>2014-09-07T09:57:40.000Z</time>
      </trkpt>
      <trkpt lat="47.35229" lon="-1.43235">
        <ele>115</ele>
        <time>2014-09-07T09:57:42.000Z</time>
      </trkpt>
      <trkpt lat="47.35234" lon="-1.43232">
        <ele>115</ele>
        <time>2014-09-07T09:57:44.000Z</time>
      </trkpt>
      <trkpt lat="47.35239" lon="-1.43231">
        <ele>116</ele>
        <time>2014-09-07T09:57:46.000Z</time>
      </trkpt>
      <trkpt lat="47.35243" lon="-1.43233">
        <ele>117</ele>
        <time>2014-09-07T09:57:48.000Z</time>
      </trkpt>
      <trkpt lat="47.35247" lon="-1.43232">
        <ele>117</ele>
        <time>2014-09-07T09:57:50.000Z</time>
      </trkpt>
      <trkpt lat="47.35251" lon="-1.43231">
        <ele>117</ele>
        <time>2014-09-07T09:57:52.000Z</time>
      </trkpt>
      <trkpt lat="47.35255" lon="-1.43232">
        <ele>116</ele>
        <time>2014-09-07T09:57:54.000Z</time>
      </trkpt>
      <trkpt lat="47.3526" lon="-1.43233">
        <ele>117</ele>
        <time>2014-09-07T09:57:56.000Z</time>
      </trkpt>
      <trkpt lat="47.35278" lon="-1.43239">
        <ele>117</ele>
        <time>2014-09-07T09:58:02.000Z</time>
      </trkpt>
      <trkpt lat="47.35285" lon="-1.43236">
        <ele>117</ele>
        <time>2014-09-07T09:58:04.000Z</time>
      </trkpt>
      <trkpt lat="47.35293" lon="-1.43236">
        <ele>114</ele>
        <time>2014-09-07T09:58:06.000Z</time>
      </trkpt>
      <trkpt lat="47.35294" lon="-1.43235">
        <ele>113</ele>
        <time>2014-09-07T09:58:08.000Z</time>
      </trkpt>
      <trkpt lat="47.35294" lon="-1.43234">
        <ele>113</ele>
        <time>2014-09-07T09:58:10.000Z</time>
      </trkpt>
      <trkpt lat="47.35295" lon="-1.43228">
        <ele>113</ele>
        <time>2014-09-07T09:58:14.000Z</time>
      </trkpt>
      <trkpt lat="47.35295" lon="-1.4323">
        <ele>114</ele>
        <time>2014-09-07T09:58:16.000Z</time>
      </trkpt>
      <trkpt lat="47.35295" lon="-1.4323">
        <ele>115</ele>
        <time>2014-09-07T09:58:18.000Z</time>
      </trkpt>
      <trkpt lat="47.35295" lon="-1.4323">
        <ele>115</ele>
        <time>2014-09-07T09:58:20.000Z</time>
      </trkpt>
      <trkpt lat="47.35295" lon="-1.4323">
        <ele>115</ele>
        <time>2014-09-07T09:58:22.000Z</time>
      </trkpt>
      <trkpt lat="47.35295" lon="-1.4323">
        <ele>115</ele>
        <time>2014-09-07T09:58:24.000Z</time>
      </trkpt>
      <trkpt lat="47.35295" lon="-1.4323">
        <ele>115</ele>
        <time>2014-09-07T09:58:26.000Z</time>
      </trkpt>
      <trkpt lat="47.35295" lon="-1.43231">
        <ele>115</ele>
        <time>2014-09-07T09:58:28.000Z</time>
      </trkpt>
      <trkpt lat="47.35295" lon="-1.43231">
        <ele>116</ele>
        <time>2014-09-07T09:58:30.000Z</time>
      </trkpt>
      <trkpt lat="47.35294" lon="-1.43231">
        <ele>116</ele>
        <time>2014-09-07T09:58:32.000Z</time>
      </trkpt>
      <trkpt lat="47.35294" lon="-1.43231">
        <ele>116</ele>
        <time>2014-09-07T09:58:34.000Z</time>
      </trkpt>
      <trkpt lat="47.35294" lon="-1.43231">
        <ele>117</ele>
        <time>2014-09-07T09:58:36.000Z</time>
      </trkpt>
      <trkpt lat="47.35294" lon="-1.43232">
        <ele>117</ele>
        <time>2014-09-07T09:58:38.000Z</time>
      </trkpt>
      <trkpt lat="47.35294" lon="-1.43232">
        <ele>117</ele>
        <time>2014-09-07T09:58:40.000Z</time>
      </trkpt>
      <trkpt lat="47.35294" lon="-1.43232">
        <ele>117</ele>
        <time>2014-09-07T09:58:42.000Z</time>
      </trkpt>
      <trkpt lat="47.35294" lon="-1.43232">
        <ele>117</ele>
        <time>2014-09-07T09:58:44.000Z</time>
      </trkpt>
      <trkpt lat="47.35294" lon="-1.43231">
        <ele>117</ele>
        <time>2014-09-07T09:58:48.000Z</time>
      </trkpt>
      <trkpt lat="47.35295" lon="-1.4323">
        <ele>118</ele>
        <time>2014-09-07T09:58:50.000Z</time>
      </trkpt>
      <trkpt lat="47.35296" lon="-1.43221">
        <ele>118</ele>
        <time>2014-09-07T09:58:54.000Z</time>
      </trkpt>
      <trkpt lat="47.35295" lon="-1.43213">
        <ele>118</ele>
        <time>2014-09-07T09:58:58.000Z</time>
      </trkpt>
      <trkpt lat="47.35295" lon="-1.4321">
        <ele>118</ele>
        <time>2014-09-07T09:59:00.000Z</time>
      </trkpt>
      <trkpt lat="47.35296" lon="-1.43206">
        <ele>117</ele>
        <time>2014-09-07T09:59:02.000Z</time>
      </trkpt>
      <trkpt lat="47.353" lon="-1.43201">
        <ele>116</ele>
        <time>2014-09-07T09:59:04.000Z</time>
      </trkpt>
      <trkpt lat="47.35304" lon="-1.43199">
        <ele>117</ele>
        <time>2014-09-07T09:59:06.000Z</time>
      </trkpt>
      <trkpt lat="47.35306" lon="-1.43195">
        <ele>117</ele>
        <time>2014-09-07T09:59:08.000Z</time>
      </trkpt>
      <trkpt lat="47.35307" lon="-1.43191">
        <ele>118</ele>
        <time>2014-09-07T09:59:10.000Z</time>
      </trkpt>
      <trkpt lat="47.35313" lon="-1.43175">
        <ele>117</ele>
        <time>2014-09-07T09:59:14.000Z</time>
      </trkpt>
      <trkpt lat="47.35322" lon="-1.43169">
        <ele>118</ele>
        <time>2014-09-07T09:59:16.000Z</time>
      </trkpt>
      <trkpt lat="47.35326" lon="-1.43164">
        <ele>118</ele>
        <time>2014-09-07T09:59:18.000Z</time>
      </trkpt>
      <trkpt lat="47.35326" lon="-1.43154">
        <ele>118</ele>
        <time>2014-09-07T09:59:20.000Z</time>
      </trkpt>
      <trkpt lat="47.35324" lon="-1.43137">
        <ele>117</ele>
        <time>2014-09-07T09:59:24.000Z</time>
      </trkpt>
      <trkpt lat="47.35328" lon="-1.43128">
        <ele>117</ele>
        <time>2014-09-07T09:59:26.000Z</time>
      </trkpt>
      <trkpt lat="47.35332" lon="-1.43125">
        <ele>117</ele>
        <time>2014-09-07T09:59:28.000Z</time>
      </trkpt>
      <trkpt lat="47.35336" lon="-1.43124">
        <ele>118</ele>
        <time>2014-09-07T09:59:30.000Z</time>
      </trkpt>
      <trkpt lat="47.35339" lon="-1.43126">
        <ele>119</ele>
        <time>2014-09-07T09:59:32.000Z</time>
      </trkpt>
      <trkpt lat="47.35342" lon="-1.43134">
        <ele>120</ele>
        <time>2014-09-07T09:59:34.000Z</time>
      </trkpt>
      <trkpt lat="47.35345" lon="-1.43144">
        <ele>121</ele>
        <time>2014-09-07T09:59:36.000Z</time>
      </trkpt>
      <trkpt lat="47.35347" lon="-1.43153">
        <ele>122</ele>
        <time>2014-09-07T09:59:38.000Z</time>
      </trkpt>
      <trkpt lat="47.3535" lon="-1.43167">
        <ele>122</ele>
        <time>2014-09-07T09:59:42.000Z</time>
      </trkpt>
      <trkpt lat="47.3535" lon="-1.43174">
        <ele>122</ele>
        <time>2014-09-07T09:59:44.000Z</time>
      </trkpt>
      <trkpt lat="47.35349" lon="-1.43177">
        <ele>122</ele>
        <time>2014-09-07T09:59:46.000Z</time>
      </trkpt>
      <trkpt lat="47.35349" lon="-1.43181">
        <ele>123</ele>
        <time>2014-09-07T09:59:48.000Z</time>
      </trkpt>
      <trkpt lat="47.35351" lon="-1.43183">
        <ele>123</ele>
        <time>2014-09-07T09:59:50.000Z</time>
      </trkpt>
      <trkpt lat="47.35353" lon="-1.4319">
        <ele>123</ele>
        <time>2014-09-07T09:59:54.000Z</time>
      </trkpt>
      <trkpt lat="47.35352" lon="-1.43205">
        <ele>123</ele>
        <time>2014-09-07T09:59:58.000Z</time>
      </trkpt>
      <trkpt lat="47.35357" lon="-1.43216">
        <ele>123</ele>
        <time>2014-09-07T10:00:02.000Z</time>
      </trkpt>
      <trkpt lat="47.35361" lon="-1.43219">
        <ele>123</ele>
        <time>2014-09-07T10:00:04.000Z</time>
      </trkpt>
      <trkpt lat="47.35364" lon="-1.43222">
        <ele>123</ele>
        <time>2014-09-07T10:00:06.000Z</time>
      </trkpt>
      <trkpt lat="47.35369" lon="-1.43229">
        <ele>123</ele>
        <time>2014-09-07T10:00:10.000Z</time>
      </trkpt>
      <trkpt lat="47.35374" lon="-1.43226">
        <ele>124</ele>
        <time>2014-09-07T10:00:12.000Z</time>
      </trkpt>
      <trkpt lat="47.35378" lon="-1.43225">
        <ele>124</ele>
        <time>2014-09-07T10:00:14.000Z</time>
      </trkpt>
      <trkpt lat="47.3538" lon="-1.43225">
        <ele>124</ele>
        <time>2014-09-07T10:00:16.000Z</time>
      </trkpt>
      <trkpt lat="47.35383" lon="-1.43224">
        <ele>124</ele>
        <time>2014-09-07T10:00:18.000Z</time>
      </trkpt>
      <trkpt lat="47.35385" lon="-1.43224">
        <ele>123</ele>
        <time>2014-09-07T10:00:20.000Z</time>
      </trkpt>
      <trkpt lat="47.35387" lon="-1.43225">
        <ele>123</ele>
        <time>2014-09-07T10:00:22.000Z</time>
      </trkpt>
      <trkpt lat="47.35387" lon="-1.43229">
        <ele>123</ele>
        <time>2014-09-07T10:00:24.000Z</time>
      </trkpt>
      <trkpt lat="47.35387" lon="-1.43238">
        <ele>124</ele>
        <time>2014-09-07T10:00:26.000Z</time>
      </trkpt>
      <trkpt lat="47.35389" lon="-1.43244">
        <ele>123</ele>
        <time>2014-09-07T10:00:28.000Z</time>
      </trkpt>
      <trkpt lat="47.35395" lon="-1.43246">
        <ele>122</ele>
        <time>2014-09-07T10:00:30.000Z</time>
      </trkpt>
      <trkpt lat="47.35401" lon="-1.43247">
        <ele>121</ele>
        <time>2014-09-07T10:00:32.000Z</time>
      </trkpt>
      <trkpt lat="47.35405" lon="-1.43242">
        <ele>120</ele>
        <time>2014-09-07T10:00:34.000Z</time>
      </trkpt>
      <trkpt lat="47.3541" lon="-1.43237">
        <ele>119</ele>
        <time>2014-09-07T10:00:36.000Z</time>
      </trkpt>
      <trkpt lat="47.35415" lon="-1.43232">
        <ele>118</ele>
        <time>2014-09-07T10:00:38.000Z</time>
      </trkpt>
      <trkpt lat="47.35419" lon="-1.43227">
        <ele>118</ele>
        <time>2014-09-07T10:00:42.000Z</time>
      </trkpt>
      <trkpt lat="47.3542" lon="-1.43224">
        <ele>117</ele>
        <time>2014-09-07T10:00:44.000Z</time>
      </trkpt>
      <trkpt lat="47.35423" lon="-1.43219">
        <ele>117</ele>
        <time>2014-09-07T10:00:46.000Z</time>
      </trkpt>
      <trkpt lat="47.35425" lon="-1.43216">
        <ele>116</ele>
        <time>2014-09-07T10:00:48.000Z</time>
      </trkpt>
      <trkpt lat="47.35425" lon="-1.43216">
        <ele>116</ele>
        <time>2014-09-07T10:00:50.000Z</time>
      </trkpt>
      <trkpt lat="47.35426" lon="-1.43216">
        <ele>115</ele>
        <time>2014-09-07T10:00:52.000Z</time>
      </trkpt>
      <trkpt lat="47.35427" lon="-1.43214">
        <ele>115</ele>
        <time>2014-09-07T10:00:54.000Z</time>
      </trkpt>
      <trkpt lat="47.35429" lon="-1.43212">
        <ele>115</ele>
        <time>2014-09-07T10:00:56.000Z</time>
      </trkpt>
      <trkpt lat="47.35431" lon="-1.43213">
        <ele>114</ele>
        <time>2014-09-07T10:00:58.000Z</time>
      </trkpt>
      <trkpt lat="47.35432" lon="-1.43213">
        <ele>115</ele>
        <time>2014-09-07T10:01:00.000Z</time>
      </trkpt>
      <trkpt lat="47.35434" lon="-1.43214">
        <ele>113</ele>
        <time>2014-09-07T10:01:02.000Z</time>
      </trkpt>
      <trkpt lat="47.35436" lon="-1.43216">
        <ele>112</ele>
        <time>2014-09-07T10:01:04.000Z</time>
      </trkpt>
      <trkpt lat="47.35439" lon="-1.43225">
        <ele>113</ele>
        <time>2014-09-07T10:01:08.000Z</time>
      </trkpt>
      <trkpt lat="47.35439" lon="-1.43229">
        <ele>114</ele>
        <time>2014-09-07T10:01:10.000Z</time>
      </trkpt>
      <trkpt lat="47.35438" lon="-1.43236">
        <ele>114</ele>
        <time>2014-09-07T10:01:12.000Z</time>
      </trkpt>
      <trkpt lat="47.35435" lon="-1.43241">
        <ele>115</ele>
        <time>2014-09-07T10:01:14.000Z</time>
      </trkpt>
      <trkpt lat="47.35434" lon="-1.43243">
        <ele>115</ele>
        <time>2014-09-07T10:01:16.000Z</time>
      </trkpt>
      <trkpt lat="47.35427" lon="-1.43251">
        <ele>114</ele>
        <time>2014-09-07T10:01:22.000Z</time>
      </trkpt>
      <trkpt lat="47.35423" lon="-1.43254">
        <ele>114</ele>
        <time>2014-09-07T10:01:24.000Z</time>
      </trkpt>
      <trkpt lat="47.3542" lon="-1.43262">
        <ele>114</ele>
        <time>2014-09-07T10:01:26.000Z</time>
      </trkpt>
      <trkpt lat="47.35416" lon="-1.43265">
        <ele>114</ele>
        <time>2014-09-07T10:01:28.000Z</time>
      </trkpt>
      <trkpt lat="47.35413" lon="-1.43266">
        <ele>113</ele>
        <time>2014-09-07T10:01:30.000Z</time>
      </trkpt>
      <trkpt lat="47.35411" lon="-1.43266">
        <ele>113</ele>
        <time>2014-09-07T10:01:32.000Z</time>
      </trkpt>
      <trkpt lat="47.35408" lon="-1.43269">
        <ele>113</ele>
        <time>2014-09-07T10:01:34.000Z</time>
      </trkpt>
      <trkpt lat="47.35403" lon="-1.43271">
        <ele>114</ele>
        <time>2014-09-07T10:01:38.000Z</time>
      </trkpt>
      <trkpt lat="47.35402" lon="-1.43274">
        <ele>113</ele>
        <time>2014-09-07T10:01:40.000Z</time>
      </trkpt>
      <trkpt lat="47.35401" lon="-1.43276">
        <ele>113</ele>
        <time>2014-09-07T10:01:42.000Z</time>
      </trkpt>
      <trkpt lat="47.354" lon="-1.43279">
        <ele>112</ele>
        <time>2014-09-07T10:01:44.000Z</time>
      </trkpt>
      <trkpt lat="47.354" lon="-1.43283">
        <ele>112</ele>
        <time>2014-09-07T10:01:46.000Z</time>
      </trkpt>
      <trkpt lat="47.35401" lon="-1.4329">
        <ele>111</ele>
        <time>2014-09-07T10:01:48.000Z</time>
      </trkpt>
      <trkpt lat="47.354" lon="-1.43298">
        <ele>110</ele>
        <time>2014-09-07T10:01:50.000Z</time>
      </trkpt>
      <trkpt lat="47.35395" lon="-1.433">
        <ele>110</ele>
        <time>2014-09-07T10:01:52.000Z</time>
      </trkpt>
      <trkpt lat="47.35391" lon="-1.43298">
        <ele>110</ele>
        <time>2014-09-07T10:01:54.000Z</time>
      </trkpt>
      <trkpt lat="47.35387" lon="-1.43298">
        <ele>110</ele>
        <time>2014-09-07T10:01:56.000Z</time>
      </trkpt>
      <trkpt lat="47.35384" lon="-1.43297">
        <ele>109</ele>
        <time>2014-09-07T10:01:58.000Z</time>
      </trkpt>
      <trkpt lat="47.35377" lon="-1.43292">
        <ele>109</ele>
        <time>2014-09-07T10:02:02.000Z</time>
      </trkpt>
      <trkpt lat="47.35374" lon="-1.43292">
        <ele>109</ele>
        <time>2014-09-07T10:02:04.000Z</time>
      </trkpt>
      <trkpt lat="47.35368" lon="-1.43292">
        <ele>110</ele>
        <time>2014-09-07T10:02:06.000Z</time>
      </trkpt>
      <trkpt lat="47.35362" lon="-1.43292">
        <ele>110</ele>
        <time>2014-09-07T10:02:08.000Z</time>
      </trkpt>
      <trkpt lat="47.35352" lon="-1.43293">
        <ele>109</ele>
        <time>2014-09-07T10:02:12.000Z</time>
      </trkpt>
      <trkpt lat="47.35349" lon="-1.43297">
        <ele>109</ele>
        <time>2014-09-07T10:02:14.000Z</time>
      </trkpt>
      <trkpt lat="47.35348" lon="-1.43303">
        <ele>109</ele>
        <time>2014-09-07T10:02:16.000Z</time>
      </trkpt>
      <trkpt lat="47.35345" lon="-1.43307">
        <ele>109</ele>
        <time>2014-09-07T10:02:18.000Z</time>
      </trkpt>
      <trkpt lat="47.35342" lon="-1.43308">
        <ele>110</ele>
        <time>2014-09-07T10:02:20.000Z</time>
      </trkpt>
      <trkpt lat="47.35339" lon="-1.43307">
        <ele>110</ele>
        <time>2014-09-07T10:02:22.000Z</time>
      </trkpt>
      <trkpt lat="47.35337" lon="-1.43308">
        <ele>111</ele>
        <time>2014-09-07T10:02:24.000Z</time>
      </trkpt>
      <trkpt lat="47.35335" lon="-1.4331">
        <ele>110</ele>
        <time>2014-09-07T10:02:26.000Z</time>
      </trkpt>
      <trkpt lat="47.35332" lon="-1.43315">
        <ele>109</ele>
        <time>2014-09-07T10:02:28.000Z</time>
      </trkpt>
      <trkpt lat="47.35332" lon="-1.43319">
        <ele>108</ele>
        <time>2014-09-07T10:02:30.000Z</time>
      </trkpt>
      <trkpt lat="47.3533" lon="-1.43322">
        <ele>107</ele>
        <time>2014-09-07T10:02:32.000Z</time>
      </trkpt>
      <trkpt lat="47.35327" lon="-1.43326">
        <ele>107</ele>
        <time>2014-09-07T10:02:34.000Z</time>
      </trkpt>
      <trkpt lat="47.35322" lon="-1.43328">
        <ele>107</ele>
        <time>2014-09-07T10:02:36.000Z</time>
      </trkpt>
      <trkpt lat="47.35315" lon="-1.43333">
        <ele>108</ele>
        <time>2014-09-07T10:02:40.000Z</time>
      </trkpt>
      <trkpt lat="47.3531" lon="-1.43334">
        <ele>108</ele>
        <time>2014-09-07T10:02:42.000Z</time>
      </trkpt>
      <trkpt lat="47.35306" lon="-1.43334">
        <ele>108</ele>
        <time>2014-09-07T10:02:44.000Z</time>
      </trkpt>
      <trkpt lat="47.35286" lon="-1.43332">
        <ele>107</ele>
        <time>2014-09-07T10:02:50.000Z</time>
      </trkpt>
      <trkpt lat="47.35277" lon="-1.43332">
        <ele>106</ele>
        <time>2014-09-07T10:02:52.000Z</time>
      </trkpt>
      <trkpt lat="47.35265" lon="-1.43336">
        <ele>105</ele>
        <time>2014-09-07T10:02:54.000Z</time>
      </trkpt>
      <trkpt lat="47.35255" lon="-1.43338">
        <ele>105</ele>
        <time>2014-09-07T10:02:56.000Z</time>
      </trkpt>
      <trkpt lat="47.35244" lon="-1.43341">
        <ele>106</ele>
        <time>2014-09-07T10:02:58.000Z</time>
      </trkpt>
      <trkpt lat="47.35225" lon="-1.43349">
        <ele>106</ele>
        <time>2014-09-07T10:03:02.000Z</time>
      </trkpt>
      <trkpt lat="47.35212" lon="-1.43353">
        <ele>107</ele>
        <time>2014-09-07T10:03:06.000Z</time>
      </trkpt>
      <trkpt lat="47.35207" lon="-1.43351">
        <ele>107</ele>
        <time>2014-09-07T10:03:08.000Z</time>
      </trkpt>
      <trkpt lat="47.35203" lon="-1.43348">
        <ele>106</ele>
        <time>2014-09-07T10:03:10.000Z</time>
      </trkpt>
      <trkpt lat="47.352" lon="-1.43348">
        <ele>106</ele>
        <time>2014-09-07T10:03:12.000Z</time>
      </trkpt>
      <trkpt lat="47.35193" lon="-1.43338">
        <ele>106</ele>
        <time>2014-09-07T10:03:18.000Z</time>
      </trkpt>
      <trkpt lat="47.35191" lon="-1.43329">
        <ele>105</ele>
        <time>2014-09-07T10:03:20.000Z</time>
      </trkpt>
      <trkpt lat="47.3519" lon="-1.43325">
        <ele>105</ele>
        <time>2014-09-07T10:03:22.000Z</time>
      </trkpt>
      <trkpt lat="47.35187" lon="-1.43323">
        <ele>104</ele>
        <time>2014-09-07T10:03:24.000Z</time>
      </trkpt>
      <trkpt lat="47.35185" lon="-1.43321">
        <ele>104</ele>
        <time>2014-09-07T10:03:26.000Z</time>
      </trkpt>
      <trkpt lat="47.35183" lon="-1.43318">
        <ele>103</ele>
        <time>2014-09-07T10:03:28.000Z</time>
      </trkpt>
      <trkpt lat="47.35179" lon="-1.43317">
        <ele>103</ele>
        <time>2014-09-07T10:03:30.000Z</time>
      </trkpt>
      <trkpt lat="47.35173" lon="-1.43315">
        <ele>103</ele>
        <time>2014-09-07T10:03:36.000Z</time>
      </trkpt>
      <trkpt lat="47.35169" lon="-1.43313">
        <ele>102</ele>
        <time>2014-09-07T10:03:38.000Z</time>
      </trkpt>
      <trkpt lat="47.35165" lon="-1.43311">
        <ele>102</ele>
        <time>2014-09-07T10:03:40.000Z</time>
      </trkpt>
      <trkpt lat="47.35163" lon="-1.43308">
        <ele>102</ele>
        <time>2014-09-07T10:03:42.000Z</time>
      </trkpt>
      <trkpt lat="47.35162" lon="-1.43303">
        <ele>102</ele>
        <time>2014-09-07T10:03:44.000Z</time>
      </trkpt>
      <trkpt lat="47.35158" lon="-1.43299">
        <ele>101</ele>
        <time>2014-09-07T10:03:46.000Z</time>
      </trkpt>
      <trkpt lat="47.35155" lon="-1.43297">
        <ele>101</ele>
        <time>2014-09-07T10:03:48.000Z</time>
      </trkpt>
      <trkpt lat="47.35154" lon="-1.43293">
        <ele>101</ele>
        <time>2014-09-07T10:03:50.000Z</time>
      </trkpt>
      <trkpt lat="47.35153" lon="-1.43289">
        <ele>101</ele>
        <time>2014-09-07T10:03:52.000Z</time>
      </trkpt>
      <trkpt lat="47.35151" lon="-1.43286">
        <ele>102</ele>
        <time>2014-09-07T10:03:54.000Z</time>
      </trkpt>
      <trkpt lat="47.3515" lon="-1.4328">
        <ele>102</ele>
        <time>2014-09-07T10:03:56.000Z</time>
      </trkpt>
      <trkpt lat="47.35147" lon="-1.43272">
        <ele>101</ele>
        <time>2014-09-07T10:03:58.000Z</time>
      </trkpt>
      <trkpt lat="47.35145" lon="-1.43256">
        <ele>101</ele>
        <time>2014-09-07T10:04:02.000Z</time>
      </trkpt>
      <trkpt lat="47.35144" lon="-1.43242">
        <ele>100</ele>
        <time>2014-09-07T10:04:06.000Z</time>
      </trkpt>
      <trkpt lat="47.35139" lon="-1.43239">
        <ele>98</ele>
        <time>2014-09-07T10:04:08.000Z</time>
      </trkpt>
      <trkpt lat="47.35136" lon="-1.43244">
        <ele>97</ele>
        <time>2014-09-07T10:04:10.000Z</time>
      </trkpt>
      <trkpt lat="47.35134" lon="-1.43251">
        <ele>97</ele>
        <time>2014-09-07T10:04:12.000Z</time>
      </trkpt>
      <trkpt lat="47.35132" lon="-1.43257">
        <ele>97</ele>
        <time>2014-09-07T10:04:14.000Z</time>
      </trkpt>
      <trkpt lat="47.35133" lon="-1.43258">
        <ele>97</ele>
        <time>2014-09-07T10:04:16.000Z</time>
      </trkpt>
      <trkpt lat="47.35136" lon="-1.43258">
        <ele>98</ele>
        <time>2014-09-07T10:04:20.000Z</time>
      </trkpt>
      <trkpt lat="47.35136" lon="-1.43262">
        <ele>98</ele>
        <time>2014-09-07T10:04:22.000Z</time>
      </trkpt>
      <trkpt lat="47.35139" lon="-1.43275">
        <ele>98</ele>
        <time>2014-09-07T10:04:28.000Z</time>
      </trkpt>
      <trkpt lat="47.35137" lon="-1.43277">
        <ele>97</ele>
        <time>2014-09-07T10:04:30.000Z</time>
      </trkpt>
      <trkpt lat="47.35137" lon="-1.43278">
        <ele>97</ele>
        <time>2014-09-07T10:04:32.000Z</time>
      </trkpt>
      <trkpt lat="47.35136" lon="-1.43283">
        <ele>97</ele>
        <time>2014-09-07T10:04:34.000Z</time>
      </trkpt>
      <trkpt lat="47.35137" lon="-1.43289">
        <ele>98</ele>
        <time>2014-09-07T10:04:36.000Z</time>
      </trkpt>
      <trkpt lat="47.35138" lon="-1.43299">
        <ele>99</ele>
        <time>2014-09-07T10:04:38.000Z</time>
      </trkpt>
      <trkpt lat="47.35144" lon="-1.43309">
        <ele>100</ele>
        <time>2014-09-07T10:04:40.000Z</time>
      </trkpt>
      <trkpt lat="47.35154" lon="-1.43323">
        <ele>98</ele>
        <time>2014-09-07T10:04:42.000Z</time>
      </trkpt>
      <trkpt lat="47.35157" lon="-1.43329">
        <ele>98</ele>
        <time>2014-09-07T10:04:44.000Z</time>
      </trkpt>
      <trkpt lat="47.35159" lon="-1.4333">
        <ele>98</ele>
        <time>2014-09-07T10:04:46.000Z</time>
      </trkpt>
      <trkpt lat="47.35159" lon="-1.43328">
        <ele>98</ele>
        <time>2014-09-07T10:04:48.000Z</time>
      </trkpt>
      <trkpt lat="47.35167" lon="-1.43331">
        <ele>98</ele>
        <time>2014-09-07T10:04:56.000Z</time>
      </trkpt>
      <trkpt lat="47.35169" lon="-1.43337">
        <ele>99</ele>
        <time>2014-09-07T10:05:00.000Z</time>
      </trkpt>
      <trkpt lat="47.35169" lon="-1.43342">
        <ele>96</ele>
        <time>2014-09-07T10:05:02.000Z</time>
      </trkpt>
      <trkpt lat="47.3517" lon="-1.43345">
        <ele>96</ele>
        <time>2014-09-07T10:05:04.000Z</time>
      </trkpt>
      <trkpt lat="47.3517" lon="-1.43348">
        <ele>96</ele>
        <time>2014-09-07T10:05:06.000Z</time>
      </trkpt>
      <trkpt lat="47.35172" lon="-1.43353">
        <ele>96</ele>
        <time>2014-09-07T10:05:08.000Z</time>
      </trkpt>
      <trkpt lat="47.35176" lon="-1.43357">
        <ele>97</ele>
        <time>2014-09-07T10:05:10.000Z</time>
      </trkpt>
      <trkpt lat="47.35178" lon="-1.43362">
        <ele>98</ele>
        <time>2014-09-07T10:05:12.000Z</time>
      </trkpt>
      <trkpt lat="47.35183" lon="-1.43364">
        <ele>99</ele>
        <time>2014-09-07T10:05:14.000Z</time>
      </trkpt>
      <trkpt lat="47.35187" lon="-1.43368">
        <ele>100</ele>
        <time>2014-09-07T10:05:16.000Z</time>
      </trkpt>
      <trkpt lat="47.35191" lon="-1.43373">
        <ele>100</ele>
        <time>2014-09-07T10:05:18.000Z</time>
      </trkpt>
      <trkpt lat="47.35194" lon="-1.43379">
        <ele>101</ele>
        <time>2014-09-07T10:05:20.000Z</time>
      </trkpt>
      <trkpt lat="47.352" lon="-1.43391">
        <ele>101</ele>
        <time>2014-09-07T10:05:22.000Z</time>
      </trkpt>
      <trkpt lat="47.35206" lon="-1.43404">
        <ele>102</ele>
        <time>2014-09-07T10:05:24.000Z</time>
      </trkpt>
      <trkpt lat="47.35214" lon="-1.43416">
        <ele>103</ele>
        <time>2014-09-07T10:05:28.000Z</time>
      </trkpt>
      <trkpt lat="47.35221" lon="-1.43427">
        <ele>104</ele>
        <time>2014-09-07T10:05:32.000Z</time>
      </trkpt>
      <trkpt lat="47.3522" lon="-1.43432">
        <ele>104</ele>
        <time>2014-09-07T10:05:34.000Z</time>
      </trkpt>
      <trkpt lat="47.35221" lon="-1.43437">
        <ele>105</ele>
        <time>2014-09-07T10:05:36.000Z</time>
      </trkpt>
      <trkpt lat="47.35223" lon="-1.43444">
        <ele>106</ele>
        <time>2014-09-07T10:05:38.000Z</time>
      </trkpt>
      <trkpt lat="47.35223" lon="-1.43451">
        <ele>107</ele>
        <time>2014-09-07T10:05:40.000Z</time>
      </trkpt>
      <trkpt lat="47.35224" lon="-1.43456">
        <ele>108</ele>
        <time>2014-09-07T10:05:42.000Z</time>
      </trkpt>
      <trkpt lat="47.35225" lon="-1.43459">
        <ele>108</ele>
        <time>2014-09-07T10:05:44.000Z</time>
      </trkpt>
      <trkpt lat="47.35225" lon="-1.43462">
        <ele>108</ele>
        <time>2014-09-07T10:05:46.000Z</time>
      </trkpt>
      <trkpt lat="47.35226" lon="-1.43463">
        <ele>109</ele>
        <time>2014-09-07T10:05:48.000Z</time>
      </trkpt>
      <trkpt lat="47.35227" lon="-1.43461">
        <ele>110</ele>
        <time>2014-09-07T10:05:50.000Z</time>
      </trkpt>
      <trkpt lat="47.35226" lon="-1.43462">
        <ele>111</ele>
        <time>2014-09-07T10:05:52.000Z</time>
      </trkpt>
      <trkpt lat="47.35228" lon="-1.43464">
        <ele>112</ele>
        <time>2014-09-07T10:05:54.000Z</time>
      </trkpt>
      <trkpt lat="47.35229" lon="-1.43465">
        <ele>113</ele>
        <time>2014-09-07T10:05:56.000Z</time>
      </trkpt>
      <trkpt lat="47.35229" lon="-1.43467">
        <ele>114</ele>
        <time>2014-09-07T10:05:58.000Z</time>
      </trkpt>
      <trkpt lat="47.35229" lon="-1.4347">
        <ele>115</ele>
        <time>2014-09-07T10:06:00.000Z</time>
      </trkpt>
      <trkpt lat="47.35229" lon="-1.43479">
        <ele>116</ele>
        <time>2014-09-07T10:06:02.000Z</time>
      </trkpt>
      <trkpt lat="47.35231" lon="-1.4349">
        <ele>116</ele>
        <time>2014-09-07T10:06:08.000Z</time>
      </trkpt>
      <trkpt lat="47.35229" lon="-1.43493">
        <ele>115</ele>
        <time>2014-09-07T10:06:10.000Z</time>
      </trkpt>
      <trkpt lat="47.35228" lon="-1.43499">
        <ele>114</ele>
        <time>2014-09-07T10:06:12.000Z</time>
      </trkpt>
      <trkpt lat="47.35228" lon="-1.43503">
        <ele>115</ele>
        <time>2014-09-07T10:06:14.000Z</time>
      </trkpt>
      <trkpt lat="47.3523" lon="-1.43505">
        <ele>114</ele>
        <time>2014-09-07T10:06:16.000Z</time>
      </trkpt>
      <trkpt lat="47.35234" lon="-1.43508">
        <ele>113</ele>
        <time>2014-09-07T10:06:18.000Z</time>
      </trkpt>
      <trkpt lat="47.35238" lon="-1.43509">
        <ele>113</ele>
        <time>2014-09-07T10:06:20.000Z</time>
      </trkpt>
      <trkpt lat="47.35238" lon="-1.43515">
        <ele>113</ele>
        <time>2014-09-07T10:06:22.000Z</time>
      </trkpt>
      <trkpt lat="47.35237" lon="-1.43523">
        <ele>113</ele>
        <time>2014-09-07T10:06:24.000Z</time>
      </trkpt>
      <trkpt lat="47.35237" lon="-1.43568">
        <ele>113</ele>
        <time>2014-09-07T10:06:30.000Z</time>
      </trkpt>
      <trkpt lat="47.35243" lon="-1.43584">
        <ele>113</ele>
        <time>2014-09-07T10:06:32.000Z</time>
      </trkpt>
      <trkpt lat="47.35249" lon="-1.43594">
        <ele>111</ele>
        <time>2014-09-07T10:06:34.000Z</time>
      </trkpt>
      <trkpt lat="47.35253" lon="-1.43596">
        <ele>110</ele>
        <time>2014-09-07T10:06:36.000Z</time>
      </trkpt>
      <trkpt lat="47.35254" lon="-1.43597">
        <ele>109</ele>
        <time>2014-09-07T10:06:38.000Z</time>
      </trkpt>
      <trkpt lat="47.35256" lon="-1.43598">
        <ele>109</ele>
        <time>2014-09-07T10:06:40.000Z</time>
      </trkpt>
      <trkpt lat="47.35257" lon="-1.43602">
        <ele>109</ele>
        <time>2014-09-07T10:06:42.000Z</time>
      </trkpt>
      <trkpt lat="47.35258" lon="-1.43603">
        <ele>109</ele>
        <time>2014-09-07T10:06:44.000Z</time>
      </trkpt>
      <trkpt lat="47.35258" lon="-1.43604">
        <ele>108</ele>
        <time>2014-09-07T10:06:46.000Z</time>
      </trkpt>
      <trkpt lat="47.35258" lon="-1.43604">
        <ele>107</ele>
        <time>2014-09-07T10:06:48.000Z</time>
      </trkpt>
      <trkpt lat="47.3526" lon="-1.43605">
        <ele>108</ele>
        <time>2014-09-07T10:06:50.000Z</time>
      </trkpt>
      <trkpt lat="47.35261" lon="-1.43604">
        <ele>108</ele>
        <time>2014-09-07T10:06:52.000Z</time>
      </trkpt>
      <trkpt lat="47.35261" lon="-1.43602">
        <ele>108</ele>
        <time>2014-09-07T10:06:54.000Z</time>
      </trkpt>
      <trkpt lat="47.35261" lon="-1.43604">
        <ele>108</ele>
        <time>2014-09-07T10:06:58.000Z</time>
      </trkpt>
      <trkpt lat="47.35261" lon="-1.43606">
        <ele>107</ele>
        <time>2014-09-07T10:07:01.000Z</time>
      </trkpt>
      <trkpt lat="47.35261" lon="-1.43608">
        <ele>107</ele>
        <time>2014-09-07T10:07:02.000Z</time>
      </trkpt>
      <trkpt lat="47.35263" lon="-1.4361">
        <ele>108</ele>
        <time>2014-09-07T10:07:04.000Z</time>
      </trkpt>
      <trkpt lat="47.35265" lon="-1.43609">
        <ele>106</ele>
        <time>2014-09-07T10:07:06.000Z</time>
      </trkpt>
      <trkpt lat="47.35269" lon="-1.43613">
        <ele>105</ele>
        <time>2014-09-07T10:07:10.000Z</time>
      </trkpt>
      <trkpt lat="47.35272" lon="-1.43617">
        <ele>103</ele>
        <time>2014-09-07T10:07:12.000Z</time>
      </trkpt>
      <trkpt lat="47.35274" lon="-1.4362">
        <ele>101</ele>
        <time>2014-09-07T10:07:14.000Z</time>
      </trkpt>
      <trkpt lat="47.35275" lon="-1.43621">
        <ele>100</ele>
        <time>2014-09-07T10:07:16.000Z</time>
      </trkpt>
      <trkpt lat="47.35278" lon="-1.43623">
        <ele>99</ele>
        <time>2014-09-07T10:07:18.000Z</time>
      </trkpt>
      <trkpt lat="47.35283" lon="-1.43625">
        <ele>98</ele>
        <time>2014-09-07T10:07:20.000Z</time>
      </trkpt>
      <trkpt lat="47.35286" lon="-1.43628">
        <ele>97</ele>
        <time>2014-09-07T10:07:22.000Z</time>
      </trkpt>
      <trkpt lat="47.35291" lon="-1.43631">
        <ele>96</ele>
        <time>2014-09-07T10:07:26.000Z</time>
      </trkpt>
      <trkpt lat="47.35295" lon="-1.43634">
        <ele>97</ele>
        <time>2014-09-07T10:07:30.000Z</time>
      </trkpt>
      <trkpt lat="47.35303" lon="-1.43643">
        <ele>98</ele>
        <time>2014-09-07T10:07:36.000Z</time>
      </trkpt>
      <trkpt lat="47.35305" lon="-1.43648">
        <ele>98</ele>
        <time>2014-09-07T10:07:38.000Z</time>
      </trkpt>
      <trkpt lat="47.35308" lon="-1.43654">
        <ele>98</ele>
        <time>2014-09-07T10:07:40.000Z</time>
      </trkpt>
      <trkpt lat="47.3531" lon="-1.43661">
        <ele>97</ele>
        <time>2014-09-07T10:07:42.000Z</time>
      </trkpt>
      <trkpt lat="47.35312" lon="-1.43672">
        <ele>96</ele>
        <time>2014-09-07T10:07:44.000Z</time>
      </trkpt>
      <trkpt lat="47.35327" lon="-1.43718">
        <ele>95</ele>
        <time>2014-09-07T10:07:54.000Z</time>
      </trkpt>
      <trkpt lat="47.35329" lon="-1.43725">
        <ele>96</ele>
        <time>2014-09-07T10:07:56.000Z</time>
      </trkpt>
      <trkpt lat="47.35332" lon="-1.43735">
        <ele>95</ele>
        <time>2014-09-07T10:07:58.000Z</time>
      </trkpt>
      <trkpt lat="47.35335" lon="-1.43746">
        <ele>96</ele>
        <time>2014-09-07T10:08:00.000Z</time>
      </trkpt>
      <trkpt lat="47.35339" lon="-1.43757">
        <ele>96</ele>
        <time>2014-09-07T10:08:02.000Z</time>
      </trkpt>
      <trkpt lat="47.35352" lon="-1.43796">
        <ele>96</ele>
        <time>2014-09-07T10:08:08.000Z</time>
      </trkpt>
      <trkpt lat="47.35359" lon="-1.43823">
        <ele>95</ele>
        <time>2014-09-07T10:08:12.000Z</time>
      </trkpt>
      <trkpt lat="47.35364" lon="-1.43829">
        <ele>94</ele>
        <time>2014-09-07T10:08:14.000Z</time>
      </trkpt>
      <trkpt lat="47.35378" lon="-1.43831">
        <ele>94</ele>
        <time>2014-09-07T10:08:18.000Z</time>
      </trkpt>
      <trkpt lat="47.35387" lon="-1.43833">
        <ele>93</ele>
        <time>2014-09-07T10:08:20.000Z</time>
      </trkpt>
      <trkpt lat="47.35397" lon="-1.43833">
        <ele>93</ele>
        <time>2014-09-07T10:08:22.000Z</time>
      </trkpt>
      <trkpt lat="47.35417" lon="-1.43838">
        <ele>94</ele>
        <time>2014-09-07T10:08:26.000Z</time>
      </trkpt>
      <trkpt lat="47.35435" lon="-1.43843">
        <ele>94</ele>
        <time>2014-09-07T10:08:30.000Z</time>
      </trkpt>
      <trkpt lat="47.3544" lon="-1.43853">
        <ele>93</ele>
        <time>2014-09-07T10:08:32.000Z</time>
      </trkpt>
      <trkpt lat="47.35438" lon="-1.43861">
        <ele>92</ele>
        <time>2014-09-07T10:08:34.000Z</time>
      </trkpt>
      <trkpt lat="47.35431" lon="-1.43862">
        <ele>92</ele>
        <time>2014-09-07T10:08:36.000Z</time>
      </trkpt>
      <trkpt lat="47.35422" lon="-1.4386">
        <ele>92</ele>
        <time>2014-09-07T10:08:38.000Z</time>
      </trkpt>
      <trkpt lat="47.35413" lon="-1.4386">
        <ele>91</ele>
        <time>2014-09-07T10:08:40.000Z</time>
      </trkpt>
      <trkpt lat="47.35404" lon="-1.43858">
        <ele>91</ele>
        <time>2014-09-07T10:08:42.000Z</time>
      </trkpt>
      <trkpt lat="47.35399" lon="-1.43853">
        <ele>91</ele>
        <time>2014-09-07T10:08:44.000Z</time>
      </trkpt>
      <trkpt lat="47.35394" lon="-1.43853">
        <ele>92</ele>
        <time>2014-09-07T10:08:46.000Z</time>
      </trkpt>
      <trkpt lat="47.35387" lon="-1.43855">
        <ele>92</ele>
        <time>2014-09-07T10:08:48.000Z</time>
      </trkpt>
      <trkpt lat="47.35379" lon="-1.43852">
        <ele>91</ele>
        <time>2014-09-07T10:08:50.000Z</time>
      </trkpt>
      <trkpt lat="47.35373" lon="-1.43853">
        <ele>91</ele>
        <time>2014-09-07T10:08:52.000Z</time>
      </trkpt>
      <trkpt lat="47.35369" lon="-1.43856">
        <ele>90</ele>
        <time>2014-09-07T10:08:54.000Z</time>
      </trkpt>
      <trkpt lat="47.35366" lon="-1.4386">
        <ele>90</ele>
        <time>2014-09-07T10:08:56.000Z</time>
      </trkpt>
      <trkpt lat="47.3536" lon="-1.43863">
        <ele>89</ele>
        <time>2014-09-07T10:08:58.000Z</time>
      </trkpt>
      <trkpt lat="47.3535" lon="-1.43873">
        <ele>90</ele>
        <time>2014-09-07T10:09:02.000Z</time>
      </trkpt>
      <trkpt lat="47.35343" lon="-1.43884">
        <ele>90</ele>
        <time>2014-09-07T10:09:06.000Z</time>
      </trkpt>
      <trkpt lat="47.35339" lon="-1.43893">
        <ele>89</ele>
        <time>2014-09-07T10:09:08.000Z</time>
      </trkpt>
      <trkpt lat="47.35337" lon="-1.43903">
        <ele>89</ele>
        <time>2014-09-07T10:09:10.000Z</time>
      </trkpt>
      <trkpt lat="47.35332" lon="-1.43922">
        <ele>88</ele>
        <time>2014-09-07T10:09:14.000Z</time>
      </trkpt>
      <trkpt lat="47.35332" lon="-1.43932">
        <ele>87</ele>
        <time>2014-09-07T10:09:16.000Z</time>
      </trkpt>
      <trkpt lat="47.35329" lon="-1.43944">
        <ele>86</ele>
        <time>2014-09-07T10:09:18.000Z</time>
      </trkpt>
      <trkpt lat="47.35329" lon="-1.43957">
        <ele>87</ele>
        <time>2014-09-07T10:09:20.000Z</time>
      </trkpt>
      <trkpt lat="47.35339" lon="-1.44034">
        <ele>86</ele>
        <time>2014-09-07T10:09:30.000Z</time>
      </trkpt>
      <trkpt lat="47.35341" lon="-1.44048">
        <ele>86</ele>
        <time>2014-09-07T10:09:32.000Z</time>
      </trkpt>
      <trkpt lat="47.35344" lon="-1.44061">
        <ele>87</ele>
        <time>2014-09-07T10:09:34.000Z</time>
      </trkpt>
      <trkpt lat="47.3535" lon="-1.44072">
        <ele>87</ele>
        <time>2014-09-07T10:09:36.000Z</time>
      </trkpt>
      <trkpt lat="47.35354" lon="-1.44086">
        <ele>87</ele>
        <time>2014-09-07T10:09:38.000Z</time>
      </trkpt>
      <trkpt lat="47.35363" lon="-1.44124">
        <ele>86</ele>
        <time>2014-09-07T10:09:42.000Z</time>
      </trkpt>
      <trkpt lat="47.35367" lon="-1.44143">
        <ele>85</ele>
        <time>2014-09-07T10:09:44.000Z</time>
      </trkpt>
      <trkpt lat="47.35371" lon="-1.44162">
        <ele>85</ele>
        <time>2014-09-07T10:09:46.000Z</time>
      </trkpt>
      <trkpt lat="47.35373" lon="-1.4418">
        <ele>84</ele>
        <time>2014-09-07T10:09:48.000Z</time>
      </trkpt>
      <trkpt lat="47.35377" lon="-1.44198">
        <ele>83</ele>
        <time>2014-09-07T10:09:50.000Z</time>
      </trkpt>
      <trkpt lat="47.3539" lon="-1.44249">
        <ele>83</ele>
        <time>2014-09-07T10:09:56.000Z</time>
      </trkpt>
      <trkpt lat="47.35401" lon="-1.44258">
        <ele>82</ele>
        <time>2014-09-07T10:09:58.000Z</time>
      </trkpt>
      <trkpt lat="47.35407" lon="-1.44266">
        <ele>82</ele>
        <time>2014-09-07T10:10:00.000Z</time>
      </trkpt>
      <trkpt lat="47.35405" lon="-1.44272">
        <ele>82</ele>
        <time>2014-09-07T10:10:02.000Z</time>
      </trkpt>
      <trkpt lat="47.35402" lon="-1.44276">
        <ele>82</ele>
        <time>2014-09-07T10:10:04.000Z</time>
      </trkpt>
      <trkpt lat="47.35402" lon="-1.44281">
        <ele>82</ele>
        <time>2014-09-07T10:10:06.000Z</time>
      </trkpt>
      <trkpt lat="47.35401" lon="-1.4429">
        <ele>81</ele>
        <time>2014-09-07T10:10:08.000Z</time>
      </trkpt>
      <trkpt lat="47.35405" lon="-1.44308">
        <ele>82</ele>
        <time>2014-09-07T10:10:12.000Z</time>
      </trkpt>
      <trkpt lat="47.35406" lon="-1.44319">
        <ele>83</ele>
        <time>2014-09-07T10:10:14.000Z</time>
      </trkpt>
      <trkpt lat="47.35406" lon="-1.4433">
        <ele>83</ele>
        <time>2014-09-07T10:10:16.000Z</time>
      </trkpt>
      <trkpt lat="47.35408" lon="-1.44342">
        <ele>83</ele>
        <time>2014-09-07T10:10:18.000Z</time>
      </trkpt>
      <trkpt lat="47.35411" lon="-1.44366">
        <ele>83</ele>
        <time>2014-09-07T10:10:22.000Z</time>
      </trkpt>
      <trkpt lat="47.35414" lon="-1.44379">
        <ele>83</ele>
        <time>2014-09-07T10:10:24.000Z</time>
      </trkpt>
      <trkpt lat="47.35418" lon="-1.44385">
        <ele>84</ele>
        <time>2014-09-07T10:10:26.000Z</time>
      </trkpt>
      <trkpt lat="47.35419" lon="-1.44389">
        <ele>85</ele>
        <time>2014-09-07T10:10:28.000Z</time>
      </trkpt>
      <trkpt lat="47.35419" lon="-1.44391">
        <ele>84</ele>
        <time>2014-09-07T10:10:30.000Z</time>
      </trkpt>
      <trkpt lat="47.3542" lon="-1.44394">
        <ele>84</ele>
        <time>2014-09-07T10:10:33.000Z</time>
      </trkpt>
      <trkpt lat="47.35422" lon="-1.44394">
        <ele>84</ele>
        <time>2014-09-07T10:10:35.000Z</time>
      </trkpt>
      <trkpt lat="47.35425" lon="-1.44394">
        <ele>83</ele>
        <time>2014-09-07T10:10:37.000Z</time>
      </trkpt>
      <trkpt lat="47.35423" lon="-1.44397">
        <ele>82</ele>
        <time>2014-09-07T10:10:39.000Z</time>
      </trkpt>
      <trkpt lat="47.35419" lon="-1.44403">
        <ele>80</ele>
        <time>2014-09-07T10:10:41.000Z</time>
      </trkpt>
      <trkpt lat="47.35421" lon="-1.44407">
        <ele>81</ele>
        <time>2014-09-07T10:10:43.000Z</time>
      </trkpt>
      <trkpt lat="47.35424" lon="-1.44415">
        <ele>78</ele>
        <time>2014-09-07T10:10:45.000Z</time>
      </trkpt>
      <trkpt lat="47.35425" lon="-1.44416">
        <ele>78</ele>
        <time>2014-09-07T10:10:47.000Z</time>
      </trkpt>
      <trkpt lat="47.35426" lon="-1.44418">
        <ele>78</ele>
        <time>2014-09-07T10:10:49.000Z</time>
      </trkpt>
      <trkpt lat="47.35427" lon="-1.44421">
        <ele>78</ele>
        <time>2014-09-07T10:10:51.000Z</time>
      </trkpt>
      <trkpt lat="47.35428" lon="-1.44422">
        <ele>76</ele>
        <time>2014-09-07T10:10:53.000Z</time>
      </trkpt>
      <trkpt lat="47.3543" lon="-1.44424">
        <ele>78</ele>
        <time>2014-09-07T10:10:55.000Z</time>
      </trkpt>
      <trkpt lat="47.35432" lon="-1.44428">
        <ele>78</ele>
        <time>2014-09-07T10:10:57.000Z</time>
      </trkpt>
      <trkpt lat="47.35436" lon="-1.44437">
        <ele>80</ele>
        <time>2014-09-07T10:10:59.000Z</time>
      </trkpt>
      <trkpt lat="47.35439" lon="-1.44447">
        <ele>82</ele>
        <time>2014-09-07T10:11:01.000Z</time>
      </trkpt>
      <trkpt lat="47.35442" lon="-1.44459">
        <ele>83</ele>
        <time>2014-09-07T10:11:03.000Z</time>
      </trkpt>
      <trkpt lat="47.3545" lon="-1.44486">
        <ele>84</ele>
        <time>2014-09-07T10:11:07.000Z</time>
      </trkpt>
      <trkpt lat="47.35453" lon="-1.44501">
        <ele>83</ele>
        <time>2014-09-07T10:11:09.000Z</time>
      </trkpt>
      <trkpt lat="47.35458" lon="-1.44515">
        <ele>84</ele>
        <time>2014-09-07T10:11:12.000Z</time>
      </trkpt>
      <trkpt lat="47.35462" lon="-1.44528">
        <ele>83</ele>
        <time>2014-09-07T10:11:13.000Z</time>
      </trkpt>
      <trkpt lat="47.35466" lon="-1.44541">
        <ele>84</ele>
        <time>2014-09-07T10:11:15.000Z</time>
      </trkpt>
      <trkpt lat="47.3547" lon="-1.4455">
        <ele>85</ele>
        <time>2014-09-07T10:11:17.000Z</time>
      </trkpt>
      <trkpt lat="47.35477" lon="-1.44576">
        <ele>86</ele>
        <time>2014-09-07T10:11:21.000Z</time>
      </trkpt>
      <trkpt lat="47.35487" lon="-1.44599">
        <ele>87</ele>
        <time>2014-09-07T10:11:25.000Z</time>
      </trkpt>
      <trkpt lat="47.35497" lon="-1.4462">
        <ele>88</ele>
        <time>2014-09-07T10:11:29.000Z</time>
      </trkpt>
      <trkpt lat="47.35497" lon="-1.44633">
        <ele>88</ele>
        <time>2014-09-07T10:11:33.000Z</time>
      </trkpt>
      <trkpt lat="47.355" lon="-1.44645">
        <ele>88</ele>
        <time>2014-09-07T10:11:37.000Z</time>
      </trkpt>
      <trkpt lat="47.35503" lon="-1.44649">
        <ele>88</ele>
        <time>2014-09-07T10:11:39.000Z</time>
      </trkpt>
      <trkpt lat="47.35505" lon="-1.44654">
        <ele>87</ele>
        <time>2014-09-07T10:11:41.000Z</time>
      </trkpt>
      <trkpt lat="47.35506" lon="-1.44656">
        <ele>87</ele>
        <time>2014-09-07T10:11:43.000Z</time>
      </trkpt>
      <trkpt lat="47.35506" lon="-1.44657">
        <ele>86</ele>
        <time>2014-09-07T10:11:45.000Z</time>
      </trkpt>
      <trkpt lat="47.35508" lon="-1.44662">
        <ele>85</ele>
        <time>2014-09-07T10:11:47.000Z</time>
      </trkpt>
      <trkpt lat="47.35509" lon="-1.44666">
        <ele>85</ele>
        <time>2014-09-07T10:11:49.000Z</time>
      </trkpt>
      <trkpt lat="47.35511" lon="-1.44671">
        <ele>84</ele>
        <time>2014-09-07T10:11:51.000Z</time>
      </trkpt>
      <trkpt lat="47.35512" lon="-1.44675">
        <ele>83</ele>
        <time>2014-09-07T10:11:55.000Z</time>
      </trkpt>
      <trkpt lat="47.35512" lon="-1.44677">
        <ele>83</ele>
        <time>2014-09-07T10:11:57.000Z</time>
      </trkpt>
      <trkpt lat="47.35511" lon="-1.44679">
        <ele>83</ele>
        <time>2014-09-07T10:11:59.000Z</time>
      </trkpt>
      <trkpt lat="47.35506" lon="-1.44691">
        <ele>82</ele>
        <time>2014-09-07T10:12:03.000Z</time>
      </trkpt>
      <trkpt lat="47.35503" lon="-1.44695">
        <ele>83</ele>
        <time>2014-09-07T10:12:05.000Z</time>
      </trkpt>
      <trkpt lat="47.35501" lon="-1.44699">
        <ele>82</ele>
        <time>2014-09-07T10:12:07.000Z</time>
      </trkpt>
      <trkpt lat="47.35502" lon="-1.44704">
        <ele>82</ele>
        <time>2014-09-07T10:12:09.000Z</time>
      </trkpt>
      <trkpt lat="47.355" lon="-1.44716">
        <ele>81</ele>
        <time>2014-09-07T10:12:13.000Z</time>
      </trkpt>
      <trkpt lat="47.355" lon="-1.44721">
        <ele>82</ele>
        <time>2014-09-07T10:12:15.000Z</time>
      </trkpt>
      <trkpt lat="47.35497" lon="-1.44725">
        <ele>81</ele>
        <time>2014-09-07T10:12:17.000Z</time>
      </trkpt>
      <trkpt lat="47.35497" lon="-1.44729">
        <ele>82</ele>
        <time>2014-09-07T10:12:19.000Z</time>
      </trkpt>
      <trkpt lat="47.35497" lon="-1.44733">
        <ele>83</ele>
        <time>2014-09-07T10:12:21.000Z</time>
      </trkpt>
      <trkpt lat="47.35498" lon="-1.4474">
        <ele>84</ele>
        <time>2014-09-07T10:12:23.000Z</time>
      </trkpt>
      <trkpt lat="47.35498" lon="-1.44747">
        <ele>85</ele>
        <time>2014-09-07T10:12:25.000Z</time>
      </trkpt>
      <trkpt lat="47.35499" lon="-1.44757">
        <ele>85</ele>
        <time>2014-09-07T10:12:29.000Z</time>
      </trkpt>
      <trkpt lat="47.355" lon="-1.44764">
        <ele>85</ele>
        <time>2014-09-07T10:12:33.000Z</time>
      </trkpt>
      <trkpt lat="47.35501" lon="-1.44768">
        <ele>86</ele>
        <time>2014-09-07T10:12:35.000Z</time>
      </trkpt>
      <trkpt lat="47.35506" lon="-1.44782">
        <ele>86</ele>
        <time>2014-09-07T10:12:41.000Z</time>
      </trkpt>
      <trkpt lat="47.35507" lon="-1.44785">
        <ele>86</ele>
        <time>2014-09-07T10:12:43.000Z</time>
      </trkpt>
      <trkpt lat="47.35508" lon="-1.44789">
        <ele>87</ele>
        <time>2014-09-07T10:12:45.000Z</time>
      </trkpt>
      <trkpt lat="47.35511" lon="-1.44797">
        <ele>85</ele>
        <time>2014-09-07T10:12:47.000Z</time>
      </trkpt>
      <trkpt lat="47.35511" lon="-1.44798">
        <ele>85</ele>
        <time>2014-09-07T10:12:49.000Z</time>
      </trkpt>
      <trkpt lat="47.35514" lon="-1.44802">
        <ele>82</ele>
        <time>2014-09-07T10:12:51.000Z</time>
      </trkpt>
      <trkpt lat="47.35516" lon="-1.44804">
        <ele>81</ele>
        <time>2014-09-07T10:12:53.000Z</time>
      </trkpt>
      <trkpt lat="47.35516" lon="-1.44805">
        <ele>81</ele>
        <time>2014-09-07T10:12:55.000Z</time>
      </trkpt>
      <trkpt lat="47.35515" lon="-1.44805">
        <ele>81</ele>
        <time>2014-09-07T10:12:57.000Z</time>
      </trkpt>
      <trkpt lat="47.35516" lon="-1.44806">
        <ele>81</ele>
        <time>2014-09-07T10:12:59.000Z</time>
      </trkpt>
      <trkpt lat="47.35517" lon="-1.44806">
        <ele>79</ele>
        <time>2014-09-07T10:13:03.000Z</time>
      </trkpt>
      <trkpt lat="47.35518" lon="-1.44806">
        <ele>79</ele>
        <time>2014-09-07T10:13:05.000Z</time>
      </trkpt>
      <trkpt lat="47.35518" lon="-1.44806">
        <ele>79</ele>
        <time>2014-09-07T10:13:09.000Z</time>
      </trkpt>
      <trkpt lat="47.35518" lon="-1.44806">
        <ele>79</ele>
        <time>2014-09-07T10:13:11.000Z</time>
      </trkpt>
      <trkpt lat="47.35518" lon="-1.44806">
        <ele>79</ele>
        <time>2014-09-07T10:13:13.000Z</time>
      </trkpt>
      <trkpt lat="47.35519" lon="-1.44807">
        <ele>79</ele>
        <time>2014-09-07T10:13:15.000Z</time>
      </trkpt>
      <trkpt lat="47.35519" lon="-1.44807">
        <ele>79</ele>
        <time>2014-09-07T10:13:17.000Z</time>
      </trkpt>
      <trkpt lat="47.35519" lon="-1.44807">
        <ele>79</ele>
        <time>2014-09-07T10:13:19.000Z</time>
      </trkpt>
      <trkpt lat="47.35519" lon="-1.44807">
        <ele>79</ele>
        <time>2014-09-07T10:13:23.000Z</time>
      </trkpt>
      <trkpt lat="47.35519" lon="-1.44807">
        <ele>79</ele>
        <time>2014-09-07T10:13:25.000Z</time>
      </trkpt>
      <trkpt lat="47.35519" lon="-1.44807">
        <ele>79</ele>
        <time>2014-09-07T10:13:27.000Z</time>
      </trkpt>
      <trkpt lat="47.35519" lon="-1.44807">
        <ele>79</ele>
        <time>2014-09-07T10:13:29.000Z</time>
      </trkpt>
      <trkpt lat="47.35519" lon="-1.44807">
        <ele>79</ele>
        <time>2014-09-07T10:13:31.000Z</time>
      </trkpt>
      <trkpt lat="47.35519" lon="-1.44807">
        <ele>79</ele>
        <time>2014-09-07T10:13:33.000Z</time>
      </trkpt>
      <trkpt lat="47.35519" lon="-1.44807">
        <ele>79</ele>
        <time>2014-09-07T10:13:37.000Z</time>
      </trkpt>
      <trkpt lat="47.35519" lon="-1.44807">
        <ele>79</ele>
        <time>2014-09-07T10:13:39.000Z</time>
      </trkpt>
      <trkpt lat="47.35519" lon="-1.44807">
        <ele>79</ele>
        <time>2014-09-07T10:13:43.000Z</time>
      </trkpt>
      <trkpt lat="47.35519" lon="-1.44807">
        <ele>79</ele>
        <time>2014-09-07T10:13:46.000Z</time>
      </trkpt>
      <trkpt lat="47.35519" lon="-1.44806">
        <ele>79</ele>
        <time>2014-09-07T10:13:47.000Z</time>
      </trkpt>
      <trkpt lat="47.35519" lon="-1.44806">
        <ele>79</ele>
        <time>2014-09-07T10:13:49.000Z</time>
      </trkpt>
      <trkpt lat="47.35519" lon="-1.44806">
        <ele>79</ele>
        <time>2014-09-07T10:13:51.000Z</time>
      </trkpt>
      <trkpt lat="47.35519" lon="-1.44807">
        <ele>80</ele>
        <time>2014-09-07T10:13:53.000Z</time>
      </trkpt>
      <trkpt lat="47.35519" lon="-1.44807">
        <ele>80</ele>
        <time>2014-09-07T10:13:55.000Z</time>
      </trkpt>
      <trkpt lat="47.35519" lon="-1.44807">
        <ele>80</ele>
        <time>2014-09-07T10:13:57.000Z</time>
      </trkpt>
      <trkpt lat="47.35521" lon="-1.44809">
        <ele>80</ele>
        <time>2014-09-07T10:13:59.000Z</time>
      </trkpt>
      <trkpt lat="47.35528" lon="-1.44819">
        <ele>81</ele>
        <time>2014-09-07T10:14:03.000Z</time>
      </trkpt>
      <trkpt lat="47.35542" lon="-1.44838">
        <ele>82</ele>
        <time>2014-09-07T10:14:07.000Z</time>
      </trkpt>
      <trkpt lat="47.35549" lon="-1.44843">
        <ele>82</ele>
        <time>2014-09-07T10:14:09.000Z</time>
      </trkpt>
      <trkpt lat="47.35552" lon="-1.44846">
        <ele>82</ele>
        <time>2014-09-07T10:14:11.000Z</time>
      </trkpt>
      <trkpt lat="47.35554" lon="-1.4485">
        <ele>82</ele>
        <time>2014-09-07T10:14:13.000Z</time>
      </trkpt>
      <trkpt lat="47.35555" lon="-1.44851">
        <ele>82</ele>
        <time>2014-09-07T10:14:15.000Z</time>
      </trkpt>
      <trkpt lat="47.35558" lon="-1.44855">
        <ele>81</ele>
        <time>2014-09-07T10:14:17.000Z</time>
      </trkpt>
      <trkpt lat="47.35561" lon="-1.44857">
        <ele>80</ele>
        <time>2014-09-07T10:14:19.000Z</time>
      </trkpt>
      <trkpt lat="47.35562" lon="-1.4486">
        <ele>80</ele>
        <time>2014-09-07T10:14:21.000Z</time>
      </trkpt>
      <trkpt lat="47.35562" lon="-1.44864">
        <ele>80</ele>
        <time>2014-09-07T10:14:23.000Z</time>
      </trkpt>
      <trkpt lat="47.35562" lon="-1.44866">
        <ele>80</ele>
        <time>2014-09-07T10:14:27.000Z</time>
      </trkpt>
      <trkpt lat="47.35563" lon="-1.44871">
        <ele>79</ele>
        <time>2014-09-07T10:14:29.000Z</time>
      </trkpt>
      <trkpt lat="47.35566" lon="-1.44878">
        <ele>80</ele>
        <time>2014-09-07T10:14:31.000Z</time>
      </trkpt>
      <trkpt lat="47.35566" lon="-1.44887">
        <ele>79</ele>
        <time>2014-09-07T10:14:33.000Z</time>
      </trkpt>
      <trkpt lat="47.35564" lon="-1.44922">
        <ele>78</ele>
        <time>2014-09-07T10:14:39.000Z</time>
      </trkpt>
      <trkpt lat="47.35553" lon="-1.44954">
        <ele>77</ele>
        <time>2014-09-07T10:14:43.000Z</time>
      </trkpt>
      <trkpt lat="47.35551" lon="-1.44971">
        <ele>77</ele>
        <time>2014-09-07T10:14:45.000Z</time>
      </trkpt>
      <trkpt lat="47.35553" lon="-1.44986">
        <ele>77</ele>
        <time>2014-09-07T10:14:47.000Z</time>
      </trkpt>
      <trkpt lat="47.35558" lon="-1.45011">
        <ele>76</ele>
        <time>2014-09-07T10:14:51.000Z</time>
      </trkpt>
      <trkpt lat="47.35559" lon="-1.45022">
        <ele>75</ele>
        <time>2014-09-07T10:14:53.000Z</time>
      </trkpt>
      <trkpt lat="47.35561" lon="-1.45042">
        <ele>74</ele>
        <time>2014-09-07T10:14:57.000Z</time>
      </trkpt>
      <trkpt lat="47.35564" lon="-1.45063">
        <ele>75</ele>
        <time>2014-09-07T10:15:03.000Z</time>
      </trkpt>
      <trkpt lat="47.35569" lon="-1.45077">
        <ele>75</ele>
        <time>2014-09-07T10:15:07.000Z</time>
      </trkpt>
      <trkpt lat="47.35574" lon="-1.45081">
        <ele>76</ele>
        <time>2014-09-07T10:15:09.000Z</time>
      </trkpt>
      <trkpt lat="47.35579" lon="-1.45082">
        <ele>75</ele>
        <time>2014-09-07T10:15:11.000Z</time>
      </trkpt>
      <trkpt lat="47.35587" lon="-1.45083">
        <ele>76</ele>
        <time>2014-09-07T10:15:15.000Z</time>
      </trkpt>
      <trkpt lat="47.35596" lon="-1.45083">
        <ele>75</ele>
        <time>2014-09-07T10:15:19.000Z</time>
      </trkpt>
      <trkpt lat="47.356" lon="-1.4508">
        <ele>75</ele>
        <time>2014-09-07T10:15:21.000Z</time>
      </trkpt>
      <trkpt lat="47.35615" lon="-1.45072">
        <ele>74</ele>
        <time>2014-09-07T10:15:27.000Z</time>
      </trkpt>
      <trkpt lat="47.35633" lon="-1.45064">
        <ele>74</ele>
        <time>2014-09-07T10:15:33.000Z</time>
      </trkpt>
      <trkpt lat="47.35662" lon="-1.45057">
        <ele>75</ele>
        <time>2014-09-07T10:15:41.000Z</time>
      </trkpt>
      <trkpt lat="47.35675" lon="-1.45057">
        <ele>75</ele>
        <time>2014-09-07T10:15:45.000Z</time>
      </trkpt>
      <trkpt lat="47.35682" lon="-1.45056">
        <ele>76</ele>
        <time>2014-09-07T10:15:47.000Z</time>
      </trkpt>
      <trkpt lat="47.3569" lon="-1.45057">
        <ele>77</ele>
        <time>2014-09-07T10:15:49.000Z</time>
      </trkpt>
      <trkpt lat="47.35696" lon="-1.45059">
        <ele>77</ele>
        <time>2014-09-07T10:15:51.000Z</time>
      </trkpt>
      <trkpt lat="47.35702" lon="-1.45062">
        <ele>78</ele>
        <time>2014-09-07T10:15:53.000Z</time>
      </trkpt>
      <trkpt lat="47.35712" lon="-1.45074">
        <ele>79</ele>
        <time>2014-09-07T10:15:57.000Z</time>
      </trkpt>
      <trkpt lat="47.35719" lon="-1.45078">
        <ele>79</ele>
        <time>2014-09-07T10:15:59.000Z</time>
      </trkpt>
      <trkpt lat="47.35735" lon="-1.45094">
        <ele>80</ele>
        <time>2014-09-07T10:16:05.000Z</time>
      </trkpt>
      <trkpt lat="47.35741" lon="-1.45099">
        <ele>79</ele>
        <time>2014-09-07T10:16:07.000Z</time>
      </trkpt>
      <trkpt lat="47.35749" lon="-1.4511">
        <ele>77</ele>
        <time>2014-09-07T10:16:09.000Z</time>
      </trkpt>
      <trkpt lat="47.35755" lon="-1.45115">
        <ele>77</ele>
        <time>2014-09-07T10:16:11.000Z</time>
      </trkpt>
      <trkpt lat="47.3576" lon="-1.45119">
        <ele>77</ele>
        <time>2014-09-07T10:16:13.000Z</time>
      </trkpt>
      <trkpt lat="47.35764" lon="-1.45121">
        <ele>78</ele>
        <time>2014-09-07T10:16:17.000Z</time>
      </trkpt>
      <trkpt lat="47.35764" lon="-1.45121">
        <ele>77</ele>
        <time>2014-09-07T10:16:19.000Z</time>
      </trkpt>
      <trkpt lat="47.35764" lon="-1.45121">
        <ele>77</ele>
        <time>2014-09-07T10:16:21.000Z</time>
      </trkpt>
      <trkpt lat="47.35764" lon="-1.45121">
        <ele>77</ele>
        <time>2014-09-07T10:16:23.000Z</time>
      </trkpt>
      <trkpt lat="47.35764" lon="-1.45121">
        <ele>77</ele>
        <time>2014-09-07T10:16:25.000Z</time>
      </trkpt>
      <trkpt lat="47.35764" lon="-1.45121">
        <ele>77</ele>
        <time>2014-09-07T10:16:27.000Z</time>
      </trkpt>
      <trkpt lat="47.35767" lon="-1.45121">
        <ele>78</ele>
        <time>2014-09-07T10:16:29.000Z</time>
      </trkpt>
      <trkpt lat="47.35774" lon="-1.45122">
        <ele>78</ele>
        <time>2014-09-07T10:16:31.000Z</time>
      </trkpt>
      <trkpt lat="47.35785" lon="-1.45122">
        <ele>78</ele>
        <time>2014-09-07T10:16:33.000Z</time>
      </trkpt>
      <trkpt lat="47.35831" lon="-1.45118">
        <ele>77</ele>
        <time>2014-09-07T10:16:39.000Z</time>
      </trkpt>
      <trkpt lat="47.35865" lon="-1.45115">
        <ele>76</ele>
        <time>2014-09-07T10:16:43.000Z</time>
      </trkpt>
      <trkpt lat="47.3592" lon="-1.4511">
        <ele>76</ele>
        <time>2014-09-07T10:16:49.000Z</time>
      </trkpt>
      <trkpt lat="47.35939" lon="-1.45108">
        <ele>75</ele>
        <time>2014-09-07T10:16:51.000Z</time>
      </trkpt>
      <trkpt lat="47.3598" lon="-1.45105">
        <ele>76</ele>
        <time>2014-09-07T10:16:55.000Z</time>
      </trkpt>
      <trkpt lat="47.36036" lon="-1.451">
        <ele>77</ele>
        <time>2014-09-07T10:17:01.000Z</time>
      </trkpt>
      <trkpt lat="47.36087" lon="-1.45094">
        <ele>76</ele>
        <time>2014-09-07T10:17:07.000Z</time>
      </trkpt>
      <trkpt lat="47.36114" lon="-1.4509">
        <ele>77</ele>
        <time>2014-09-07T10:17:11.000Z</time>
      </trkpt>
      <trkpt lat="47.36135" lon="-1.45089">
        <ele>77</ele>
        <time>2014-09-07T10:17:15.000Z</time>
      </trkpt>
      <trkpt lat="47.36144" lon="-1.45087">
        <ele>77</ele>
        <time>2014-09-07T10:17:17.000Z</time>
      </trkpt>
      <trkpt lat="47.36161" lon="-1.45085">
        <ele>77</ele>
        <time>2014-09-07T10:17:21.000Z</time>
      </trkpt>
      <trkpt lat="47.36176" lon="-1.45083">
        <ele>78</ele>
        <time>2014-09-07T10:17:25.000Z</time>
      </trkpt>
      <trkpt lat="47.36201" lon="-1.45074">
        <ele>78</ele>
        <time>2014-09-07T10:17:31.000Z</time>
      </trkpt>
      <trkpt lat="47.36202" lon="-1.45059">
        <ele>77</ele>
        <time>2014-09-07T10:17:33.000Z</time>
      </trkpt>
      <trkpt lat="47.36201" lon="-1.45044">
        <ele>77</ele>
        <time>2014-09-07T10:17:35.000Z</time>
      </trkpt>
      <trkpt lat="47.36197" lon="-1.45003">
        <ele>78</ele>
        <time>2014-09-07T10:17:41.000Z</time>
      </trkpt>
      <trkpt lat="47.36189" lon="-1.44935">
        <ele>79</ele>
        <time>2014-09-07T10:17:53.000Z</time>
      </trkpt>
      <trkpt lat="47.36188" lon="-1.44925">
        <ele>78</ele>
        <time>2014-09-07T10:17:55.000Z</time>
      </trkpt>
      <trkpt lat="47.36187" lon="-1.44915">
        <ele>79</ele>
        <time>2014-09-07T10:17:57.000Z</time>
      </trkpt>
      <trkpt lat="47.36185" lon="-1.44906">
        <ele>79</ele>
        <time>2014-09-07T10:17:59.000Z</time>
      </trkpt>
      <trkpt lat="47.36183" lon="-1.44886">
        <ele>80</ele>
        <time>2014-09-07T10:18:03.000Z</time>
      </trkpt>
      <trkpt lat="47.3618" lon="-1.44856">
        <ele>81</ele>
        <time>2014-09-07T10:18:09.000Z</time>
      </trkpt>
      <trkpt lat="47.36176" lon="-1.44826">
        <ele>82</ele>
        <time>2014-09-07T10:18:15.000Z</time>
      </trkpt>
      <trkpt lat="47.36172" lon="-1.44797">
        <ele>82</ele>
        <time>2014-09-07T10:18:21.000Z</time>
      </trkpt>
      <trkpt lat="47.36174" lon="-1.44788">
        <ele>83</ele>
        <time>2014-09-07T10:18:23.000Z</time>
      </trkpt>
      <trkpt lat="47.36179" lon="-1.44782">
        <ele>83</ele>
        <time>2014-09-07T10:18:25.000Z</time>
      </trkpt>
      <trkpt lat="47.36186" lon="-1.44773">
        <ele>83</ele>
        <time>2014-09-07T10:18:27.000Z</time>
      </trkpt>
      <trkpt lat="47.36186" lon="-1.4476">
        <ele>83</ele>
        <time>2014-09-07T10:18:29.000Z</time>
      </trkpt>
      <trkpt lat="47.36183" lon="-1.44734">
        <ele>83</ele>
        <time>2014-09-07T10:18:33.000Z</time>
      </trkpt>
      <trkpt lat="47.36175" lon="-1.44712">
        <ele>84</ele>
        <time>2014-09-07T10:18:37.000Z</time>
      </trkpt>
      <trkpt lat="47.36172" lon="-1.44703">
        <ele>84</ele>
        <time>2014-09-07T10:18:39.000Z</time>
      </trkpt>
      <trkpt lat="47.3617" lon="-1.44682">
        <ele>85</ele>
        <time>2014-09-07T10:18:43.000Z</time>
      </trkpt>
      <trkpt lat="47.3617" lon="-1.44647">
        <ele>86</ele>
        <time>2014-09-07T10:18:49.000Z</time>
      </trkpt>
      <trkpt lat="47.36167" lon="-1.4462">
        <ele>86</ele>
        <time>2014-09-07T10:18:53.000Z</time>
      </trkpt>
      <trkpt lat="47.36165" lon="-1.44589">
        <ele>86</ele>
        <time>2014-09-07T10:18:57.000Z</time>
      </trkpt>
      <trkpt lat="47.3616" lon="-1.44516">
        <ele>86</ele>
        <time>2014-09-07T10:19:07.000Z</time>
      </trkpt>
      <trkpt lat="47.36158" lon="-1.44504">
        <ele>86</ele>
        <time>2014-09-07T10:19:09.000Z</time>
      </trkpt>
      <trkpt lat="47.36163" lon="-1.44496">
        <ele>85</ele>
        <time>2014-09-07T10:19:12.000Z</time>
      </trkpt>
      <trkpt lat="47.36185" lon="-1.44494">
        <ele>85</ele>
        <time>2014-09-07T10:19:15.000Z</time>
      </trkpt>
      <trkpt lat="47.36197" lon="-1.44492">
        <ele>84</ele>
        <time>2014-09-07T10:19:17.000Z</time>
      </trkpt>
      <trkpt lat="47.36211" lon="-1.4449">
        <ele>83</ele>
        <time>2014-09-07T10:19:19.000Z</time>
      </trkpt>
      <trkpt lat="47.36226" lon="-1.44488">
        <ele>82</ele>
        <time>2014-09-07T10:19:21.000Z</time>
      </trkpt>
      <trkpt lat="47.36242" lon="-1.44487">
        <ele>83</ele>
        <time>2014-09-07T10:19:23.000Z</time>
      </trkpt>
      <trkpt lat="47.36258" lon="-1.44485">
        <ele>82</ele>
        <time>2014-09-07T10:19:25.000Z</time>
      </trkpt>
      <trkpt lat="47.3629" lon="-1.44482">
        <ele>81</ele>
        <time>2014-09-07T10:19:29.000Z</time>
      </trkpt>
      <trkpt lat="47.36306" lon="-1.4448">
        <ele>78</ele>
        <time>2014-09-07T10:19:31.000Z</time>
      </trkpt>
      <trkpt lat="47.36323" lon="-1.44478">
        <ele>77</ele>
        <time>2014-09-07T10:19:33.000Z</time>
      </trkpt>
      <trkpt lat="47.36357" lon="-1.44475">
        <ele>76</ele>
        <time>2014-09-07T10:19:37.000Z</time>
      </trkpt>
      <trkpt lat="47.36372" lon="-1.44473">
        <ele>75</ele>
        <time>2014-09-07T10:19:39.000Z</time>
      </trkpt>
      <trkpt lat="47.36388" lon="-1.44474">
        <ele>76</ele>
        <time>2014-09-07T10:19:41.000Z</time>
      </trkpt>
      <trkpt lat="47.36402" lon="-1.44483">
        <ele>76</ele>
        <time>2014-09-07T10:19:43.000Z</time>
      </trkpt>
      <trkpt lat="47.36412" lon="-1.44499">
        <ele>76</ele>
        <time>2014-09-07T10:19:45.000Z</time>
      </trkpt>
      <trkpt lat="47.36421" lon="-1.44515">
        <ele>75</ele>
        <time>2014-09-07T10:19:47.000Z</time>
      </trkpt>
      <trkpt lat="47.36441" lon="-1.44543">
        <ele>74</ele>
        <time>2014-09-07T10:19:51.000Z</time>
      </trkpt>
      <trkpt lat="47.36459" lon="-1.4457">
        <ele>73</ele>
        <time>2014-09-07T10:19:55.000Z</time>
      </trkpt>
      <trkpt lat="47.36467" lon="-1.44581">
        <ele>73</ele>
        <time>2014-09-07T10:19:57.000Z</time>
      </trkpt>
      <trkpt lat="47.36474" lon="-1.44584">
        <ele>73</ele>
        <time>2014-09-07T10:19:59.000Z</time>
      </trkpt>
      <trkpt lat="47.36478" lon="-1.44575">
        <ele>73</ele>
        <time>2014-09-07T10:20:01.000Z</time>
      </trkpt>
      <trkpt lat="47.36479" lon="-1.44559">
        <ele>73</ele>
        <time>2014-09-07T10:20:03.000Z</time>
      </trkpt>
      <trkpt lat="47.3648" lon="-1.44544">
        <ele>73</ele>
        <time>2014-09-07T10:20:05.000Z</time>
      </trkpt>
      <trkpt lat="47.36481" lon="-1.44528">
        <ele>73</ele>
        <time>2014-09-07T10:20:07.000Z</time>
      </trkpt>
      <trkpt lat="47.3648" lon="-1.44497">
        <ele>73</ele>
        <time>2014-09-07T10:20:11.000Z</time>
      </trkpt>
      <trkpt lat="47.36478" lon="-1.44481">
        <ele>74</ele>
        <time>2014-09-07T10:20:13.000Z</time>
      </trkpt>
      <trkpt lat="47.36476" lon="-1.44465">
        <ele>74</ele>
        <time>2014-09-07T10:20:15.000Z</time>
      </trkpt>
      <trkpt lat="47.36475" lon="-1.4443">
        <ele>73</ele>
        <time>2014-09-07T10:20:19.000Z</time>
      </trkpt>
      <trkpt lat="47.36481" lon="-1.44381">
        <ele>73</ele>
        <time>2014-09-07T10:20:25.000Z</time>
      </trkpt>
      <trkpt lat="47.36484" lon="-1.44355">
        <ele>74</ele>
        <time>2014-09-07T10:20:29.000Z</time>
      </trkpt>
      <trkpt lat="47.36486" lon="-1.44343">
        <ele>75</ele>
        <time>2014-09-07T10:20:31.000Z</time>
      </trkpt>
      <trkpt lat="47.36486" lon="-1.44334">
        <ele>74</ele>
        <time>2014-09-07T10:20:33.000Z</time>
      </trkpt>
      <trkpt lat="47.36489" lon="-1.44312">
        <ele>73</ele>
        <time>2014-09-07T10:20:37.000Z</time>
      </trkpt>
      <trkpt lat="47.36493" lon="-1.44303">
        <ele>73</ele>
        <time>2014-09-07T10:20:39.000Z</time>
      </trkpt>
      <trkpt lat="47.365" lon="-1.44296">
        <ele>74</ele>
        <time>2014-09-07T10:20:41.000Z</time>
      </trkpt>
      <trkpt lat="47.36516" lon="-1.44279">
        <ele>75</ele>
        <time>2014-09-07T10:20:45.000Z</time>
      </trkpt>
      <trkpt lat="47.36531" lon="-1.44267">
        <ele>76</ele>
        <time>2014-09-07T10:20:49.000Z</time>
      </trkpt>
      <trkpt lat="47.36541" lon="-1.44258">
        <ele>77</ele>
        <time>2014-09-07T10:20:53.000Z</time>
      </trkpt>
      <trkpt lat="47.36547" lon="-1.44252">
        <ele>78</ele>
        <time>2014-09-07T10:20:55.000Z</time>
      </trkpt>
      <trkpt lat="47.36552" lon="-1.44248">
        <ele>79</ele>
        <time>2014-09-07T10:20:57.000Z</time>
      </trkpt>
      <trkpt lat="47.36576" lon="-1.4423">
        <ele>80</ele>
        <time>2014-09-07T10:21:05.000Z</time>
      </trkpt>
      <trkpt lat="47.36583" lon="-1.44226">
        <ele>80</ele>
        <time>2014-09-07T10:21:07.000Z</time>
      </trkpt>
      <trkpt lat="47.3659" lon="-1.44222">
        <ele>81</ele>
        <time>2014-09-07T10:21:09.000Z</time>
      </trkpt>
      <trkpt lat="47.36597" lon="-1.44219">
        <ele>82</ele>
        <time>2014-09-07T10:21:11.000Z</time>
      </trkpt>
      <trkpt lat="47.36613" lon="-1.44211">
        <ele>83</ele>
        <time>2014-09-07T10:21:15.000Z</time>
      </trkpt>
      <trkpt lat="47.36621" lon="-1.44207">
        <ele>83</ele>
        <time>2014-09-07T10:21:17.000Z</time>
      </trkpt>
      <trkpt lat="47.36627" lon="-1.442">
        <ele>83</ele>
        <time>2014-09-07T10:21:19.000Z</time>
      </trkpt>
      <trkpt lat="47.36626" lon="-1.44189">
        <ele>83</ele>
        <time>2014-09-07T10:21:21.000Z</time>
      </trkpt>
      <trkpt lat="47.36621" lon="-1.44147">
        <ele>84</ele>
        <time>2014-09-07T10:21:29.000Z</time>
      </trkpt>
      <trkpt lat="47.36617" lon="-1.44123">
        <ele>83</ele>
        <time>2014-09-07T10:21:33.000Z</time>
      </trkpt>
      <trkpt lat="47.36614" lon="-1.44113">
        <ele>84</ele>
        <time>2014-09-07T10:21:35.000Z</time>
      </trkpt>
      <trkpt lat="47.36609" lon="-1.44078">
        <ele>85</ele>
        <time>2014-09-07T10:21:41.000Z</time>
      </trkpt>
      <trkpt lat="47.36599" lon="-1.44036">
        <ele>85</ele>
        <time>2014-09-07T10:21:49.000Z</time>
      </trkpt>
      <trkpt lat="47.3659" lon="-1.44006">
        <ele>86</ele>
        <time>2014-09-07T10:21:55.000Z</time>
      </trkpt>
      <trkpt lat="47.36583" lon="-1.43979">
        <ele>86</ele>
        <time>2014-09-07T10:22:01.000Z</time>
      </trkpt>
      <trkpt lat="47.3658" lon="-1.43972">
        <ele>87</ele>
        <time>2014-09-07T10:22:03.000Z</time>
      </trkpt>
      <trkpt lat="47.36578" lon="-1.43964">
        <ele>88</ele>
        <time>2014-09-07T10:22:05.000Z</time>
      </trkpt>
      <trkpt lat="47.3657" lon="-1.43935">
        <ele>89</ele>
        <time>2014-09-07T10:22:13.000Z</time>
      </trkpt>
      <trkpt lat="47.36567" lon="-1.4392">
        <ele>90</ele>
        <time>2014-09-07T10:22:17.000Z</time>
      </trkpt>
      <trkpt lat="47.36557" lon="-1.43882">
        <ele>91</ele>
        <time>2014-09-07T10:22:27.000Z</time>
      </trkpt>
      <trkpt lat="47.36554" lon="-1.43867">
        <ele>92</ele>
        <time>2014-09-07T10:22:31.000Z</time>
      </trkpt>
      <trkpt lat="47.36552" lon="-1.4386">
        <ele>92</ele>
        <time>2014-09-07T10:22:33.000Z</time>
      </trkpt>
      <trkpt lat="47.3655" lon="-1.43853">
        <ele>93</ele>
        <time>2014-09-07T10:22:35.000Z</time>
      </trkpt>
      <trkpt lat="47.36545" lon="-1.43831">
        <ele>94</ele>
        <time>2014-09-07T10:22:41.000Z</time>
      </trkpt>
      <trkpt lat="47.36542" lon="-1.43817">
        <ele>95</ele>
        <time>2014-09-07T10:22:45.000Z</time>
      </trkpt>
      <trkpt lat="47.36538" lon="-1.43803">
        <ele>96</ele>
        <time>2014-09-07T10:22:49.000Z</time>
      </trkpt>
      <trkpt lat="47.36537" lon="-1.43796">
        <ele>97</ele>
        <time>2014-09-07T10:22:51.000Z</time>
      </trkpt>
      <trkpt lat="47.36533" lon="-1.43782">
        <ele>98</ele>
        <time>2014-09-07T10:22:55.000Z</time>
      </trkpt>
      <trkpt lat="47.36528" lon="-1.43761">
        <ele>99</ele>
        <time>2014-09-07T10:23:01.000Z</time>
      </trkpt>
      <trkpt lat="47.36523" lon="-1.43743">
        <ele>100</ele>
        <time>2014-09-07T10:23:07.000Z</time>
      </trkpt>
      <trkpt lat="47.36517" lon="-1.43716">
        <ele>101</ele>
        <time>2014-09-07T10:23:15.000Z</time>
      </trkpt>
      <trkpt lat="47.36513" lon="-1.43695">
        <ele>102</ele>
        <time>2014-09-07T10:23:21.000Z</time>
      </trkpt>
      <trkpt lat="47.36503" lon="-1.43657">
        <ele>103</ele>
        <time>2014-09-07T10:23:31.000Z</time>
      </trkpt>
      <trkpt lat="47.36502" lon="-1.43649">
        <ele>104</ele>
        <time>2014-09-07T10:23:33.000Z</time>
      </trkpt>
      <trkpt lat="47.36493" lon="-1.43608">
        <ele>105</ele>
        <time>2014-09-07T10:23:43.000Z</time>
      </trkpt>
      <trkpt lat="47.36486" lon="-1.43536">
        <ele>105</ele>
        <time>2014-09-07T10:23:55.000Z</time>
      </trkpt>
      <trkpt lat="47.36485" lon="-1.43522">
        <ele>106</ele>
        <time>2014-09-07T10:23:57.000Z</time>
      </trkpt>
      <trkpt lat="47.36482" lon="-1.43462">
        <ele>105</ele>
        <time>2014-09-07T10:24:05.000Z</time>
      </trkpt>
      <trkpt lat="47.3648" lon="-1.43431">
        <ele>106</ele>
        <time>2014-09-07T10:24:09.000Z</time>
      </trkpt>
      <trkpt lat="47.36479" lon="-1.43414">
        <ele>105</ele>
        <time>2014-09-07T10:24:11.000Z</time>
      </trkpt>
      <trkpt lat="47.36478" lon="-1.43398">
        <ele>106</ele>
        <time>2014-09-07T10:24:13.000Z</time>
      </trkpt>
      <trkpt lat="47.36477" lon="-1.43381">
        <ele>105</ele>
        <time>2014-09-07T10:24:15.000Z</time>
      </trkpt>
      <trkpt lat="47.36473" lon="-1.43318">
        <ele>104</ele>
        <time>2014-09-07T10:24:23.000Z</time>
      </trkpt>
      <trkpt lat="47.36471" lon="-1.43288">
        <ele>104</ele>
        <time>2014-09-07T10:24:27.000Z</time>
      </trkpt>
      <trkpt lat="47.36468" lon="-1.43276">
        <ele>104</ele>
        <time>2014-09-07T10:24:29.000Z</time>
      </trkpt>
      <trkpt lat="47.36463" lon="-1.43265">
        <ele>104</ele>
        <time>2014-09-07T10:24:31.000Z</time>
      </trkpt>
      <trkpt lat="47.36456" lon="-1.43256">
        <ele>105</ele>
        <time>2014-09-07T10:24:33.000Z</time>
      </trkpt>
      <trkpt lat="47.3645" lon="-1.43249">
        <ele>105</ele>
        <time>2014-09-07T10:24:35.000Z</time>
      </trkpt>
      <trkpt lat="47.36443" lon="-1.4324">
        <ele>105</ele>
        <time>2014-09-07T10:24:37.000Z</time>
      </trkpt>
      <trkpt lat="47.36442" lon="-1.4323">
        <ele>105</ele>
        <time>2014-09-07T10:24:39.000Z</time>
      </trkpt>
      <trkpt lat="47.36445" lon="-1.43219">
        <ele>105</ele>
        <time>2014-09-07T10:24:43.000Z</time>
      </trkpt>
      <trkpt lat="47.36448" lon="-1.43213">
        <ele>105</ele>
        <time>2014-09-07T10:24:45.000Z</time>
      </trkpt>
      <trkpt lat="47.36452" lon="-1.43206">
        <ele>104</ele>
        <time>2014-09-07T10:24:47.000Z</time>
      </trkpt>
      <trkpt lat="47.36457" lon="-1.43197">
        <ele>104</ele>
        <time>2014-09-07T10:24:49.000Z</time>
      </trkpt>
      <trkpt lat="47.3646" lon="-1.43189">
        <ele>104</ele>
        <time>2014-09-07T10:24:51.000Z</time>
      </trkpt>
      <trkpt lat="47.3647" lon="-1.43172">
        <ele>103</ele>
        <time>2014-09-07T10:24:55.000Z</time>
      </trkpt>
      <trkpt lat="47.36492" lon="-1.43115">
        <ele>103</ele>
        <time>2014-09-07T10:25:05.000Z</time>
      </trkpt>
      <trkpt lat="47.36491" lon="-1.43102">
        <ele>104</ele>
        <time>2014-09-07T10:25:07.000Z</time>
      </trkpt>
      <trkpt lat="47.36484" lon="-1.43069">
        <ele>105</ele>
        <time>2014-09-07T10:25:13.000Z</time>
      </trkpt>
      <trkpt lat="47.36481" lon="-1.43058">
        <ele>105</ele>
        <time>2014-09-07T10:25:15.000Z</time>
      </trkpt>
      <trkpt lat="47.36476" lon="-1.43038">
        <ele>105</ele>
        <time>2014-09-07T10:25:19.000Z</time>
      </trkpt>
      <trkpt lat="47.36473" lon="-1.43028">
        <ele>106</ele>
        <time>2014-09-07T10:25:21.000Z</time>
      </trkpt>
      <trkpt lat="47.36457" lon="-1.42967">
        <ele>106</ele>
        <time>2014-09-07T10:25:33.000Z</time>
      </trkpt>
      <trkpt lat="47.36457" lon="-1.42957">
        <ele>106</ele>
        <time>2014-09-07T10:25:35.000Z</time>
      </trkpt>
      <trkpt lat="47.36462" lon="-1.42909">
        <ele>107</ele>
        <time>2014-09-07T10:25:43.000Z</time>
      </trkpt>
      <trkpt lat="47.36462" lon="-1.42897">
        <ele>106</ele>
        <time>2014-09-07T10:25:45.000Z</time>
      </trkpt>
      <trkpt lat="47.36464" lon="-1.42885">
        <ele>107</ele>
        <time>2014-09-07T10:25:47.000Z</time>
      </trkpt>
      <trkpt lat="47.36464" lon="-1.42874">
        <ele>106</ele>
        <time>2014-09-07T10:25:49.000Z</time>
      </trkpt>
      <trkpt lat="47.36469" lon="-1.42823">
        <ele>107</ele>
        <time>2014-09-07T10:25:57.000Z</time>
      </trkpt>
      <trkpt lat="47.36472" lon="-1.4275">
        <ele>107</ele>
        <time>2014-09-07T10:26:09.000Z</time>
      </trkpt>
      <trkpt lat="47.36471" lon="-1.42741">
        <ele>107</ele>
        <time>2014-09-07T10:26:11.000Z</time>
      </trkpt>
      <trkpt lat="47.36473" lon="-1.4273">
        <ele>106</ele>
        <time>2014-09-07T10:26:13.000Z</time>
      </trkpt>
      <trkpt lat="47.36477" lon="-1.4271">
        <ele>106</ele>
        <time>2014-09-07T10:26:17.000Z</time>
      </trkpt>
      <trkpt lat="47.36477" lon="-1.42703">
        <ele>107</ele>
        <time>2014-09-07T10:26:19.000Z</time>
      </trkpt>
      <trkpt lat="47.36476" lon="-1.42702">
        <ele>107</ele>
        <time>2014-09-07T10:26:21.000Z</time>
      </trkpt>
      <trkpt lat="47.36475" lon="-1.42702">
        <ele>107</ele>
        <time>2014-09-07T10:26:23.000Z</time>
      </trkpt>
      <trkpt lat="47.36473" lon="-1.42702">
        <ele>108</ele>
        <time>2014-09-07T10:26:25.000Z</time>
      </trkpt>
      <trkpt lat="47.36472" lon="-1.42703">
        <ele>108</ele>
        <time>2014-09-07T10:26:27.000Z</time>
      </trkpt>
      <trkpt lat="47.3647" lon="-1.42703">
        <ele>109</ele>
        <time>2014-09-07T10:26:33.000Z</time>
      </trkpt>
      <trkpt lat="47.3647" lon="-1.42703">
        <ele>109</ele>
        <time>2014-09-07T10:26:35.000Z</time>
      </trkpt>
      <trkpt lat="47.36471" lon="-1.42703">
        <ele>109</ele>
        <time>2014-09-07T10:26:37.000Z</time>
      </trkpt>
      <trkpt lat="47.36473" lon="-1.42704">
        <ele>110</ele>
        <time>2014-09-07T10:26:39.000Z</time>
      </trkpt>
      <trkpt lat="47.36475" lon="-1.42705">
        <ele>110</ele>
        <time>2014-09-07T10:26:41.000Z</time>
      </trkpt>
      <trkpt lat="47.36475" lon="-1.42706">
        <ele>110</ele>
        <time>2014-09-07T10:26:43.000Z</time>
      </trkpt>
      <trkpt lat="47.36475" lon="-1.42706">
        <ele>110</ele>
        <time>2014-09-07T10:26:47.000Z</time>
      </trkpt>
      <trkpt lat="47.36475" lon="-1.42706">
        <ele>110</ele>
        <time>2014-09-07T10:26:49.000Z</time>
      </trkpt>
      <trkpt lat="47.36475" lon="-1.42706">
        <ele>110</ele>
        <time>2014-09-07T10:26:51.000Z</time>
      </trkpt>
      <trkpt lat="47.36475" lon="-1.42706">
        <ele>110</ele>
        <time>2014-09-07T10:26:53.000Z</time>
      </trkpt>
      <trkpt lat="47.36475" lon="-1.42706">
        <ele>110</ele>
        <time>2014-09-07T10:26:55.000Z</time>
      </trkpt>
      <trkpt lat="47.36475" lon="-1.42706">
        <ele>110</ele>
        <time>2014-09-07T10:26:57.000Z</time>
      </trkpt>
      <trkpt lat="47.36475" lon="-1.42707">
        <ele>109</ele>
        <time>2014-09-07T10:26:59.000Z</time>
      </trkpt>
      <trkpt lat="47.36475" lon="-1.42707">
        <ele>109</ele>
        <time>2014-09-07T10:27:01.000Z</time>
      </trkpt>
      <trkpt lat="47.36475" lon="-1.42707">
        <ele>109</ele>
        <time>2014-09-07T10:27:03.000Z</time>
      </trkpt>
      <trkpt lat="47.36475" lon="-1.42707">
        <ele>109</ele>
        <time>2014-09-07T10:27:05.000Z</time>
      </trkpt>
      <trkpt lat="47.36475" lon="-1.42707">
        <ele>109</ele>
        <time>2014-09-07T10:27:09.000Z</time>
      </trkpt>
      <trkpt lat="47.36475" lon="-1.42707">
        <ele>109</ele>
        <time>2014-09-07T10:27:11.000Z</time>
      </trkpt>
      <trkpt lat="47.36475" lon="-1.42707">
        <ele>109</ele>
        <time>2014-09-07T10:27:13.000Z</time>
      </trkpt>
      <trkpt lat="47.36475" lon="-1.42707">
        <ele>109</ele>
        <time>2014-09-07T10:27:16.000Z</time>
      </trkpt>
      <trkpt lat="47.36476" lon="-1.42708">
        <ele>109</ele>
        <time>2014-09-07T10:27:20.000Z</time>
      </trkpt>
      <trkpt lat="47.36476" lon="-1.42708">
        <ele>109</ele>
        <time>2014-09-07T10:27:22.000Z</time>
      </trkpt>
      <trkpt lat="47.36476" lon="-1.42709">
        <ele>110</ele>
        <time>2014-09-07T10:27:23.000Z</time>
      </trkpt>
      <trkpt lat="47.36477" lon="-1.42709">
        <ele>111</ele>
        <time>2014-09-07T10:27:26.000Z</time>
      </trkpt>
      <trkpt lat="47.36475" lon="-1.42709">
        <ele>111</ele>
        <time>2014-09-07T10:27:27.000Z</time>
      </trkpt>
      <trkpt lat="47.36474" lon="-1.42707">
        <ele>111</ele>
        <time>2014-09-07T10:27:30.000Z</time>
      </trkpt>
      <trkpt lat="47.36472" lon="-1.42703">
        <ele>111</ele>
        <time>2014-09-07T10:27:34.000Z</time>
      </trkpt>
      <trkpt lat="47.36471" lon="-1.42703">
        <ele>111</ele>
        <time>2014-09-07T10:27:36.000Z</time>
      </trkpt>
    </trkseg>
  </trk>
</gpx>